<?xml version='1.0' encoding='UTF-8'?><gpx version="1.1" creator="JPX - https://github.com/jenetics/jpx" xmlns="http://www.topografix.com/GPX/1/1"><trk><trkseg><trkpt lat="41.4237279" lon="12.787441"><ele>0.9999999999999999</ele><time>2026-04-07T07:57:00.266Z</time></trkpt><trkpt lat="41.4236881" lon="12.7875072"><ele>1.0</ele><time>2026-04-07T07:57:10.265Z</time></trkpt><trkpt lat="41.4237142" lon="12.7874209"><ele>1.0</ele><time>2026-04-07T08:00:57.265Z</time></trkpt><trkpt lat="41.4237162" lon="12.7872865"><ele>1.0</ele><time>2026-04-07T08:01:01.266Z</time></trkpt><trkpt lat="41.4236719" lon="12.7872249"><ele>0.9999999999999999</ele><time>2026-04-07T08:03:04.265Z</time></trkpt><trkpt lat="41.4236516" lon="12.78713"><ele>1.0</ele><time>2026-04-07T08:03:20.265Z</time></trkpt><trkpt lat="41.4236832" lon="12.7870147"><ele>1.0</ele><time>2026-04-07T08:03:22.266Z</time></trkpt><trkpt lat="41.42371" lon="12.78688"><ele>1.0</ele><time>2026-04-07T08:03:24.266Z</time></trkpt><trkpt lat="41.4237058" lon="12.7867474"><ele>1.0</ele><time>2026-04-07T08:03:26.265Z</time></trkpt><trkpt lat="41.4236597" lon="12.7866378"><ele>1.0</ele><time>2026-04-07T08:03:28.265Z</time></trkpt><trkpt lat="41.4235703" lon="12.7865514"><ele>1.0</ele><time>2026-04-07T08:03:30.265Z</time></trkpt><trkpt lat="41.42346" lon="12.7865044"><ele>1.6666666666666665</ele><time>2026-04-07T08:03:32.265Z</time></trkpt><trkpt lat="41.4232915" lon="12.7864151"><ele>2.3333333333333335</ele><time>2026-04-07T08:03:35.265Z</time></trkpt><trkpt lat="41.4231745" lon="12.7863188"><ele>3.0</ele><time>2026-04-07T08:03:37.265Z</time></trkpt><trkpt lat="41.4230436" lon="12.7862473"><ele>2.8333333333333335</ele><time>2026-04-07T08:03:39.265Z</time></trkpt><trkpt lat="41.422974" lon="12.7862228"><ele>2.6666666666666665</ele><time>2026-04-07T08:03:40.265Z</time></trkpt><trkpt lat="41.4229041" lon="12.7861969"><ele>2.5</ele><time>2026-04-07T08:03:41.265Z</time></trkpt><trkpt lat="41.4227771" lon="12.7861388"><ele>2.333333333333333</ele><time>2026-04-07T08:03:43.265Z</time></trkpt><trkpt lat="41.4227108" lon="12.7861123"><ele>2.1666666666666665</ele><time>2026-04-07T08:03:44.265Z</time></trkpt><trkpt lat="41.4226332" lon="12.7860804"><ele>2.0</ele><time>2026-04-07T08:03:45.265Z</time></trkpt><trkpt lat="41.4225659" lon="12.7860655"><ele>2.0</ele><time>2026-04-07T08:03:46.265Z</time></trkpt><trkpt lat="41.4224904" lon="12.7860502"><ele>2.0</ele><time>2026-04-07T08:03:47.265Z</time></trkpt><trkpt lat="41.4224202" lon="12.7860329"><ele>2.0</ele><time>2026-04-07T08:03:48.265Z</time></trkpt><trkpt lat="41.4222792" lon="12.785979"><ele>2.0</ele><time>2026-04-07T08:03:50.265Z</time></trkpt><trkpt lat="41.4221565" lon="12.7859465"><ele>2.0</ele><time>2026-04-07T08:03:52.265Z</time></trkpt><trkpt lat="41.4220203" lon="12.7859216"><ele>2.0</ele><time>2026-04-07T08:03:54.265Z</time></trkpt><trkpt lat="41.4219529" lon="12.7859009"><ele>2.0</ele><time>2026-04-07T08:03:55.265Z</time></trkpt><trkpt lat="41.4218861" lon="12.7858876"><ele>2.0</ele><time>2026-04-07T08:03:56.265Z</time></trkpt><trkpt lat="41.4217683" lon="12.7858403"><ele>2.0</ele><time>2026-04-07T08:03:58.266Z</time></trkpt><trkpt lat="41.4216646" lon="12.7858218"><ele>2.0</ele><time>2026-04-07T08:04:00.265Z</time></trkpt><trkpt lat="41.421548" lon="12.7857797"><ele>2.0</ele><time>2026-04-07T08:04:02.265Z</time></trkpt><trkpt lat="41.421451" lon="12.7857378"><ele>2.0</ele><time>2026-04-07T08:04:04.265Z</time></trkpt><trkpt lat="41.4213495" lon="12.785709"><ele>2.0</ele><time>2026-04-07T08:04:06.265Z</time></trkpt><trkpt lat="41.4212482" lon="12.7856869"><ele>2.0</ele><time>2026-04-07T08:04:08.265Z</time></trkpt><trkpt lat="41.4211605" lon="12.7856638"><ele>2.0</ele><time>2026-04-07T08:04:10.265Z</time></trkpt><trkpt lat="41.4210881" lon="12.7856457"><ele>1.8</ele><time>2026-04-07T08:04:12.265Z</time></trkpt><trkpt lat="41.4210043" lon="12.785589"><ele>1.6</ele><time>2026-04-07T08:04:15.265Z</time></trkpt><trkpt lat="41.4209454" lon="12.785547"><ele>1.4000000000000001</ele><time>2026-04-07T08:04:18.265Z</time></trkpt><trkpt lat="41.4210432" lon="12.7856051"><ele>1.2000000000000002</ele><time>2026-04-07T08:04:43.265Z</time></trkpt><trkpt lat="41.4211399" lon="12.7856221"><ele>1.0</ele><time>2026-04-07T08:04:45.265Z</time></trkpt><trkpt lat="41.4212447" lon="12.7856155"><ele>1.0</ele><time>2026-04-07T08:04:47.265Z</time></trkpt><trkpt lat="41.4213099" lon="12.7856416"><ele>1.0</ele><time>2026-04-07T08:04:49.265Z</time></trkpt><trkpt lat="41.4212921" lon="12.7857993"><ele>1.0</ele><time>2026-04-07T08:04:51.265Z</time></trkpt><trkpt lat="41.4212537" lon="12.7860563"><ele>1.0</ele><time>2026-04-07T08:04:54.265Z</time></trkpt><trkpt lat="41.4212178" lon="12.7862179"><ele>1.1666666666666665</ele><time>2026-04-07T08:04:56.266Z</time></trkpt><trkpt lat="41.4212114" lon="12.7863298"><ele>1.3333333333333333</ele><time>2026-04-07T08:04:58.265Z</time></trkpt><trkpt lat="41.4211865" lon="12.7864072"><ele>1.5</ele><time>2026-04-07T08:05:02.265Z</time></trkpt><trkpt lat="41.4211194" lon="12.7864285"><ele>1.6666666666666665</ele><time>2026-04-07T08:08:01.266Z</time></trkpt><trkpt lat="41.421064" lon="12.7863687"><ele>1.8333333333333333</ele><time>2026-04-07T08:10:56.266Z</time></trkpt><trkpt lat="41.4209652" lon="12.7863146"><ele>2.0</ele><time>2026-04-07T08:10:58.265Z</time></trkpt><trkpt lat="41.4208595" lon="12.7862885"><ele>2.0</ele><time>2026-04-07T08:11:00.266Z</time></trkpt><trkpt lat="41.420749" lon="12.7862644"><ele>2.0</ele><time>2026-04-07T08:11:02.265Z</time></trkpt><trkpt lat="41.4206341" lon="12.786213"><ele>2.0</ele><time>2026-04-07T08:11:04.266Z</time></trkpt><trkpt lat="41.4204783" lon="12.786166"><ele>2.0</ele><time>2026-04-07T08:11:07.265Z</time></trkpt><trkpt lat="41.4203703" lon="12.7861531"><ele>1.6666666666666665</ele><time>2026-04-07T08:11:09.265Z</time></trkpt><trkpt lat="41.4202832" lon="12.786117"><ele>1.3333333333333333</ele><time>2026-04-07T08:11:11.265Z</time></trkpt><trkpt lat="41.4202093" lon="12.7860726"><ele>1.0</ele><time>2026-04-07T08:11:14.265Z</time></trkpt><trkpt lat="41.4201446" lon="12.786044"><ele>0.6666666666666666</ele><time>2026-04-07T08:11:19.266Z</time></trkpt><trkpt lat="41.4200791" lon="12.7860357"><ele>0.3333333333333333</ele><time>2026-04-07T08:11:31.265Z</time></trkpt><trkpt lat="41.4199842" lon="12.7861594"><ele>0.0</ele><time>2026-04-07T08:11:43.266Z</time></trkpt><trkpt lat="41.4199609" lon="12.7862552"><ele>0.0</ele><time>2026-04-07T08:11:44.265Z</time></trkpt><trkpt lat="41.4199294" lon="12.7863603"><ele>0.0</ele><time>2026-04-07T08:11:45.265Z</time></trkpt><trkpt lat="41.4199146" lon="12.7865"><ele>0.0</ele><time>2026-04-07T08:11:46.265Z</time></trkpt><trkpt lat="41.4199023" lon="12.7866315"><ele>0.0</ele><time>2026-04-07T08:11:47.265Z</time></trkpt><trkpt lat="41.4198723" lon="12.7868953"><ele>0.0</ele><time>2026-04-07T08:11:49.265Z</time></trkpt><trkpt lat="41.41984" lon="12.7871396"><ele>0.0</ele><time>2026-04-07T08:11:51.265Z</time></trkpt><trkpt lat="41.4198195" lon="12.7874344"><ele>0.0</ele><time>2026-04-07T08:11:53.265Z</time></trkpt><trkpt lat="41.4198046" lon="12.7877119"><ele>0.5</ele><time>2026-04-07T08:11:55.266Z</time></trkpt><trkpt lat="41.4197784" lon="12.7880233"><ele>1.0</ele><time>2026-04-07T08:11:57.266Z</time></trkpt><trkpt lat="41.4197579" lon="12.7883974"><ele>1.0</ele><time>2026-04-07T08:11:59.265Z</time></trkpt><trkpt lat="41.4197255" lon="12.7887572"><ele>1.0</ele><time>2026-04-07T08:12:01.266Z</time></trkpt><trkpt lat="41.4197013" lon="12.7891372"><ele>1.0</ele><time>2026-04-07T08:12:03.265Z</time></trkpt><trkpt lat="41.4196811" lon="12.7893063"><ele>1.0</ele><time>2026-04-07T08:12:04.265Z</time></trkpt><trkpt lat="41.419664" lon="12.7894737"><ele>1.0</ele><time>2026-04-07T08:12:05.265Z</time></trkpt><trkpt lat="41.4196598" lon="12.7898174"><ele>1.0</ele><time>2026-04-07T08:12:07.265Z</time></trkpt><trkpt lat="41.4196408" lon="12.7899915"><ele>1.0</ele><time>2026-04-07T08:12:08.265Z</time></trkpt><trkpt lat="41.4196338" lon="12.7901682"><ele>1.0</ele><time>2026-04-07T08:12:09.265Z</time></trkpt><trkpt lat="41.4196102" lon="12.7905382"><ele>1.0</ele><time>2026-04-07T08:12:11.265Z</time></trkpt><trkpt lat="41.4195831" lon="12.7907303"><ele>1.0</ele><time>2026-04-07T08:12:12.266Z</time></trkpt><trkpt lat="41.4195531" lon="12.7909167"><ele>1.0</ele><time>2026-04-07T08:12:13.266Z</time></trkpt><trkpt lat="41.4195254" lon="12.7911167"><ele>1.0</ele><time>2026-04-07T08:12:14.265Z</time></trkpt><trkpt lat="41.4194972" lon="12.7913225"><ele>1.0</ele><time>2026-04-07T08:12:15.265Z</time></trkpt><trkpt lat="41.4194418" lon="12.791722"><ele>1.0</ele><time>2026-04-07T08:12:17.266Z</time></trkpt><trkpt lat="41.4193927" lon="12.7921151"><ele>1.0</ele><time>2026-04-07T08:12:19.266Z</time></trkpt><trkpt lat="41.41932" lon="12.7925368"><ele>1.0</ele><time>2026-04-07T08:12:21.265Z</time></trkpt><trkpt lat="41.4192481" lon="12.7930254"><ele>1.0</ele><time>2026-04-07T08:12:23.266Z</time></trkpt><trkpt lat="41.4192034" lon="12.7933252"><ele>1.0</ele><time>2026-04-07T08:12:24.265Z</time></trkpt><trkpt lat="41.4191492" lon="12.7936316"><ele>3.0</ele><time>2026-04-07T08:12:25.265Z</time></trkpt><trkpt lat="41.419022" lon="12.7942753"><ele>1.5</ele><time>2026-04-07T08:12:27.265Z</time></trkpt><trkpt lat="41.4189525" lon="12.7945847"><ele>0.0</ele><time>2026-04-07T08:12:28.266Z</time></trkpt><trkpt lat="41.4188898" lon="12.7948838"><ele>1.0</ele><time>2026-04-07T08:12:29.265Z</time></trkpt><trkpt lat="41.4187597" lon="12.7954478"><ele>2.0</ele><time>2026-04-07T08:12:31.266Z</time></trkpt><trkpt lat="41.4186302" lon="12.7959999"><ele>1.6666666666666665</ele><time>2026-04-07T08:12:33.266Z</time></trkpt><trkpt lat="41.4185633" lon="12.7962751"><ele>1.3333333333333333</ele><time>2026-04-07T08:12:34.266Z</time></trkpt><trkpt lat="41.4185019" lon="12.7965428"><ele>1.0</ele><time>2026-04-07T08:12:35.265Z</time></trkpt><trkpt lat="41.4184473" lon="12.7968279"><ele>1.0</ele><time>2026-04-07T08:12:36.265Z</time></trkpt><trkpt lat="41.4183787" lon="12.7971016"><ele>1.0</ele><time>2026-04-07T08:12:37.265Z</time></trkpt><trkpt lat="41.4182431" lon="12.7976851"><ele>1.0</ele><time>2026-04-07T08:12:39.265Z</time></trkpt><trkpt lat="41.4181144" lon="12.7982189"><ele>1.0</ele><time>2026-04-07T08:12:41.265Z</time></trkpt><trkpt lat="41.4179957" lon="12.7987208"><ele>1.0</ele><time>2026-04-07T08:12:43.266Z</time></trkpt><trkpt lat="41.4178847" lon="12.7992025"><ele>1.0</ele><time>2026-04-07T08:12:45.265Z</time></trkpt><trkpt lat="41.4178362" lon="12.7994331"><ele>1.0</ele><time>2026-04-07T08:12:46.265Z</time></trkpt><trkpt lat="41.4178045" lon="12.7996569"><ele>1.0</ele><time>2026-04-07T08:12:47.265Z</time></trkpt><trkpt lat="41.4177862" lon="12.7998949"><ele>1.0</ele><time>2026-04-07T08:12:48.266Z</time></trkpt><trkpt lat="41.4177662" lon="12.8001265"><ele>1.5</ele><time>2026-04-07T08:12:49.265Z</time></trkpt><trkpt lat="41.4177429" lon="12.8005691"><ele>2.0</ele><time>2026-04-07T08:12:51.265Z</time></trkpt><trkpt lat="41.4177189" lon="12.8009853"><ele>1.5</ele><time>2026-04-07T08:12:53.265Z</time></trkpt><trkpt lat="41.4176941" lon="12.8013705"><ele>1.0</ele><time>2026-04-07T08:12:55.265Z</time></trkpt><trkpt lat="41.4176384" lon="12.8016856"><ele>1.0</ele><time>2026-04-07T08:12:57.265Z</time></trkpt><trkpt lat="41.4175898" lon="12.8018227"><ele>1.0</ele><time>2026-04-07T08:12:58.265Z</time></trkpt><trkpt lat="41.417528" lon="12.8019428"><ele>1.0</ele><time>2026-04-07T08:12:59.266Z</time></trkpt><trkpt lat="41.4174531" lon="12.8020457"><ele>1.0</ele><time>2026-04-07T08:13:00.265Z</time></trkpt><trkpt lat="41.4173724" lon="12.8021329"><ele>1.0</ele><time>2026-04-07T08:13:01.265Z</time></trkpt><trkpt lat="41.4171145" lon="12.8023896"><ele>1.0</ele><time>2026-04-07T08:13:03.265Z</time></trkpt><trkpt lat="41.4170027" lon="12.8025455"><ele>1.0</ele><time>2026-04-07T08:13:04.265Z</time></trkpt><trkpt lat="41.4169153" lon="12.8027322"><ele>1.0</ele><time>2026-04-07T08:13:05.265Z</time></trkpt><trkpt lat="41.4168204" lon="12.8029239"><ele>1.0</ele><time>2026-04-07T08:13:06.265Z</time></trkpt><trkpt lat="41.4167692" lon="12.8031458"><ele>1.0</ele><time>2026-04-07T08:13:07.266Z</time></trkpt><trkpt lat="41.4167123" lon="12.8033419"><ele>1.0</ele><time>2026-04-07T08:13:08.265Z</time></trkpt><trkpt lat="41.4166007" lon="12.803729"><ele>0.5</ele><time>2026-04-07T08:13:10.265Z</time></trkpt><trkpt lat="41.4164833" lon="12.8041537"><ele>0.0</ele><time>2026-04-07T08:13:12.265Z</time></trkpt><trkpt lat="41.416429" lon="12.8043783"><ele>0.0</ele><time>2026-04-07T08:13:13.265Z</time></trkpt><trkpt lat="41.416367" lon="12.8045983"><ele>0.0</ele><time>2026-04-07T08:13:14.266Z</time></trkpt><trkpt lat="41.4162993" lon="12.8048334"><ele>0.0</ele><time>2026-04-07T08:13:15.265Z</time></trkpt><trkpt lat="41.4161796" lon="12.8052881"><ele>0.3333333333333333</ele><time>2026-04-07T08:13:17.265Z</time></trkpt><trkpt lat="41.4161111" lon="12.8054969"><ele>0.6666666666666666</ele><time>2026-04-07T08:13:18.266Z</time></trkpt><trkpt lat="41.4160559" lon="12.8056907"><ele>1.0</ele><time>2026-04-07T08:13:19.265Z</time></trkpt><trkpt lat="41.4160031" lon="12.8058924"><ele>1.3333333333333333</ele><time>2026-04-07T08:13:20.266Z</time></trkpt><trkpt lat="41.4159424" lon="12.8061137"><ele>1.6666666666666665</ele><time>2026-04-07T08:13:21.266Z</time></trkpt><trkpt lat="41.415873" lon="12.8063335"><ele>2.0</ele><time>2026-04-07T08:13:22.265Z</time></trkpt><trkpt lat="41.4158068" lon="12.8065461"><ele>2.0</ele><time>2026-04-07T08:13:23.265Z</time></trkpt><trkpt lat="41.415761" lon="12.806779"><ele>2.0</ele><time>2026-04-07T08:13:24.265Z</time></trkpt><trkpt lat="41.4157349" lon="12.8070379"><ele>2.0</ele><time>2026-04-07T08:13:25.265Z</time></trkpt><trkpt lat="41.4157065" lon="12.8073182"><ele>2.6666666666666665</ele><time>2026-04-07T08:13:26.265Z</time></trkpt><trkpt lat="41.415686" lon="12.8075952"><ele>3.333333333333333</ele><time>2026-04-07T08:13:27.265Z</time></trkpt><trkpt lat="41.4156757" lon="12.8078622"><ele>4.0</ele><time>2026-04-07T08:13:28.265Z</time></trkpt><trkpt lat="41.4156537" lon="12.808429"><ele>4.0</ele><time>2026-04-07T08:13:30.265Z</time></trkpt><trkpt lat="41.4156328" lon="12.8090205"><ele>4.0</ele><time>2026-04-07T08:13:32.265Z</time></trkpt><trkpt lat="41.4156184" lon="12.8093098"><ele>4.5</ele><time>2026-04-07T08:13:33.265Z</time></trkpt><trkpt lat="41.4155976" lon="12.8096583"><ele>5.0</ele><time>2026-04-07T08:13:34.266Z</time></trkpt><trkpt lat="41.4155728" lon="12.8099597"><ele>5.333333333333334</ele><time>2026-04-07T08:13:35.265Z</time></trkpt><trkpt lat="41.4155611" lon="12.8102489"><ele>5.666666666666667</ele><time>2026-04-07T08:13:36.265Z</time></trkpt><trkpt lat="41.4155545" lon="12.8105234"><ele>6.0</ele><time>2026-04-07T08:13:37.266Z</time></trkpt><trkpt lat="41.4155451" lon="12.8107766"><ele>5.666666666666667</ele><time>2026-04-07T08:13:38.266Z</time></trkpt><trkpt lat="41.4155402" lon="12.8110143"><ele>5.333333333333334</ele><time>2026-04-07T08:13:39.265Z</time></trkpt><trkpt lat="41.4155253" lon="12.8112213"><ele>5.0</ele><time>2026-04-07T08:13:40.265Z</time></trkpt><trkpt lat="41.415526" lon="12.8114269"><ele>5.0</ele><time>2026-04-07T08:13:41.265Z</time></trkpt><trkpt lat="41.415512" lon="12.8115787"><ele>5.0</ele><time>2026-04-07T08:13:42.265Z</time></trkpt><trkpt lat="41.4155161" lon="12.8117404"><ele>5.0</ele><time>2026-04-07T08:13:43.265Z</time></trkpt><trkpt lat="41.4155213" lon="12.811836"><ele>5.0</ele><time>2026-04-07T08:13:44.265Z</time></trkpt><trkpt lat="41.4155408" lon="12.8119286"><ele>5.0</ele><time>2026-04-07T08:13:45.265Z</time></trkpt><trkpt lat="41.4156052" lon="12.811995"><ele>4.5</ele><time>2026-04-07T08:13:47.265Z</time></trkpt><trkpt lat="41.4156787" lon="12.8120149"><ele>4.0</ele><time>2026-04-07T08:13:49.265Z</time></trkpt><trkpt lat="41.4157477" lon="12.8120352"><ele>3.5</ele><time>2026-04-07T08:13:51.265Z</time></trkpt><trkpt lat="41.4158134" lon="12.8120394"><ele>3.0</ele><time>2026-04-07T08:13:53.266Z</time></trkpt><trkpt lat="41.4158919" lon="12.8120191"><ele>2.5</ele><time>2026-04-07T08:13:55.265Z</time></trkpt><trkpt lat="41.4160064" lon="12.8120409"><ele>2.0</ele><time>2026-04-07T08:13:57.265Z</time></trkpt><trkpt lat="41.4161272" lon="12.8120561"><ele>2.0</ele><time>2026-04-07T08:13:59.266Z</time></trkpt><trkpt lat="41.41621" lon="12.8120607"><ele>2.0</ele><time>2026-04-07T08:14:00.265Z</time></trkpt><trkpt lat="41.4163177" lon="12.8120599"><ele>2.0</ele><time>2026-04-07T08:14:01.266Z</time></trkpt><trkpt lat="41.4164283" lon="12.8120644"><ele>2.0</ele><time>2026-04-07T08:14:02.265Z</time></trkpt><trkpt lat="41.4165362" lon="12.8120701"><ele>2.0</ele><time>2026-04-07T08:14:03.265Z</time></trkpt><trkpt lat="41.4166596" lon="12.8120741"><ele>2.0</ele><time>2026-04-07T08:14:04.265Z</time></trkpt><trkpt lat="41.4167885" lon="12.8120796"><ele>2.0</ele><time>2026-04-07T08:14:05.265Z</time></trkpt><trkpt lat="41.4169046" lon="12.812072"><ele>2.0</ele><time>2026-04-07T08:14:06.265Z</time></trkpt><trkpt lat="41.4170247" lon="12.8120751"><ele>2.0</ele><time>2026-04-07T08:14:07.265Z</time></trkpt><trkpt lat="41.4171586" lon="12.8120755"><ele>3.0</ele><time>2026-04-07T08:14:08.265Z</time></trkpt><trkpt lat="41.4174027" lon="12.81209"><ele>4.0</ele><time>2026-04-07T08:14:10.265Z</time></trkpt><trkpt lat="41.4176348" lon="12.8121069"><ele>4.0</ele><time>2026-04-07T08:14:12.265Z</time></trkpt><trkpt lat="41.4178537" lon="12.8121137"><ele>4.0</ele><time>2026-04-07T08:14:14.265Z</time></trkpt><trkpt lat="41.4179583" lon="12.8121184"><ele>4.0</ele><time>2026-04-07T08:14:15.265Z</time></trkpt><trkpt lat="41.418059" lon="12.8121255"><ele>4.0</ele><time>2026-04-07T08:14:16.265Z</time></trkpt><trkpt lat="41.4181675" lon="12.8121318"><ele>4.0</ele><time>2026-04-07T08:14:17.265Z</time></trkpt><trkpt lat="41.418266" lon="12.8121326"><ele>4.0</ele><time>2026-04-07T08:14:18.265Z</time></trkpt><trkpt lat="41.4183555" lon="12.81214"><ele>4.0</ele><time>2026-04-07T08:14:19.265Z</time></trkpt><trkpt lat="41.4185243" lon="12.8121375"><ele>4.0</ele><time>2026-04-07T08:14:21.265Z</time></trkpt><trkpt lat="41.4186384" lon="12.8121424"><ele>4.0</ele><time>2026-04-07T08:14:23.265Z</time></trkpt><trkpt lat="41.4187027" lon="12.8121655"><ele>4.0</ele><time>2026-04-07T08:14:27.265Z</time></trkpt><trkpt lat="41.4187117" lon="12.8122836"><ele>4.0</ele><time>2026-04-07T08:14:29.265Z</time></trkpt><trkpt lat="41.4187388" lon="12.8124076"><ele>4.0</ele><time>2026-04-07T08:14:31.266Z</time></trkpt><trkpt lat="41.418875" lon="12.8124582"><ele>4.0</ele><time>2026-04-07T08:14:38.265Z</time></trkpt><trkpt lat="41.4189648" lon="12.8124827"><ele>4.0</ele><time>2026-04-07T08:14:39.265Z</time></trkpt><trkpt lat="41.4190837" lon="12.81251"><ele>4.0</ele><time>2026-04-07T08:14:40.265Z</time></trkpt><trkpt lat="41.4192305" lon="12.8125334"><ele>4.0</ele><time>2026-04-07T08:14:41.266Z</time></trkpt><trkpt lat="41.4193903" lon="12.812561"><ele>4.0</ele><time>2026-04-07T08:14:42.265Z</time></trkpt><trkpt lat="41.4195554" lon="12.8125763"><ele>4.5</ele><time>2026-04-07T08:14:43.265Z</time></trkpt><trkpt lat="41.4199306" lon="12.8125926"><ele>5.0</ele><time>2026-04-07T08:14:45.265Z</time></trkpt><trkpt lat="41.4202922" lon="12.8125905"><ele>5.0</ele><time>2026-04-07T08:14:47.265Z</time></trkpt><trkpt lat="41.4204711" lon="12.8126003"><ele>5.0</ele><time>2026-04-07T08:14:48.265Z</time></trkpt><trkpt lat="41.4206401" lon="12.8125991"><ele>5.0</ele><time>2026-04-07T08:14:49.265Z</time></trkpt><trkpt lat="41.420799" lon="12.812608"><ele>5.333333333333334</ele><time>2026-04-07T08:14:50.265Z</time></trkpt><trkpt lat="41.4209505" lon="12.8126201"><ele>5.666666666666667</ele><time>2026-04-07T08:14:51.265Z</time></trkpt><trkpt lat="41.4210894" lon="12.8126333"><ele>6.0</ele><time>2026-04-07T08:14:52.266Z</time></trkpt><trkpt lat="41.4213486" lon="12.8126249"><ele>5.5</ele><time>2026-04-07T08:14:54.265Z</time></trkpt><trkpt lat="41.4214673" lon="12.8125857"><ele>5.0</ele><time>2026-04-07T08:14:55.265Z</time></trkpt><trkpt lat="41.4215812" lon="12.8125438"><ele>4.5</ele><time>2026-04-07T08:14:56.265Z</time></trkpt><trkpt lat="41.4216953" lon="12.8125437"><ele>4.0</ele><time>2026-04-07T08:14:57.265Z</time></trkpt><trkpt lat="41.4218074" lon="12.812572"><ele>4.0</ele><time>2026-04-07T08:14:58.266Z</time></trkpt><trkpt lat="41.4219125" lon="12.8125882"><ele>4.0</ele><time>2026-04-07T08:14:59.265Z</time></trkpt><trkpt lat="41.4221308" lon="12.8125873"><ele>4.0</ele><time>2026-04-07T08:15:01.265Z</time></trkpt><trkpt lat="41.4222511" lon="12.8125749"><ele>4.0</ele><time>2026-04-07T08:15:02.265Z</time></trkpt><trkpt lat="41.4223641" lon="12.8125626"><ele>4.0</ele><time>2026-04-07T08:15:03.265Z</time></trkpt><trkpt lat="41.422617" lon="12.8125708"><ele>4.0</ele><time>2026-04-07T08:15:05.265Z</time></trkpt><trkpt lat="41.4227305" lon="12.812587"><ele>4.0</ele><time>2026-04-07T08:15:06.265Z</time></trkpt><trkpt lat="41.4228517" lon="12.812593"><ele>4.0</ele><time>2026-04-07T08:15:07.265Z</time></trkpt><trkpt lat="41.4229667" lon="12.8125946"><ele>4.0</ele><time>2026-04-07T08:15:08.265Z</time></trkpt><trkpt lat="41.4232023" lon="12.8125881"><ele>4.0</ele><time>2026-04-07T08:15:10.265Z</time></trkpt><trkpt lat="41.4233114" lon="12.8125941"><ele>4.0</ele><time>2026-04-07T08:15:11.265Z</time></trkpt><trkpt lat="41.4236389" lon="12.8126256"><ele>4.0</ele><time>2026-04-07T08:15:14.265Z</time></trkpt><trkpt lat="41.4238117" lon="12.8126638"><ele>3.25</ele><time>2026-04-07T08:15:16.265Z</time></trkpt><trkpt lat="41.423887" lon="12.8126696"><ele>2.5</ele><time>2026-04-07T08:15:17.265Z</time></trkpt><trkpt lat="41.4240484" lon="12.8126898"><ele>1.75</ele><time>2026-04-07T08:15:20.266Z</time></trkpt><trkpt lat="41.4241569" lon="12.8126951"><ele>1.0</ele><time>2026-04-07T08:15:22.265Z</time></trkpt><trkpt lat="41.4242708" lon="12.8126963"><ele>1.0</ele><time>2026-04-07T08:15:24.265Z</time></trkpt><trkpt lat="41.424406" lon="12.8126938"><ele>1.0</ele><time>2026-04-07T08:15:26.265Z</time></trkpt><trkpt lat="41.4245763" lon="12.8126765"><ele>1.0</ele><time>2026-04-07T08:15:28.265Z</time></trkpt><trkpt lat="41.4246582" lon="12.8126779"><ele>1.0</ele><time>2026-04-07T08:15:29.265Z</time></trkpt><trkpt lat="41.424744" lon="12.8126816"><ele>1.25</ele><time>2026-04-07T08:15:30.265Z</time></trkpt><trkpt lat="41.4249163" lon="12.8126893"><ele>1.5</ele><time>2026-04-07T08:15:32.265Z</time></trkpt><trkpt lat="41.4250059" lon="12.8126874"><ele>1.75</ele><time>2026-04-07T08:15:33.265Z</time></trkpt><trkpt lat="41.4250924" lon="12.8126912"><ele>2.0</ele><time>2026-04-07T08:15:34.265Z</time></trkpt><trkpt lat="41.4252721" lon="12.812704"><ele>2.0</ele><time>2026-04-07T08:15:36.266Z</time></trkpt><trkpt lat="41.4254491" lon="12.8127195"><ele>2.0</ele><time>2026-04-07T08:15:38.265Z</time></trkpt><trkpt lat="41.4255378" lon="12.8127306"><ele>2.0</ele><time>2026-04-07T08:15:39.265Z</time></trkpt><trkpt lat="41.4256254" lon="12.812742"><ele>2.0</ele><time>2026-04-07T08:15:40.265Z</time></trkpt><trkpt lat="41.4257107" lon="12.8127468"><ele>2.0</ele><time>2026-04-07T08:15:41.265Z</time></trkpt><trkpt lat="41.4257905" lon="12.8127596"><ele>2.0</ele><time>2026-04-07T08:15:42.266Z</time></trkpt><trkpt lat="41.4259621" lon="12.8127852"><ele>2.0</ele><time>2026-04-07T08:15:44.266Z</time></trkpt><trkpt lat="41.4261429" lon="12.8128364"><ele>2.0</ele><time>2026-04-07T08:15:46.265Z</time></trkpt><trkpt lat="41.426333" lon="12.8128864"><ele>2.333333333333333</ele><time>2026-04-07T08:15:48.265Z</time></trkpt><trkpt lat="41.4265277" lon="12.8129409"><ele>2.6666666666666665</ele><time>2026-04-07T08:15:50.265Z</time></trkpt><trkpt lat="41.426711" lon="12.8129931"><ele>3.0</ele><time>2026-04-07T08:15:52.266Z</time></trkpt><trkpt lat="41.4268648" lon="12.813062"><ele>3.0</ele><time>2026-04-07T08:15:54.265Z</time></trkpt><trkpt lat="41.4270271" lon="12.8131341"><ele>3.0</ele><time>2026-04-07T08:15:56.265Z</time></trkpt><trkpt lat="41.4271723" lon="12.813233"><ele>3.0</ele><time>2026-04-07T08:15:58.265Z</time></trkpt><trkpt lat="41.4272438" lon="12.8132852"><ele>3.0</ele><time>2026-04-07T08:15:59.266Z</time></trkpt><trkpt lat="41.4273808" lon="12.81338"><ele>3.2</ele><time>2026-04-07T08:16:01.266Z</time></trkpt><trkpt lat="41.4275051" lon="12.8134748"><ele>3.4</ele><time>2026-04-07T08:16:03.265Z</time></trkpt><trkpt lat="41.4276281" lon="12.8135689"><ele>3.6000000000000005</ele><time>2026-04-07T08:16:05.266Z</time></trkpt><trkpt lat="41.4276854" lon="12.8136145"><ele>3.8000000000000003</ele><time>2026-04-07T08:16:06.265Z</time></trkpt><trkpt lat="41.4277387" lon="12.8136632"><ele>4.0</ele><time>2026-04-07T08:16:07.265Z</time></trkpt><trkpt lat="41.4278587" lon="12.8137752"><ele>3.8000000000000003</ele><time>2026-04-07T08:16:09.266Z</time></trkpt><trkpt lat="41.4279969" lon="12.8138725"><ele>3.6000000000000005</ele><time>2026-04-07T08:16:11.266Z</time></trkpt><trkpt lat="41.4281299" lon="12.8139367"><ele>3.4</ele><time>2026-04-07T08:16:13.265Z</time></trkpt><trkpt lat="41.4281907" lon="12.8139666"><ele>3.2</ele><time>2026-04-07T08:16:14.265Z</time></trkpt><trkpt lat="41.4282581" lon="12.8140097"><ele>3.0</ele><time>2026-04-07T08:16:15.265Z</time></trkpt><trkpt lat="41.428322" lon="12.8140506"><ele>3.0</ele><time>2026-04-07T08:16:16.266Z</time></trkpt><trkpt lat="41.4283896" lon="12.814107"><ele>3.0</ele><time>2026-04-07T08:16:17.266Z</time></trkpt><trkpt lat="41.4285327" lon="12.8142105"><ele>3.0</ele><time>2026-04-07T08:16:19.265Z</time></trkpt><trkpt lat="41.4286795" lon="12.8143165"><ele>3.0</ele><time>2026-04-07T08:16:21.265Z</time></trkpt><trkpt lat="41.4288457" lon="12.8144258"><ele>3.0</ele><time>2026-04-07T08:16:23.265Z</time></trkpt><trkpt lat="41.4289283" lon="12.814482"><ele>3.0</ele><time>2026-04-07T08:16:24.265Z</time></trkpt><trkpt lat="41.4290181" lon="12.8145262"><ele>3.0</ele><time>2026-04-07T08:16:25.265Z</time></trkpt><trkpt lat="41.4291025" lon="12.8145775"><ele>3.0</ele><time>2026-04-07T08:16:26.265Z</time></trkpt><trkpt lat="41.4291886" lon="12.8146252"><ele>3.0</ele><time>2026-04-07T08:16:27.266Z</time></trkpt><trkpt lat="41.4292745" lon="12.8146698"><ele>3.0</ele><time>2026-04-07T08:16:28.266Z</time></trkpt><trkpt lat="41.4293635" lon="12.8147227"><ele>3.0</ele><time>2026-04-07T08:16:29.265Z</time></trkpt><trkpt lat="41.4295393" lon="12.8148159"><ele>3.0</ele><time>2026-04-07T08:16:31.265Z</time></trkpt><trkpt lat="41.4297048" lon="12.8149239"><ele>3.0</ele><time>2026-04-07T08:16:33.266Z</time></trkpt><trkpt lat="41.4297823" lon="12.8149727"><ele>3.0</ele><time>2026-04-07T08:16:34.265Z</time></trkpt><trkpt lat="41.4299127" lon="12.8150569"><ele>3.0</ele><time>2026-04-07T08:16:36.265Z</time></trkpt><trkpt lat="41.4300714" lon="12.8151755"><ele>3.0</ele><time>2026-04-07T08:16:39.265Z</time></trkpt><trkpt lat="41.4301274" lon="12.8152148"><ele>3.0</ele><time>2026-04-07T08:16:40.265Z</time></trkpt><trkpt lat="41.4301978" lon="12.8152387"><ele>3.0</ele><time>2026-04-07T08:16:41.265Z</time></trkpt><trkpt lat="41.4302727" lon="12.8152534"><ele>3.0</ele><time>2026-04-07T08:16:42.265Z</time></trkpt><trkpt lat="41.4303557" lon="12.8152725"><ele>3.0</ele><time>2026-04-07T08:16:43.265Z</time></trkpt><trkpt lat="41.4304377" lon="12.8153112"><ele>3.0</ele><time>2026-04-07T08:16:44.265Z</time></trkpt><trkpt lat="41.430511" lon="12.8153369"><ele>3.0</ele><time>2026-04-07T08:16:45.265Z</time></trkpt><trkpt lat="41.4305937" lon="12.8153439"><ele>3.0</ele><time>2026-04-07T08:16:46.265Z</time></trkpt><trkpt lat="41.4307492" lon="12.8153686"><ele>3.0</ele><time>2026-04-07T08:16:48.265Z</time></trkpt><trkpt lat="41.4308147" lon="12.8153708"><ele>3.0</ele><time>2026-04-07T08:16:49.265Z</time></trkpt><trkpt lat="41.4308895" lon="12.8153682"><ele>3.0</ele><time>2026-04-07T08:16:50.266Z</time></trkpt><trkpt lat="41.4309669" lon="12.8153658"><ele>3.0</ele><time>2026-04-07T08:16:51.265Z</time></trkpt><trkpt lat="41.4311204" lon="12.8153537"><ele>3.0</ele><time>2026-04-07T08:16:53.266Z</time></trkpt><trkpt lat="41.4312833" lon="12.8153321"><ele>3.0</ele><time>2026-04-07T08:16:55.265Z</time></trkpt><trkpt lat="41.4314589" lon="12.8153865"><ele>3.0</ele><time>2026-04-07T08:16:57.265Z</time></trkpt><trkpt lat="41.4315516" lon="12.8154255"><ele>3.0</ele><time>2026-04-07T08:16:58.265Z</time></trkpt><trkpt lat="41.431651" lon="12.8154617"><ele>2.3333333333333335</ele><time>2026-04-07T08:16:59.265Z</time></trkpt><trkpt lat="41.4317587" lon="12.8154838"><ele>1.6666666666666665</ele><time>2026-04-07T08:17:00.265Z</time></trkpt><trkpt lat="41.4318743" lon="12.815513"><ele>1.0</ele><time>2026-04-07T08:17:01.265Z</time></trkpt><trkpt lat="41.4321538" lon="12.8155487"><ele>1.0</ele><time>2026-04-07T08:17:03.265Z</time></trkpt><trkpt lat="41.4323981" lon="12.815578"><ele>1.0</ele><time>2026-04-07T08:17:05.265Z</time></trkpt><trkpt lat="41.432511" lon="12.8155718"><ele>1.0</ele><time>2026-04-07T08:17:06.265Z</time></trkpt><trkpt lat="41.4326377" lon="12.8155414"><ele>1.0</ele><time>2026-04-07T08:17:07.265Z</time></trkpt><trkpt lat="41.4327632" lon="12.8155194"><ele>1.0</ele><time>2026-04-07T08:17:08.265Z</time></trkpt><trkpt lat="41.4330136" lon="12.8154362"><ele>1.0</ele><time>2026-04-07T08:17:10.265Z</time></trkpt><trkpt lat="41.4332531" lon="12.8153001"><ele>1.6666666666666665</ele><time>2026-04-07T08:17:12.265Z</time></trkpt><trkpt lat="41.4333662" lon="12.8152195"><ele>2.3333333333333335</ele><time>2026-04-07T08:17:13.265Z</time></trkpt><trkpt lat="41.4334775" lon="12.815142"><ele>3.0</ele><time>2026-04-07T08:17:14.265Z</time></trkpt><trkpt lat="41.4337013" lon="12.8150071"><ele>2.6666666666666665</ele><time>2026-04-07T08:17:16.265Z</time></trkpt><trkpt lat="41.4338035" lon="12.8149229"><ele>2.333333333333333</ele><time>2026-04-07T08:17:17.265Z</time></trkpt><trkpt lat="41.434002" lon="12.8147201"><ele>2.0</ele><time>2026-04-07T08:17:19.265Z</time></trkpt><trkpt lat="41.4341707" lon="12.8145001"><ele>2.0</ele><time>2026-04-07T08:17:21.265Z</time></trkpt><trkpt lat="41.4342475" lon="12.814389"><ele>2.0</ele><time>2026-04-07T08:17:22.265Z</time></trkpt><trkpt lat="41.4343255" lon="12.8142659"><ele>2.0</ele><time>2026-04-07T08:17:23.265Z</time></trkpt><trkpt lat="41.4343987" lon="12.8141402"><ele>2.0</ele><time>2026-04-07T08:17:24.265Z</time></trkpt><trkpt lat="41.4344683" lon="12.814018"><ele>2.0</ele><time>2026-04-07T08:17:25.266Z</time></trkpt><trkpt lat="41.4345258" lon="12.8138958"><ele>2.0</ele><time>2026-04-07T08:17:26.265Z</time></trkpt><trkpt lat="41.4345681" lon="12.8137663"><ele>2.0</ele><time>2026-04-07T08:17:27.265Z</time></trkpt><trkpt lat="41.4346219" lon="12.8136028"><ele>2.0</ele><time>2026-04-07T08:17:28.265Z</time></trkpt><trkpt lat="41.4346651" lon="12.813444"><ele>2.0</ele><time>2026-04-07T08:17:29.266Z</time></trkpt><trkpt lat="41.4347106" lon="12.8132943"><ele>2.0</ele><time>2026-04-07T08:17:30.265Z</time></trkpt><trkpt lat="41.4347523" lon="12.8131368"><ele>2.0</ele><time>2026-04-07T08:17:31.265Z</time></trkpt><trkpt lat="41.4347975" lon="12.8129657"><ele>2.0</ele><time>2026-04-07T08:17:32.265Z</time></trkpt><trkpt lat="41.4348416" lon="12.8128086"><ele>2.0</ele><time>2026-04-07T08:17:33.265Z</time></trkpt><trkpt lat="41.4348854" lon="12.8126687"><ele>2.0</ele><time>2026-04-07T08:17:34.265Z</time></trkpt><trkpt lat="41.4349646" lon="12.8123912"><ele>2.0</ele><time>2026-04-07T08:17:36.265Z</time></trkpt><trkpt lat="41.4350391" lon="12.812158"><ele>2.0</ele><time>2026-04-07T08:17:38.265Z</time></trkpt><trkpt lat="41.4351181" lon="12.8119423"><ele>2.0</ele><time>2026-04-07T08:17:40.266Z</time></trkpt><trkpt lat="41.4351586" lon="12.8118424"><ele>2.0</ele><time>2026-04-07T08:17:41.265Z</time></trkpt><trkpt lat="41.4352057" lon="12.8117266"><ele>2.0</ele><time>2026-04-07T08:17:42.265Z</time></trkpt><trkpt lat="41.435304" lon="12.8115143"><ele>2.333333333333333</ele><time>2026-04-07T08:17:44.266Z</time></trkpt><trkpt lat="41.435384" lon="12.8113127"><ele>2.6666666666666665</ele><time>2026-04-07T08:17:46.265Z</time></trkpt><trkpt lat="41.4354718" lon="12.8110993"><ele>3.0</ele><time>2026-04-07T08:17:48.265Z</time></trkpt><trkpt lat="41.4355639" lon="12.8108319"><ele>3.0</ele><time>2026-04-07T08:17:50.265Z</time></trkpt><trkpt lat="41.4356094" lon="12.8106859"><ele>3.0</ele><time>2026-04-07T08:17:51.265Z</time></trkpt><trkpt lat="41.4356554" lon="12.8105189"><ele>3.0</ele><time>2026-04-07T08:17:52.265Z</time></trkpt><trkpt lat="41.4356979" lon="12.8103835"><ele>3.0</ele><time>2026-04-07T08:17:53.265Z</time></trkpt><trkpt lat="41.4357686" lon="12.8101247"><ele>3.0</ele><time>2026-04-07T08:17:55.265Z</time></trkpt><trkpt lat="41.4357897" lon="12.8100106"><ele>3.0</ele><time>2026-04-07T08:17:56.265Z</time></trkpt><trkpt lat="41.4358168" lon="12.809907"><ele>3.0</ele><time>2026-04-07T08:17:57.266Z</time></trkpt><trkpt lat="41.4358653" lon="12.8097902"><ele>3.0</ele><time>2026-04-07T08:17:58.265Z</time></trkpt><trkpt lat="41.4359136" lon="12.809661"><ele>3.0</ele><time>2026-04-07T08:17:59.265Z</time></trkpt><trkpt lat="41.4359615" lon="12.8095091"><ele>3.666666666666667</ele><time>2026-04-07T08:18:00.265Z</time></trkpt><trkpt lat="41.4360501" lon="12.8092182"><ele>4.333333333333334</ele><time>2026-04-07T08:18:02.266Z</time></trkpt><trkpt lat="41.4360936" lon="12.8090737"><ele>5.0</ele><time>2026-04-07T08:18:03.265Z</time></trkpt><trkpt lat="41.4361413" lon="12.808937"><ele>5.0</ele><time>2026-04-07T08:18:04.265Z</time></trkpt><trkpt lat="41.4362367" lon="12.8086892"><ele>5.0</ele><time>2026-04-07T08:18:06.265Z</time></trkpt><trkpt lat="41.4362903" lon="12.8085582"><ele>5.0</ele><time>2026-04-07T08:18:07.266Z</time></trkpt><trkpt lat="41.4364057" lon="12.8083242"><ele>5.0</ele><time>2026-04-07T08:18:09.265Z</time></trkpt><trkpt lat="41.4364645" lon="12.8082123"><ele>5.0</ele><time>2026-04-07T08:18:10.265Z</time></trkpt><trkpt lat="41.436585" lon="12.8080029"><ele>5.0</ele><time>2026-04-07T08:18:12.265Z</time></trkpt><trkpt lat="41.4367068" lon="12.8077907"><ele>5.0</ele><time>2026-04-07T08:18:14.265Z</time></trkpt><trkpt lat="41.4367651" lon="12.807707"><ele>5.0</ele><time>2026-04-07T08:18:15.265Z</time></trkpt><trkpt lat="41.4368908" lon="12.8075477"><ele>5.0</ele><time>2026-04-07T08:18:17.265Z</time></trkpt><trkpt lat="41.4369566" lon="12.8074304"><ele>5.0</ele><time>2026-04-07T08:18:19.265Z</time></trkpt><trkpt lat="41.4369635" lon="12.8073397"><ele>5.0</ele><time>2026-04-07T08:18:21.265Z</time></trkpt><trkpt lat="41.4369632" lon="12.8072306"><ele>5.25</ele><time>2026-04-07T08:18:23.265Z</time></trkpt><trkpt lat="41.4369609" lon="12.8071"><ele>5.5</ele><time>2026-04-07T08:18:25.266Z</time></trkpt><trkpt lat="41.4369459" lon="12.8069359"><ele>5.75</ele><time>2026-04-07T08:18:27.265Z</time></trkpt><trkpt lat="41.4369446" lon="12.8066972"><ele>6.0</ele><time>2026-04-07T08:18:29.266Z</time></trkpt><trkpt lat="41.4369446" lon="12.806393"><ele>6.333333333333334</ele><time>2026-04-07T08:18:31.265Z</time></trkpt><trkpt lat="41.4369442" lon="12.8061047"><ele>6.666666666666667</ele><time>2026-04-07T08:18:33.265Z</time></trkpt><trkpt lat="41.4369454" lon="12.8058069"><ele>7.0</ele><time>2026-04-07T08:18:35.265Z</time></trkpt><trkpt lat="41.4369487" lon="12.8056723"><ele>6.8</ele><time>2026-04-07T08:18:36.265Z</time></trkpt><trkpt lat="41.4369567" lon="12.8055437"><ele>6.6</ele><time>2026-04-07T08:18:37.265Z</time></trkpt><trkpt lat="41.4369526" lon="12.8054101"><ele>6.3999999999999995</ele><time>2026-04-07T08:18:38.265Z</time></trkpt><trkpt lat="41.436947" lon="12.8052809"><ele>6.199999999999999</ele><time>2026-04-07T08:18:39.265Z</time></trkpt><trkpt lat="41.4369414" lon="12.8051513"><ele>6.0</ele><time>2026-04-07T08:18:40.265Z</time></trkpt><trkpt lat="41.4369285" lon="12.8049183"><ele>6.0</ele><time>2026-04-07T08:18:42.265Z</time></trkpt><trkpt lat="41.4369318" lon="12.8047708"><ele>6.0</ele><time>2026-04-07T08:18:44.265Z</time></trkpt><trkpt lat="41.4370389" lon="12.8046537"><ele>6.0</ele><time>2026-04-07T08:18:47.265Z</time></trkpt><trkpt lat="41.4370814" lon="12.8045635"><ele>6.0</ele><time>2026-04-07T08:18:49.265Z</time></trkpt><trkpt lat="41.4372331" lon="12.8045244"><ele>5.75</ele><time>2026-04-07T08:18:51.265Z</time></trkpt><trkpt lat="41.4373073" lon="12.8045209"><ele>5.5</ele><time>2026-04-07T08:18:52.265Z</time></trkpt><trkpt lat="41.4374574" lon="12.8045036"><ele>5.25</ele><time>2026-04-07T08:18:54.265Z</time></trkpt><trkpt lat="41.4376029" lon="12.8045064"><ele>5.0</ele><time>2026-04-07T08:18:56.265Z</time></trkpt><trkpt lat="41.4377865" lon="12.8045081"><ele>5.0</ele><time>2026-04-07T08:18:59.265Z</time></trkpt><trkpt lat="41.4378985" lon="12.80453"><ele>5.0</ele><time>2026-04-07T08:19:01.265Z</time></trkpt><trkpt lat="41.4379608" lon="12.8045538"><ele>5.0</ele><time>2026-04-07T08:19:02.265Z</time></trkpt><trkpt lat="41.4381103" lon="12.8045679"><ele>5.0</ele><time>2026-04-07T08:19:04.265Z</time></trkpt><trkpt lat="41.438279" lon="12.8045703"><ele>5.25</ele><time>2026-04-07T08:19:06.265Z</time></trkpt><trkpt lat="41.4384285" lon="12.8045697"><ele>5.5</ele><time>2026-04-07T08:19:08.265Z</time></trkpt><trkpt lat="41.4385241" lon="12.804585"><ele>5.75</ele><time>2026-04-07T08:19:10.266Z</time></trkpt><trkpt lat="41.4386219" lon="12.8046469"><ele>6.0</ele><time>2026-04-07T08:19:13.265Z</time></trkpt><trkpt lat="41.4387826" lon="12.8045848"><ele>6.25</ele><time>2026-04-07T08:19:15.265Z</time></trkpt><trkpt lat="41.4389852" lon="12.8045017"><ele>6.5</ele><time>2026-04-07T08:19:17.265Z</time></trkpt><trkpt lat="41.4390773" lon="12.8044477"><ele>6.75</ele><time>2026-04-07T08:19:18.265Z</time></trkpt><trkpt lat="41.4391655" lon="12.8043787"><ele>7.0</ele><time>2026-04-07T08:19:19.265Z</time></trkpt><trkpt lat="41.43925" lon="12.8043044"><ele>7.25</ele><time>2026-04-07T08:19:20.266Z</time></trkpt><trkpt lat="41.4393287" lon="12.8042333"><ele>7.5</ele><time>2026-04-07T08:19:21.265Z</time></trkpt><trkpt lat="41.4394838" lon="12.8040967"><ele>7.75</ele><time>2026-04-07T08:19:23.265Z</time></trkpt><trkpt lat="41.4395605" lon="12.8040257"><ele>8.0</ele><time>2026-04-07T08:19:24.265Z</time></trkpt><trkpt lat="41.4396404" lon="12.8039686"><ele>7.5</ele><time>2026-04-07T08:19:25.265Z</time></trkpt><trkpt lat="41.4398021" lon="12.803916"><ele>7.0</ele><time>2026-04-07T08:19:27.265Z</time></trkpt><trkpt lat="41.4399799" lon="12.8039513"><ele>6.5</ele><time>2026-04-07T08:19:29.265Z</time></trkpt><trkpt lat="41.4400529" lon="12.8039795"><ele>6.0</ele><time>2026-04-07T08:19:30.265Z</time></trkpt><trkpt lat="41.4402549" lon="12.8039681"><ele>6.0</ele><time>2026-04-07T08:19:33.265Z</time></trkpt><trkpt lat="41.4403651" lon="12.8039491"><ele>6.0</ele><time>2026-04-07T08:19:35.266Z</time></trkpt><trkpt lat="41.4404317" lon="12.8039409"><ele>6.0</ele><time>2026-04-07T08:19:37.265Z</time></trkpt><trkpt lat="41.4404754" lon="12.8040228"><ele>6.0</ele><time>2026-04-07T08:19:39.266Z</time></trkpt><trkpt lat="41.4405011" lon="12.8041823"><ele>6.0</ele><time>2026-04-07T08:19:41.265Z</time></trkpt><trkpt lat="41.4405843" lon="12.8045224"><ele>6.333333333333334</ele><time>2026-04-07T08:19:43.265Z</time></trkpt><trkpt lat="41.4406486" lon="12.8048301"><ele>6.666666666666667</ele><time>2026-04-07T08:19:45.265Z</time></trkpt><trkpt lat="41.4407075" lon="12.8049571"><ele>7.0</ele><time>2026-04-07T08:19:47.265Z</time></trkpt><trkpt lat="41.440813" lon="12.8051046"><ele>7.0</ele><time>2026-04-07T08:19:49.265Z</time></trkpt><trkpt lat="41.441041" lon="12.8051024"><ele>7.0</ele><time>2026-04-07T08:19:51.266Z</time></trkpt><trkpt lat="41.4412319" lon="12.8051039"><ele>7.0</ele><time>2026-04-07T08:19:53.266Z</time></trkpt><trkpt lat="41.4414355" lon="12.8051043"><ele>6.25</ele><time>2026-04-07T08:19:55.265Z</time></trkpt><trkpt lat="41.4415324" lon="12.8051096"><ele>5.5</ele><time>2026-04-07T08:19:56.266Z</time></trkpt><trkpt lat="41.4416199" lon="12.8051091"><ele>4.75</ele><time>2026-04-07T08:19:57.265Z</time></trkpt><trkpt lat="41.4417771" lon="12.8051111"><ele>4.0</ele><time>2026-04-07T08:19:59.265Z</time></trkpt><trkpt lat="41.4419292" lon="12.8051441"><ele>4.0</ele><time>2026-04-07T08:20:01.265Z</time></trkpt><trkpt lat="41.4420832" lon="12.8051804"><ele>4.0</ele><time>2026-04-07T08:20:03.265Z</time></trkpt><trkpt lat="41.4421579" lon="12.8051912"><ele>4.0</ele><time>2026-04-07T08:20:04.265Z</time></trkpt><trkpt lat="41.442231" lon="12.8052113"><ele>4.0</ele><time>2026-04-07T08:20:05.265Z</time></trkpt><trkpt lat="41.4423591" lon="12.8053513"><ele>4.0</ele><time>2026-04-07T08:20:08.265Z</time></trkpt><trkpt lat="41.4424109" lon="12.8054204"><ele>4.0</ele><time>2026-04-07T08:20:09.265Z</time></trkpt><trkpt lat="41.4425064" lon="12.8055066"><ele>4.0</ele><time>2026-04-07T08:20:11.28Z</time></trkpt><trkpt lat="41.4426074" lon="12.8055574"><ele>4.0</ele><time>2026-04-07T08:20:13.298Z</time></trkpt><trkpt lat="41.4427292" lon="12.8055867"><ele>4.0</ele><time>2026-04-07T08:20:15.293Z</time></trkpt><trkpt lat="41.4428852" lon="12.8055703"><ele>4.0</ele><time>2026-04-07T08:20:17.294Z</time></trkpt><trkpt lat="41.4430256" lon="12.8056169"><ele>4.0</ele><time>2026-04-07T08:20:19.293Z</time></trkpt><trkpt lat="41.4431709" lon="12.8056961"><ele>4.0</ele><time>2026-04-07T08:20:21.294Z</time></trkpt><trkpt lat="41.4433202" lon="12.8057937"><ele>4.0</ele><time>2026-04-07T08:20:23.294Z</time></trkpt><trkpt lat="41.4434687" lon="12.8058872"><ele>4.0</ele><time>2026-04-07T08:20:25.293Z</time></trkpt><trkpt lat="41.4435465" lon="12.8059365"><ele>4.0</ele><time>2026-04-07T08:20:26.294Z</time></trkpt><trkpt lat="41.4436259" lon="12.8059876"><ele>4.0</ele><time>2026-04-07T08:20:27.294Z</time></trkpt><trkpt lat="41.4436943" lon="12.8060312"><ele>4.0</ele><time>2026-04-07T08:20:28.293Z</time></trkpt><trkpt lat="41.4437624" lon="12.8060628"><ele>4.0</ele><time>2026-04-07T08:20:29.293Z</time></trkpt><trkpt lat="41.443869" lon="12.8060583"><ele>4.0</ele><time>2026-04-07T08:20:31.293Z</time></trkpt><trkpt lat="41.4439694" lon="12.8061683"><ele>4.0</ele><time>2026-04-07T08:20:33.293Z</time></trkpt><trkpt lat="41.444111" lon="12.8062899"><ele>4.0</ele><time>2026-04-07T08:20:35.294Z</time></trkpt><trkpt lat="41.4442744" lon="12.8063923"><ele>4.0</ele><time>2026-04-07T08:20:37.293Z</time></trkpt><trkpt lat="41.4444318" lon="12.8065052"><ele>4.0</ele><time>2026-04-07T08:20:39.293Z</time></trkpt><trkpt lat="41.4445062" lon="12.8065614"><ele>4.0</ele><time>2026-04-07T08:20:40.293Z</time></trkpt><trkpt lat="41.4445769" lon="12.8066045"><ele>4.0</ele><time>2026-04-07T08:20:41.293Z</time></trkpt><trkpt lat="41.4446692" lon="12.8066447"><ele>4.0</ele><time>2026-04-07T08:20:43.294Z</time></trkpt><trkpt lat="41.444757" lon="12.8067037"><ele>4.4</ele><time>2026-04-07T08:20:45.293Z</time></trkpt><trkpt lat="41.4448186" lon="12.806736"><ele>4.800000000000001</ele><time>2026-04-07T08:20:46.294Z</time></trkpt><trkpt lat="41.4448821" lon="12.8067946"><ele>5.199999999999999</ele><time>2026-04-07T08:20:47.293Z</time></trkpt><trkpt lat="41.4449699" lon="12.8068444"><ele>5.6</ele><time>2026-04-07T08:20:48.293Z</time></trkpt><trkpt lat="41.4450613" lon="12.806909"><ele>6.0</ele><time>2026-04-07T08:20:49.293Z</time></trkpt><trkpt lat="41.4452541" lon="12.8070442"><ele>6.0</ele><time>2026-04-07T08:20:51.293Z</time></trkpt><trkpt lat="41.4453323" lon="12.8070902"><ele>6.0</ele><time>2026-04-07T08:20:52.293Z</time></trkpt><trkpt lat="41.4454145" lon="12.807147"><ele>6.0</ele><time>2026-04-07T08:20:53.293Z</time></trkpt><trkpt lat="41.4455061" lon="12.8072049"><ele>6.0</ele><time>2026-04-07T08:20:54.294Z</time></trkpt><trkpt lat="41.4455857" lon="12.8072588"><ele>6.0</ele><time>2026-04-07T08:20:55.293Z</time></trkpt><trkpt lat="41.4456509" lon="12.8073035"><ele>6.0</ele><time>2026-04-07T08:20:56.293Z</time></trkpt><trkpt lat="41.4457213" lon="12.807357"><ele>6.0</ele><time>2026-04-07T08:20:57.293Z</time></trkpt><trkpt lat="41.4458752" lon="12.8074624"><ele>6.0</ele><time>2026-04-07T08:20:59.294Z</time></trkpt><trkpt lat="41.4459589" lon="12.80751"><ele>6.0</ele><time>2026-04-07T08:21:00.293Z</time></trkpt><trkpt lat="41.4460427" lon="12.8075736"><ele>6.0</ele><time>2026-04-07T08:21:01.293Z</time></trkpt><trkpt lat="41.4461282" lon="12.8076307"><ele>6.166666666666667</ele><time>2026-04-07T08:21:02.293Z</time></trkpt><trkpt lat="41.4462104" lon="12.8076695"><ele>6.333333333333334</ele><time>2026-04-07T08:21:03.293Z</time></trkpt><trkpt lat="41.446298" lon="12.8077175"><ele>6.5</ele><time>2026-04-07T08:21:04.293Z</time></trkpt><trkpt lat="41.4463916" lon="12.8077691"><ele>6.666666666666667</ele><time>2026-04-07T08:21:05.294Z</time></trkpt><trkpt lat="41.4464652" lon="12.8078062"><ele>6.833333333333334</ele><time>2026-04-07T08:21:06.293Z</time></trkpt><trkpt lat="41.446536" lon="12.8078433"><ele>7.0</ele><time>2026-04-07T08:21:07.293Z</time></trkpt><trkpt lat="41.4466145" lon="12.8078902"><ele>7.0</ele><time>2026-04-07T08:21:08.294Z</time></trkpt><trkpt lat="41.4467594" lon="12.8079231"><ele>7.0</ele><time>2026-04-07T08:21:10.294Z</time></trkpt><trkpt lat="41.446908" lon="12.8079642"><ele>7.0</ele><time>2026-04-07T08:21:12.293Z</time></trkpt><trkpt lat="41.446981" lon="12.8080036"><ele>7.0</ele><time>2026-04-07T08:21:13.293Z</time></trkpt><trkpt lat="41.4470479" lon="12.8080612"><ele>7.5</ele><time>2026-04-07T08:21:14.293Z</time></trkpt><trkpt lat="41.447209" lon="12.8082399"><ele>8.0</ele><time>2026-04-07T08:21:16.293Z</time></trkpt><trkpt lat="41.4474978" lon="12.8082865"><ele>8.0</ele><time>2026-04-07T08:21:18.293Z</time></trkpt><trkpt lat="41.4476899" lon="12.8083275"><ele>8.0</ele><time>2026-04-07T08:21:20.293Z</time></trkpt><trkpt lat="41.4477697" lon="12.8083796"><ele>8.0</ele><time>2026-04-07T08:21:21.293Z</time></trkpt><trkpt lat="41.4479714" lon="12.8084067"><ele>7.75</ele><time>2026-04-07T08:21:24.294Z</time></trkpt><trkpt lat="41.4480166" lon="12.8086056"><ele>7.5</ele><time>2026-04-07T08:21:29.293Z</time></trkpt><trkpt lat="41.4481031" lon="12.8086646"><ele>7.25</ele><time>2026-04-07T08:21:30.293Z</time></trkpt><trkpt lat="41.4482193" lon="12.8087449"><ele>7.0</ele><time>2026-04-07T08:21:31.293Z</time></trkpt><trkpt lat="41.4483248" lon="12.8088441"><ele>7.0</ele><time>2026-04-07T08:21:32.293Z</time></trkpt><trkpt lat="41.4485918" lon="12.8090398"><ele>7.0</ele><time>2026-04-07T08:21:34.293Z</time></trkpt><trkpt lat="41.4488518" lon="12.8093126"><ele>7.0</ele><time>2026-04-07T08:21:36.293Z</time></trkpt><trkpt lat="41.4491279" lon="12.8094944"><ele>7.0</ele><time>2026-04-07T08:21:38.293Z</time></trkpt><trkpt lat="41.4494001" lon="12.8096785"><ele>8.0</ele><time>2026-04-07T08:21:40.293Z</time></trkpt><trkpt lat="41.4496281" lon="12.8098552"><ele>9.0</ele><time>2026-04-07T08:21:42.293Z</time></trkpt><trkpt lat="41.4497377" lon="12.8099374"><ele>10.0</ele><time>2026-04-07T08:21:43.293Z</time></trkpt><trkpt lat="41.4499314" lon="12.8101135"><ele>9.666666666666668</ele><time>2026-04-07T08:21:45.294Z</time></trkpt><trkpt lat="41.4501078" lon="12.8102645"><ele>9.333333333333334</ele><time>2026-04-07T08:21:47.294Z</time></trkpt><trkpt lat="41.4502747" lon="12.8103936"><ele>9.0</ele><time>2026-04-07T08:21:49.293Z</time></trkpt><trkpt lat="41.4503608" lon="12.8104507"><ele>9.0</ele><time>2026-04-07T08:21:50.293Z</time></trkpt><trkpt lat="41.4504485" lon="12.810515"><ele>9.0</ele><time>2026-04-07T08:21:51.293Z</time></trkpt><trkpt lat="41.4505296" lon="12.8105631"><ele>9.0</ele><time>2026-04-07T08:21:52.293Z</time></trkpt><trkpt lat="41.4507258" lon="12.8105896"><ele>9.0</ele><time>2026-04-07T08:21:59.293Z</time></trkpt><trkpt lat="41.4508134" lon="12.8106933"><ele>9.0</ele><time>2026-04-07T08:22:01.294Z</time></trkpt><trkpt lat="41.451011" lon="12.8107437"><ele>9.0</ele><time>2026-04-07T08:22:04.293Z</time></trkpt><trkpt lat="41.451087" lon="12.8107466"><ele>9.0</ele><time>2026-04-07T08:22:05.293Z</time></trkpt><trkpt lat="41.451174" lon="12.8107657"><ele>9.0</ele><time>2026-04-07T08:22:06.293Z</time></trkpt><trkpt lat="41.451268" lon="12.8107885"><ele>9.666666666666666</ele><time>2026-04-07T08:22:07.293Z</time></trkpt><trkpt lat="41.4514437" lon="12.81082"><ele>10.333333333333332</ele><time>2026-04-07T08:22:09.294Z</time></trkpt><trkpt lat="41.4516129" lon="12.8108639"><ele>11.0</ele><time>2026-04-07T08:22:11.294Z</time></trkpt><trkpt lat="41.4517936" lon="12.8109079"><ele>11.0</ele><time>2026-04-07T08:22:13.293Z</time></trkpt><trkpt lat="41.4518661" lon="12.8109356"><ele>11.0</ele><time>2026-04-07T08:22:14.293Z</time></trkpt><trkpt lat="41.4519415" lon="12.8109491"><ele>11.0</ele><time>2026-04-07T08:22:15.293Z</time></trkpt><trkpt lat="41.4520293" lon="12.8109609"><ele>11.0</ele><time>2026-04-07T08:22:16.293Z</time></trkpt><trkpt lat="41.4521083" lon="12.8109833"><ele>11.0</ele><time>2026-04-07T08:22:17.293Z</time></trkpt><trkpt lat="41.4522691" lon="12.8110108"><ele>10.833333333333332</ele><time>2026-04-07T08:22:19.293Z</time></trkpt><trkpt lat="41.4523487" lon="12.8110245"><ele>10.666666666666666</ele><time>2026-04-07T08:22:20.294Z</time></trkpt><trkpt lat="41.4524152" lon="12.8110358"><ele>10.5</ele><time>2026-04-07T08:22:21.293Z</time></trkpt><trkpt lat="41.4524968" lon="12.8110545"><ele>10.333333333333334</ele><time>2026-04-07T08:22:22.293Z</time></trkpt><trkpt lat="41.4525614" lon="12.811073"><ele>10.166666666666668</ele><time>2026-04-07T08:22:23.293Z</time></trkpt><trkpt lat="41.4526743" lon="12.8111051"><ele>10.0</ele><time>2026-04-07T08:22:25.293Z</time></trkpt><trkpt lat="41.4527769" lon="12.8111368"><ele>10.0</ele><time>2026-04-07T08:22:27.293Z</time></trkpt><trkpt lat="41.4527924" lon="12.8112574"><ele>10.0</ele><time>2026-04-07T08:22:30.293Z</time></trkpt><trkpt lat="41.4527547" lon="12.8114004"><ele>10.0</ele><time>2026-04-07T08:22:32.293Z</time></trkpt><trkpt lat="41.4527407" lon="12.8115118"><ele>10.0</ele><time>2026-04-07T08:22:33.294Z</time></trkpt><trkpt lat="41.4527161" lon="12.811703"><ele>10.0</ele><time>2026-04-07T08:22:35.294Z</time></trkpt><trkpt lat="41.4526678" lon="12.8118934"><ele>9.714285714285714</ele><time>2026-04-07T08:22:37.293Z</time></trkpt><trkpt lat="41.4526485" lon="12.8119859"><ele>9.428571428571429</ele><time>2026-04-07T08:22:38.293Z</time></trkpt><trkpt lat="41.4526362" lon="12.8120821"><ele>9.142857142857142</ele><time>2026-04-07T08:22:39.294Z</time></trkpt><trkpt lat="41.4526273" lon="12.8121876"><ele>8.857142857142858</ele><time>2026-04-07T08:22:40.293Z</time></trkpt><trkpt lat="41.4526076" lon="12.8122764"><ele>8.571428571428571</ele><time>2026-04-07T08:22:41.293Z</time></trkpt><trkpt lat="41.4525995" lon="12.8123645"><ele>8.285714285714285</ele><time>2026-04-07T08:22:42.293Z</time></trkpt><trkpt lat="41.4525944" lon="12.8124596"><ele>8.0</ele><time>2026-04-07T08:22:43.293Z</time></trkpt><trkpt lat="41.4525915" lon="12.8125924"><ele>7.999999999999999</ele><time>2026-04-07T08:22:44.293Z</time></trkpt><trkpt lat="41.4525829" lon="12.8127194"><ele>8.0</ele><time>2026-04-07T08:22:45.293Z</time></trkpt><trkpt lat="41.452572" lon="12.8128131"><ele>8.0</ele><time>2026-04-07T08:22:46.293Z</time></trkpt><trkpt lat="41.4525613" lon="12.812967"><ele>8.0</ele><time>2026-04-07T08:22:48.293Z</time></trkpt><trkpt lat="41.4525825" lon="12.8130569"><ele>7.999999999999999</ele><time>2026-04-07T08:22:49.294Z</time></trkpt><trkpt lat="41.4526217" lon="12.8131599"><ele>8.0</ele><time>2026-04-07T08:22:50.293Z</time></trkpt><trkpt lat="41.452681" lon="12.813227"><ele>8.0</ele><time>2026-04-07T08:22:51.293Z</time></trkpt><trkpt lat="41.4527433" lon="12.8132967"><ele>8.0</ele><time>2026-04-07T08:22:52.293Z</time></trkpt><trkpt lat="41.4528835" lon="12.813439"><ele>8.0</ele><time>2026-04-07T08:22:54.293Z</time></trkpt><trkpt lat="41.4529539" lon="12.8135094"><ele>8.0</ele><time>2026-04-07T08:22:55.293Z</time></trkpt><trkpt lat="41.4531063" lon="12.8136779"><ele>8.200000000000001</ele><time>2026-04-07T08:22:57.293Z</time></trkpt><trkpt lat="41.4532439" lon="12.8138303"><ele>8.4</ele><time>2026-04-07T08:22:59.293Z</time></trkpt><trkpt lat="41.4533187" lon="12.8139127"><ele>8.600000000000001</ele><time>2026-04-07T08:23:00.293Z</time></trkpt><trkpt lat="41.4533904" lon="12.8139867"><ele>8.8</ele><time>2026-04-07T08:23:01.293Z</time></trkpt><trkpt lat="41.453461" lon="12.8140343"><ele>9.0</ele><time>2026-04-07T08:23:02.293Z</time></trkpt><trkpt lat="41.4535849" lon="12.8141283"><ele>9.0</ele><time>2026-04-07T08:23:04.293Z</time></trkpt><trkpt lat="41.4537018" lon="12.8142331"><ele>9.0</ele><time>2026-04-07T08:23:06.293Z</time></trkpt><trkpt lat="41.4538182" lon="12.8143373"><ele>9.0</ele><time>2026-04-07T08:23:08.293Z</time></trkpt><trkpt lat="41.453955" lon="12.8143521"><ele>9.0</ele><time>2026-04-07T08:23:11.293Z</time></trkpt><trkpt lat="41.4539826" lon="12.8144602"><ele>9.5</ele><time>2026-04-07T08:23:15.293Z</time></trkpt><trkpt lat="41.4540293" lon="12.8145812"><ele>10.0</ele><time>2026-04-07T08:23:17.293Z</time></trkpt><trkpt lat="41.4540693" lon="12.8146796"><ele>10.5</ele><time>2026-04-07T08:23:19.293Z</time></trkpt><trkpt lat="41.454158" lon="12.8147971"><ele>11.0</ele><time>2026-04-07T08:23:20.293Z</time></trkpt><trkpt lat="41.454304" lon="12.8150874"><ele>11.0</ele><time>2026-04-07T08:23:22.293Z</time></trkpt><trkpt lat="41.4545811" lon="12.8151172"><ele>11.0</ele><time>2026-04-07T08:23:24.293Z</time></trkpt><trkpt lat="41.4546986" lon="12.8151632"><ele>11.0</ele><time>2026-04-07T08:23:25.293Z</time></trkpt><trkpt lat="41.4547903" lon="12.8152164"><ele>10.25</ele><time>2026-04-07T08:23:26.293Z</time></trkpt><trkpt lat="41.4549527" lon="12.8152352"><ele>9.5</ele><time>2026-04-07T08:23:28.293Z</time></trkpt><trkpt lat="41.4550307" lon="12.8152395"><ele>8.75</ele><time>2026-04-07T08:23:29.293Z</time></trkpt><trkpt lat="41.4552102" lon="12.8152522"><ele>8.0</ele><time>2026-04-07T08:23:31.293Z</time></trkpt><trkpt lat="41.4553742" lon="12.8152734"><ele>8.166666666666666</ele><time>2026-04-07T08:23:33.293Z</time></trkpt><trkpt lat="41.4554542" lon="12.8152692"><ele>8.333333333333332</ele><time>2026-04-07T08:23:34.293Z</time></trkpt><trkpt lat="41.4555405" lon="12.8152641"><ele>8.5</ele><time>2026-04-07T08:23:35.293Z</time></trkpt><trkpt lat="41.455624" lon="12.8152491"><ele>8.666666666666666</ele><time>2026-04-07T08:23:36.293Z</time></trkpt><trkpt lat="41.4556971" lon="12.815235"><ele>8.833333333333334</ele><time>2026-04-07T08:23:37.293Z</time></trkpt><trkpt lat="41.4557827" lon="12.8152229"><ele>9.0</ele><time>2026-04-07T08:23:38.293Z</time></trkpt><trkpt lat="41.4559516" lon="12.815209"><ele>9.0</ele><time>2026-04-07T08:23:40.293Z</time></trkpt><trkpt lat="41.4561019" lon="12.8151736"><ele>9.0</ele><time>2026-04-07T08:23:42.293Z</time></trkpt><trkpt lat="41.4562554" lon="12.815116"><ele>9.0</ele><time>2026-04-07T08:23:44.293Z</time></trkpt><trkpt lat="41.456404" lon="12.8150213"><ele>9.333333333333334</ele><time>2026-04-07T08:23:46.294Z</time></trkpt><trkpt lat="41.4564731" lon="12.8149718"><ele>9.666666666666666</ele><time>2026-04-07T08:23:47.293Z</time></trkpt><trkpt lat="41.4565408" lon="12.8149344"><ele>10.0</ele><time>2026-04-07T08:23:48.293Z</time></trkpt><trkpt lat="41.4566609" lon="12.8148729"><ele>10.333333333333332</ele><time>2026-04-07T08:23:50.293Z</time></trkpt><trkpt lat="41.4567385" lon="12.8147973"><ele>10.666666666666666</ele><time>2026-04-07T08:23:52.293Z</time></trkpt><trkpt lat="41.4567702" lon="12.8147158"><ele>11.0</ele><time>2026-04-07T08:23:54.293Z</time></trkpt><trkpt lat="41.4567827" lon="12.8145908"><ele>11.0</ele><time>2026-04-07T08:23:57.293Z</time></trkpt><trkpt lat="41.4568369" lon="12.8145123"><ele>11.0</ele><time>2026-04-07T08:23:59.294Z</time></trkpt><trkpt lat="41.4569266" lon="12.8144471"><ele>11.0</ele><time>2026-04-07T08:24:01.293Z</time></trkpt><trkpt lat="41.4570082" lon="12.8143901"><ele>11.0</ele><time>2026-04-07T08:24:03.294Z</time></trkpt><trkpt lat="41.4571131" lon="12.8143213"><ele>11.0</ele><time>2026-04-07T08:24:05.293Z</time></trkpt><trkpt lat="41.4571771" lon="12.8142645"><ele>12.0</ele><time>2026-04-07T08:24:06.293Z</time></trkpt><trkpt lat="41.4572449" lon="12.8142089"><ele>13.0</ele><time>2026-04-07T08:24:07.293Z</time></trkpt><trkpt lat="41.4574209" lon="12.8140804"><ele>14.0</ele><time>2026-04-07T08:24:09.293Z</time></trkpt><trkpt lat="41.4576157" lon="12.8139138"><ele>14.0</ele><time>2026-04-07T08:24:11.293Z</time></trkpt><trkpt lat="41.4577279" lon="12.8138178"><ele>14.0</ele><time>2026-04-07T08:24:12.293Z</time></trkpt><trkpt lat="41.4578495" lon="12.8137265"><ele>14.0</ele><time>2026-04-07T08:24:13.293Z</time></trkpt><trkpt lat="41.4579729" lon="12.8136289"><ele>14.0</ele><time>2026-04-07T08:24:14.293Z</time></trkpt><trkpt lat="41.4580915" lon="12.8135341"><ele>14.0</ele><time>2026-04-07T08:24:15.293Z</time></trkpt><trkpt lat="41.4583318" lon="12.8133337"><ele>14.0</ele><time>2026-04-07T08:24:17.293Z</time></trkpt><trkpt lat="41.458448" lon="12.8132444"><ele>14.0</ele><time>2026-04-07T08:24:18.293Z</time></trkpt><trkpt lat="41.4585664" lon="12.8131458"><ele>14.0</ele><time>2026-04-07T08:24:19.293Z</time></trkpt><trkpt lat="41.4586818" lon="12.8130518"><ele>14.0</ele><time>2026-04-07T08:24:20.294Z</time></trkpt><trkpt lat="41.4589024" lon="12.8128774"><ele>14.0</ele><time>2026-04-07T08:24:22.293Z</time></trkpt><trkpt lat="41.4591142" lon="12.8126979"><ele>14.0</ele><time>2026-04-07T08:24:24.293Z</time></trkpt><trkpt lat="41.4593121" lon="12.8125287"><ele>14.0</ele><time>2026-04-07T08:24:26.293Z</time></trkpt><trkpt lat="41.4594062" lon="12.8124564"><ele>14.0</ele><time>2026-04-07T08:24:27.293Z</time></trkpt><trkpt lat="41.4595839" lon="12.8123164"><ele>13.5</ele><time>2026-04-07T08:24:29.293Z</time></trkpt><trkpt lat="41.4596685" lon="12.8122537"><ele>13.0</ele><time>2026-04-07T08:24:30.293Z</time></trkpt><trkpt lat="41.4597497" lon="12.8121845"><ele>12.5</ele><time>2026-04-07T08:24:31.293Z</time></trkpt><trkpt lat="41.459904" lon="12.8120702"><ele>12.0</ele><time>2026-04-07T08:24:33.293Z</time></trkpt><trkpt lat="41.4600296" lon="12.8119336"><ele>12.0</ele><time>2026-04-07T08:24:35.294Z</time></trkpt><trkpt lat="41.460088" lon="12.8118711"><ele>12.0</ele><time>2026-04-07T08:24:36.293Z</time></trkpt><trkpt lat="41.4601974" lon="12.811772"><ele>12.0</ele><time>2026-04-07T08:24:38.294Z</time></trkpt><trkpt lat="41.4602663" lon="12.8117221"><ele>12.0</ele><time>2026-04-07T08:24:39.293Z</time></trkpt><trkpt lat="41.4603303" lon="12.8116698"><ele>12.0</ele><time>2026-04-07T08:24:40.293Z</time></trkpt><trkpt lat="41.460398" lon="12.8116044"><ele>12.0</ele><time>2026-04-07T08:24:41.294Z</time></trkpt><trkpt lat="41.460461" lon="12.8115532"><ele>12.25</ele><time>2026-04-07T08:24:42.294Z</time></trkpt><trkpt lat="41.4605236" lon="12.8115071"><ele>12.5</ele><time>2026-04-07T08:24:43.294Z</time></trkpt><trkpt lat="41.4606049" lon="12.8114521"><ele>12.75</ele><time>2026-04-07T08:24:45.293Z</time></trkpt><trkpt lat="41.4607918" lon="12.8114415"><ele>13.0</ele><time>2026-04-07T08:24:50.293Z</time></trkpt><trkpt lat="41.4608899" lon="12.8113756"><ele>13.0</ele><time>2026-04-07T08:24:52.293Z</time></trkpt><trkpt lat="41.4609678" lon="12.8113265"><ele>13.0</ele><time>2026-04-07T08:24:53.293Z</time></trkpt><trkpt lat="41.4610624" lon="12.8112726"><ele>13.0</ele><time>2026-04-07T08:24:54.293Z</time></trkpt><trkpt lat="41.4611339" lon="12.8112231"><ele>13.0</ele><time>2026-04-07T08:24:55.294Z</time></trkpt><trkpt lat="41.4612107" lon="12.8111842"><ele>13.0</ele><time>2026-04-07T08:24:56.293Z</time></trkpt><trkpt lat="41.4613726" lon="12.8110822"><ele>13.0</ele><time>2026-04-07T08:24:58.293Z</time></trkpt><trkpt lat="41.4615247" lon="12.8110089"><ele>13.0</ele><time>2026-04-07T08:25:00.293Z</time></trkpt><trkpt lat="41.4616888" lon="12.8109466"><ele>13.0</ele><time>2026-04-07T08:25:02.293Z</time></trkpt><trkpt lat="41.4617667" lon="12.8109223"><ele>13.0</ele><time>2026-04-07T08:25:03.294Z</time></trkpt><trkpt lat="41.4618437" lon="12.8108891"><ele>13.75</ele><time>2026-04-07T08:25:04.293Z</time></trkpt><trkpt lat="41.4619988" lon="12.8108373"><ele>14.5</ele><time>2026-04-07T08:25:06.293Z</time></trkpt><trkpt lat="41.4620778" lon="12.8108076"><ele>15.25</ele><time>2026-04-07T08:25:07.294Z</time></trkpt><trkpt lat="41.4621546" lon="12.8107849"><ele>16.0</ele><time>2026-04-07T08:25:08.293Z</time></trkpt><trkpt lat="41.4622995" lon="12.8107446"><ele>16.0</ele><time>2026-04-07T08:25:10.293Z</time></trkpt><trkpt lat="41.4623702" lon="12.810723"><ele>16.0</ele><time>2026-04-07T08:25:11.294Z</time></trkpt><trkpt lat="41.4624397" lon="12.810713"><ele>16.0</ele><time>2026-04-07T08:25:12.294Z</time></trkpt><trkpt lat="41.462574" lon="12.8106942"><ele>16.0</ele><time>2026-04-07T08:25:14.293Z</time></trkpt><trkpt lat="41.4626928" lon="12.8106812"><ele>16.0</ele><time>2026-04-07T08:25:16.293Z</time></trkpt><trkpt lat="41.4628097" lon="12.8106643"><ele>16.0</ele><time>2026-04-07T08:25:18.293Z</time></trkpt><trkpt lat="41.4629182" lon="12.8106422"><ele>16.0</ele><time>2026-04-07T08:25:20.293Z</time></trkpt><trkpt lat="41.4629834" lon="12.8106259"><ele>16.0</ele><time>2026-04-07T08:25:22.293Z</time></trkpt><trkpt lat="41.4630682" lon="12.8106767"><ele>16.0</ele><time>2026-04-07T08:25:29.294Z</time></trkpt><trkpt lat="41.4630199" lon="12.8108443"><ele>16.0</ele><time>2026-04-07T08:25:31.293Z</time></trkpt><trkpt lat="41.4630273" lon="12.8109943"><ele>15.833333333333332</ele><time>2026-04-07T08:25:33.293Z</time></trkpt><trkpt lat="41.4630424" lon="12.8110902"><ele>15.666666666666666</ele><time>2026-04-07T08:25:34.293Z</time></trkpt><trkpt lat="41.4630454" lon="12.8112159"><ele>15.5</ele><time>2026-04-07T08:25:36.293Z</time></trkpt><trkpt lat="41.4630622" lon="12.8113624"><ele>15.333333333333332</ele><time>2026-04-07T08:25:38.293Z</time></trkpt><trkpt lat="41.4630767" lon="12.8114683"><ele>15.166666666666666</ele><time>2026-04-07T08:25:40.293Z</time></trkpt><trkpt lat="41.4631049" lon="12.8115686"><ele>15.0</ele><time>2026-04-07T08:25:47.293Z</time></trkpt><trkpt lat="41.4632805" lon="12.811522"><ele>15.0</ele><time>2026-04-07T08:25:52.293Z</time></trkpt><trkpt lat="41.4633862" lon="12.8115047"><ele>15.0</ele><time>2026-04-07T08:25:53.294Z</time></trkpt><trkpt lat="41.4637177" lon="12.8114641"><ele>15.0</ele><time>2026-04-07T08:25:55.293Z</time></trkpt><trkpt lat="41.4638863" lon="12.8114647"><ele>14.75</ele><time>2026-04-07T08:25:56.293Z</time></trkpt><trkpt lat="41.4640467" lon="12.8114753"><ele>14.5</ele><time>2026-04-07T08:25:57.294Z</time></trkpt><trkpt lat="41.4641782" lon="12.8115007"><ele>14.25</ele><time>2026-04-07T08:25:58.293Z</time></trkpt><trkpt lat="41.4642936" lon="12.8115336"><ele>14.0</ele><time>2026-04-07T08:25:59.293Z</time></trkpt><trkpt lat="41.4644014" lon="12.8115778"><ele>14.0</ele><time>2026-04-07T08:26:00.293Z</time></trkpt><trkpt lat="41.4645081" lon="12.8116342"><ele>14.0</ele><time>2026-04-07T08:26:01.293Z</time></trkpt><trkpt lat="41.464605" lon="12.8116893"><ele>14.0</ele><time>2026-04-07T08:26:02.293Z</time></trkpt><trkpt lat="41.4647989" lon="12.8118389"><ele>14.0</ele><time>2026-04-07T08:26:04.294Z</time></trkpt><trkpt lat="41.4648939" lon="12.8119155"><ele>14.0</ele><time>2026-04-07T08:26:05.293Z</time></trkpt><trkpt lat="41.4649832" lon="12.8119948"><ele>13.999999999999998</ele><time>2026-04-07T08:26:06.293Z</time></trkpt><trkpt lat="41.4650634" lon="12.8120786"><ele>13.999999999999998</ele><time>2026-04-07T08:26:07.293Z</time></trkpt><trkpt lat="41.4651796" lon="12.8121696"><ele>14.0</ele><time>2026-04-07T08:26:09.293Z</time></trkpt><trkpt lat="41.4652536" lon="12.8122347"><ele>14.0</ele><time>2026-04-07T08:26:10.293Z</time></trkpt><trkpt lat="41.4653269" lon="12.812295"><ele>14.333333333333334</ele><time>2026-04-07T08:26:11.293Z</time></trkpt><trkpt lat="41.4654694" lon="12.8124199"><ele>14.666666666666668</ele><time>2026-04-07T08:26:13.293Z</time></trkpt><trkpt lat="41.4655791" lon="12.8124968"><ele>15.0</ele><time>2026-04-07T08:26:15.293Z</time></trkpt><trkpt lat="41.4657299" lon="12.812592"><ele>15.0</ele><time>2026-04-07T08:26:17.293Z</time></trkpt><trkpt lat="41.4659232" lon="12.8127016"><ele>15.0</ele><time>2026-04-07T08:26:19.293Z</time></trkpt><trkpt lat="41.4661227" lon="12.8127819"><ele>15.0</ele><time>2026-04-07T08:26:21.293Z</time></trkpt><trkpt lat="41.4663351" lon="12.8128542"><ele>15.25</ele><time>2026-04-07T08:26:23.293Z</time></trkpt><trkpt lat="41.4665366" lon="12.8128781"><ele>15.5</ele><time>2026-04-07T08:26:25.293Z</time></trkpt><trkpt lat="41.4666193" lon="12.8129023"><ele>15.75</ele><time>2026-04-07T08:26:26.293Z</time></trkpt><trkpt lat="41.4667267" lon="12.8129114"><ele>16.0</ele><time>2026-04-07T08:26:27.293Z</time></trkpt><trkpt lat="41.4668203" lon="12.8129303"><ele>16.0</ele><time>2026-04-07T08:26:28.293Z</time></trkpt><trkpt lat="41.4669263" lon="12.8129311"><ele>16.0</ele><time>2026-04-07T08:26:29.293Z</time></trkpt><trkpt lat="41.4670239" lon="12.8129316"><ele>16.0</ele><time>2026-04-07T08:26:30.294Z</time></trkpt><trkpt lat="41.4671245" lon="12.8129274"><ele>16.0</ele><time>2026-04-07T08:26:31.293Z</time></trkpt><trkpt lat="41.4672029" lon="12.8129066"><ele>16.0</ele><time>2026-04-07T08:26:32.293Z</time></trkpt><trkpt lat="41.4673206" lon="12.8128988"><ele>16.0</ele><time>2026-04-07T08:26:33.293Z</time></trkpt><trkpt lat="41.4674303" lon="12.8129048"><ele>16.0</ele><time>2026-04-07T08:26:34.293Z</time></trkpt><trkpt lat="41.4676412" lon="12.8128819"><ele>16.0</ele><time>2026-04-07T08:26:36.293Z</time></trkpt><trkpt lat="41.4677265" lon="12.8128576"><ele>16.0</ele><time>2026-04-07T08:26:37.294Z</time></trkpt><trkpt lat="41.4679086" lon="12.8128712"><ele>15.75</ele><time>2026-04-07T08:26:39.293Z</time></trkpt><trkpt lat="41.4680913" lon="12.8129333"><ele>15.5</ele><time>2026-04-07T08:26:41.293Z</time></trkpt><trkpt lat="41.4681834" lon="12.8129671"><ele>15.25</ele><time>2026-04-07T08:26:42.294Z</time></trkpt><trkpt lat="41.4682693" lon="12.813027"><ele>15.0</ele><time>2026-04-07T08:26:43.293Z</time></trkpt><trkpt lat="41.4683502" lon="12.8130941"><ele>15.0</ele><time>2026-04-07T08:26:44.293Z</time></trkpt><trkpt lat="41.4684363" lon="12.8131724"><ele>15.0</ele><time>2026-04-07T08:26:45.293Z</time></trkpt><trkpt lat="41.4685007" lon="12.8132572"><ele>15.0</ele><time>2026-04-07T08:26:46.293Z</time></trkpt><trkpt lat="41.4685716" lon="12.8133594"><ele>15.0</ele><time>2026-04-07T08:26:47.294Z</time></trkpt><trkpt lat="41.4686412" lon="12.8134687"><ele>15.0</ele><time>2026-04-07T08:26:48.293Z</time></trkpt><trkpt lat="41.4686981" lon="12.8135902"><ele>15.0</ele><time>2026-04-07T08:26:49.294Z</time></trkpt><trkpt lat="41.4687495" lon="12.8137081"><ele>15.0</ele><time>2026-04-07T08:26:50.293Z</time></trkpt><trkpt lat="41.4688009" lon="12.8138348"><ele>15.0</ele><time>2026-04-07T08:26:51.293Z</time></trkpt><trkpt lat="41.4688429" lon="12.8139392"><ele>15.0</ele><time>2026-04-07T08:26:52.293Z</time></trkpt><trkpt lat="41.4688905" lon="12.8140424"><ele>15.0</ele><time>2026-04-07T08:26:53.293Z</time></trkpt><trkpt lat="41.4689602" lon="12.8142508"><ele>15.0</ele><time>2026-04-07T08:26:55.294Z</time></trkpt><trkpt lat="41.4690286" lon="12.8144716"><ele>15.0</ele><time>2026-04-07T08:26:57.293Z</time></trkpt><trkpt lat="41.4691069" lon="12.8146976"><ele>15.0</ele><time>2026-04-07T08:26:59.293Z</time></trkpt><trkpt lat="41.469207" lon="12.8149787"><ele>15.0</ele><time>2026-04-07T08:27:01.294Z</time></trkpt><trkpt lat="41.4692402" lon="12.8150776"><ele>15.0</ele><time>2026-04-07T08:27:02.293Z</time></trkpt><trkpt lat="41.4692767" lon="12.8151864"><ele>15.0</ele><time>2026-04-07T08:27:03.293Z</time></trkpt><trkpt lat="41.4693477" lon="12.8154024"><ele>15.0</ele><time>2026-04-07T08:27:05.294Z</time></trkpt><trkpt lat="41.4694441" lon="12.8156498"><ele>14.5</ele><time>2026-04-07T08:27:07.293Z</time></trkpt><trkpt lat="41.4695814" lon="12.8160111"><ele>14.0</ele><time>2026-04-07T08:27:09.293Z</time></trkpt><trkpt lat="41.4696727" lon="12.8162722"><ele>14.0</ele><time>2026-04-07T08:27:11.294Z</time></trkpt><trkpt lat="41.469762" lon="12.8165178"><ele>14.0</ele><time>2026-04-07T08:27:13.293Z</time></trkpt><trkpt lat="41.4698297" lon="12.8167203"><ele>14.0</ele><time>2026-04-07T08:27:15.293Z</time></trkpt><trkpt lat="41.4698654" lon="12.8168246"><ele>14.399999999999999</ele><time>2026-04-07T08:27:16.293Z</time></trkpt><trkpt lat="41.4699077" lon="12.8169502"><ele>14.799999999999999</ele><time>2026-04-07T08:27:17.293Z</time></trkpt><trkpt lat="41.4699433" lon="12.817059"><ele>15.200000000000001</ele><time>2026-04-07T08:27:18.293Z</time></trkpt><trkpt lat="41.4699853" lon="12.8171802"><ele>15.600000000000001</ele><time>2026-04-07T08:27:19.293Z</time></trkpt><trkpt lat="41.4700256" lon="12.8172896"><ele>16.0</ele><time>2026-04-07T08:27:20.293Z</time></trkpt><trkpt lat="41.4700612" lon="12.8173988"><ele>16.0</ele><time>2026-04-07T08:27:21.293Z</time></trkpt><trkpt lat="41.4701374" lon="12.8176039"><ele>16.0</ele><time>2026-04-07T08:27:23.293Z</time></trkpt><trkpt lat="41.4701951" lon="12.8177912"><ele>16.0</ele><time>2026-04-07T08:27:25.294Z</time></trkpt><trkpt lat="41.4702686" lon="12.8179967"><ele>16.0</ele><time>2026-04-07T08:27:27.293Z</time></trkpt><trkpt lat="41.4703198" lon="12.8181189"><ele>16.0</ele><time>2026-04-07T08:27:28.293Z</time></trkpt><trkpt lat="41.47038" lon="12.8182751"><ele>16.0</ele><time>2026-04-07T08:27:30.293Z</time></trkpt><trkpt lat="41.470415" lon="12.8183998"><ele>16.0</ele><time>2026-04-07T08:27:35.293Z</time></trkpt><trkpt lat="41.4704817" lon="12.8184553"><ele>16.0</ele><time>2026-04-07T08:30:41.293Z</time></trkpt><trkpt lat="41.4705594" lon="12.8184714"><ele>15.999999999999998</ele><time>2026-04-07T08:30:44.294Z</time></trkpt><trkpt lat="41.4705277" lon="12.8185961"><ele>16.0</ele><time>2026-04-07T08:30:49.293Z</time></trkpt><trkpt lat="41.4704799" lon="12.8187049"><ele>16.0</ele><time>2026-04-07T08:30:51.293Z</time></trkpt><trkpt lat="41.4704744" lon="12.8188017"><ele>16.0</ele><time>2026-04-07T08:30:53.293Z</time></trkpt><trkpt lat="41.4705084" lon="12.8188948"><ele>15.999999999999998</ele><time>2026-04-07T08:30:56.293Z</time></trkpt><trkpt lat="41.4705507" lon="12.818985"><ele>16.0</ele><time>2026-04-07T08:32:37.293Z</time></trkpt><trkpt lat="41.4706211" lon="12.81914"><ele>16.0</ele><time>2026-04-07T08:32:39.293Z</time></trkpt><trkpt lat="41.4706495" lon="12.8192361"><ele>16.0</ele><time>2026-04-07T08:32:40.293Z</time></trkpt><trkpt lat="41.4706828" lon="12.8193459"><ele>16.0</ele><time>2026-04-07T08:32:41.293Z</time></trkpt><trkpt lat="41.4707208" lon="12.81947"><ele>16.0</ele><time>2026-04-07T08:32:42.294Z</time></trkpt><trkpt lat="41.4707725" lon="12.8195939"><ele>16.0</ele><time>2026-04-07T08:32:43.293Z</time></trkpt><trkpt lat="41.4708683" lon="12.819797"><ele>16.25</ele><time>2026-04-07T08:32:45.294Z</time></trkpt><trkpt lat="41.4709292" lon="12.8200162"><ele>16.5</ele><time>2026-04-07T08:32:47.293Z</time></trkpt><trkpt lat="41.471005" lon="12.8202048"><ele>16.75</ele><time>2026-04-07T08:32:49.294Z</time></trkpt><trkpt lat="41.4710328" lon="12.8203098"><ele>17.0</ele><time>2026-04-07T08:32:50.293Z</time></trkpt><trkpt lat="41.4710675" lon="12.8204298"><ele>17.0</ele><time>2026-04-07T08:32:51.293Z</time></trkpt><trkpt lat="41.4711073" lon="12.8205514"><ele>17.0</ele><time>2026-04-07T08:32:52.293Z</time></trkpt><trkpt lat="41.4711753" lon="12.8207739"><ele>17.0</ele><time>2026-04-07T08:32:54.293Z</time></trkpt><trkpt lat="41.4712151" lon="12.8208623"><ele>17.0</ele><time>2026-04-07T08:32:55.293Z</time></trkpt><trkpt lat="41.4712724" lon="12.8209437"><ele>17.0</ele><time>2026-04-07T08:32:56.293Z</time></trkpt><trkpt lat="41.4713917" lon="12.8210943"><ele>17.0</ele><time>2026-04-07T08:32:58.293Z</time></trkpt><trkpt lat="41.471458" lon="12.8211182"><ele>17.0</ele><time>2026-04-07T08:33:00.293Z</time></trkpt><trkpt lat="41.4715236" lon="12.8210931"><ele>17.0</ele><time>2026-04-07T08:33:02.293Z</time></trkpt><trkpt lat="41.4716235" lon="12.8210463"><ele>17.0</ele><time>2026-04-07T08:33:04.293Z</time></trkpt><trkpt lat="41.47177" lon="12.8211361"><ele>17.0</ele><time>2026-04-07T08:33:07.294Z</time></trkpt><trkpt lat="41.47184" lon="12.8212026"><ele>17.0</ele><time>2026-04-07T08:33:09.293Z</time></trkpt><trkpt lat="41.4718804" lon="12.8212909"><ele>17.0</ele><time>2026-04-07T08:33:11.294Z</time></trkpt><trkpt lat="41.4718481" lon="12.8213955"><ele>17.0</ele><time>2026-04-07T08:33:13.293Z</time></trkpt><trkpt lat="41.4718132" lon="12.8215211"><ele>17.0</ele><time>2026-04-07T08:33:15.293Z</time></trkpt><trkpt lat="41.4718746" lon="12.8215957"><ele>17.0</ele><time>2026-04-07T08:33:17.293Z</time></trkpt><trkpt lat="41.4719453" lon="12.8216173"><ele>17.0</ele><time>2026-04-07T08:33:18.294Z</time></trkpt><trkpt lat="41.4721808" lon="12.8217125"><ele>16.75</ele><time>2026-04-07T08:33:20.293Z</time></trkpt><trkpt lat="41.4722966" lon="12.8217277"><ele>16.5</ele><time>2026-04-07T08:33:21.293Z</time></trkpt><trkpt lat="41.4724111" lon="12.8217331"><ele>16.25</ele><time>2026-04-07T08:33:22.293Z</time></trkpt><trkpt lat="41.4725383" lon="12.8217295"><ele>16.0</ele><time>2026-04-07T08:33:23.294Z</time></trkpt><trkpt lat="41.4728278" lon="12.8217044"><ele>16.5</ele><time>2026-04-07T08:33:25.294Z</time></trkpt><trkpt lat="41.4729933" lon="12.8216929"><ele>17.0</ele><time>2026-04-07T08:33:26.293Z</time></trkpt><trkpt lat="41.4733486" lon="12.8216557"><ele>17.0</ele><time>2026-04-07T08:33:28.293Z</time></trkpt><trkpt lat="41.4737079" lon="12.8216259"><ele>17.0</ele><time>2026-04-07T08:33:30.293Z</time></trkpt><trkpt lat="41.473888" lon="12.8216122"><ele>17.0</ele><time>2026-04-07T08:33:31.293Z</time></trkpt><trkpt lat="41.4740572" lon="12.8216005"><ele>17.0</ele><time>2026-04-07T08:33:32.293Z</time></trkpt><trkpt lat="41.4742205" lon="12.8215812"><ele>17.0</ele><time>2026-04-07T08:33:33.294Z</time></trkpt><trkpt lat="41.4743741" lon="12.8215653"><ele>17.333333333333336</ele><time>2026-04-07T08:33:34.293Z</time></trkpt><trkpt lat="41.4746687" lon="12.8215408"><ele>17.666666666666668</ele><time>2026-04-07T08:33:36.293Z</time></trkpt><trkpt lat="41.4748025" lon="12.8215322"><ele>18.0</ele><time>2026-04-07T08:33:37.293Z</time></trkpt><trkpt lat="41.4749287" lon="12.8215296"><ele>18.0</ele><time>2026-04-07T08:33:38.293Z</time></trkpt><trkpt lat="41.4750396" lon="12.8215389"><ele>18.0</ele><time>2026-04-07T08:33:39.293Z</time></trkpt><trkpt lat="41.4752613" lon="12.821578"><ele>18.0</ele><time>2026-04-07T08:33:41.293Z</time></trkpt><trkpt lat="41.4753682" lon="12.821625"><ele>18.0</ele><time>2026-04-07T08:33:42.293Z</time></trkpt><trkpt lat="41.4754765" lon="12.821703"><ele>18.0</ele><time>2026-04-07T08:33:43.294Z</time></trkpt><trkpt lat="41.4755924" lon="12.8217789"><ele>18.0</ele><time>2026-04-07T08:33:44.293Z</time></trkpt><trkpt lat="41.4757014" lon="12.8218627"><ele>18.0</ele><time>2026-04-07T08:33:45.293Z</time></trkpt><trkpt lat="41.4757951" lon="12.8219501"><ele>18.0</ele><time>2026-04-07T08:33:46.294Z</time></trkpt><trkpt lat="41.4758903" lon="12.8220604"><ele>18.0</ele><time>2026-04-07T08:33:47.293Z</time></trkpt><trkpt lat="41.4759773" lon="12.8221903"><ele>18.0</ele><time>2026-04-07T08:33:48.293Z</time></trkpt><trkpt lat="41.476061" lon="12.8223214"><ele>18.0</ele><time>2026-04-07T08:33:49.293Z</time></trkpt><trkpt lat="41.4761296" lon="12.8224668"><ele>18.0</ele><time>2026-04-07T08:33:50.293Z</time></trkpt><trkpt lat="41.4761875" lon="12.8226232"><ele>18.0</ele><time>2026-04-07T08:33:51.293Z</time></trkpt><trkpt lat="41.4762639" lon="12.8229391"><ele>18.0</ele><time>2026-04-07T08:33:53.293Z</time></trkpt><trkpt lat="41.4762944" lon="12.8231086"><ele>18.0</ele><time>2026-04-07T08:33:54.293Z</time></trkpt><trkpt lat="41.4763251" lon="12.8234823"><ele>18.0</ele><time>2026-04-07T08:33:56.293Z</time></trkpt><trkpt lat="41.4762962" lon="12.8236609"><ele>18.0</ele><time>2026-04-07T08:33:57.293Z</time></trkpt><trkpt lat="41.4762933" lon="12.8240405"><ele>18.0</ele><time>2026-04-07T08:33:59.294Z</time></trkpt><trkpt lat="41.4762761" lon="12.8242173"><ele>18.25</ele><time>2026-04-07T08:34:00.294Z</time></trkpt><trkpt lat="41.4762609" lon="12.8243754"><ele>18.5</ele><time>2026-04-07T08:34:01.293Z</time></trkpt><trkpt lat="41.4762518" lon="12.8245252"><ele>18.75</ele><time>2026-04-07T08:34:02.293Z</time></trkpt><trkpt lat="41.4762491" lon="12.8246627"><ele>19.0</ele><time>2026-04-07T08:34:03.293Z</time></trkpt><trkpt lat="41.4762655" lon="12.8249122"><ele>19.0</ele><time>2026-04-07T08:34:05.293Z</time></trkpt><trkpt lat="41.4762639" lon="12.8251755"><ele>19.0</ele><time>2026-04-07T08:34:07.294Z</time></trkpt><trkpt lat="41.4762486" lon="12.8254254"><ele>19.0</ele><time>2026-04-07T08:34:09.293Z</time></trkpt><trkpt lat="41.4762251" lon="12.8255424"><ele>19.0</ele><time>2026-04-07T08:34:10.293Z</time></trkpt><trkpt lat="41.4762111" lon="12.8258138"><ele>19.0</ele><time>2026-04-07T08:34:12.293Z</time></trkpt><trkpt lat="41.4761843" lon="12.8260682"><ele>19.0</ele><time>2026-04-07T08:34:14.293Z</time></trkpt><trkpt lat="41.4761602" lon="12.8263286"><ele>19.0</ele><time>2026-04-07T08:34:16.293Z</time></trkpt><trkpt lat="41.4761368" lon="12.8264527"><ele>19.0</ele><time>2026-04-07T08:34:17.293Z</time></trkpt><trkpt lat="41.4761121" lon="12.8265752"><ele>19.0</ele><time>2026-04-07T08:34:18.293Z</time></trkpt><trkpt lat="41.476092" lon="12.8266884"><ele>19.0</ele><time>2026-04-07T08:34:19.293Z</time></trkpt><trkpt lat="41.4760203" lon="12.8269225"><ele>19.0</ele><time>2026-04-07T08:34:21.293Z</time></trkpt><trkpt lat="41.4759499" lon="12.8271755"><ele>19.0</ele><time>2026-04-07T08:34:23.293Z</time></trkpt><trkpt lat="41.4759147" lon="12.8273155"><ele>19.0</ele><time>2026-04-07T08:34:24.294Z</time></trkpt><trkpt lat="41.4758814" lon="12.8274611"><ele>19.0</ele><time>2026-04-07T08:34:25.294Z</time></trkpt><trkpt lat="41.4757952" lon="12.8277988"><ele>19.0</ele><time>2026-04-07T08:34:27.294Z</time></trkpt><trkpt lat="41.4756955" lon="12.8281092"><ele>19.0</ele><time>2026-04-07T08:34:29.293Z</time></trkpt><trkpt lat="41.4756405" lon="12.8282614"><ele>19.0</ele><time>2026-04-07T08:34:30.293Z</time></trkpt><trkpt lat="41.4755875" lon="12.8284084"><ele>19.0</ele><time>2026-04-07T08:34:31.293Z</time></trkpt><trkpt lat="41.4754851" lon="12.8287048"><ele>19.0</ele><time>2026-04-07T08:34:33.293Z</time></trkpt><trkpt lat="41.4753925" lon="12.8289789"><ele>19.0</ele><time>2026-04-07T08:34:35.293Z</time></trkpt><trkpt lat="41.4753459" lon="12.8291072"><ele>19.0</ele><time>2026-04-07T08:34:36.293Z</time></trkpt><trkpt lat="41.475307" lon="12.8292332"><ele>19.0</ele><time>2026-04-07T08:34:37.293Z</time></trkpt><trkpt lat="41.4752601" lon="12.8293527"><ele>19.0</ele><time>2026-04-07T08:34:38.293Z</time></trkpt><trkpt lat="41.4752161" lon="12.8294607"><ele>19.0</ele><time>2026-04-07T08:34:39.293Z</time></trkpt><trkpt lat="41.4751734" lon="12.8295719"><ele>18.333333333333332</ele><time>2026-04-07T08:34:40.293Z</time></trkpt><trkpt lat="41.47508" lon="12.8297917"><ele>17.666666666666668</ele><time>2026-04-07T08:34:42.294Z</time></trkpt><trkpt lat="41.4749856" lon="12.8300382"><ele>17.0</ele><time>2026-04-07T08:34:44.294Z</time></trkpt><trkpt lat="41.4749499" lon="12.8301362"><ele>17.2</ele><time>2026-04-07T08:34:45.293Z</time></trkpt><trkpt lat="41.4748979" lon="12.8302788"><ele>17.4</ele><time>2026-04-07T08:34:47.293Z</time></trkpt><trkpt lat="41.4749026" lon="12.8303831"><ele>17.6</ele><time>2026-04-07T08:34:49.293Z</time></trkpt><trkpt lat="41.4749399" lon="12.8304509"><ele>17.8</ele><time>2026-04-07T08:34:50.294Z</time></trkpt><trkpt lat="41.4749388" lon="12.8305421"><ele>18.0</ele><time>2026-04-07T08:34:51.293Z</time></trkpt><trkpt lat="41.4748768" lon="12.8307595"><ele>18.0</ele><time>2026-04-07T08:34:53.293Z</time></trkpt><trkpt lat="41.474828" lon="12.8308851"><ele>18.0</ele><time>2026-04-07T08:34:54.293Z</time></trkpt><trkpt lat="41.4747304" lon="12.8311735"><ele>18.0</ele><time>2026-04-07T08:34:56.293Z</time></trkpt><trkpt lat="41.4746259" lon="12.8315203"><ele>18.0</ele><time>2026-04-07T08:34:58.293Z</time></trkpt><trkpt lat="41.4745127" lon="12.8318497"><ele>18.0</ele><time>2026-04-07T08:35:00.293Z</time></trkpt><trkpt lat="41.4743959" lon="12.8321953"><ele>18.0</ele><time>2026-04-07T08:35:02.293Z</time></trkpt><trkpt lat="41.4743021" lon="12.832516"><ele>18.0</ele><time>2026-04-07T08:35:04.293Z</time></trkpt><trkpt lat="41.4742554" lon="12.8328298"><ele>18.0</ele><time>2026-04-07T08:35:06.294Z</time></trkpt><trkpt lat="41.474247" lon="12.8329954"><ele>18.0</ele><time>2026-04-07T08:35:07.293Z</time></trkpt><trkpt lat="41.4742606" lon="12.8333041"><ele>18.0</ele><time>2026-04-07T08:35:09.294Z</time></trkpt><trkpt lat="41.4742688" lon="12.8334463"><ele>19.0</ele><time>2026-04-07T08:35:10.293Z</time></trkpt><trkpt lat="41.4742921" lon="12.8337079"><ele>20.0</ele><time>2026-04-07T08:35:12.293Z</time></trkpt><trkpt lat="41.474353" lon="12.8339616"><ele>21.0</ele><time>2026-04-07T08:35:14.294Z</time></trkpt><trkpt lat="41.4744728" lon="12.8342157"><ele>21.0</ele><time>2026-04-07T08:35:16.293Z</time></trkpt><trkpt lat="41.4745396" lon="12.8343501"><ele>21.0</ele><time>2026-04-07T08:35:17.293Z</time></trkpt><trkpt lat="41.4746164" lon="12.8344798"><ele>21.0</ele><time>2026-04-07T08:35:18.293Z</time></trkpt><trkpt lat="41.4747985" lon="12.8347113"><ele>21.0</ele><time>2026-04-07T08:35:20.294Z</time></trkpt><trkpt lat="41.4749056" lon="12.8348182"><ele>21.0</ele><time>2026-04-07T08:35:21.293Z</time></trkpt><trkpt lat="41.4750204" lon="12.8349125"><ele>21.0</ele><time>2026-04-07T08:35:22.293Z</time></trkpt><trkpt lat="41.4751428" lon="12.8349988"><ele>21.0</ele><time>2026-04-07T08:35:23.293Z</time></trkpt><trkpt lat="41.4754145" lon="12.8351246"><ele>21.333333333333332</ele><time>2026-04-07T08:35:25.293Z</time></trkpt><trkpt lat="41.4755455" lon="12.8351852"><ele>21.666666666666664</ele><time>2026-04-07T08:35:26.293Z</time></trkpt><trkpt lat="41.4758104" lon="12.835278"><ele>22.0</ele><time>2026-04-07T08:35:28.294Z</time></trkpt><trkpt lat="41.4759394" lon="12.8353284"><ele>22.0</ele><time>2026-04-07T08:35:29.293Z</time></trkpt><trkpt lat="41.4762042" lon="12.8354229"><ele>22.0</ele><time>2026-04-07T08:35:31.293Z</time></trkpt><trkpt lat="41.4764456" lon="12.8355205"><ele>22.333333333333332</ele><time>2026-04-07T08:35:33.293Z</time></trkpt><trkpt lat="41.4766425" lon="12.8355988"><ele>22.666666666666668</ele><time>2026-04-07T08:35:35.293Z</time></trkpt><trkpt lat="41.4767685" lon="12.8356579"><ele>23.0</ele><time>2026-04-07T08:35:37.294Z</time></trkpt><trkpt lat="41.4768849" lon="12.835687"><ele>23.0</ele><time>2026-04-07T08:35:39.294Z</time></trkpt><trkpt lat="41.4770058" lon="12.8357111"><ele>23.0</ele><time>2026-04-07T08:35:41.293Z</time></trkpt><trkpt lat="41.4771267" lon="12.8357516"><ele>23.0</ele><time>2026-04-07T08:35:43.293Z</time></trkpt><trkpt lat="41.4772478" lon="12.8357919"><ele>23.0</ele><time>2026-04-07T08:35:45.293Z</time></trkpt><trkpt lat="41.4774496" lon="12.8358638"><ele>23.0</ele><time>2026-04-07T08:35:48.293Z</time></trkpt><trkpt lat="41.4776029" lon="12.8359222"><ele>23.0</ele><time>2026-04-07T08:35:50.293Z</time></trkpt><trkpt lat="41.4777654" lon="12.8359792"><ele>23.0</ele><time>2026-04-07T08:35:52.293Z</time></trkpt><trkpt lat="41.4779172" lon="12.8360344"><ele>22.599999999999998</ele><time>2026-04-07T08:35:54.294Z</time></trkpt><trkpt lat="41.4779855" lon="12.8360645"><ele>22.2</ele><time>2026-04-07T08:35:55.293Z</time></trkpt><trkpt lat="41.47806" lon="12.8360892"><ele>21.8</ele><time>2026-04-07T08:35:56.294Z</time></trkpt><trkpt lat="41.4781406" lon="12.8361187"><ele>21.4</ele><time>2026-04-07T08:35:57.293Z</time></trkpt><trkpt lat="41.4782159" lon="12.8361476"><ele>21.0</ele><time>2026-04-07T08:35:58.293Z</time></trkpt><trkpt lat="41.478366" lon="12.8362063"><ele>21.0</ele><time>2026-04-07T08:36:00.293Z</time></trkpt><trkpt lat="41.4784472" lon="12.8362338"><ele>21.0</ele><time>2026-04-07T08:36:01.293Z</time></trkpt><trkpt lat="41.4785999" lon="12.8362811"><ele>21.0</ele><time>2026-04-07T08:36:03.293Z</time></trkpt><trkpt lat="41.4786733" lon="12.8363043"><ele>21.0</ele><time>2026-04-07T08:36:04.293Z</time></trkpt><trkpt lat="41.4787457" lon="12.836321"><ele>21.0</ele><time>2026-04-07T08:36:05.293Z</time></trkpt><trkpt lat="41.4788963" lon="12.8363581"><ele>21.25</ele><time>2026-04-07T08:36:07.293Z</time></trkpt><trkpt lat="41.4790577" lon="12.8363989"><ele>21.5</ele><time>2026-04-07T08:36:09.293Z</time></trkpt><trkpt lat="41.47922" lon="12.8364289"><ele>21.75</ele><time>2026-04-07T08:36:11.293Z</time></trkpt><trkpt lat="41.4793015" lon="12.8364487"><ele>22.0</ele><time>2026-04-07T08:36:12.293Z</time></trkpt><trkpt lat="41.4794508" lon="12.8364928"><ele>22.0</ele><time>2026-04-07T08:36:14.293Z</time></trkpt><trkpt lat="41.4795893" lon="12.8365536"><ele>22.0</ele><time>2026-04-07T08:36:16.293Z</time></trkpt><trkpt lat="41.4797803" lon="12.8365527"><ele>22.0</ele><time>2026-04-07T08:36:19.293Z</time></trkpt><trkpt lat="41.4799163" lon="12.8365209"><ele>22.0</ele><time>2026-04-07T08:36:21.293Z</time></trkpt><trkpt lat="41.4800658" lon="12.8364814"><ele>22.0</ele><time>2026-04-07T08:36:23.293Z</time></trkpt><trkpt lat="41.4801429" lon="12.8364658"><ele>22.0</ele><time>2026-04-07T08:36:24.293Z</time></trkpt><trkpt lat="41.4802144" lon="12.8364442"><ele>22.0</ele><time>2026-04-07T08:36:25.293Z</time></trkpt><trkpt lat="41.4802842" lon="12.8364267"><ele>22.0</ele><time>2026-04-07T08:36:26.293Z</time></trkpt><trkpt lat="41.4803521" lon="12.836412"><ele>22.0</ele><time>2026-04-07T08:36:27.294Z</time></trkpt><trkpt lat="41.4804802" lon="12.836373"><ele>21.5</ele><time>2026-04-07T08:36:29.293Z</time></trkpt><trkpt lat="41.4805422" lon="12.836357"><ele>21.0</ele><time>2026-04-07T08:36:30.293Z</time></trkpt><trkpt lat="41.4807328" lon="12.836297"><ele>20.5</ele><time>2026-04-07T08:36:33.294Z</time></trkpt><trkpt lat="41.4808643" lon="12.8362595"><ele>20.0</ele><time>2026-04-07T08:36:35.293Z</time></trkpt><trkpt lat="41.4809343" lon="12.8362374"><ele>20.0</ele><time>2026-04-07T08:36:36.294Z</time></trkpt><trkpt lat="41.4810029" lon="12.8362179"><ele>20.0</ele><time>2026-04-07T08:36:37.293Z</time></trkpt><trkpt lat="41.4810679" lon="12.8361969"><ele>20.0</ele><time>2026-04-07T08:36:38.293Z</time></trkpt><trkpt lat="41.4811939" lon="12.8361548"><ele>20.0</ele><time>2026-04-07T08:36:40.293Z</time></trkpt><trkpt lat="41.481256" lon="12.8361353"><ele>20.0</ele><time>2026-04-07T08:36:41.293Z</time></trkpt><trkpt lat="41.4813749" lon="12.8360928"><ele>20.25</ele><time>2026-04-07T08:36:43.293Z</time></trkpt><trkpt lat="41.481502" lon="12.83605"><ele>20.5</ele><time>2026-04-07T08:36:45.293Z</time></trkpt><trkpt lat="41.4816146" lon="12.8360027"><ele>20.75</ele><time>2026-04-07T08:36:47.293Z</time></trkpt><trkpt lat="41.4817245" lon="12.8359356"><ele>21.0</ele><time>2026-04-07T08:36:49.294Z</time></trkpt><trkpt lat="41.4818519" lon="12.8358328"><ele>21.0</ele><time>2026-04-07T08:36:51.293Z</time></trkpt><trkpt lat="41.4819186" lon="12.8357861"><ele>21.0</ele><time>2026-04-07T08:36:52.293Z</time></trkpt><trkpt lat="41.4819763" lon="12.8357405"><ele>21.0</ele><time>2026-04-07T08:36:53.293Z</time></trkpt><trkpt lat="41.4821088" lon="12.8356594"><ele>21.0</ele><time>2026-04-07T08:36:55.293Z</time></trkpt><trkpt lat="41.4822471" lon="12.83559"><ele>21.0</ele><time>2026-04-07T08:36:57.293Z</time></trkpt><trkpt lat="41.4823741" lon="12.835517"><ele>21.6</ele><time>2026-04-07T08:36:59.293Z</time></trkpt><trkpt lat="41.4825011" lon="12.8354455"><ele>22.200000000000003</ele><time>2026-04-07T08:37:01.294Z</time></trkpt><trkpt lat="41.4826252" lon="12.8353647"><ele>22.799999999999997</ele><time>2026-04-07T08:37:03.293Z</time></trkpt><trkpt lat="41.4826883" lon="12.8353293"><ele>23.4</ele><time>2026-04-07T08:37:04.293Z</time></trkpt><trkpt lat="41.4827563" lon="12.8352834"><ele>24.0</ele><time>2026-04-07T08:37:05.293Z</time></trkpt><trkpt lat="41.4828881" lon="12.8352024"><ele>23.5</ele><time>2026-04-07T08:37:07.293Z</time></trkpt><trkpt lat="41.4830085" lon="12.8351352"><ele>23.0</ele><time>2026-04-07T08:37:09.293Z</time></trkpt><trkpt lat="41.4831217" lon="12.8350728"><ele>22.5</ele><time>2026-04-07T08:37:11.293Z</time></trkpt><trkpt lat="41.4832259" lon="12.8350051"><ele>22.0</ele><time>2026-04-07T08:37:13.293Z</time></trkpt><trkpt lat="41.4833446" lon="12.8349297"><ele>22.0</ele><time>2026-04-07T08:37:15.293Z</time></trkpt><trkpt lat="41.4834365" lon="12.8348736"><ele>22.0</ele><time>2026-04-07T08:37:17.293Z</time></trkpt><trkpt lat="41.4835396" lon="12.8348179"><ele>22.0</ele><time>2026-04-07T08:37:19.293Z</time></trkpt><trkpt lat="41.4836489" lon="12.8347633"><ele>22.0</ele><time>2026-04-07T08:37:21.293Z</time></trkpt><trkpt lat="41.4837547" lon="12.8347034"><ele>22.0</ele><time>2026-04-07T08:37:23.294Z</time></trkpt><trkpt lat="41.4838674" lon="12.8346332"><ele>22.8</ele><time>2026-04-07T08:37:25.293Z</time></trkpt><trkpt lat="41.4839707" lon="12.8345852"><ele>23.6</ele><time>2026-04-07T08:37:27.293Z</time></trkpt><trkpt lat="41.4840759" lon="12.8345152"><ele>24.400000000000002</ele><time>2026-04-07T08:37:29.293Z</time></trkpt><trkpt lat="41.4841797" lon="12.8344477"><ele>25.200000000000003</ele><time>2026-04-07T08:37:31.293Z</time></trkpt><trkpt lat="41.4842392" lon="12.8344092"><ele>26.0</ele><time>2026-04-07T08:37:32.293Z</time></trkpt><trkpt lat="41.4843569" lon="12.8343572"><ele>25.6</ele><time>2026-04-07T08:37:34.293Z</time></trkpt><trkpt lat="41.484471" lon="12.8342927"><ele>25.200000000000003</ele><time>2026-04-07T08:37:36.293Z</time></trkpt><trkpt lat="41.48459" lon="12.8342382"><ele>24.799999999999997</ele><time>2026-04-07T08:37:38.293Z</time></trkpt><trkpt lat="41.4846526" lon="12.8342029"><ele>24.4</ele><time>2026-04-07T08:37:39.294Z</time></trkpt><trkpt lat="41.4847624" lon="12.8341391"><ele>24.0</ele><time>2026-04-07T08:37:41.293Z</time></trkpt><trkpt lat="41.4849309" lon="12.834061"><ele>24.0</ele><time>2026-04-07T08:37:44.293Z</time></trkpt><trkpt lat="41.4850529" lon="12.8340144"><ele>24.0</ele><time>2026-04-07T08:37:46.294Z</time></trkpt><trkpt lat="41.4851864" lon="12.8339694"><ele>24.0</ele><time>2026-04-07T08:37:48.293Z</time></trkpt><trkpt lat="41.4853072" lon="12.8339019"><ele>24.0</ele><time>2026-04-07T08:37:50.293Z</time></trkpt><trkpt lat="41.4854247" lon="12.8338153"><ele>24.4</ele><time>2026-04-07T08:37:52.293Z</time></trkpt><trkpt lat="41.4855538" lon="12.8337265"><ele>24.799999999999997</ele><time>2026-04-07T08:37:54.294Z</time></trkpt><trkpt lat="41.4856922" lon="12.8336491"><ele>25.200000000000003</ele><time>2026-04-07T08:37:56.293Z</time></trkpt><trkpt lat="41.4857681" lon="12.8336007"><ele>25.6</ele><time>2026-04-07T08:37:57.294Z</time></trkpt><trkpt lat="41.4858303" lon="12.8335622"><ele>26.0</ele><time>2026-04-07T08:37:58.293Z</time></trkpt><trkpt lat="41.4859609" lon="12.8334853"><ele>26.0</ele><time>2026-04-07T08:38:00.293Z</time></trkpt><trkpt lat="41.4860934" lon="12.833414"><ele>26.0</ele><time>2026-04-07T08:38:02.293Z</time></trkpt><trkpt lat="41.4861637" lon="12.8333867"><ele>26.0</ele><time>2026-04-07T08:38:03.293Z</time></trkpt><trkpt lat="41.4862993" lon="12.8333248"><ele>26.0</ele><time>2026-04-07T08:38:05.294Z</time></trkpt><trkpt lat="41.4864404" lon="12.8332573"><ele>26.200000000000003</ele><time>2026-04-07T08:38:07.294Z</time></trkpt><trkpt lat="41.4865714" lon="12.8331886"><ele>26.400000000000002</ele><time>2026-04-07T08:38:09.293Z</time></trkpt><trkpt lat="41.486701" lon="12.8331168"><ele>26.6</ele><time>2026-04-07T08:38:11.294Z</time></trkpt><trkpt lat="41.4867598" lon="12.8330851"><ele>26.8</ele><time>2026-04-07T08:38:12.294Z</time></trkpt><trkpt lat="41.4868317" lon="12.8330409"><ele>27.0</ele><time>2026-04-07T08:38:14.293Z</time></trkpt><trkpt lat="41.4868982" lon="12.8330258"><ele>27.0</ele><time>2026-04-07T08:38:16.293Z</time></trkpt><trkpt lat="41.4869579" lon="12.8329919"><ele>27.0</ele><time>2026-04-07T08:38:18.294Z</time></trkpt><trkpt lat="41.4870322" lon="12.8329777"><ele>27.0</ele><time>2026-04-07T08:38:20.293Z</time></trkpt><trkpt lat="41.4871354" lon="12.8329661"><ele>27.0</ele><time>2026-04-07T08:38:22.293Z</time></trkpt><trkpt lat="41.4872495" lon="12.832941"><ele>27.0</ele><time>2026-04-07T08:38:24.294Z</time></trkpt><trkpt lat="41.4873146" lon="12.832916"><ele>27.0</ele><time>2026-04-07T08:38:25.293Z</time></trkpt><trkpt lat="41.4874555" lon="12.8328362"><ele>26.6</ele><time>2026-04-07T08:38:28.293Z</time></trkpt><trkpt lat="41.4875555" lon="12.8328014"><ele>26.200000000000003</ele><time>2026-04-07T08:38:30.293Z</time></trkpt><trkpt lat="41.4876179" lon="12.8327789"><ele>25.8</ele><time>2026-04-07T08:38:31.293Z</time></trkpt><trkpt lat="41.4877351" lon="12.8327539"><ele>25.4</ele><time>2026-04-07T08:38:33.293Z</time></trkpt><trkpt lat="41.4877976" lon="12.832737"><ele>25.0</ele><time>2026-04-07T08:38:34.293Z</time></trkpt><trkpt lat="41.4879175" lon="12.8327185"><ele>24.8</ele><time>2026-04-07T08:38:36.293Z</time></trkpt><trkpt lat="41.4879825" lon="12.8327085"><ele>24.6</ele><time>2026-04-07T08:38:37.294Z</time></trkpt><trkpt lat="41.4880523" lon="12.8326969"><ele>24.4</ele><time>2026-04-07T08:38:38.293Z</time></trkpt><trkpt lat="41.4881717" lon="12.8326836"><ele>24.2</ele><time>2026-04-07T08:38:40.293Z</time></trkpt><trkpt lat="41.4882938" lon="12.8326616"><ele>24.0</ele><time>2026-04-07T08:38:42.293Z</time></trkpt><trkpt lat="41.4884113" lon="12.832641"><ele>24.0</ele><time>2026-04-07T08:38:44.294Z</time></trkpt><trkpt lat="41.4885086" lon="12.8326366"><ele>24.0</ele><time>2026-04-07T08:38:46.294Z</time></trkpt><trkpt lat="41.4885745" lon="12.8326245"><ele>24.0</ele><time>2026-04-07T08:42:03.293Z</time></trkpt><trkpt lat="41.4886727" lon="12.8326256"><ele>24.0</ele><time>2026-04-07T08:42:06.294Z</time></trkpt><trkpt lat="41.4888159" lon="12.8326245"><ele>24.0</ele><time>2026-04-07T08:42:08.293Z</time></trkpt><trkpt lat="41.4889085" lon="12.8326241"><ele>24.0</ele><time>2026-04-07T08:42:09.294Z</time></trkpt><trkpt lat="41.4889881" lon="12.832628"><ele>24.0</ele><time>2026-04-07T08:42:10.293Z</time></trkpt><trkpt lat="41.4891552" lon="12.8326373"><ele>24.0</ele><time>2026-04-07T08:42:12.293Z</time></trkpt><trkpt lat="41.4892454" lon="12.8326423"><ele>24.0</ele><time>2026-04-07T08:42:13.293Z</time></trkpt><trkpt lat="41.4893274" lon="12.8326469"><ele>24.0</ele><time>2026-04-07T08:42:14.293Z</time></trkpt><trkpt lat="41.4894002" lon="12.832652"><ele>24.0</ele><time>2026-04-07T08:42:15.293Z</time></trkpt><trkpt lat="41.4894699" lon="12.8326497"><ele>24.0</ele><time>2026-04-07T08:42:16.293Z</time></trkpt><trkpt lat="41.4895458" lon="12.8326593"><ele>24.0</ele><time>2026-04-07T08:42:17.294Z</time></trkpt><trkpt lat="41.489617" lon="12.8326635"><ele>24.0</ele><time>2026-04-07T08:42:18.293Z</time></trkpt><trkpt lat="41.4897414" lon="12.8326755"><ele>24.0</ele><time>2026-04-07T08:42:20.293Z</time></trkpt><trkpt lat="41.4898636" lon="12.8326926"><ele>24.25</ele><time>2026-04-07T08:42:22.293Z</time></trkpt><trkpt lat="41.4900575" lon="12.8326986"><ele>24.5</ele><time>2026-04-07T08:42:25.293Z</time></trkpt><trkpt lat="41.4901289" lon="12.8327033"><ele>24.75</ele><time>2026-04-07T08:42:26.294Z</time></trkpt><trkpt lat="41.490269" lon="12.8327066"><ele>25.0</ele><time>2026-04-07T08:42:28.293Z</time></trkpt><trkpt lat="41.4903909" lon="12.8327214"><ele>25.75</ele><time>2026-04-07T08:42:30.293Z</time></trkpt><trkpt lat="41.4905677" lon="12.8327505"><ele>26.5</ele><time>2026-04-07T08:42:33.293Z</time></trkpt><trkpt lat="41.4906933" lon="12.8327691"><ele>27.25</ele><time>2026-04-07T08:42:35.293Z</time></trkpt><trkpt lat="41.4908154" lon="12.8327722"><ele>28.0</ele><time>2026-04-07T08:42:37.293Z</time></trkpt><trkpt lat="41.4909538" lon="12.8327846"><ele>28.0</ele><time>2026-04-07T08:42:39.293Z</time></trkpt><trkpt lat="41.4910912" lon="12.8327875"><ele>27.999999999999996</ele><time>2026-04-07T08:42:41.293Z</time></trkpt><trkpt lat="41.4912239" lon="12.8327989"><ele>27.999999999999996</ele><time>2026-04-07T08:42:43.293Z</time></trkpt><trkpt lat="41.4912929" lon="12.8328083"><ele>28.0</ele><time>2026-04-07T08:42:44.293Z</time></trkpt><trkpt lat="41.491365" lon="12.832801"><ele>28.0</ele><time>2026-04-07T08:42:45.293Z</time></trkpt><trkpt lat="41.4914304" lon="12.8328086"><ele>28.0</ele><time>2026-04-07T08:42:46.293Z</time></trkpt><trkpt lat="41.4914965" lon="12.8328192"><ele>27.999999999999996</ele><time>2026-04-07T08:42:47.293Z</time></trkpt><trkpt lat="41.4915834" lon="12.8328317"><ele>27.999999999999996</ele><time>2026-04-07T08:42:48.293Z</time></trkpt><trkpt lat="41.4916643" lon="12.8328429"><ele>28.0</ele><time>2026-04-07T08:42:49.293Z</time></trkpt><trkpt lat="41.4918187" lon="12.8328524"><ele>28.0</ele><time>2026-04-07T08:42:51.293Z</time></trkpt><trkpt lat="41.4918975" lon="12.8328702"><ele>28.0</ele><time>2026-04-07T08:42:52.293Z</time></trkpt><trkpt lat="41.4919711" lon="12.8328787"><ele>27.999999999999996</ele><time>2026-04-07T08:42:53.293Z</time></trkpt><trkpt lat="41.4921212" lon="12.8329026"><ele>27.999999999999996</ele><time>2026-04-07T08:42:55.293Z</time></trkpt><trkpt lat="41.4921998" lon="12.8329086"><ele>28.0</ele><time>2026-04-07T08:42:56.293Z</time></trkpt><trkpt lat="41.492275" lon="12.8329173"><ele>28.0</ele><time>2026-04-07T08:42:57.293Z</time></trkpt><trkpt lat="41.4923427" lon="12.8329467"><ele>28.2</ele><time>2026-04-07T08:42:58.293Z</time></trkpt><trkpt lat="41.49251" lon="12.832906"><ele>28.4</ele><time>2026-04-07T08:43:01.293Z</time></trkpt><trkpt lat="41.4926448" lon="12.8328636"><ele>28.599999999999998</ele><time>2026-04-07T08:43:03.293Z</time></trkpt><trkpt lat="41.4927031" lon="12.8328257"><ele>28.799999999999997</ele><time>2026-04-07T08:43:04.293Z</time></trkpt><trkpt lat="41.4927669" lon="12.8327866"><ele>29.0</ele><time>2026-04-07T08:43:05.293Z</time></trkpt><trkpt lat="41.4928955" lon="12.8327907"><ele>28.666666666666664</ele><time>2026-04-07T08:43:07.293Z</time></trkpt><trkpt lat="41.4930457" lon="12.8327989"><ele>28.333333333333336</ele><time>2026-04-07T08:43:09.294Z</time></trkpt><trkpt lat="41.4932028" lon="12.8328033"><ele>28.0</ele><time>2026-04-07T08:43:11.294Z</time></trkpt><trkpt lat="41.4934731" lon="12.8328873"><ele>28.0</ele><time>2026-04-07T08:43:15.293Z</time></trkpt><trkpt lat="41.4935496" lon="12.8329046"><ele>28.0</ele><time>2026-04-07T08:43:16.293Z</time></trkpt><trkpt lat="41.4936741" lon="12.8329352"><ele>28.0</ele><time>2026-04-07T08:43:18.294Z</time></trkpt><trkpt lat="41.493759" lon="12.8329541"><ele>28.0</ele><time>2026-04-07T08:43:19.293Z</time></trkpt><trkpt lat="41.4939314" lon="12.8330047"><ele>27.75</ele><time>2026-04-07T08:43:21.293Z</time></trkpt><trkpt lat="41.4940915" lon="12.8330529"><ele>27.5</ele><time>2026-04-07T08:43:23.293Z</time></trkpt><trkpt lat="41.4942517" lon="12.8331075"><ele>27.25</ele><time>2026-04-07T08:43:25.294Z</time></trkpt><trkpt lat="41.4943128" lon="12.8331296"><ele>27.0</ele><time>2026-04-07T08:43:26.293Z</time></trkpt><trkpt lat="41.4943638" lon="12.8331817"><ele>27.0</ele><time>2026-04-07T08:43:27.293Z</time></trkpt><trkpt lat="41.4944204" lon="12.833237"><ele>27.000000000000004</ele><time>2026-04-07T08:43:28.293Z</time></trkpt><trkpt lat="41.4945786" lon="12.8332504"><ele>27.000000000000004</ele><time>2026-04-07T08:43:31.294Z</time></trkpt><trkpt lat="41.4946445" lon="12.8332381"><ele>27.0</ele><time>2026-04-07T08:43:32.293Z</time></trkpt><trkpt lat="41.4947891" lon="12.8332582"><ele>27.0</ele><time>2026-04-07T08:43:34.293Z</time></trkpt><trkpt lat="41.4949743" lon="12.833322"><ele>26.25</ele><time>2026-04-07T08:43:36.293Z</time></trkpt><trkpt lat="41.4951516" lon="12.8333656"><ele>25.5</ele><time>2026-04-07T08:43:38.293Z</time></trkpt><trkpt lat="41.495254" lon="12.833389"><ele>24.75</ele><time>2026-04-07T08:43:39.293Z</time></trkpt><trkpt lat="41.495365" lon="12.8334144"><ele>24.0</ele><time>2026-04-07T08:43:40.293Z</time></trkpt><trkpt lat="41.4954942" lon="12.83345"><ele>24.75</ele><time>2026-04-07T08:43:41.293Z</time></trkpt><trkpt lat="41.4956039" lon="12.8334831"><ele>25.5</ele><time>2026-04-07T08:43:42.294Z</time></trkpt><trkpt lat="41.4957244" lon="12.8335188"><ele>26.25</ele><time>2026-04-07T08:43:43.294Z</time></trkpt><trkpt lat="41.4958359" lon="12.8335452"><ele>27.0</ele><time>2026-04-07T08:43:44.293Z</time></trkpt><trkpt lat="41.495947" lon="12.8335718"><ele>27.0</ele><time>2026-04-07T08:43:45.293Z</time></trkpt><trkpt lat="41.4961685" lon="12.8336327"><ele>27.0</ele><time>2026-04-07T08:43:47.293Z</time></trkpt><trkpt lat="41.4963816" lon="12.8336802"><ele>27.0</ele><time>2026-04-07T08:43:49.293Z</time></trkpt><trkpt lat="41.4964869" lon="12.8337015"><ele>27.0</ele><time>2026-04-07T08:43:50.293Z</time></trkpt><trkpt lat="41.4966866" lon="12.8337466"><ele>27.0</ele><time>2026-04-07T08:43:52.294Z</time></trkpt><trkpt lat="41.4968911" lon="12.8337855"><ele>27.0</ele><time>2026-04-07T08:43:54.293Z</time></trkpt><trkpt lat="41.4970845" lon="12.8338249"><ele>27.0</ele><time>2026-04-07T08:43:56.293Z</time></trkpt><trkpt lat="41.4972872" lon="12.8338649"><ele>27.0</ele><time>2026-04-07T08:43:58.293Z</time></trkpt><trkpt lat="41.4974689" lon="12.8338917"><ele>27.0</ele><time>2026-04-07T08:44:00.294Z</time></trkpt><trkpt lat="41.4975585" lon="12.8339256"><ele>27.0</ele><time>2026-04-07T08:44:01.294Z</time></trkpt><trkpt lat="41.4976463" lon="12.8339622"><ele>27.000000000000004</ele><time>2026-04-07T08:44:02.293Z</time></trkpt><trkpt lat="41.4977374" lon="12.8339828"><ele>27.000000000000004</ele><time>2026-04-07T08:44:03.293Z</time></trkpt><trkpt lat="41.4979042" lon="12.8340139"><ele>27.0</ele><time>2026-04-07T08:44:05.293Z</time></trkpt><trkpt lat="41.4979787" lon="12.8340488"><ele>27.0</ele><time>2026-04-07T08:44:06.293Z</time></trkpt><trkpt lat="41.4980561" lon="12.8341001"><ele>26.25</ele><time>2026-04-07T08:44:07.293Z</time></trkpt><trkpt lat="41.4981418" lon="12.8341316"><ele>25.5</ele><time>2026-04-07T08:44:08.294Z</time></trkpt><trkpt lat="41.4982403" lon="12.8341621"><ele>24.75</ele><time>2026-04-07T08:44:09.293Z</time></trkpt><trkpt lat="41.4984737" lon="12.8342057"><ele>24.0</ele><time>2026-04-07T08:44:11.293Z</time></trkpt><trkpt lat="41.4986026" lon="12.8342359"><ele>23.666666666666668</ele><time>2026-04-07T08:44:12.294Z</time></trkpt><trkpt lat="41.4988491" lon="12.8342868"><ele>23.333333333333336</ele><time>2026-04-07T08:44:14.294Z</time></trkpt><trkpt lat="41.4989655" lon="12.8343177"><ele>23.0</ele><time>2026-04-07T08:44:15.293Z</time></trkpt><trkpt lat="41.4991798" lon="12.8343597"><ele>23.666666666666668</ele><time>2026-04-07T08:44:17.294Z</time></trkpt><trkpt lat="41.4993735" lon="12.8344358"><ele>24.333333333333336</ele><time>2026-04-07T08:44:19.293Z</time></trkpt><trkpt lat="41.4994702" lon="12.8344713"><ele>25.0</ele><time>2026-04-07T08:44:20.293Z</time></trkpt><trkpt lat="41.4996708" lon="12.834509"><ele>25.0</ele><time>2026-04-07T08:44:22.293Z</time></trkpt><trkpt lat="41.4997881" lon="12.834542"><ele>25.0</ele><time>2026-04-07T08:44:23.293Z</time></trkpt><trkpt lat="41.5000613" lon="12.8346255"><ele>25.0</ele><time>2026-04-07T08:44:25.293Z</time></trkpt><trkpt lat="41.500218" lon="12.8346632"><ele>25.0</ele><time>2026-04-07T08:44:26.293Z</time></trkpt><trkpt lat="41.500385" lon="12.8347117"><ele>25.0</ele><time>2026-04-07T08:44:27.293Z</time></trkpt><trkpt lat="41.5005451" lon="12.8347501"><ele>25.0</ele><time>2026-04-07T08:44:28.293Z</time></trkpt><trkpt lat="41.500699" lon="12.8347884"><ele>25.5</ele><time>2026-04-07T08:44:29.293Z</time></trkpt><trkpt lat="41.5010127" lon="12.8348637"><ele>26.0</ele><time>2026-04-07T08:44:31.293Z</time></trkpt><trkpt lat="41.5011642" lon="12.8349054"><ele>26.0</ele><time>2026-04-07T08:44:32.293Z</time></trkpt><trkpt lat="41.50132" lon="12.8349514"><ele>26.0</ele><time>2026-04-07T08:44:33.293Z</time></trkpt><trkpt lat="41.5016466" lon="12.8350392"><ele>26.0</ele><time>2026-04-07T08:44:35.294Z</time></trkpt><trkpt lat="41.5018306" lon="12.8350873"><ele>26.0</ele><time>2026-04-07T08:44:36.293Z</time></trkpt><trkpt lat="41.5020161" lon="12.8351429"><ele>26.0</ele><time>2026-04-07T08:44:37.293Z</time></trkpt><trkpt lat="41.5021933" lon="12.8351909"><ele>26.0</ele><time>2026-04-07T08:44:38.293Z</time></trkpt><trkpt lat="41.5023694" lon="12.8352441"><ele>26.0</ele><time>2026-04-07T08:44:39.293Z</time></trkpt><trkpt lat="41.5026883" lon="12.8353278"><ele>26.0</ele><time>2026-04-07T08:44:41.293Z</time></trkpt><trkpt lat="41.502847" lon="12.835369"><ele>26.0</ele><time>2026-04-07T08:44:42.293Z</time></trkpt><trkpt lat="41.5030212" lon="12.8354148"><ele>26.0</ele><time>2026-04-07T08:44:43.294Z</time></trkpt><trkpt lat="41.503173" lon="12.835453"><ele>26.0</ele><time>2026-04-07T08:44:44.293Z</time></trkpt><trkpt lat="41.5033239" lon="12.835494"><ele>26.0</ele><time>2026-04-07T08:44:45.293Z</time></trkpt><trkpt lat="41.5036199" lon="12.8355746"><ele>26.0</ele><time>2026-04-07T08:44:47.294Z</time></trkpt><trkpt lat="41.5039156" lon="12.83566"><ele>26.0</ele><time>2026-04-07T08:44:49.293Z</time></trkpt><trkpt lat="41.5041984" lon="12.8357342"><ele>26.0</ele><time>2026-04-07T08:44:51.293Z</time></trkpt><trkpt lat="41.5044825" lon="12.8358137"><ele>26.0</ele><time>2026-04-07T08:44:53.293Z</time></trkpt><trkpt lat="41.5046258" lon="12.835852"><ele>26.0</ele><time>2026-04-07T08:44:54.294Z</time></trkpt><trkpt lat="41.5048916" lon="12.8359153"><ele>27.0</ele><time>2026-04-07T08:44:56.293Z</time></trkpt><trkpt lat="41.5051552" lon="12.8359955"><ele>28.0</ele><time>2026-04-07T08:44:58.293Z</time></trkpt><trkpt lat="41.5054056" lon="12.8360694"><ele>27.5</ele><time>2026-04-07T08:45:00.293Z</time></trkpt><trkpt lat="41.5056393" lon="12.8361346"><ele>27.0</ele><time>2026-04-07T08:45:02.293Z</time></trkpt><trkpt lat="41.5058614" lon="12.836198"><ele>27.0</ele><time>2026-04-07T08:45:04.293Z</time></trkpt><trkpt lat="41.5061021" lon="12.8362665"><ele>27.0</ele><time>2026-04-07T08:45:06.293Z</time></trkpt><trkpt lat="41.506349" lon="12.8363338"><ele>26.75</ele><time>2026-04-07T08:45:08.294Z</time></trkpt><trkpt lat="41.5064789" lon="12.8363703"><ele>26.5</ele><time>2026-04-07T08:45:09.293Z</time></trkpt><trkpt lat="41.5066233" lon="12.8364189"><ele>26.25</ele><time>2026-04-07T08:45:10.293Z</time></trkpt><trkpt lat="41.5067795" lon="12.8364649"><ele>26.0</ele><time>2026-04-07T08:45:11.293Z</time></trkpt><trkpt lat="41.5069564" lon="12.8365086"><ele>25.5</ele><time>2026-04-07T08:45:12.294Z</time></trkpt><trkpt lat="41.5071245" lon="12.8365493"><ele>25.0</ele><time>2026-04-07T08:45:13.293Z</time></trkpt><trkpt lat="41.50745" lon="12.8366282"><ele>25.0</ele><time>2026-04-07T08:45:15.293Z</time></trkpt><trkpt lat="41.5077673" lon="12.8367089"><ele>25.0</ele><time>2026-04-07T08:45:17.293Z</time></trkpt><trkpt lat="41.5080596" lon="12.8367889"><ele>27.0</ele><time>2026-04-07T08:45:19.293Z</time></trkpt><trkpt lat="41.5083344" lon="12.8368669"><ele>29.0</ele><time>2026-04-07T08:45:21.294Z</time></trkpt><trkpt lat="41.508595" lon="12.8369417"><ele>30.0</ele><time>2026-04-07T08:45:23.293Z</time></trkpt><trkpt lat="41.5088498" lon="12.8370192"><ele>31.0</ele><time>2026-04-07T08:45:25.293Z</time></trkpt><trkpt lat="41.5090805" lon="12.8371355"><ele>31.0</ele><time>2026-04-07T08:45:27.293Z</time></trkpt><trkpt lat="41.5092082" lon="12.8371832"><ele>31.0</ele><time>2026-04-07T08:45:28.294Z</time></trkpt><trkpt lat="41.5093222" lon="12.8372178"><ele>31.0</ele><time>2026-04-07T08:45:29.293Z</time></trkpt><trkpt lat="41.5095577" lon="12.8373057"><ele>29.5</ele><time>2026-04-07T08:45:31.293Z</time></trkpt><trkpt lat="41.5097903" lon="12.8373811"><ele>28.0</ele><time>2026-04-07T08:45:33.293Z</time></trkpt><trkpt lat="41.5100025" lon="12.8374703"><ele>28.0</ele><time>2026-04-07T08:45:35.293Z</time></trkpt><trkpt lat="41.5101944" lon="12.8374923"><ele>28.0</ele><time>2026-04-07T08:45:37.293Z</time></trkpt><trkpt lat="41.5103786" lon="12.837527"><ele>28.0</ele><time>2026-04-07T08:45:39.293Z</time></trkpt><trkpt lat="41.5105327" lon="12.8375843"><ele>28.25</ele><time>2026-04-07T08:45:41.293Z</time></trkpt><trkpt lat="41.5106768" lon="12.8376558"><ele>28.5</ele><time>2026-04-07T08:45:43.293Z</time></trkpt><trkpt lat="41.5108125" lon="12.8377291"><ele>28.75</ele><time>2026-04-07T08:45:45.293Z</time></trkpt><trkpt lat="41.5108723" lon="12.8377664"><ele>29.0</ele><time>2026-04-07T08:45:46.293Z</time></trkpt><trkpt lat="41.5109745" lon="12.8378164"><ele>28.999999999999996</ele><time>2026-04-07T08:45:48.293Z</time></trkpt><trkpt lat="41.511078" lon="12.8378159"><ele>29.0</ele><time>2026-04-07T08:45:51.294Z</time></trkpt><trkpt lat="41.5111835" lon="12.8377244"><ele>29.0</ele><time>2026-04-07T08:45:55.293Z</time></trkpt><trkpt lat="41.5112508" lon="12.8377008"><ele>29.0</ele><time>2026-04-07T08:45:58.294Z</time></trkpt><trkpt lat="41.5113294" lon="12.8377048"><ele>28.999999999999996</ele><time>2026-04-07T08:46:01.293Z</time></trkpt><trkpt lat="41.511389" lon="12.8377556"><ele>29.0</ele><time>2026-04-07T08:46:03.293Z</time></trkpt><trkpt lat="41.5114671" lon="12.8378304"><ele>29.0</ele><time>2026-04-07T08:46:05.293Z</time></trkpt><trkpt lat="41.5115363" lon="12.8378705"><ele>29.0</ele><time>2026-04-07T08:46:07.293Z</time></trkpt><trkpt lat="41.5116648" lon="12.8379472"><ele>29.0</ele><time>2026-04-07T08:46:10.294Z</time></trkpt><trkpt lat="41.5117453" lon="12.8380053"><ele>29.0</ele><time>2026-04-07T08:46:12.294Z</time></trkpt><trkpt lat="41.5118216" lon="12.8380664"><ele>29.0</ele><time>2026-04-07T08:46:14.294Z</time></trkpt><trkpt lat="41.5119023" lon="12.8381113"><ele>29.0</ele><time>2026-04-07T08:46:16.293Z</time></trkpt><trkpt lat="41.5119725" lon="12.8381597"><ele>29.0</ele><time>2026-04-07T08:46:18.294Z</time></trkpt><trkpt lat="41.5120366" lon="12.8382137"><ele>29.0</ele><time>2026-04-07T08:46:20.293Z</time></trkpt><trkpt lat="41.5121174" lon="12.8382672"><ele>29.0</ele><time>2026-04-07T08:46:22.293Z</time></trkpt><trkpt lat="41.5122241" lon="12.838368"><ele>29.0</ele><time>2026-04-07T08:46:24.293Z</time></trkpt><trkpt lat="41.5123241" lon="12.8384481"><ele>28.833333333333332</ele><time>2026-04-07T08:46:26.293Z</time></trkpt><trkpt lat="41.5123902" lon="12.8384927"><ele>28.666666666666664</ele><time>2026-04-07T08:46:28.293Z</time></trkpt><trkpt lat="41.5124722" lon="12.8385186"><ele>28.5</ele><time>2026-04-07T08:46:31.294Z</time></trkpt><trkpt lat="41.5125837" lon="12.8385072"><ele>28.333333333333336</ele><time>2026-04-07T08:46:34.293Z</time></trkpt><trkpt lat="41.5126434" lon="12.8385356"><ele>28.166666666666668</ele><time>2026-04-07T08:46:36.293Z</time></trkpt><trkpt lat="41.5127217" lon="12.838623"><ele>28.0</ele><time>2026-04-07T08:46:38.293Z</time></trkpt><trkpt lat="41.5127723" lon="12.8386852"><ele>28.000000000000004</ele><time>2026-04-07T08:46:39.293Z</time></trkpt><trkpt lat="41.5128257" lon="12.8387387"><ele>28.0</ele><time>2026-04-07T08:46:40.294Z</time></trkpt><trkpt lat="41.5128773" lon="12.838794"><ele>28.0</ele><time>2026-04-07T08:46:41.294Z</time></trkpt><trkpt lat="41.5129322" lon="12.8388515"><ele>28.0</ele><time>2026-04-07T08:46:42.293Z</time></trkpt><trkpt lat="41.5130426" lon="12.8389574"><ele>28.000000000000004</ele><time>2026-04-07T08:46:44.293Z</time></trkpt><trkpt lat="41.5130984" lon="12.8390082"><ele>28.0</ele><time>2026-04-07T08:46:45.293Z</time></trkpt><trkpt lat="41.5131591" lon="12.8390716"><ele>28.000000000000004</ele><time>2026-04-07T08:46:46.294Z</time></trkpt><trkpt lat="41.513261" lon="12.8391911"><ele>28.0</ele><time>2026-04-07T08:46:48.293Z</time></trkpt><trkpt lat="41.5133065" lon="12.8392604"><ele>28.0</ele><time>2026-04-07T08:46:49.293Z</time></trkpt><trkpt lat="41.5133661" lon="12.8393255"><ele>28.0</ele><time>2026-04-07T08:46:50.293Z</time></trkpt><trkpt lat="41.5134181" lon="12.839396"><ele>28.000000000000004</ele><time>2026-04-07T08:46:51.293Z</time></trkpt><trkpt lat="41.5134667" lon="12.8394547"><ele>28.0</ele><time>2026-04-07T08:46:52.294Z</time></trkpt><trkpt lat="41.5135188" lon="12.8395131"><ele>28.0</ele><time>2026-04-07T08:46:53.293Z</time></trkpt><trkpt lat="41.5135731" lon="12.8395725"><ele>27.999999999999996</ele><time>2026-04-07T08:46:54.293Z</time></trkpt><trkpt lat="41.5136606" lon="12.8396893"><ele>27.999999999999996</ele><time>2026-04-07T08:46:56.293Z</time></trkpt><trkpt lat="41.5137447" lon="12.8397705"><ele>28.0</ele><time>2026-04-07T08:46:58.293Z</time></trkpt><trkpt lat="41.5138145" lon="12.8398774"><ele>28.0</ele><time>2026-04-07T08:47:00.293Z</time></trkpt><trkpt lat="41.5138999" lon="12.8400112"><ele>28.0</ele><time>2026-04-07T08:47:02.293Z</time></trkpt><trkpt lat="41.5139907" lon="12.8401286"><ele>27.999999999999996</ele><time>2026-04-07T08:47:04.293Z</time></trkpt><trkpt lat="41.5140413" lon="12.8401888"><ele>27.999999999999996</ele><time>2026-04-07T08:47:05.293Z</time></trkpt><trkpt lat="41.5140866" lon="12.840249"><ele>28.0</ele><time>2026-04-07T08:47:06.293Z</time></trkpt><trkpt lat="41.5141869" lon="12.8403987"><ele>28.0</ele><time>2026-04-07T08:47:08.293Z</time></trkpt><trkpt lat="41.5142974" lon="12.8405239"><ele>28.0</ele><time>2026-04-07T08:47:10.293Z</time></trkpt><trkpt lat="41.5144034" lon="12.8406776"><ele>28.0</ele><time>2026-04-07T08:47:12.293Z</time></trkpt><trkpt lat="41.5145236" lon="12.8408352"><ele>28.0</ele><time>2026-04-07T08:47:14.293Z</time></trkpt><trkpt lat="41.5145804" lon="12.840917"><ele>28.0</ele><time>2026-04-07T08:47:15.293Z</time></trkpt><trkpt lat="41.5146488" lon="12.8410069"><ele>27.333333333333336</ele><time>2026-04-07T08:47:16.293Z</time></trkpt><trkpt lat="41.5147742" lon="12.8411735"><ele>26.666666666666664</ele><time>2026-04-07T08:47:18.293Z</time></trkpt><trkpt lat="41.5149078" lon="12.8413564"><ele>26.0</ele><time>2026-04-07T08:47:20.293Z</time></trkpt><trkpt lat="41.5149695" lon="12.8414357"><ele>26.0</ele><time>2026-04-07T08:47:21.294Z</time></trkpt><trkpt lat="41.5150974" lon="12.8415913"><ele>26.0</ele><time>2026-04-07T08:47:23.293Z</time></trkpt><trkpt lat="41.5152263" lon="12.8417314"><ele>26.0</ele><time>2026-04-07T08:47:25.293Z</time></trkpt><trkpt lat="41.5152897" lon="12.8418054"><ele>26.0</ele><time>2026-04-07T08:47:26.293Z</time></trkpt><trkpt lat="41.515361" lon="12.841891"><ele>26.5</ele><time>2026-04-07T08:47:27.293Z</time></trkpt><trkpt lat="41.5154295" lon="12.8419689"><ele>27.0</ele><time>2026-04-07T08:47:28.293Z</time></trkpt><trkpt lat="41.5154965" lon="12.8420553"><ele>27.5</ele><time>2026-04-07T08:47:29.293Z</time></trkpt><trkpt lat="41.5155624" lon="12.8421489"><ele>28.0</ele><time>2026-04-07T08:47:30.293Z</time></trkpt><trkpt lat="41.5157043" lon="12.8423231"><ele>28.0</ele><time>2026-04-07T08:47:32.293Z</time></trkpt><trkpt lat="41.5158431" lon="12.842492"><ele>28.0</ele><time>2026-04-07T08:47:34.293Z</time></trkpt><trkpt lat="41.5159109" lon="12.8425815"><ele>28.0</ele><time>2026-04-07T08:47:35.293Z</time></trkpt><trkpt lat="41.5159761" lon="12.8426678"><ele>28.0</ele><time>2026-04-07T08:47:36.293Z</time></trkpt><trkpt lat="41.5161082" lon="12.8428372"><ele>28.166666666666668</ele><time>2026-04-07T08:47:38.293Z</time></trkpt><trkpt lat="41.5161696" lon="12.8429258"><ele>28.333333333333336</ele><time>2026-04-07T08:47:39.293Z</time></trkpt><trkpt lat="41.5162254" lon="12.8430051"><ele>28.5</ele><time>2026-04-07T08:47:40.294Z</time></trkpt><trkpt lat="41.5162834" lon="12.8430887"><ele>28.666666666666664</ele><time>2026-04-07T08:47:41.293Z</time></trkpt><trkpt lat="41.5163412" lon="12.8431549"><ele>28.833333333333332</ele><time>2026-04-07T08:47:42.293Z</time></trkpt><trkpt lat="41.5163984" lon="12.8432183"><ele>29.0</ele><time>2026-04-07T08:47:43.294Z</time></trkpt><trkpt lat="41.5165217" lon="12.8433855"><ele>29.0</ele><time>2026-04-07T08:47:45.293Z</time></trkpt><trkpt lat="41.516653" lon="12.8435552"><ele>29.0</ele><time>2026-04-07T08:47:47.293Z</time></trkpt><trkpt lat="41.5167223" lon="12.8436274"><ele>29.0</ele><time>2026-04-07T08:47:48.293Z</time></trkpt><trkpt lat="41.5169157" lon="12.8438635"><ele>29.0</ele><time>2026-04-07T08:47:51.293Z</time></trkpt><trkpt lat="41.5170514" lon="12.8440437"><ele>29.0</ele><time>2026-04-07T08:47:53.293Z</time></trkpt><trkpt lat="41.5172006" lon="12.8442331"><ele>29.0</ele><time>2026-04-07T08:47:55.293Z</time></trkpt><trkpt lat="41.5173367" lon="12.8444055"><ele>28.5</ele><time>2026-04-07T08:47:57.293Z</time></trkpt><trkpt lat="41.517472" lon="12.8445856"><ele>28.0</ele><time>2026-04-07T08:47:59.293Z</time></trkpt><trkpt lat="41.5175427" lon="12.8446793"><ele>27.5</ele><time>2026-04-07T08:48:00.293Z</time></trkpt><trkpt lat="41.5176042" lon="12.8447708"><ele>27.0</ele><time>2026-04-07T08:48:01.293Z</time></trkpt><trkpt lat="41.5176619" lon="12.8448496"><ele>27.0</ele><time>2026-04-07T08:48:02.293Z</time></trkpt><trkpt lat="41.5177909" lon="12.8450179"><ele>27.0</ele><time>2026-04-07T08:48:04.293Z</time></trkpt><trkpt lat="41.5179176" lon="12.8451905"><ele>27.0</ele><time>2026-04-07T08:48:06.293Z</time></trkpt><trkpt lat="41.5180181" lon="12.8453585"><ele>27.25</ele><time>2026-04-07T08:48:08.293Z</time></trkpt><trkpt lat="41.5181304" lon="12.8454972"><ele>27.5</ele><time>2026-04-07T08:48:10.294Z</time></trkpt><trkpt lat="41.5181841" lon="12.8455632"><ele>27.75</ele><time>2026-04-07T08:48:11.293Z</time></trkpt><trkpt lat="41.5183056" lon="12.8457107"><ele>28.0</ele><time>2026-04-07T08:48:13.293Z</time></trkpt><trkpt lat="41.5183653" lon="12.8457825"><ele>28.0</ele><time>2026-04-07T08:48:14.293Z</time></trkpt><trkpt lat="41.5184736" lon="12.8459342"><ele>28.0</ele><time>2026-04-07T08:48:16.294Z</time></trkpt><trkpt lat="41.5185675" lon="12.8460854"><ele>28.0</ele><time>2026-04-07T08:48:18.293Z</time></trkpt><trkpt lat="41.5186668" lon="12.84624"><ele>27.5</ele><time>2026-04-07T08:48:20.294Z</time></trkpt><trkpt lat="41.5187687" lon="12.846391"><ele>27.0</ele><time>2026-04-07T08:48:22.293Z</time></trkpt><trkpt lat="41.5188949" lon="12.8465425"><ele>26.5</ele><time>2026-04-07T08:48:24.293Z</time></trkpt><trkpt lat="41.5189586" lon="12.8466213"><ele>26.0</ele><time>2026-04-07T08:48:25.294Z</time></trkpt><trkpt lat="41.5190224" lon="12.8467152"><ele>26.0</ele><time>2026-04-07T08:48:26.293Z</time></trkpt><trkpt lat="41.5190849" lon="12.8467863"><ele>26.0</ele><time>2026-04-07T08:48:27.293Z</time></trkpt><trkpt lat="41.519207" lon="12.8469436"><ele>26.0</ele><time>2026-04-07T08:48:29.293Z</time></trkpt><trkpt lat="41.5193197" lon="12.8471023"><ele>26.0</ele><time>2026-04-07T08:48:31.294Z</time></trkpt><trkpt lat="41.5194391" lon="12.8472501"><ele>26.200000000000003</ele><time>2026-04-07T08:48:33.293Z</time></trkpt><trkpt lat="41.5195316" lon="12.8473671"><ele>26.400000000000002</ele><time>2026-04-07T08:48:35.293Z</time></trkpt><trkpt lat="41.5195896" lon="12.8474397"><ele>26.6</ele><time>2026-04-07T08:48:36.293Z</time></trkpt><trkpt lat="41.5196487" lon="12.8475146"><ele>26.8</ele><time>2026-04-07T08:48:37.293Z</time></trkpt><trkpt lat="41.5197619" lon="12.8476516"><ele>27.0</ele><time>2026-04-07T08:48:39.293Z</time></trkpt><trkpt lat="41.5198656" lon="12.8477769"><ele>27.0</ele><time>2026-04-07T08:48:41.293Z</time></trkpt><trkpt lat="41.5199762" lon="12.8479231"><ele>27.000000000000004</ele><time>2026-04-07T08:48:43.293Z</time></trkpt><trkpt lat="41.5200238" lon="12.8479875"><ele>27.000000000000004</ele><time>2026-04-07T08:48:44.294Z</time></trkpt><trkpt lat="41.5201075" lon="12.8480919"><ele>27.0</ele><time>2026-04-07T08:48:46.293Z</time></trkpt><trkpt lat="41.5201595" lon="12.848146"><ele>27.0</ele><time>2026-04-07T08:48:47.293Z</time></trkpt><trkpt lat="41.5202478" lon="12.8482433"><ele>27.0</ele><time>2026-04-07T08:48:49.293Z</time></trkpt><trkpt lat="41.5203063" lon="12.8483244"><ele>27.000000000000004</ele><time>2026-04-07T08:48:51.294Z</time></trkpt><trkpt lat="41.5203801" lon="12.8484274"><ele>27.000000000000004</ele><time>2026-04-07T08:48:53.293Z</time></trkpt><trkpt lat="41.5204855" lon="12.8485524"><ele>27.0</ele><time>2026-04-07T08:48:56.294Z</time></trkpt><trkpt lat="41.5205493" lon="12.848651"><ele>27.0</ele><time>2026-04-07T08:48:58.293Z</time></trkpt><trkpt lat="41.5206602" lon="12.8488128"><ele>27.400000000000002</ele><time>2026-04-07T08:49:01.293Z</time></trkpt><trkpt lat="41.5207361" lon="12.8489223"><ele>27.800000000000004</ele><time>2026-04-07T08:49:03.293Z</time></trkpt><trkpt lat="41.5208074" lon="12.8490253"><ele>28.2</ele><time>2026-04-07T08:49:05.293Z</time></trkpt><trkpt lat="41.5208792" lon="12.8491157"><ele>28.6</ele><time>2026-04-07T08:49:07.293Z</time></trkpt><trkpt lat="41.5209308" lon="12.849189"><ele>29.0</ele><time>2026-04-07T08:49:09.293Z</time></trkpt><trkpt lat="41.5210109" lon="12.8492768"><ele>29.0</ele><time>2026-04-07T08:49:11.293Z</time></trkpt><trkpt lat="41.5210811" lon="12.8493825"><ele>29.0</ele><time>2026-04-07T08:49:13.294Z</time></trkpt><trkpt lat="41.5211999" lon="12.8495389"><ele>29.0</ele><time>2026-04-07T08:49:16.294Z</time></trkpt><trkpt lat="41.5212852" lon="12.8496463"><ele>29.0</ele><time>2026-04-07T08:49:18.294Z</time></trkpt><trkpt lat="41.5213309" lon="12.8497155"><ele>28.5</ele><time>2026-04-07T08:49:19.293Z</time></trkpt><trkpt lat="41.5213773" lon="12.8497829"><ele>28.0</ele><time>2026-04-07T08:49:20.293Z</time></trkpt><trkpt lat="41.5214509" lon="12.8498689"><ele>27.5</ele><time>2026-04-07T08:49:22.293Z</time></trkpt><trkpt lat="41.5215972" lon="12.8500691"><ele>27.0</ele><time>2026-04-07T08:49:26.294Z</time></trkpt><trkpt lat="41.5216744" lon="12.8501694"><ele>27.0</ele><time>2026-04-07T08:49:28.293Z</time></trkpt><trkpt lat="41.5217419" lon="12.8502493"><ele>27.000000000000004</ele><time>2026-04-07T08:49:30.294Z</time></trkpt><trkpt lat="41.5218255" lon="12.8503211"><ele>27.000000000000004</ele><time>2026-04-07T08:49:32.293Z</time></trkpt><trkpt lat="41.5219234" lon="12.8504076"><ele>27.0</ele><time>2026-04-07T08:49:34.293Z</time></trkpt><trkpt lat="41.5219903" lon="12.8505081"><ele>27.0</ele><time>2026-04-07T08:49:36.294Z</time></trkpt><trkpt lat="41.5221066" lon="12.8506834"><ele>27.200000000000003</ele><time>2026-04-07T08:49:39.293Z</time></trkpt><trkpt lat="41.5221801" lon="12.850782"><ele>27.400000000000002</ele><time>2026-04-07T08:49:41.293Z</time></trkpt><trkpt lat="41.5222498" lon="12.850908"><ele>27.599999999999998</ele><time>2026-04-07T08:49:43.293Z</time></trkpt><trkpt lat="41.5223015" lon="12.8509594"><ele>27.799999999999997</ele><time>2026-04-07T08:49:44.293Z</time></trkpt><trkpt lat="41.5224152" lon="12.8510715"><ele>28.0</ele><time>2026-04-07T08:49:46.294Z</time></trkpt><trkpt lat="41.5225493" lon="12.8512398"><ele>29.0</ele><time>2026-04-07T08:49:48.293Z</time></trkpt><trkpt lat="41.5226721" lon="12.8513887"><ele>30.0</ele><time>2026-04-07T08:49:50.293Z</time></trkpt><trkpt lat="41.5228039" lon="12.8515611"><ele>31.0</ele><time>2026-04-07T08:49:52.287Z</time></trkpt><trkpt lat="41.5229184" lon="12.8517076"><ele>30.25</ele><time>2026-04-07T08:49:54.3Z</time></trkpt><trkpt lat="41.5230334" lon="12.8518309"><ele>29.5</ele><time>2026-04-07T08:49:56.315Z</time></trkpt><trkpt lat="41.5230884" lon="12.8518901"><ele>28.75</ele><time>2026-04-07T08:49:57.287Z</time></trkpt><trkpt lat="41.5231314" lon="12.8519654"><ele>28.0</ele><time>2026-04-07T08:49:58.282Z</time></trkpt><trkpt lat="41.5232599" lon="12.8521333"><ele>28.0</ele><time>2026-04-07T08:50:01.282Z</time></trkpt><trkpt lat="41.523374" lon="12.8522738"><ele>27.999999999999996</ele><time>2026-04-07T08:50:03.282Z</time></trkpt><trkpt lat="41.5234286" lon="12.8523567"><ele>27.999999999999996</ele><time>2026-04-07T08:50:04.283Z</time></trkpt><trkpt lat="41.523473" lon="12.8524245"><ele>28.0</ele><time>2026-04-07T08:50:05.282Z</time></trkpt><trkpt lat="41.52356" lon="12.8525595"><ele>28.0</ele><time>2026-04-07T08:50:07.282Z</time></trkpt><trkpt lat="41.52361" lon="12.8526214"><ele>28.2</ele><time>2026-04-07T08:50:08.282Z</time></trkpt><trkpt lat="41.5236956" lon="12.8527309"><ele>28.4</ele><time>2026-04-07T08:50:10.282Z</time></trkpt><trkpt lat="41.5237608" lon="12.852861"><ele>28.599999999999998</ele><time>2026-04-07T08:50:12.282Z</time></trkpt><trkpt lat="41.5237813" lon="12.8529477"><ele>28.799999999999997</ele><time>2026-04-07T08:50:13.282Z</time></trkpt><trkpt lat="41.5238025" lon="12.8530317"><ele>29.0</ele><time>2026-04-07T08:50:14.282Z</time></trkpt><trkpt lat="41.5238447" lon="12.8531335"><ele>29.0</ele><time>2026-04-07T08:50:15.282Z</time></trkpt><trkpt lat="41.5238693" lon="12.853218"><ele>29.0</ele><time>2026-04-07T08:50:16.282Z</time></trkpt><trkpt lat="41.5239111" lon="12.8533675"><ele>29.0</ele><time>2026-04-07T08:50:18.282Z</time></trkpt><trkpt lat="41.5239412" lon="12.8535"><ele>29.0</ele><time>2026-04-07T08:50:20.283Z</time></trkpt><trkpt lat="41.5239969" lon="12.8536165"><ele>29.0</ele><time>2026-04-07T08:50:21.283Z</time></trkpt><trkpt lat="41.524036" lon="12.853688"><ele>28.999999999999996</ele><time>2026-04-07T08:50:22.282Z</time></trkpt><trkpt lat="41.5240812" lon="12.8537678"><ele>29.0</ele><time>2026-04-07T08:50:23.283Z</time></trkpt><trkpt lat="41.5241256" lon="12.8538401"><ele>29.0</ele><time>2026-04-07T08:50:24.282Z</time></trkpt><trkpt lat="41.5241767" lon="12.8539158"><ele>29.0</ele><time>2026-04-07T08:50:25.282Z</time></trkpt><trkpt lat="41.5242441" lon="12.8540009"><ele>28.999999999999996</ele><time>2026-04-07T08:50:26.282Z</time></trkpt><trkpt lat="41.5243109" lon="12.8540878"><ele>29.0</ele><time>2026-04-07T08:50:27.282Z</time></trkpt><trkpt lat="41.5243775" lon="12.8541778"><ele>29.0</ele><time>2026-04-07T08:50:28.282Z</time></trkpt><trkpt lat="41.5244545" lon="12.8542723"><ele>29.0</ele><time>2026-04-07T08:50:29.282Z</time></trkpt><trkpt lat="41.5245355" lon="12.8543711"><ele>29.0</ele><time>2026-04-07T08:50:30.282Z</time></trkpt><trkpt lat="41.5246054" lon="12.8544599"><ele>29.0</ele><time>2026-04-07T08:50:31.283Z</time></trkpt><trkpt lat="41.5246844" lon="12.8545593"><ele>29.0</ele><time>2026-04-07T08:50:32.282Z</time></trkpt><trkpt lat="41.5247498" lon="12.8546619"><ele>29.2</ele><time>2026-04-07T08:50:33.282Z</time></trkpt><trkpt lat="41.5248187" lon="12.8547562"><ele>29.4</ele><time>2026-04-07T08:50:34.282Z</time></trkpt><trkpt lat="41.5248913" lon="12.8548484"><ele>29.6</ele><time>2026-04-07T08:50:35.283Z</time></trkpt><trkpt lat="41.5249691" lon="12.8549511"><ele>29.8</ele><time>2026-04-07T08:50:36.282Z</time></trkpt><trkpt lat="41.525043" lon="12.8550647"><ele>30.0</ele><time>2026-04-07T08:50:37.282Z</time></trkpt><trkpt lat="41.5251244" lon="12.8551612"><ele>30.2</ele><time>2026-04-07T08:50:38.282Z</time></trkpt><trkpt lat="41.5251905" lon="12.8552708"><ele>30.4</ele><time>2026-04-07T08:50:39.282Z</time></trkpt><trkpt lat="41.5252613" lon="12.8553724"><ele>30.6</ele><time>2026-04-07T08:50:40.282Z</time></trkpt><trkpt lat="41.5253327" lon="12.855473"><ele>30.8</ele><time>2026-04-07T08:50:41.282Z</time></trkpt><trkpt lat="41.5253848" lon="12.8555633"><ele>31.0</ele><time>2026-04-07T08:50:42.283Z</time></trkpt><trkpt lat="41.5254466" lon="12.8556392"><ele>31.166666666666668</ele><time>2026-04-07T08:50:43.282Z</time></trkpt><trkpt lat="41.5255093" lon="12.8557361"><ele>31.333333333333336</ele><time>2026-04-07T08:50:44.282Z</time></trkpt><trkpt lat="41.52557" lon="12.855816"><ele>31.5</ele><time>2026-04-07T08:50:45.282Z</time></trkpt><trkpt lat="41.5256294" lon="12.8558844"><ele>31.666666666666664</ele><time>2026-04-07T08:50:46.282Z</time></trkpt><trkpt lat="41.5256924" lon="12.8559729"><ele>31.833333333333332</ele><time>2026-04-07T08:50:47.282Z</time></trkpt><trkpt lat="41.5257441" lon="12.8560464"><ele>32.0</ele><time>2026-04-07T08:50:48.282Z</time></trkpt><trkpt lat="41.5257997" lon="12.8561208"><ele>31.999999999999996</ele><time>2026-04-07T08:50:49.282Z</time></trkpt><trkpt lat="41.5258514" lon="12.8561944"><ele>32.0</ele><time>2026-04-07T08:50:50.282Z</time></trkpt><trkpt lat="41.5259052" lon="12.8562648"><ele>32.0</ele><time>2026-04-07T08:50:51.282Z</time></trkpt><trkpt lat="41.5259622" lon="12.8563326"><ele>32.0</ele><time>2026-04-07T08:50:52.282Z</time></trkpt><trkpt lat="41.5260253" lon="12.8564182"><ele>31.999999999999996</ele><time>2026-04-07T08:50:53.282Z</time></trkpt><trkpt lat="41.5260776" lon="12.8565005"><ele>32.0</ele><time>2026-04-07T08:50:54.282Z</time></trkpt><trkpt lat="41.526134" lon="12.8565839"><ele>32.0</ele><time>2026-04-07T08:50:55.282Z</time></trkpt><trkpt lat="41.5262017" lon="12.8566603"><ele>32.0</ele><time>2026-04-07T08:50:56.282Z</time></trkpt><trkpt lat="41.5262684" lon="12.8567398"><ele>32.0</ele><time>2026-04-07T08:50:57.282Z</time></trkpt><trkpt lat="41.5263424" lon="12.8568252"><ele>32.0</ele><time>2026-04-07T08:50:58.282Z</time></trkpt><trkpt lat="41.5264121" lon="12.8569159"><ele>32.0</ele><time>2026-04-07T08:50:59.282Z</time></trkpt><trkpt lat="41.5264838" lon="12.8569893"><ele>32.5</ele><time>2026-04-07T08:51:00.282Z</time></trkpt><trkpt lat="41.5265588" lon="12.8570545"><ele>33.0</ele><time>2026-04-07T08:51:01.283Z</time></trkpt><trkpt lat="41.5266321" lon="12.8571116"><ele>33.5</ele><time>2026-04-07T08:51:02.282Z</time></trkpt><trkpt lat="41.5266971" lon="12.8571762"><ele>34.0</ele><time>2026-04-07T08:51:03.283Z</time></trkpt><trkpt lat="41.5267632" lon="12.8572294"><ele>34.5</ele><time>2026-04-07T08:51:04.282Z</time></trkpt><trkpt lat="41.5268393" lon="12.8572883"><ele>35.0</ele><time>2026-04-07T08:51:05.282Z</time></trkpt><trkpt lat="41.5269212" lon="12.8573493"><ele>35.0</ele><time>2026-04-07T08:51:06.283Z</time></trkpt><trkpt lat="41.5269987" lon="12.8574005"><ele>35.0</ele><time>2026-04-07T08:51:07.283Z</time></trkpt><trkpt lat="41.5270847" lon="12.8574592"><ele>35.0</ele><time>2026-04-07T08:51:08.282Z</time></trkpt><trkpt lat="41.5271664" lon="12.8575014"><ele>35.0</ele><time>2026-04-07T08:51:09.282Z</time></trkpt><trkpt lat="41.5272522" lon="12.8575451"><ele>35.0</ele><time>2026-04-07T08:51:10.283Z</time></trkpt><trkpt lat="41.5273426" lon="12.857593"><ele>35.0</ele><time>2026-04-07T08:51:11.282Z</time></trkpt><trkpt lat="41.5274347" lon="12.8576457"><ele>35.0</ele><time>2026-04-07T08:51:12.282Z</time></trkpt><trkpt lat="41.5275195" lon="12.8577027"><ele>35.0</ele><time>2026-04-07T08:51:13.282Z</time></trkpt><trkpt lat="41.5276139" lon="12.857747"><ele>35.0</ele><time>2026-04-07T08:51:14.282Z</time></trkpt><trkpt lat="41.527707" lon="12.8578033"><ele>35.0</ele><time>2026-04-07T08:51:15.282Z</time></trkpt><trkpt lat="41.5277879" lon="12.8578484"><ele>35.0</ele><time>2026-04-07T08:51:16.283Z</time></trkpt><trkpt lat="41.5278758" lon="12.8579022"><ele>35.0</ele><time>2026-04-07T08:51:17.283Z</time></trkpt><trkpt lat="41.5279621" lon="12.8579539"><ele>35.0</ele><time>2026-04-07T08:51:18.282Z</time></trkpt><trkpt lat="41.5280513" lon="12.8580075"><ele>35.0</ele><time>2026-04-07T08:51:19.282Z</time></trkpt><trkpt lat="41.5281407" lon="12.8580562"><ele>35.0</ele><time>2026-04-07T08:51:20.282Z</time></trkpt><trkpt lat="41.5282298" lon="12.8581057"><ele>34.8</ele><time>2026-04-07T08:51:21.282Z</time></trkpt><trkpt lat="41.5283207" lon="12.8581367"><ele>34.6</ele><time>2026-04-07T08:51:22.282Z</time></trkpt><trkpt lat="41.5284207" lon="12.8581818"><ele>34.4</ele><time>2026-04-07T08:51:23.282Z</time></trkpt><trkpt lat="41.5285096" lon="12.85823"><ele>34.2</ele><time>2026-04-07T08:51:24.283Z</time></trkpt><trkpt lat="41.5286005" lon="12.8582667"><ele>34.0</ele><time>2026-04-07T08:51:25.283Z</time></trkpt><trkpt lat="41.5286903" lon="12.8583122"><ele>33.6</ele><time>2026-04-07T08:51:26.282Z</time></trkpt><trkpt lat="41.5287812" lon="12.8583675"><ele>33.2</ele><time>2026-04-07T08:51:27.282Z</time></trkpt><trkpt lat="41.52887" lon="12.8584215"><ele>32.800000000000004</ele><time>2026-04-07T08:51:28.282Z</time></trkpt><trkpt lat="41.5289587" lon="12.8584564"><ele>32.4</ele><time>2026-04-07T08:51:29.283Z</time></trkpt><trkpt lat="41.5290518" lon="12.8584929"><ele>32.0</ele><time>2026-04-07T08:51:30.282Z</time></trkpt><trkpt lat="41.5291494" lon="12.8585345"><ele>32.0</ele><time>2026-04-07T08:51:31.282Z</time></trkpt><trkpt lat="41.529233" lon="12.8586036"><ele>32.0</ele><time>2026-04-07T08:51:32.282Z</time></trkpt><trkpt lat="41.5293259" lon="12.8586535"><ele>32.0</ele><time>2026-04-07T08:51:33.283Z</time></trkpt><trkpt lat="41.529419" lon="12.8587049"><ele>32.0</ele><time>2026-04-07T08:51:34.282Z</time></trkpt><trkpt lat="41.5295067" lon="12.858746"><ele>32.0</ele><time>2026-04-07T08:51:35.283Z</time></trkpt><trkpt lat="41.5295974" lon="12.858797"><ele>32.2</ele><time>2026-04-07T08:51:36.282Z</time></trkpt><trkpt lat="41.5296855" lon="12.8588436"><ele>32.400000000000006</ele><time>2026-04-07T08:51:37.283Z</time></trkpt><trkpt lat="41.5297816" lon="12.8589047"><ele>32.599999999999994</ele><time>2026-04-07T08:51:38.282Z</time></trkpt><trkpt lat="41.5298691" lon="12.8589479"><ele>32.8</ele><time>2026-04-07T08:51:39.282Z</time></trkpt><trkpt lat="41.5299597" lon="12.8590028"><ele>33.0</ele><time>2026-04-07T08:51:40.282Z</time></trkpt><trkpt lat="41.5300472" lon="12.8590419"><ele>33.0</ele><time>2026-04-07T08:51:41.282Z</time></trkpt><trkpt lat="41.5301305" lon="12.859083"><ele>33.0</ele><time>2026-04-07T08:51:42.282Z</time></trkpt><trkpt lat="41.5302275" lon="12.8591261"><ele>33.0</ele><time>2026-04-07T08:51:43.283Z</time></trkpt><trkpt lat="41.5303196" lon="12.8591591"><ele>33.0</ele><time>2026-04-07T08:51:44.282Z</time></trkpt><trkpt lat="41.5304129" lon="12.8592124"><ele>33.0</ele><time>2026-04-07T08:51:45.282Z</time></trkpt><trkpt lat="41.5304905" lon="12.8592449"><ele>33.0</ele><time>2026-04-07T08:51:46.282Z</time></trkpt><trkpt lat="41.5305785" lon="12.8592914"><ele>33.0</ele><time>2026-04-07T08:51:47.282Z</time></trkpt><trkpt lat="41.5306568" lon="12.8593301"><ele>33.0</ele><time>2026-04-07T08:51:48.282Z</time></trkpt><trkpt lat="41.530738" lon="12.8593735"><ele>33.0</ele><time>2026-04-07T08:51:49.282Z</time></trkpt><trkpt lat="41.530811" lon="12.8594092"><ele>33.0</ele><time>2026-04-07T08:51:50.282Z</time></trkpt><trkpt lat="41.5308844" lon="12.859443"><ele>33.0</ele><time>2026-04-07T08:51:51.282Z</time></trkpt><trkpt lat="41.5309556" lon="12.8594824"><ele>33.0</ele><time>2026-04-07T08:51:52.282Z</time></trkpt><trkpt lat="41.5310262" lon="12.8595091"><ele>33.0</ele><time>2026-04-07T08:51:53.282Z</time></trkpt><trkpt lat="41.5310984" lon="12.8595572"><ele>33.0</ele><time>2026-04-07T08:51:54.282Z</time></trkpt><trkpt lat="41.5311664" lon="12.8595898"><ele>33.0</ele><time>2026-04-07T08:51:55.282Z</time></trkpt><trkpt lat="41.531285" lon="12.8596599"><ele>33.0</ele><time>2026-04-07T08:51:57.282Z</time></trkpt><trkpt lat="41.5313514" lon="12.8597094"><ele>33.0</ele><time>2026-04-07T08:51:58.282Z</time></trkpt><trkpt lat="41.5314169" lon="12.8597455"><ele>32.857142857142854</ele><time>2026-04-07T08:51:59.282Z</time></trkpt><trkpt lat="41.5314829" lon="12.8597731"><ele>32.714285714285715</ele><time>2026-04-07T08:52:00.282Z</time></trkpt><trkpt lat="41.5315522" lon="12.8598074"><ele>32.57142857142857</ele><time>2026-04-07T08:52:01.282Z</time></trkpt><trkpt lat="41.5316115" lon="12.8598432"><ele>32.42857142857143</ele><time>2026-04-07T08:52:02.282Z</time></trkpt><trkpt lat="41.5316801" lon="12.85988"><ele>32.285714285714285</ele><time>2026-04-07T08:52:03.282Z</time></trkpt><trkpt lat="41.53175" lon="12.8599231"><ele>32.14285714285714</ele><time>2026-04-07T08:52:04.282Z</time></trkpt><trkpt lat="41.5318099" lon="12.8599535"><ele>32.0</ele><time>2026-04-07T08:52:05.282Z</time></trkpt><trkpt lat="41.5318662" lon="12.8599958"><ele>31.999999999999996</ele><time>2026-04-07T08:52:06.282Z</time></trkpt><trkpt lat="41.5319549" lon="12.8600602"><ele>32.0</ele><time>2026-04-07T08:52:08.282Z</time></trkpt><trkpt lat="41.5320183" lon="12.8600865"><ele>32.0</ele><time>2026-04-07T08:52:10.282Z</time></trkpt><trkpt lat="41.5320871" lon="12.8601104"><ele>32.0</ele><time>2026-04-07T08:52:14.282Z</time></trkpt><trkpt lat="41.532165" lon="12.8601211"><ele>31.999999999999996</ele><time>2026-04-07T08:53:10.282Z</time></trkpt><trkpt lat="41.5322429" lon="12.8601603"><ele>32.0</ele><time>2026-04-07T08:53:23.282Z</time></trkpt><trkpt lat="41.5323145" lon="12.8601188"><ele>32.0</ele><time>2026-04-07T08:53:33.282Z</time></trkpt><trkpt lat="41.5324112" lon="12.8601146"><ele>32.0</ele><time>2026-04-07T08:53:35.282Z</time></trkpt><trkpt lat="41.5325326" lon="12.8601798"><ele>32.0</ele><time>2026-04-07T08:53:37.282Z</time></trkpt><trkpt lat="41.5326784" lon="12.8602613"><ele>32.0</ele><time>2026-04-07T08:53:39.282Z</time></trkpt><trkpt lat="41.5327548" lon="12.8602983"><ele>31.999999999999996</ele><time>2026-04-07T08:53:40.282Z</time></trkpt><trkpt lat="41.5328352" lon="12.8603463"><ele>32.0</ele><time>2026-04-07T08:53:41.282Z</time></trkpt><trkpt lat="41.5329172" lon="12.8603875"><ele>32.0</ele><time>2026-04-07T08:53:42.283Z</time></trkpt><trkpt lat="41.5330012" lon="12.8604275"><ele>32.0</ele><time>2026-04-07T08:53:43.282Z</time></trkpt><trkpt lat="41.5330777" lon="12.8604648"><ele>31.999999999999996</ele><time>2026-04-07T08:53:44.282Z</time></trkpt><trkpt lat="41.5331637" lon="12.8605062"><ele>32.0</ele><time>2026-04-07T08:53:45.282Z</time></trkpt><trkpt lat="41.5333275" lon="12.8605913"><ele>31.999999999999996</ele><time>2026-04-07T08:53:47.283Z</time></trkpt><trkpt lat="41.5334185" lon="12.8606311"><ele>32.0</ele><time>2026-04-07T08:53:48.282Z</time></trkpt><trkpt lat="41.5334998" lon="12.8606695"><ele>32.0</ele><time>2026-04-07T08:53:49.283Z</time></trkpt><trkpt lat="41.533579" lon="12.8607099"><ele>32.0</ele><time>2026-04-07T08:53:50.282Z</time></trkpt><trkpt lat="41.5336539" lon="12.8607461"><ele>31.999999999999996</ele><time>2026-04-07T08:53:51.282Z</time></trkpt><trkpt lat="41.5337268" lon="12.8607824"><ele>32.0</ele><time>2026-04-07T08:53:52.282Z</time></trkpt><trkpt lat="41.5337948" lon="12.8608159"><ele>32.0</ele><time>2026-04-07T08:53:53.282Z</time></trkpt><trkpt lat="41.5338665" lon="12.8608528"><ele>32.0</ele><time>2026-04-07T08:53:54.282Z</time></trkpt><trkpt lat="41.5339943" lon="12.8609115"><ele>32.0</ele><time>2026-04-07T08:53:56.283Z</time></trkpt><trkpt lat="41.5341073" lon="12.8609772"><ele>32.0</ele><time>2026-04-07T08:53:58.283Z</time></trkpt><trkpt lat="41.5341969" lon="12.8610111"><ele>32.0</ele><time>2026-04-07T08:54:00.282Z</time></trkpt><trkpt lat="41.5342818" lon="12.8610077"><ele>32.0</ele><time>2026-04-07T08:54:03.282Z</time></trkpt><trkpt lat="41.5343533" lon="12.8610026"><ele>32.0</ele><time>2026-04-07T08:54:06.282Z</time></trkpt><trkpt lat="41.5344165" lon="12.8609991"><ele>32.0</ele><time>2026-04-07T08:54:08.282Z</time></trkpt><trkpt lat="41.5344841" lon="12.8610391"><ele>32.0</ele><time>2026-04-07T08:54:10.282Z</time></trkpt><trkpt lat="41.5346351" lon="12.8611082"><ele>32.0</ele><time>2026-04-07T08:54:13.282Z</time></trkpt><trkpt lat="41.5347196" lon="12.8611627"><ele>32.5</ele><time>2026-04-07T08:54:15.282Z</time></trkpt><trkpt lat="41.5348142" lon="12.861215"><ele>33.0</ele><time>2026-04-07T08:54:17.282Z</time></trkpt><trkpt lat="41.5349265" lon="12.861276"><ele>33.5</ele><time>2026-04-07T08:54:19.282Z</time></trkpt><trkpt lat="41.5350238" lon="12.8613218"><ele>34.0</ele><time>2026-04-07T08:54:21.282Z</time></trkpt><trkpt lat="41.5351587" lon="12.8613739"><ele>34.0</ele><time>2026-04-07T08:54:24.282Z</time></trkpt><trkpt lat="41.5352543" lon="12.8614211"><ele>34.0</ele><time>2026-04-07T08:54:26.282Z</time></trkpt><trkpt lat="41.5353504" lon="12.8614712"><ele>34.0</ele><time>2026-04-07T08:54:28.282Z</time></trkpt><trkpt lat="41.5354218" lon="12.861508"><ele>34.0</ele><time>2026-04-07T08:54:29.282Z</time></trkpt><trkpt lat="41.5354822" lon="12.8615407"><ele>34.0</ele><time>2026-04-07T08:54:30.282Z</time></trkpt><trkpt lat="41.5355433" lon="12.8615612"><ele>34.0</ele><time>2026-04-07T08:54:31.282Z</time></trkpt><trkpt lat="41.5356082" lon="12.8615978"><ele>33.6</ele><time>2026-04-07T08:54:32.282Z</time></trkpt><trkpt lat="41.5356709" lon="12.8616328"><ele>33.2</ele><time>2026-04-07T08:54:33.282Z</time></trkpt><trkpt lat="41.5357792" lon="12.8616981"><ele>32.800000000000004</ele><time>2026-04-07T08:54:35.282Z</time></trkpt><trkpt lat="41.5358509" lon="12.8617297"><ele>32.4</ele><time>2026-04-07T08:54:36.283Z</time></trkpt><trkpt lat="41.5359553" lon="12.8617831"><ele>32.0</ele><time>2026-04-07T08:54:38.282Z</time></trkpt><trkpt lat="41.5360545" lon="12.8618407"><ele>32.0</ele><time>2026-04-07T08:54:40.282Z</time></trkpt><trkpt lat="41.5361358" lon="12.8618694"><ele>32.0</ele><time>2026-04-07T08:54:42.282Z</time></trkpt><trkpt lat="41.5362265" lon="12.8619168"><ele>32.0</ele><time>2026-04-07T08:54:44.282Z</time></trkpt><trkpt lat="41.5363189" lon="12.8619691"><ele>32.0</ele><time>2026-04-07T08:54:46.282Z</time></trkpt><trkpt lat="41.5364317" lon="12.8620351"><ele>32.0</ele><time>2026-04-07T08:54:48.282Z</time></trkpt><trkpt lat="41.5365618" lon="12.862103"><ele>31.75</ele><time>2026-04-07T08:54:50.282Z</time></trkpt><trkpt lat="41.5366609" lon="12.862151"><ele>31.5</ele><time>2026-04-07T08:54:52.283Z</time></trkpt><trkpt lat="41.5367875" lon="12.8622025"><ele>31.25</ele><time>2026-04-07T08:54:54.282Z</time></trkpt><trkpt lat="41.5369086" lon="12.8622572"><ele>31.0</ele><time>2026-04-07T08:54:56.282Z</time></trkpt><trkpt lat="41.5370232" lon="12.8623007"><ele>31.25</ele><time>2026-04-07T08:54:58.283Z</time></trkpt><trkpt lat="41.5371301" lon="12.8623624"><ele>31.5</ele><time>2026-04-07T08:55:00.282Z</time></trkpt><trkpt lat="41.537228" lon="12.8624057"><ele>31.75</ele><time>2026-04-07T08:55:02.282Z</time></trkpt><trkpt lat="41.5372938" lon="12.8624436"><ele>32.0</ele><time>2026-04-07T08:55:03.282Z</time></trkpt><trkpt lat="41.5374433" lon="12.8625305"><ele>32.0</ele><time>2026-04-07T08:55:06.282Z</time></trkpt><trkpt lat="41.5375406" lon="12.8625823"><ele>32.0</ele><time>2026-04-07T08:55:08.282Z</time></trkpt><trkpt lat="41.537641" lon="12.8626295"><ele>32.0</ele><time>2026-04-07T08:55:10.282Z</time></trkpt><trkpt lat="41.5377318" lon="12.8626808"><ele>32.0</ele><time>2026-04-07T08:55:12.282Z</time></trkpt><trkpt lat="41.5378166" lon="12.8627267"><ele>32.0</ele><time>2026-04-07T08:55:14.282Z</time></trkpt><trkpt lat="41.5379143" lon="12.8627766"><ele>32.5</ele><time>2026-04-07T08:55:16.282Z</time></trkpt><trkpt lat="41.5380215" lon="12.8628404"><ele>33.0</ele><time>2026-04-07T08:55:18.282Z</time></trkpt><trkpt lat="41.5381321" lon="12.8628933"><ele>33.5</ele><time>2026-04-07T08:55:20.282Z</time></trkpt><trkpt lat="41.5382401" lon="12.8629469"><ele>34.0</ele><time>2026-04-07T08:55:22.283Z</time></trkpt><trkpt lat="41.5383935" lon="12.8630168"><ele>34.0</ele><time>2026-04-07T08:55:25.282Z</time></trkpt><trkpt lat="41.5384552" lon="12.8630524"><ele>34.0</ele><time>2026-04-07T08:55:26.282Z</time></trkpt><trkpt lat="41.5385182" lon="12.8630776"><ele>34.0</ele><time>2026-04-07T08:55:27.282Z</time></trkpt><trkpt lat="41.5386829" lon="12.8631494"><ele>34.0</ele><time>2026-04-07T08:55:30.283Z</time></trkpt><trkpt lat="41.5387938" lon="12.8632047"><ele>34.0</ele><time>2026-04-07T08:55:32.282Z</time></trkpt><trkpt lat="41.5389111" lon="12.8632737"><ele>33.8</ele><time>2026-04-07T08:55:34.283Z</time></trkpt><trkpt lat="41.5390021" lon="12.8633267"><ele>33.599999999999994</ele><time>2026-04-07T08:55:36.282Z</time></trkpt><trkpt lat="41.5391086" lon="12.8633765"><ele>33.4</ele><time>2026-04-07T08:55:38.282Z</time></trkpt><trkpt lat="41.5391666" lon="12.8634128"><ele>33.199999999999996</ele><time>2026-04-07T08:55:39.282Z</time></trkpt><trkpt lat="41.5392716" lon="12.8634558"><ele>33.0</ele><time>2026-04-07T08:55:41.282Z</time></trkpt><trkpt lat="41.5393776" lon="12.8635261"><ele>33.0</ele><time>2026-04-07T08:55:43.282Z</time></trkpt><trkpt lat="41.5394807" lon="12.8635883"><ele>33.0</ele><time>2026-04-07T08:55:45.282Z</time></trkpt><trkpt lat="41.5396343" lon="12.863683"><ele>33.0</ele><time>2026-04-07T08:55:48.282Z</time></trkpt><trkpt lat="41.5397274" lon="12.8637258"><ele>33.0</ele><time>2026-04-07T08:55:50.283Z</time></trkpt><trkpt lat="41.5398446" lon="12.8637801"><ele>32.6</ele><time>2026-04-07T08:55:52.283Z</time></trkpt><trkpt lat="41.539946" lon="12.863837"><ele>32.199999999999996</ele><time>2026-04-07T08:55:54.283Z</time></trkpt><trkpt lat="41.5400509" lon="12.8639062"><ele>31.8</ele><time>2026-04-07T08:55:56.282Z</time></trkpt><trkpt lat="41.5401136" lon="12.8639376"><ele>31.4</ele><time>2026-04-07T08:55:57.282Z</time></trkpt><trkpt lat="41.5401715" lon="12.8639769"><ele>31.0</ele><time>2026-04-07T08:55:58.282Z</time></trkpt><trkpt lat="41.5403308" lon="12.8640746"><ele>31.25</ele><time>2026-04-07T08:56:01.282Z</time></trkpt><trkpt lat="41.5404024" lon="12.8641162"><ele>31.5</ele><time>2026-04-07T08:56:03.283Z</time></trkpt><trkpt lat="41.540501" lon="12.8641921"><ele>31.75</ele><time>2026-04-07T08:56:05.282Z</time></trkpt><trkpt lat="41.5406294" lon="12.8642937"><ele>32.0</ele><time>2026-04-07T08:56:08.282Z</time></trkpt><trkpt lat="41.5407223" lon="12.8643705"><ele>32.4</ele><time>2026-04-07T08:56:10.282Z</time></trkpt><trkpt lat="41.540827" lon="12.8644568"><ele>32.800000000000004</ele><time>2026-04-07T08:56:12.282Z</time></trkpt><trkpt lat="41.5409127" lon="12.8645486"><ele>33.2</ele><time>2026-04-07T08:56:14.283Z</time></trkpt><trkpt lat="41.5410127" lon="12.8646337"><ele>33.6</ele><time>2026-04-07T08:56:16.282Z</time></trkpt><trkpt lat="41.5410985" lon="12.8646867"><ele>34.0</ele><time>2026-04-07T08:56:18.282Z</time></trkpt><trkpt lat="41.5411866" lon="12.8647436"><ele>33.4</ele><time>2026-04-07T08:56:20.282Z</time></trkpt><trkpt lat="41.5412574" lon="12.8648039"><ele>32.8</ele><time>2026-04-07T08:56:22.282Z</time></trkpt><trkpt lat="41.5413515" lon="12.8649142"><ele>32.2</ele><time>2026-04-07T08:56:25.282Z</time></trkpt><trkpt lat="41.5414143" lon="12.8649448"><ele>31.6</ele><time>2026-04-07T08:56:27.282Z</time></trkpt><trkpt lat="41.5414949" lon="12.8649953"><ele>31.0</ele><time>2026-04-07T08:56:29.282Z</time></trkpt><trkpt lat="41.5415594" lon="12.8650907"><ele>31.4</ele><time>2026-04-07T08:56:31.282Z</time></trkpt><trkpt lat="41.5416186" lon="12.8651715"><ele>31.8</ele><time>2026-04-07T08:56:33.283Z</time></trkpt><trkpt lat="41.5416995" lon="12.8652833"><ele>32.199999999999996</ele><time>2026-04-07T08:56:35.282Z</time></trkpt><trkpt lat="41.5418053" lon="12.8653619"><ele>32.6</ele><time>2026-04-07T08:56:37.283Z</time></trkpt><trkpt lat="41.5418837" lon="12.865471"><ele>33.0</ele><time>2026-04-07T08:56:39.282Z</time></trkpt><trkpt lat="41.5419613" lon="12.8655509"><ele>33.0</ele><time>2026-04-07T08:56:41.282Z</time></trkpt><trkpt lat="41.5420323" lon="12.8656204"><ele>33.0</ele><time>2026-04-07T08:56:43.282Z</time></trkpt><trkpt lat="41.5421032" lon="12.8657081"><ele>33.0</ele><time>2026-04-07T08:56:45.283Z</time></trkpt><trkpt lat="41.5421818" lon="12.8658194"><ele>33.0</ele><time>2026-04-07T08:56:47.282Z</time></trkpt><trkpt lat="41.542281" lon="12.865917"><ele>33.0</ele><time>2026-04-07T08:56:50.283Z</time></trkpt><trkpt lat="41.5423566" lon="12.8660063"><ele>33.4</ele><time>2026-04-07T08:56:52.282Z</time></trkpt><trkpt lat="41.5424291" lon="12.8660804"><ele>33.8</ele><time>2026-04-07T08:56:54.282Z</time></trkpt><trkpt lat="41.5425003" lon="12.8661305"><ele>34.2</ele><time>2026-04-07T08:56:56.282Z</time></trkpt><trkpt lat="41.5426145" lon="12.8662614"><ele>34.6</ele><time>2026-04-07T08:56:59.282Z</time></trkpt><trkpt lat="41.5426826" lon="12.8663598"><ele>35.0</ele><time>2026-04-07T08:57:01.282Z</time></trkpt><trkpt lat="41.5427505" lon="12.8664671"><ele>35.0</ele><time>2026-04-07T08:57:03.283Z</time></trkpt><trkpt lat="41.5428117" lon="12.8665858"><ele>35.0</ele><time>2026-04-07T08:57:05.282Z</time></trkpt><trkpt lat="41.5428965" lon="12.8666808"><ele>35.0</ele><time>2026-04-07T08:57:07.282Z</time></trkpt><trkpt lat="41.542989" lon="12.8668072"><ele>35.0</ele><time>2026-04-07T08:57:09.282Z</time></trkpt><trkpt lat="41.543075" lon="12.8668695"><ele>35.0</ele><time>2026-04-07T08:57:11.282Z</time></trkpt><trkpt lat="41.5431264" lon="12.8669307"><ele>34.83333333333333</ele><time>2026-04-07T08:57:12.282Z</time></trkpt><trkpt lat="41.5431696" lon="12.8669995"><ele>34.666666666666664</ele><time>2026-04-07T08:57:13.282Z</time></trkpt><trkpt lat="41.5432216" lon="12.867067"><ele>34.5</ele><time>2026-04-07T08:57:14.282Z</time></trkpt><trkpt lat="41.5432683" lon="12.8671292"><ele>34.333333333333336</ele><time>2026-04-07T08:57:15.282Z</time></trkpt><trkpt lat="41.5433157" lon="12.8672039"><ele>34.16666666666667</ele><time>2026-04-07T08:57:16.282Z</time></trkpt><trkpt lat="41.5433644" lon="12.8672694"><ele>34.0</ele><time>2026-04-07T08:57:17.282Z</time></trkpt><trkpt lat="41.5434723" lon="12.8673994"><ele>34.0</ele><time>2026-04-07T08:57:19.283Z</time></trkpt><trkpt lat="41.5435315" lon="12.8674793"><ele>34.0</ele><time>2026-04-07T08:57:20.283Z</time></trkpt><trkpt lat="41.5436535" lon="12.867639"><ele>34.0</ele><time>2026-04-07T08:57:22.282Z</time></trkpt><trkpt lat="41.5437781" lon="12.8678085"><ele>34.0</ele><time>2026-04-07T08:57:24.282Z</time></trkpt><trkpt lat="41.5438815" lon="12.867955"><ele>33.5</ele><time>2026-04-07T08:57:26.283Z</time></trkpt><trkpt lat="41.5440154" lon="12.8681174"><ele>33.0</ele><time>2026-04-07T08:57:28.282Z</time></trkpt><trkpt lat="41.5440739" lon="12.868187"><ele>32.5</ele><time>2026-04-07T08:57:29.282Z</time></trkpt><trkpt lat="41.5441267" lon="12.8682548"><ele>32.0</ele><time>2026-04-07T08:57:30.282Z</time></trkpt><trkpt lat="41.5442501" lon="12.8684158"><ele>32.2</ele><time>2026-04-07T08:57:32.282Z</time></trkpt><trkpt lat="41.5443196" lon="12.8684998"><ele>32.400000000000006</ele><time>2026-04-07T08:57:33.282Z</time></trkpt><trkpt lat="41.5443811" lon="12.868567"><ele>32.599999999999994</ele><time>2026-04-07T08:57:34.282Z</time></trkpt><trkpt lat="41.5444481" lon="12.8686604"><ele>32.8</ele><time>2026-04-07T08:57:35.282Z</time></trkpt><trkpt lat="41.5445205" lon="12.8687459"><ele>33.0</ele><time>2026-04-07T08:57:36.282Z</time></trkpt><trkpt lat="41.5446641" lon="12.8689357"><ele>33.0</ele><time>2026-04-07T08:57:38.283Z</time></trkpt><trkpt lat="41.5447391" lon="12.8690291"><ele>33.0</ele><time>2026-04-07T08:57:39.282Z</time></trkpt><trkpt lat="41.5448116" lon="12.869129"><ele>33.0</ele><time>2026-04-07T08:57:40.282Z</time></trkpt><trkpt lat="41.5448844" lon="12.8692223"><ele>33.0</ele><time>2026-04-07T08:57:41.282Z</time></trkpt><trkpt lat="41.5450227" lon="12.8693978"><ele>33.0</ele><time>2026-04-07T08:57:43.282Z</time></trkpt><trkpt lat="41.5451699" lon="12.8695778"><ele>33.0</ele><time>2026-04-07T08:57:45.282Z</time></trkpt><trkpt lat="41.5452399" lon="12.8696625"><ele>33.0</ele><time>2026-04-07T08:57:46.282Z</time></trkpt><trkpt lat="41.5453066" lon="12.8697445"><ele>33.0</ele><time>2026-04-07T08:57:47.283Z</time></trkpt><trkpt lat="41.5453799" lon="12.8698286"><ele>33.0</ele><time>2026-04-07T08:57:48.283Z</time></trkpt><trkpt lat="41.5454524" lon="12.8699146"><ele>33.0</ele><time>2026-04-07T08:57:49.282Z</time></trkpt><trkpt lat="41.5455958" lon="12.8700882"><ele>33.0</ele><time>2026-04-07T08:57:51.282Z</time></trkpt><trkpt lat="41.5456616" lon="12.8701751"><ele>33.0</ele><time>2026-04-07T08:57:52.282Z</time></trkpt><trkpt lat="41.5457972" lon="12.8703753"><ele>33.333333333333336</ele><time>2026-04-07T08:57:54.282Z</time></trkpt><trkpt lat="41.5459452" lon="12.8705549"><ele>33.66666666666667</ele><time>2026-04-07T08:57:56.282Z</time></trkpt><trkpt lat="41.5460846" lon="12.8707201"><ele>34.0</ele><time>2026-04-07T08:57:58.282Z</time></trkpt><trkpt lat="41.5461556" lon="12.8708162"><ele>33.66666666666667</ele><time>2026-04-07T08:57:59.282Z</time></trkpt><trkpt lat="41.5463015" lon="12.8710028"><ele>33.333333333333336</ele><time>2026-04-07T08:58:01.282Z</time></trkpt><trkpt lat="41.5463808" lon="12.8711081"><ele>33.0</ele><time>2026-04-07T08:58:02.282Z</time></trkpt><trkpt lat="41.5465328" lon="12.8712992"><ele>33.0</ele><time>2026-04-07T08:58:04.282Z</time></trkpt><trkpt lat="41.5466053" lon="12.8714005"><ele>33.0</ele><time>2026-04-07T08:58:05.282Z</time></trkpt><trkpt lat="41.5466837" lon="12.8714982"><ele>33.0</ele><time>2026-04-07T08:58:06.282Z</time></trkpt><trkpt lat="41.5467601" lon="12.8715954"><ele>33.0</ele><time>2026-04-07T08:58:07.282Z</time></trkpt><trkpt lat="41.5468277" lon="12.8716844"><ele>33.0</ele><time>2026-04-07T08:58:08.282Z</time></trkpt><trkpt lat="41.5469084" lon="12.8717877"><ele>33.25</ele><time>2026-04-07T08:58:09.282Z</time></trkpt><trkpt lat="41.5469829" lon="12.8718827"><ele>33.5</ele><time>2026-04-07T08:58:10.282Z</time></trkpt><trkpt lat="41.547054" lon="12.8719805"><ele>33.75</ele><time>2026-04-07T08:58:11.282Z</time></trkpt><trkpt lat="41.5471984" lon="12.8721538"><ele>34.0</ele><time>2026-04-07T08:58:13.282Z</time></trkpt><trkpt lat="41.5473062" lon="12.8723444"><ele>34.0</ele><time>2026-04-07T08:58:15.283Z</time></trkpt><trkpt lat="41.5473659" lon="12.8724353"><ele>34.0</ele><time>2026-04-07T08:58:16.283Z</time></trkpt><trkpt lat="41.5474095" lon="12.8725195"><ele>34.0</ele><time>2026-04-07T08:58:17.282Z</time></trkpt><trkpt lat="41.5474712" lon="12.8726033"><ele>34.0</ele><time>2026-04-07T08:58:18.282Z</time></trkpt><trkpt lat="41.5476002" lon="12.872735"><ele>34.0</ele><time>2026-04-07T08:58:20.282Z</time></trkpt><trkpt lat="41.5476837" lon="12.8728311"><ele>34.66666666666667</ele><time>2026-04-07T08:58:21.282Z</time></trkpt><trkpt lat="41.5478384" lon="12.8730271"><ele>35.333333333333336</ele><time>2026-04-07T08:58:23.282Z</time></trkpt><trkpt lat="41.5479148" lon="12.8731199"><ele>36.0</ele><time>2026-04-07T08:58:24.282Z</time></trkpt><trkpt lat="41.5480578" lon="12.873311"><ele>35.75</ele><time>2026-04-07T08:58:26.282Z</time></trkpt><trkpt lat="41.5481263" lon="12.873402"><ele>35.5</ele><time>2026-04-07T08:58:27.282Z</time></trkpt><trkpt lat="41.5481964" lon="12.8734854"><ele>35.25</ele><time>2026-04-07T08:58:28.282Z</time></trkpt><trkpt lat="41.5483271" lon="12.8736793"><ele>35.0</ele><time>2026-04-07T08:58:30.283Z</time></trkpt><trkpt lat="41.5483871" lon="12.8737687"><ele>35.0</ele><time>2026-04-07T08:58:31.282Z</time></trkpt><trkpt lat="41.5484937" lon="12.8739501"><ele>35.0</ele><time>2026-04-07T08:58:33.282Z</time></trkpt><trkpt lat="41.5485589" lon="12.8740687"><ele>35.0</ele><time>2026-04-07T08:58:34.282Z</time></trkpt><trkpt lat="41.5486128" lon="12.8741527"><ele>35.0</ele><time>2026-04-07T08:58:35.282Z</time></trkpt><trkpt lat="41.548661" lon="12.8742453"><ele>35.166666666666664</ele><time>2026-04-07T08:58:36.282Z</time></trkpt><trkpt lat="41.5487074" lon="12.8743325"><ele>35.33333333333333</ele><time>2026-04-07T08:58:37.282Z</time></trkpt><trkpt lat="41.5487546" lon="12.8744246"><ele>35.5</ele><time>2026-04-07T08:58:38.282Z</time></trkpt><trkpt lat="41.548801" lon="12.8745136"><ele>35.666666666666664</ele><time>2026-04-07T08:58:39.282Z</time></trkpt><trkpt lat="41.5488465" lon="12.8745928"><ele>35.833333333333336</ele><time>2026-04-07T08:58:40.283Z</time></trkpt><trkpt lat="41.5488884" lon="12.8746747"><ele>36.0</ele><time>2026-04-07T08:58:41.283Z</time></trkpt><trkpt lat="41.5489194" lon="12.8747635"><ele>35.8</ele><time>2026-04-07T08:58:42.282Z</time></trkpt><trkpt lat="41.5489618" lon="12.8748569"><ele>35.6</ele><time>2026-04-07T08:58:43.283Z</time></trkpt><trkpt lat="41.5489934" lon="12.8749535"><ele>35.4</ele><time>2026-04-07T08:58:44.283Z</time></trkpt><trkpt lat="41.5490343" lon="12.8750617"><ele>35.2</ele><time>2026-04-07T08:58:45.282Z</time></trkpt><trkpt lat="41.5491283" lon="12.8752742"><ele>35.0</ele><time>2026-04-07T08:58:47.283Z</time></trkpt><trkpt lat="41.549202" lon="12.8754919"><ele>35.0</ele><time>2026-04-07T08:58:49.282Z</time></trkpt><trkpt lat="41.549233" lon="12.8755961"><ele>35.0</ele><time>2026-04-07T08:58:50.282Z</time></trkpt><trkpt lat="41.5492696" lon="12.875719"><ele>35.0</ele><time>2026-04-07T08:58:51.282Z</time></trkpt><trkpt lat="41.5493118" lon="12.8758506"><ele>35.0</ele><time>2026-04-07T08:58:52.282Z</time></trkpt><trkpt lat="41.54939" lon="12.87608"><ele>35.33333333333333</ele><time>2026-04-07T08:58:54.282Z</time></trkpt><trkpt lat="41.5494557" lon="12.8762989"><ele>35.666666666666664</ele><time>2026-04-07T08:58:56.282Z</time></trkpt><trkpt lat="41.5495093" lon="12.8764967"><ele>36.0</ele><time>2026-04-07T08:58:58.282Z</time></trkpt><trkpt lat="41.54954" lon="12.8766543"><ele>35.666666666666664</ele><time>2026-04-07T08:59:00.282Z</time></trkpt><trkpt lat="41.5495792" lon="12.8767774"><ele>35.333333333333336</ele><time>2026-04-07T08:59:03.283Z</time></trkpt><trkpt lat="41.5496008" lon="12.8766739"><ele>35.0</ele><time>2026-04-07T08:59:08.283Z</time></trkpt><trkpt lat="41.5496032" lon="12.8765573"><ele>34.66666666666667</ele><time>2026-04-07T08:59:11.283Z</time></trkpt><trkpt lat="41.5496736" lon="12.8765901"><ele>34.333333333333336</ele><time>2026-04-07T08:59:14.283Z</time></trkpt><trkpt lat="41.5497133" lon="12.8766937"><ele>34.0</ele><time>2026-04-07T08:59:16.282Z</time></trkpt><trkpt lat="41.5497464" lon="12.8768228"><ele>34.0</ele><time>2026-04-07T08:59:18.282Z</time></trkpt><trkpt lat="41.5497795" lon="12.8769351"><ele>34.0</ele><time>2026-04-07T08:59:20.282Z</time></trkpt><trkpt lat="41.5498181" lon="12.8770592"><ele>34.0</ele><time>2026-04-07T08:59:22.282Z</time></trkpt><trkpt lat="41.5498586" lon="12.8771824"><ele>34.0</ele><time>2026-04-07T08:59:24.282Z</time></trkpt><trkpt lat="41.5498881" lon="12.8773103"><ele>34.0</ele><time>2026-04-07T08:59:26.282Z</time></trkpt><trkpt lat="41.5499265" lon="12.8774292"><ele>34.0</ele><time>2026-04-07T08:59:28.282Z</time></trkpt><trkpt lat="41.5499886" lon="12.877632"><ele>34.0</ele><time>2026-04-07T08:59:31.282Z</time></trkpt><trkpt lat="41.5500275" lon="12.8777586"><ele>34.0</ele><time>2026-04-07T08:59:33.282Z</time></trkpt><trkpt lat="41.5500502" lon="12.8778674"><ele>34.0</ele><time>2026-04-07T08:59:35.282Z</time></trkpt><trkpt lat="41.5501005" lon="12.8779844"><ele>34.0</ele><time>2026-04-07T08:59:37.282Z</time></trkpt><trkpt lat="41.5501573" lon="12.8781057"><ele>34.0</ele><time>2026-04-07T08:59:39.282Z</time></trkpt><trkpt lat="41.5502065" lon="12.8782045"><ele>34.0</ele><time>2026-04-07T08:59:41.282Z</time></trkpt><trkpt lat="41.5502856" lon="12.8783893"><ele>34.0</ele><time>2026-04-07T08:59:44.282Z</time></trkpt><trkpt lat="41.5503516" lon="12.8785211"><ele>34.0</ele><time>2026-04-07T08:59:46.283Z</time></trkpt><trkpt lat="41.5503858" lon="12.8786084"><ele>34.0</ele><time>2026-04-07T08:59:47.282Z</time></trkpt><trkpt lat="41.5504773" lon="12.8787689"><ele>34.0</ele><time>2026-04-07T08:59:50.282Z</time></trkpt><trkpt lat="41.5505349" lon="12.8788603"><ele>34.0</ele><time>2026-04-07T08:59:52.282Z</time></trkpt><trkpt lat="41.5506181" lon="12.878949"><ele>34.0</ele><time>2026-04-07T08:59:55.282Z</time></trkpt><trkpt lat="41.5506819" lon="12.8790518"><ele>34.0</ele><time>2026-04-07T08:59:57.282Z</time></trkpt><trkpt lat="41.5507245" lon="12.8791165"><ele>34.0</ele><time>2026-04-07T08:59:58.282Z</time></trkpt><trkpt lat="41.5507967" lon="12.879238"><ele>34.0</ele><time>2026-04-07T09:00:00.282Z</time></trkpt><trkpt lat="41.5508613" lon="12.8793372"><ele>34.0</ele><time>2026-04-07T09:00:02.283Z</time></trkpt><trkpt lat="41.5509286" lon="12.8794109"><ele>34.0</ele><time>2026-04-07T09:00:04.282Z</time></trkpt><trkpt lat="41.5509828" lon="12.8794611"><ele>34.0</ele><time>2026-04-07T09:00:05.282Z</time></trkpt><trkpt lat="41.5510305" lon="12.8795344"><ele>33.8</ele><time>2026-04-07T09:00:07.282Z</time></trkpt><trkpt lat="41.5510952" lon="12.8796368"><ele>33.599999999999994</ele><time>2026-04-07T09:00:09.282Z</time></trkpt><trkpt lat="41.551156" lon="12.8797562"><ele>33.4</ele><time>2026-04-07T09:00:11.283Z</time></trkpt><trkpt lat="41.5512084" lon="12.8798268"><ele>33.199999999999996</ele><time>2026-04-07T09:00:13.282Z</time></trkpt><trkpt lat="41.5512839" lon="12.8799577"><ele>33.0</ele><time>2026-04-07T09:00:15.283Z</time></trkpt><trkpt lat="41.5513543" lon="12.8800198"><ele>33.0</ele><time>2026-04-07T09:00:17.282Z</time></trkpt><trkpt lat="41.5514038" lon="12.8800936"><ele>33.0</ele><time>2026-04-07T09:00:19.282Z</time></trkpt><trkpt lat="41.5514597" lon="12.8801521"><ele>33.0</ele><time>2026-04-07T09:00:21.282Z</time></trkpt><trkpt lat="41.5515205" lon="12.8802365"><ele>33.0</ele><time>2026-04-07T09:00:23.282Z</time></trkpt><trkpt lat="41.5515876" lon="12.8803272"><ele>33.0</ele><time>2026-04-07T09:00:25.282Z</time></trkpt><trkpt lat="41.5516491" lon="12.880411"><ele>33.0</ele><time>2026-04-07T09:00:27.282Z</time></trkpt><trkpt lat="41.5517228" lon="12.8804754"><ele>33.0</ele><time>2026-04-07T09:00:29.282Z</time></trkpt><trkpt lat="41.5517793" lon="12.8805376"><ele>33.0</ele><time>2026-04-07T09:00:31.282Z</time></trkpt><trkpt lat="41.551829" lon="12.8806196"><ele>33.0</ele><time>2026-04-07T09:00:33.282Z</time></trkpt><trkpt lat="41.5518824" lon="12.8807002"><ele>33.0</ele><time>2026-04-07T09:00:35.282Z</time></trkpt><trkpt lat="41.5519285" lon="12.88077"><ele>33.0</ele><time>2026-04-07T09:00:37.282Z</time></trkpt><trkpt lat="41.5519808" lon="12.8808318"><ele>33.0</ele><time>2026-04-07T09:00:39.282Z</time></trkpt><trkpt lat="41.5520654" lon="12.880942"><ele>33.333333333333336</ele><time>2026-04-07T09:00:42.282Z</time></trkpt><trkpt lat="41.5521115" lon="12.881024"><ele>33.666666666666664</ele><time>2026-04-07T09:00:44.282Z</time></trkpt><trkpt lat="41.5521637" lon="12.8810997"><ele>34.0</ele><time>2026-04-07T09:00:46.282Z</time></trkpt><trkpt lat="41.552222" lon="12.8811737"><ele>34.33333333333333</ele><time>2026-04-07T09:00:48.282Z</time></trkpt><trkpt lat="41.5522717" lon="12.881258"><ele>34.666666666666664</ele><time>2026-04-07T09:00:50.282Z</time></trkpt><trkpt lat="41.5523186" lon="12.8813262"><ele>35.0</ele><time>2026-04-07T09:00:52.282Z</time></trkpt><trkpt lat="41.5523809" lon="12.8814169"><ele>35.0</ele><time>2026-04-07T09:00:55.282Z</time></trkpt><trkpt lat="41.5524482" lon="12.8815153"><ele>35.0</ele><time>2026-04-07T09:00:58.282Z</time></trkpt><trkpt lat="41.5524988" lon="12.8815922"><ele>35.0</ele><time>2026-04-07T09:01:00.282Z</time></trkpt><trkpt lat="41.5525457" lon="12.8816529"><ele>35.0</ele><time>2026-04-07T09:01:02.282Z</time></trkpt><trkpt lat="41.5526109" lon="12.8817372"><ele>35.0</ele><time>2026-04-07T09:01:05.283Z</time></trkpt><trkpt lat="41.5526606" lon="12.8818025"><ele>35.0</ele><time>2026-04-07T09:01:07.283Z</time></trkpt><trkpt lat="41.5527112" lon="12.8818673"><ele>35.2</ele><time>2026-04-07T09:01:09.282Z</time></trkpt><trkpt lat="41.5527794" lon="12.8819546"><ele>35.4</ele><time>2026-04-07T09:01:12.282Z</time></trkpt><trkpt lat="41.5528436" lon="12.8820438"><ele>35.6</ele><time>2026-04-07T09:01:14.282Z</time></trkpt><trkpt lat="41.5529034" lon="12.8821434"><ele>35.8</ele><time>2026-04-07T09:01:16.282Z</time></trkpt><trkpt lat="41.5529597" lon="12.8822404"><ele>36.0</ele><time>2026-04-07T09:01:18.282Z</time></trkpt><trkpt lat="41.5530156" lon="12.8823304"><ele>36.0</ele><time>2026-04-07T09:01:20.282Z</time></trkpt><trkpt lat="41.5530734" lon="12.8824207"><ele>36.0</ele><time>2026-04-07T09:01:22.283Z</time></trkpt><trkpt lat="41.5531394" lon="12.8824915"><ele>36.0</ele><time>2026-04-07T09:01:24.282Z</time></trkpt><trkpt lat="41.5532025" lon="12.8825847"><ele>36.0</ele><time>2026-04-07T09:01:26.282Z</time></trkpt><trkpt lat="41.5532764" lon="12.8826691"><ele>36.0</ele><time>2026-04-07T09:01:29.282Z</time></trkpt><trkpt lat="41.5533204" lon="12.8827403"><ele>36.0</ele><time>2026-04-07T09:01:31.282Z</time></trkpt><trkpt lat="41.5533718" lon="12.8827911"><ele>36.142857142857146</ele><time>2026-04-07T09:01:33.282Z</time></trkpt><trkpt lat="41.5534258" lon="12.8828366"><ele>36.285714285714285</ele><time>2026-04-07T09:01:36.282Z</time></trkpt><trkpt lat="41.5534536" lon="12.88292"><ele>36.42857142857143</ele><time>2026-04-07T09:03:55.282Z</time></trkpt><trkpt lat="41.5535026" lon="12.8829769"><ele>36.57142857142857</ele><time>2026-04-07T09:03:58.282Z</time></trkpt><trkpt lat="41.5535517" lon="12.8830442"><ele>36.714285714285715</ele><time>2026-04-07T09:04:01.282Z</time></trkpt><trkpt lat="41.5536101" lon="12.8831163"><ele>36.85714285714286</ele><time>2026-04-07T09:04:03.282Z</time></trkpt><trkpt lat="41.5536527" lon="12.8831869"><ele>37.0</ele><time>2026-04-07T09:04:05.282Z</time></trkpt><trkpt lat="41.5537292" lon="12.8832792"><ele>37.0</ele><time>2026-04-07T09:04:08.283Z</time></trkpt><trkpt lat="41.5537853" lon="12.883342"><ele>37.0</ele><time>2026-04-07T09:04:10.282Z</time></trkpt><trkpt lat="41.5538507" lon="12.8834394"><ele>37.0</ele><time>2026-04-07T09:04:12.282Z</time></trkpt><trkpt lat="41.5539191" lon="12.8835441"><ele>37.0</ele><time>2026-04-07T09:04:14.282Z</time></trkpt><trkpt lat="41.5539774" lon="12.8836169"><ele>37.0</ele><time>2026-04-07T09:04:16.283Z</time></trkpt><trkpt lat="41.5540461" lon="12.8837104"><ele>36.800000000000004</ele><time>2026-04-07T09:04:18.282Z</time></trkpt><trkpt lat="41.5541144" lon="12.8838041"><ele>36.6</ele><time>2026-04-07T09:04:20.282Z</time></trkpt><trkpt lat="41.5541771" lon="12.8839051"><ele>36.400000000000006</ele><time>2026-04-07T09:04:22.282Z</time></trkpt><trkpt lat="41.5542413" lon="12.8839844"><ele>36.2</ele><time>2026-04-07T09:04:24.283Z</time></trkpt><trkpt lat="41.5543065" lon="12.8840847"><ele>36.0</ele><time>2026-04-07T09:04:26.282Z</time></trkpt><trkpt lat="41.5543569" lon="12.8841605"><ele>35.8</ele><time>2026-04-07T09:04:28.283Z</time></trkpt><trkpt lat="41.554429" lon="12.8842666"><ele>35.6</ele><time>2026-04-07T09:04:30.283Z</time></trkpt><trkpt lat="41.5544912" lon="12.8843479"><ele>35.4</ele><time>2026-04-07T09:04:32.282Z</time></trkpt><trkpt lat="41.5545468" lon="12.8844564"><ele>35.2</ele><time>2026-04-07T09:04:34.282Z</time></trkpt><trkpt lat="41.5545982" lon="12.8845192"><ele>35.0</ele><time>2026-04-07T09:04:37.282Z</time></trkpt><trkpt lat="41.5546641" lon="12.8846393"><ele>35.0</ele><time>2026-04-07T09:04:39.282Z</time></trkpt><trkpt lat="41.5547261" lon="12.8847293"><ele>35.0</ele><time>2026-04-07T09:04:41.282Z</time></trkpt><trkpt lat="41.554792" lon="12.8848051"><ele>35.0</ele><time>2026-04-07T09:04:43.282Z</time></trkpt><trkpt lat="41.5548573" lon="12.8849031"><ele>35.0</ele><time>2026-04-07T09:04:45.282Z</time></trkpt><trkpt lat="41.5549334" lon="12.8850118"><ele>35.0</ele><time>2026-04-07T09:04:47.282Z</time></trkpt><trkpt lat="41.5549977" lon="12.8850649"><ele>34.8</ele><time>2026-04-07T09:04:49.283Z</time></trkpt><trkpt lat="41.5550766" lon="12.8851418"><ele>34.6</ele><time>2026-04-07T09:04:51.282Z</time></trkpt><trkpt lat="41.5551389" lon="12.8852329"><ele>34.4</ele><time>2026-04-07T09:04:53.282Z</time></trkpt><trkpt lat="41.5551789" lon="12.8853044"><ele>34.2</ele><time>2026-04-07T09:04:54.282Z</time></trkpt><trkpt lat="41.5552434" lon="12.8853978"><ele>34.0</ele><time>2026-04-07T09:04:56.282Z</time></trkpt><trkpt lat="41.5553252" lon="12.8854817"><ele>34.4</ele><time>2026-04-07T09:04:58.283Z</time></trkpt><trkpt lat="41.5554024" lon="12.8855864"><ele>34.8</ele><time>2026-04-07T09:05:01.282Z</time></trkpt><trkpt lat="41.5554669" lon="12.8856415"><ele>35.2</ele><time>2026-04-07T09:05:03.282Z</time></trkpt><trkpt lat="41.5555584" lon="12.8857353"><ele>35.6</ele><time>2026-04-07T09:05:05.283Z</time></trkpt><trkpt lat="41.5556343" lon="12.8857892"><ele>36.0</ele><time>2026-04-07T09:05:07.282Z</time></trkpt><trkpt lat="41.5557547" lon="12.8858676"><ele>36.0</ele><time>2026-04-07T09:05:10.282Z</time></trkpt><trkpt lat="41.5558332" lon="12.8859012"><ele>36.0</ele><time>2026-04-07T09:05:12.282Z</time></trkpt><trkpt lat="41.5559193" lon="12.8859783"><ele>36.0</ele><time>2026-04-07T09:05:14.282Z</time></trkpt><trkpt lat="41.5560038" lon="12.8860401"><ele>36.0</ele><time>2026-04-07T09:05:16.283Z</time></trkpt><trkpt lat="41.5560836" lon="12.8860583"><ele>36.0</ele><time>2026-04-07T09:05:18.282Z</time></trkpt><trkpt lat="41.5561577" lon="12.8860977"><ele>36.0</ele><time>2026-04-07T09:05:20.283Z</time></trkpt><trkpt lat="41.5562232" lon="12.8861778"><ele>36.333333333333336</ele><time>2026-04-07T09:05:23.282Z</time></trkpt><trkpt lat="41.5562853" lon="12.8862303"><ele>36.666666666666664</ele><time>2026-04-07T09:05:25.282Z</time></trkpt><trkpt lat="41.5563543" lon="12.8862343"><ele>37.0</ele><time>2026-04-07T09:05:28.282Z</time></trkpt><trkpt lat="41.5564247" lon="12.886201"><ele>37.33333333333333</ele><time>2026-04-07T09:05:32.282Z</time></trkpt><trkpt lat="41.5565046" lon="12.8862303"><ele>37.666666666666664</ele><time>2026-04-07T09:05:44.282Z</time></trkpt><trkpt lat="41.5565948" lon="12.8862607"><ele>38.0</ele><time>2026-04-07T09:05:47.283Z</time></trkpt><trkpt lat="41.5566484" lon="12.8864004"><ele>38.0</ele><time>2026-04-07T09:05:49.283Z</time></trkpt><trkpt lat="41.5567083" lon="12.8864558"><ele>38.0</ele><time>2026-04-07T09:05:51.282Z</time></trkpt><trkpt lat="41.5567748" lon="12.8864853"><ele>38.0</ele><time>2026-04-07T09:05:53.282Z</time></trkpt><trkpt lat="41.5568337" lon="12.8865527"><ele>38.0</ele><time>2026-04-07T09:44:12.283Z</time></trkpt><trkpt lat="41.5567614" lon="12.8865764"><ele>38.0</ele><time>2026-04-07T09:44:51.282Z</time></trkpt><trkpt lat="41.5567044" lon="12.886515"><ele>38.0</ele><time>2026-04-07T09:44:54.283Z</time></trkpt><trkpt lat="41.5566666" lon="12.8864106"><ele>38.0</ele><time>2026-04-07T09:44:58.282Z</time></trkpt><trkpt lat="41.5566118" lon="12.8863556"><ele>38.0</ele><time>2026-04-07T09:45:01.282Z</time></trkpt><trkpt lat="41.5565238" lon="12.8862991"><ele>38.0</ele><time>2026-04-07T09:45:04.283Z</time></trkpt><trkpt lat="41.5564644" lon="12.8862639"><ele>38.0</ele><time>2026-04-07T09:45:07.282Z</time></trkpt><trkpt lat="41.5563825" lon="12.886288"><ele>38.0</ele><time>2026-04-07T09:45:10.282Z</time></trkpt><trkpt lat="41.5563073" lon="12.8862894"><ele>38.0</ele><time>2026-04-07T09:45:13.283Z</time></trkpt><trkpt lat="41.5562379" lon="12.8862337"><ele>38.0</ele><time>2026-04-07T09:45:15.282Z</time></trkpt><trkpt lat="41.556175" lon="12.8861486"><ele>38.0</ele><time>2026-04-07T09:45:18.282Z</time></trkpt><trkpt lat="41.5561128" lon="12.8860902"><ele>38.0</ele><time>2026-04-07T09:45:21.282Z</time></trkpt><trkpt lat="41.5560008" lon="12.8860547"><ele>38.0</ele><time>2026-04-07T09:45:24.282Z</time></trkpt><trkpt lat="41.5559284" lon="12.8859862"><ele>38.0</ele><time>2026-04-07T09:45:26.282Z</time></trkpt><trkpt lat="41.5558718" lon="12.8859198"><ele>38.0</ele><time>2026-04-07T09:45:28.282Z</time></trkpt><trkpt lat="41.5558096" lon="12.8858694"><ele>37.666666666666664</ele><time>2026-04-07T09:45:30.282Z</time></trkpt><trkpt lat="41.5557173" lon="12.8858008"><ele>37.33333333333333</ele><time>2026-04-07T09:45:33.283Z</time></trkpt><trkpt lat="41.5556502" lon="12.8857523"><ele>37.0</ele><time>2026-04-07T09:45:35.282Z</time></trkpt><trkpt lat="41.5555832" lon="12.8857011"><ele>36.666666666666664</ele><time>2026-04-07T09:45:37.282Z</time></trkpt><trkpt lat="41.5555066" lon="12.8856525"><ele>36.333333333333336</ele><time>2026-04-07T09:45:39.282Z</time></trkpt><trkpt lat="41.5554363" lon="12.8855906"><ele>36.0</ele><time>2026-04-07T09:45:41.282Z</time></trkpt><trkpt lat="41.5553664" lon="12.8855274"><ele>35.833333333333336</ele><time>2026-04-07T09:45:43.282Z</time></trkpt><trkpt lat="41.5553029" lon="12.885456"><ele>35.666666666666664</ele><time>2026-04-07T09:45:45.282Z</time></trkpt><trkpt lat="41.5552501" lon="12.8853906"><ele>35.5</ele><time>2026-04-07T09:45:47.282Z</time></trkpt><trkpt lat="41.555194" lon="12.8852982"><ele>35.33333333333333</ele><time>2026-04-07T09:45:49.282Z</time></trkpt><trkpt lat="41.5551478" lon="12.8852218"><ele>35.166666666666664</ele><time>2026-04-07T09:45:51.282Z</time></trkpt><trkpt lat="41.5550883" lon="12.8851426"><ele>35.0</ele><time>2026-04-07T09:45:53.282Z</time></trkpt><trkpt lat="41.5550211" lon="12.885081"><ele>35.0</ele><time>2026-04-07T09:45:55.282Z</time></trkpt><trkpt lat="41.5549626" lon="12.8850223"><ele>35.0</ele><time>2026-04-07T09:45:57.283Z</time></trkpt><trkpt lat="41.5549069" lon="12.8849428"><ele>35.0</ele><time>2026-04-07T09:45:59.283Z</time></trkpt><trkpt lat="41.5548501" lon="12.8848652"><ele>35.0</ele><time>2026-04-07T09:46:01.282Z</time></trkpt><trkpt lat="41.5547866" lon="12.8848022"><ele>35.0</ele><time>2026-04-07T09:46:03.282Z</time></trkpt><trkpt lat="41.5547262" lon="12.8846863"><ele>35.0</ele><time>2026-04-07T09:46:06.282Z</time></trkpt><trkpt lat="41.554681" lon="12.8845952"><ele>35.0</ele><time>2026-04-07T09:46:08.282Z</time></trkpt><trkpt lat="41.5546242" lon="12.8845237"><ele>35.0</ele><time>2026-04-07T09:46:10.282Z</time></trkpt><trkpt lat="41.554564" lon="12.8844748"><ele>35.0</ele><time>2026-04-07T09:46:12.282Z</time></trkpt><trkpt lat="41.5544142" lon="12.8845829"><ele>35.0</ele><time>2026-04-07T09:46:40.282Z</time></trkpt><trkpt lat="41.554221" lon="12.8843985"><ele>36.666666666666664</ele><time>2026-04-07T09:46:42.282Z</time></trkpt><trkpt lat="41.5541437" lon="12.8844946"><ele>38.333333333333336</ele><time>2026-04-07T09:46:44.282Z</time></trkpt><trkpt lat="41.5543339" lon="12.8847406"><ele>40.0</ele><time>2026-04-07T09:46:47.283Z</time></trkpt><trkpt lat="41.554246" lon="12.8848806"><ele>40.0</ele><time>2026-04-07T09:46:50.283Z</time></trkpt><trkpt lat="41.5543808" lon="12.8847659"><ele>40.0</ele><time>2026-04-07T09:47:50.282Z</time></trkpt><trkpt lat="41.5544242" lon="12.8846888"><ele>40.0</ele><time>2026-04-07T09:48:07.282Z</time></trkpt><trkpt lat="41.5545032" lon="12.8846426"><ele>40.0</ele><time>2026-04-07T09:48:09.282Z</time></trkpt><trkpt lat="41.5545652" lon="12.884607"><ele>40.0</ele><time>2026-04-07T09:48:11.282Z</time></trkpt><trkpt lat="41.5546655" lon="12.8845791"><ele>40.0</ele><time>2026-04-07T09:48:13.282Z</time></trkpt><trkpt lat="41.5546776" lon="12.8844882"><ele>40.0</ele><time>2026-04-07T09:48:23.282Z</time></trkpt><trkpt lat="41.5546392" lon="12.8844003"><ele>40.0</ele><time>2026-04-07T09:48:54.283Z</time></trkpt><trkpt lat="41.5545019" lon="12.8842843"><ele>40.0</ele><time>2026-04-07T09:48:56.282Z</time></trkpt><trkpt lat="41.5543995" lon="12.8841778"><ele>40.0</ele><time>2026-04-07T09:48:58.282Z</time></trkpt><trkpt lat="41.5543202" lon="12.884087"><ele>39.42857142857143</ele><time>2026-04-07T09:49:00.282Z</time></trkpt><trkpt lat="41.5542609" lon="12.884027"><ele>38.85714285714286</ele><time>2026-04-07T09:49:02.282Z</time></trkpt><trkpt lat="41.5542086" lon="12.8839654"><ele>38.28571428571429</ele><time>2026-04-07T09:49:04.282Z</time></trkpt><trkpt lat="41.5541637" lon="12.8838989"><ele>37.714285714285715</ele><time>2026-04-07T09:49:06.282Z</time></trkpt><trkpt lat="41.5540961" lon="12.8838153"><ele>37.142857142857146</ele><time>2026-04-07T09:49:09.283Z</time></trkpt><trkpt lat="41.554049" lon="12.8837492"><ele>36.57142857142858</ele><time>2026-04-07T09:49:11.282Z</time></trkpt><trkpt lat="41.5539965" lon="12.8836858"><ele>36.0</ele><time>2026-04-07T09:49:13.283Z</time></trkpt><trkpt lat="41.5539447" lon="12.8836242"><ele>36.0</ele><time>2026-04-07T09:49:15.283Z</time></trkpt><trkpt lat="41.5539007" lon="12.8835501"><ele>36.0</ele><time>2026-04-07T09:49:17.282Z</time></trkpt><trkpt lat="41.5538565" lon="12.8834642"><ele>36.0</ele><time>2026-04-07T09:49:19.282Z</time></trkpt><trkpt lat="41.5538084" lon="12.8833807"><ele>36.0</ele><time>2026-04-07T09:49:21.283Z</time></trkpt><trkpt lat="41.553761" lon="12.8833154"><ele>36.0</ele><time>2026-04-07T09:49:23.282Z</time></trkpt><trkpt lat="41.5537037" lon="12.8832475"><ele>36.0</ele><time>2026-04-07T09:49:25.282Z</time></trkpt><trkpt lat="41.5536459" lon="12.8831702"><ele>36.166666666666664</ele><time>2026-04-07T09:49:27.283Z</time></trkpt><trkpt lat="41.5535926" lon="12.8830984"><ele>36.333333333333336</ele><time>2026-04-07T09:49:29.283Z</time></trkpt><trkpt lat="41.553543" lon="12.8830341"><ele>36.5</ele><time>2026-04-07T09:49:31.283Z</time></trkpt><trkpt lat="41.5534907" lon="12.8829685"><ele>36.66666666666667</ele><time>2026-04-07T09:49:33.282Z</time></trkpt><trkpt lat="41.5534311" lon="12.8829016"><ele>36.833333333333336</ele><time>2026-04-07T09:49:35.282Z</time></trkpt><trkpt lat="41.5533763" lon="12.8828389"><ele>37.0</ele><time>2026-04-07T09:49:37.282Z</time></trkpt><trkpt lat="41.5533069" lon="12.8827391"><ele>37.0</ele><time>2026-04-07T09:49:40.282Z</time></trkpt><trkpt lat="41.553249" lon="12.8826672"><ele>37.0</ele><time>2026-04-07T09:49:42.282Z</time></trkpt><trkpt lat="41.5532004" lon="12.8826058"><ele>37.0</ele><time>2026-04-07T09:49:44.282Z</time></trkpt><trkpt lat="41.5531257" lon="12.8825049"><ele>37.0</ele><time>2026-04-07T09:49:47.282Z</time></trkpt><trkpt lat="41.5530714" lon="12.8824182"><ele>37.0</ele><time>2026-04-07T09:49:49.282Z</time></trkpt><trkpt lat="41.5530225" lon="12.8823483"><ele>37.0</ele><time>2026-04-07T09:49:51.282Z</time></trkpt><trkpt lat="41.5529653" lon="12.8822622"><ele>36.833333333333336</ele><time>2026-04-07T09:49:53.282Z</time></trkpt><trkpt lat="41.5528996" lon="12.8821746"><ele>36.66666666666667</ele><time>2026-04-07T09:49:55.282Z</time></trkpt><trkpt lat="41.5528359" lon="12.8820918"><ele>36.5</ele><time>2026-04-07T09:49:57.282Z</time></trkpt><trkpt lat="41.5527709" lon="12.8820179"><ele>36.333333333333336</ele><time>2026-04-07T09:49:59.282Z</time></trkpt><trkpt lat="41.552715" lon="12.8819335"><ele>36.166666666666664</ele><time>2026-04-07T09:50:01.283Z</time></trkpt><trkpt lat="41.552664" lon="12.8818459"><ele>36.0</ele><time>2026-04-07T09:50:03.282Z</time></trkpt><trkpt lat="41.5526093" lon="12.8817706"><ele>35.833333333333336</ele><time>2026-04-07T09:50:05.282Z</time></trkpt><trkpt lat="41.5525519" lon="12.8816932"><ele>35.666666666666664</ele><time>2026-04-07T09:50:07.282Z</time></trkpt><trkpt lat="41.5524923" lon="12.8816124"><ele>35.5</ele><time>2026-04-07T09:50:09.282Z</time></trkpt><trkpt lat="41.5524386" lon="12.8815402"><ele>35.33333333333333</ele><time>2026-04-07T09:50:11.282Z</time></trkpt><trkpt lat="41.552356" lon="12.8814356"><ele>35.166666666666664</ele><time>2026-04-07T09:50:14.282Z</time></trkpt><trkpt lat="41.5523008" lon="12.8813749"><ele>35.0</ele><time>2026-04-07T09:50:16.282Z</time></trkpt><trkpt lat="41.5522529" lon="12.8813132"><ele>35.0</ele><time>2026-04-07T09:50:18.283Z</time></trkpt><trkpt lat="41.5522059" lon="12.8812436"><ele>35.0</ele><time>2026-04-07T09:50:20.282Z</time></trkpt><trkpt lat="41.5521592" lon="12.8811813"><ele>35.0</ele><time>2026-04-07T09:50:22.282Z</time></trkpt><trkpt lat="41.5521075" lon="12.8811147"><ele>35.0</ele><time>2026-04-07T09:50:24.282Z</time></trkpt><trkpt lat="41.5520537" lon="12.8810423"><ele>35.0</ele><time>2026-04-07T09:50:26.282Z</time></trkpt><trkpt lat="41.552014" lon="12.880963"><ele>35.0</ele><time>2026-04-07T09:50:28.282Z</time></trkpt><trkpt lat="41.551974" lon="12.8808926"><ele>35.0</ele><time>2026-04-07T09:50:30.283Z</time></trkpt><trkpt lat="41.5519207" lon="12.8808286"><ele>34.666666666666664</ele><time>2026-04-07T09:50:32.283Z</time></trkpt><trkpt lat="41.5518598" lon="12.8807553"><ele>34.33333333333333</ele><time>2026-04-07T09:50:34.282Z</time></trkpt><trkpt lat="41.5518033" lon="12.8806882"><ele>34.0</ele><time>2026-04-07T09:50:36.282Z</time></trkpt><trkpt lat="41.5517506" lon="12.8806158"><ele>33.666666666666664</ele><time>2026-04-07T09:50:38.283Z</time></trkpt><trkpt lat="41.5516943" lon="12.8805355"><ele>33.333333333333336</ele><time>2026-04-07T09:50:40.282Z</time></trkpt><trkpt lat="41.5516364" lon="12.8804451"><ele>33.0</ele><time>2026-04-07T09:50:42.282Z</time></trkpt><trkpt lat="41.5515459" lon="12.880323"><ele>33.0</ele><time>2026-04-07T09:50:45.282Z</time></trkpt><trkpt lat="41.5514901" lon="12.8802478"><ele>33.0</ele><time>2026-04-07T09:50:47.282Z</time></trkpt><trkpt lat="41.5514344" lon="12.8801799"><ele>33.0</ele><time>2026-04-07T09:50:49.282Z</time></trkpt><trkpt lat="41.5513834" lon="12.8801167"><ele>33.0</ele><time>2026-04-07T09:50:51.282Z</time></trkpt><trkpt lat="41.5513292" lon="12.8800527"><ele>33.0</ele><time>2026-04-07T09:50:53.282Z</time></trkpt><trkpt lat="41.5512765" lon="12.8799868"><ele>33.0</ele><time>2026-04-07T09:50:55.282Z</time></trkpt><trkpt lat="41.5512175" lon="12.8799113"><ele>33.5</ele><time>2026-04-07T09:50:57.282Z</time></trkpt><trkpt lat="41.5511614" lon="12.8798285"><ele>34.0</ele><time>2026-04-07T09:50:59.282Z</time></trkpt><trkpt lat="41.5511045" lon="12.8797513"><ele>34.5</ele><time>2026-04-07T09:51:01.282Z</time></trkpt><trkpt lat="41.5510478" lon="12.8796641"><ele>35.0</ele><time>2026-04-07T09:51:03.283Z</time></trkpt><trkpt lat="41.5510186" lon="12.8795853"><ele>35.5</ele><time>2026-04-07T09:51:04.282Z</time></trkpt><trkpt lat="41.5509575" lon="12.8795145"><ele>36.0</ele><time>2026-04-07T09:51:06.282Z</time></trkpt><trkpt lat="41.5509032" lon="12.8794361"><ele>36.0</ele><time>2026-04-07T09:51:08.283Z</time></trkpt><trkpt lat="41.5508196" lon="12.8793128"><ele>36.0</ele><time>2026-04-07T09:51:11.282Z</time></trkpt><trkpt lat="41.5507686" lon="12.8792298"><ele>36.0</ele><time>2026-04-07T09:51:13.282Z</time></trkpt><trkpt lat="41.5507139" lon="12.8791467"><ele>36.0</ele><time>2026-04-07T09:51:15.282Z</time></trkpt><trkpt lat="41.5506583" lon="12.8790654"><ele>36.0</ele><time>2026-04-07T09:51:17.282Z</time></trkpt><trkpt lat="41.5506048" lon="12.8789761"><ele>35.666666666666664</ele><time>2026-04-07T09:51:19.282Z</time></trkpt><trkpt lat="41.5505483" lon="12.8788965"><ele>35.333333333333336</ele><time>2026-04-07T09:51:21.283Z</time></trkpt><trkpt lat="41.5505019" lon="12.8788209"><ele>35.0</ele><time>2026-04-07T09:51:23.282Z</time></trkpt><trkpt lat="41.5504382" lon="12.8787125"><ele>34.66666666666667</ele><time>2026-04-07T09:51:26.282Z</time></trkpt><trkpt lat="41.5503968" lon="12.8786427"><ele>34.333333333333336</ele><time>2026-04-07T09:51:28.282Z</time></trkpt><trkpt lat="41.5503445" lon="12.8785228"><ele>34.0</ele><time>2026-04-07T09:51:31.282Z</time></trkpt><trkpt lat="41.5503065" lon="12.878446"><ele>34.0</ele><time>2026-04-07T09:51:33.282Z</time></trkpt><trkpt lat="41.5502668" lon="12.8783641"><ele>34.0</ele><time>2026-04-07T09:51:35.283Z</time></trkpt><trkpt lat="41.5502241" lon="12.8782677"><ele>34.0</ele><time>2026-04-07T09:51:37.282Z</time></trkpt><trkpt lat="41.5501825" lon="12.8781781"><ele>34.0</ele><time>2026-04-07T09:51:39.282Z</time></trkpt><trkpt lat="41.5501317" lon="12.8780852"><ele>34.0</ele><time>2026-04-07T09:51:41.282Z</time></trkpt><trkpt lat="41.5500935" lon="12.8779663"><ele>34.0</ele><time>2026-04-07T09:51:43.283Z</time></trkpt><trkpt lat="41.5500597" lon="12.8778636"><ele>34.0</ele><time>2026-04-07T09:51:45.282Z</time></trkpt><trkpt lat="41.5500253" lon="12.8777661"><ele>34.0</ele><time>2026-04-07T09:51:47.282Z</time></trkpt><trkpt lat="41.5499967" lon="12.8776799"><ele>34.0</ele><time>2026-04-07T09:51:49.283Z</time></trkpt><trkpt lat="41.5499714" lon="12.8775798"><ele>34.0</ele><time>2026-04-07T09:51:51.282Z</time></trkpt><trkpt lat="41.5499412" lon="12.8774803"><ele>34.0</ele><time>2026-04-07T09:51:53.282Z</time></trkpt><trkpt lat="41.5499072" lon="12.8773848"><ele>34.0</ele><time>2026-04-07T09:51:55.282Z</time></trkpt><trkpt lat="41.5498745" lon="12.8772812"><ele>34.0</ele><time>2026-04-07T09:51:57.282Z</time></trkpt><trkpt lat="41.5498425" lon="12.8771778"><ele>34.0</ele><time>2026-04-07T09:51:59.282Z</time></trkpt><trkpt lat="41.5498103" lon="12.8770683"><ele>34.0</ele><time>2026-04-07T09:52:01.283Z</time></trkpt><trkpt lat="41.5497792" lon="12.8769675"><ele>34.0</ele><time>2026-04-07T09:52:03.282Z</time></trkpt><trkpt lat="41.5497494" lon="12.8768713"><ele>34.0</ele><time>2026-04-07T09:52:05.282Z</time></trkpt><trkpt lat="41.5497197" lon="12.8767671"><ele>34.0</ele><time>2026-04-07T09:52:07.282Z</time></trkpt><trkpt lat="41.5496991" lon="12.8766594"><ele>34.0</ele><time>2026-04-07T09:52:09.282Z</time></trkpt><trkpt lat="41.5496696" lon="12.8765574"><ele>34.0</ele><time>2026-04-07T09:52:11.282Z</time></trkpt><trkpt lat="41.5496121" lon="12.8766691"><ele>34.0</ele><time>2026-04-07T09:52:15.282Z</time></trkpt><trkpt lat="41.5496107" lon="12.87677"><ele>34.0</ele><time>2026-04-07T09:52:17.282Z</time></trkpt><trkpt lat="41.5495453" lon="12.876698"><ele>34.0</ele><time>2026-04-07T09:52:20.282Z</time></trkpt><trkpt lat="41.5495071" lon="12.8765356"><ele>34.16666666666667</ele><time>2026-04-07T09:52:22.282Z</time></trkpt><trkpt lat="41.5494848" lon="12.8764265"><ele>34.333333333333336</ele><time>2026-04-07T09:52:23.282Z</time></trkpt><trkpt lat="41.5494515" lon="12.8763208"><ele>34.5</ele><time>2026-04-07T09:52:24.282Z</time></trkpt><trkpt lat="41.5494137" lon="12.8762093"><ele>34.666666666666664</ele><time>2026-04-07T09:52:25.282Z</time></trkpt><trkpt lat="41.549378" lon="12.8760941"><ele>34.83333333333333</ele><time>2026-04-07T09:52:26.282Z</time></trkpt><trkpt lat="41.5493422" lon="12.8759806"><ele>35.0</ele><time>2026-04-07T09:52:27.282Z</time></trkpt><trkpt lat="41.5493039" lon="12.875867"><ele>35.0</ele><time>2026-04-07T09:52:28.282Z</time></trkpt><trkpt lat="41.5492677" lon="12.8757477"><ele>35.0</ele><time>2026-04-07T09:52:29.282Z</time></trkpt><trkpt lat="41.5492251" lon="12.8756255"><ele>35.0</ele><time>2026-04-07T09:52:30.282Z</time></trkpt><trkpt lat="41.5491885" lon="12.8754546"><ele>35.0</ele><time>2026-04-07T09:52:31.282Z</time></trkpt><trkpt lat="41.5491359" lon="12.8752976"><ele>35.0</ele><time>2026-04-07T09:52:32.282Z</time></trkpt><trkpt lat="41.5490861" lon="12.8751678"><ele>35.0</ele><time>2026-04-07T09:52:33.282Z</time></trkpt><trkpt lat="41.5490347" lon="12.8750318"><ele>35.0</ele><time>2026-04-07T09:52:34.282Z</time></trkpt><trkpt lat="41.5489848" lon="12.8749156"><ele>35.0</ele><time>2026-04-07T09:52:35.282Z</time></trkpt><trkpt lat="41.5489294" lon="12.874793"><ele>35.0</ele><time>2026-04-07T09:52:36.282Z</time></trkpt><trkpt lat="41.5488832" lon="12.8746846"><ele>35.0</ele><time>2026-04-07T09:52:37.282Z</time></trkpt><trkpt lat="41.5488418" lon="12.8745695"><ele>35.0</ele><time>2026-04-07T09:52:38.283Z</time></trkpt><trkpt lat="41.5487889" lon="12.874469"><ele>35.0</ele><time>2026-04-07T09:52:39.282Z</time></trkpt><trkpt lat="41.5487264" lon="12.8743564"><ele>35.0</ele><time>2026-04-07T09:52:40.282Z</time></trkpt><trkpt lat="41.548669" lon="12.8742373"><ele>35.0</ele><time>2026-04-07T09:52:41.282Z</time></trkpt><trkpt lat="41.5486117" lon="12.8741242"><ele>35.0</ele><time>2026-04-07T09:52:42.282Z</time></trkpt><trkpt lat="41.5485429" lon="12.8740128"><ele>35.0</ele><time>2026-04-07T09:52:43.283Z</time></trkpt><trkpt lat="41.5484839" lon="12.8739096"><ele>35.0</ele><time>2026-04-07T09:52:44.282Z</time></trkpt><trkpt lat="41.5484191" lon="12.873799"><ele>35.0</ele><time>2026-04-07T09:52:45.282Z</time></trkpt><trkpt lat="41.5483569" lon="12.8736995"><ele>35.0</ele><time>2026-04-07T09:52:46.282Z</time></trkpt><trkpt lat="41.5482913" lon="12.8735971"><ele>35.0</ele><time>2026-04-07T09:52:47.282Z</time></trkpt><trkpt lat="41.5482215" lon="12.8734942"><ele>35.0</ele><time>2026-04-07T09:52:48.282Z</time></trkpt><trkpt lat="41.5481508" lon="12.8733977"><ele>35.0</ele><time>2026-04-07T09:52:49.282Z</time></trkpt><trkpt lat="41.5480854" lon="12.873324"><ele>35.0</ele><time>2026-04-07T09:52:50.282Z</time></trkpt><trkpt lat="41.5480132" lon="12.8732368"><ele>35.0</ele><time>2026-04-07T09:52:51.282Z</time></trkpt><trkpt lat="41.5479374" lon="12.8731478"><ele>35.2</ele><time>2026-04-07T09:52:52.282Z</time></trkpt><trkpt lat="41.5478505" lon="12.8730271"><ele>35.4</ele><time>2026-04-07T09:52:53.282Z</time></trkpt><trkpt lat="41.5477695" lon="12.8729306"><ele>35.6</ele><time>2026-04-07T09:52:54.283Z</time></trkpt><trkpt lat="41.5476922" lon="12.8728424"><ele>35.8</ele><time>2026-04-07T09:52:55.282Z</time></trkpt><trkpt lat="41.5476248" lon="12.8727552"><ele>36.0</ele><time>2026-04-07T09:52:56.282Z</time></trkpt><trkpt lat="41.5475602" lon="12.8726773"><ele>36.0</ele><time>2026-04-07T09:52:57.282Z</time></trkpt><trkpt lat="41.5474948" lon="12.8726124"><ele>36.0</ele><time>2026-04-07T09:52:58.282Z</time></trkpt><trkpt lat="41.5474269" lon="12.8725538"><ele>36.0</ele><time>2026-04-07T09:52:59.283Z</time></trkpt><trkpt lat="41.5473708" lon="12.8724622"><ele>36.0</ele><time>2026-04-07T09:53:00.282Z</time></trkpt><trkpt lat="41.547304" lon="12.8723659"><ele>36.0</ele><time>2026-04-07T09:53:01.282Z</time></trkpt><trkpt lat="41.5472402" lon="12.8722455"><ele>35.75</ele><time>2026-04-07T09:53:02.282Z</time></trkpt><trkpt lat="41.5471655" lon="12.8721487"><ele>35.5</ele><time>2026-04-07T09:53:03.282Z</time></trkpt><trkpt lat="41.5470872" lon="12.8720351"><ele>35.25</ele><time>2026-04-07T09:53:04.282Z</time></trkpt><trkpt lat="41.5469378" lon="12.8718101"><ele>35.0</ele><time>2026-04-07T09:53:06.282Z</time></trkpt><trkpt lat="41.5468602" lon="12.8717112"><ele>34.6</ele><time>2026-04-07T09:53:07.282Z</time></trkpt><trkpt lat="41.5467797" lon="12.871615"><ele>34.2</ele><time>2026-04-07T09:53:08.282Z</time></trkpt><trkpt lat="41.546702" lon="12.8715138"><ele>33.8</ele><time>2026-04-07T09:53:09.282Z</time></trkpt><trkpt lat="41.5466218" lon="12.8714211"><ele>33.4</ele><time>2026-04-07T09:53:10.282Z</time></trkpt><trkpt lat="41.5465357" lon="12.8713161"><ele>33.0</ele><time>2026-04-07T09:53:11.282Z</time></trkpt><trkpt lat="41.546349" lon="12.8710921"><ele>33.5</ele><time>2026-04-07T09:53:13.282Z</time></trkpt><trkpt lat="41.5461648" lon="12.8708468"><ele>34.0</ele><time>2026-04-07T09:53:15.282Z</time></trkpt><trkpt lat="41.5459804" lon="12.8706198"><ele>34.0</ele><time>2026-04-07T09:53:17.282Z</time></trkpt><trkpt lat="41.5458961" lon="12.8705132"><ele>34.0</ele><time>2026-04-07T09:53:18.283Z</time></trkpt><trkpt lat="41.5457182" lon="12.8702951"><ele>34.0</ele><time>2026-04-07T09:53:20.282Z</time></trkpt><trkpt lat="41.5456285" lon="12.8701672"><ele>33.75</ele><time>2026-04-07T09:53:21.283Z</time></trkpt><trkpt lat="41.5455396" lon="12.8700619"><ele>33.5</ele><time>2026-04-07T09:53:22.282Z</time></trkpt><trkpt lat="41.5454542" lon="12.8699594"><ele>33.25</ele><time>2026-04-07T09:53:23.282Z</time></trkpt><trkpt lat="41.5453705" lon="12.8698435"><ele>33.0</ele><time>2026-04-07T09:53:24.283Z</time></trkpt><trkpt lat="41.5452751" lon="12.8697277"><ele>33.0</ele><time>2026-04-07T09:53:25.283Z</time></trkpt><trkpt lat="41.5451888" lon="12.8696155"><ele>33.0</ele><time>2026-04-07T09:53:26.282Z</time></trkpt><trkpt lat="41.5449923" lon="12.869368"><ele>33.0</ele><time>2026-04-07T09:53:28.282Z</time></trkpt><trkpt lat="41.5449001" lon="12.869252"><ele>33.0</ele><time>2026-04-07T09:53:29.282Z</time></trkpt><trkpt lat="41.544812" lon="12.8691357"><ele>33.0</ele><time>2026-04-07T09:53:30.283Z</time></trkpt><trkpt lat="41.54464" lon="12.8689149"><ele>33.0</ele><time>2026-04-07T09:53:32.282Z</time></trkpt><trkpt lat="41.5444689" lon="12.8687193"><ele>32.5</ele><time>2026-04-07T09:53:34.282Z</time></trkpt><trkpt lat="41.5443095" lon="12.8684956"><ele>32.0</ele><time>2026-04-07T09:53:36.283Z</time></trkpt><trkpt lat="41.5441518" lon="12.8682715"><ele>32.0</ele><time>2026-04-07T09:53:38.283Z</time></trkpt><trkpt lat="41.5439921" lon="12.8680751"><ele>32.0</ele><time>2026-04-07T09:53:40.282Z</time></trkpt><trkpt lat="41.5438334" lon="12.8678808"><ele>32.0</ele><time>2026-04-07T09:53:42.282Z</time></trkpt><trkpt lat="41.5436586" lon="12.8676633"><ele>32.666666666666664</ele><time>2026-04-07T09:53:44.283Z</time></trkpt><trkpt lat="41.5435746" lon="12.867558"><ele>33.333333333333336</ele><time>2026-04-07T09:53:45.282Z</time></trkpt><trkpt lat="41.543489" lon="12.8674477"><ele>34.0</ele><time>2026-04-07T09:53:46.282Z</time></trkpt><trkpt lat="41.5433244" lon="12.8672505"><ele>34.0</ele><time>2026-04-07T09:53:48.283Z</time></trkpt><trkpt lat="41.5432508" lon="12.8671648"><ele>34.0</ele><time>2026-04-07T09:53:49.282Z</time></trkpt><trkpt lat="41.5431852" lon="12.8670826"><ele>34.0</ele><time>2026-04-07T09:53:50.282Z</time></trkpt><trkpt lat="41.5430669" lon="12.8669317"><ele>34.0</ele><time>2026-04-07T09:53:52.282Z</time></trkpt><trkpt lat="41.5430139" lon="12.8668766"><ele>34.0</ele><time>2026-04-07T09:53:53.282Z</time></trkpt><trkpt lat="41.5428952" lon="12.8667059"><ele>34.25</ele><time>2026-04-07T09:53:56.282Z</time></trkpt><trkpt lat="41.5428054" lon="12.8665997"><ele>34.5</ele><time>2026-04-07T09:53:58.282Z</time></trkpt><trkpt lat="41.5427421" lon="12.8664639"><ele>34.75</ele><time>2026-04-07T09:54:00.282Z</time></trkpt><trkpt lat="41.5426584" lon="12.8663431"><ele>35.0</ele><time>2026-04-07T09:54:02.283Z</time></trkpt><trkpt lat="41.5425789" lon="12.8662266"><ele>35.0</ele><time>2026-04-07T09:54:04.282Z</time></trkpt><trkpt lat="41.5424852" lon="12.8661523"><ele>35.0</ele><time>2026-04-07T09:54:06.282Z</time></trkpt><trkpt lat="41.5423944" lon="12.8660752"><ele>35.0</ele><time>2026-04-07T09:54:08.282Z</time></trkpt><trkpt lat="41.5422985" lon="12.8659494"><ele>35.0</ele><time>2026-04-07T09:54:10.282Z</time></trkpt><trkpt lat="41.5422126" lon="12.865834"><ele>34.6</ele><time>2026-04-07T09:54:12.282Z</time></trkpt><trkpt lat="41.5421295" lon="12.8657187"><ele>34.2</ele><time>2026-04-07T09:54:14.282Z</time></trkpt><trkpt lat="41.5420753" lon="12.8656638"><ele>33.8</ele><time>2026-04-07T09:54:15.282Z</time></trkpt><trkpt lat="41.5419781" lon="12.8655718"><ele>33.4</ele><time>2026-04-07T09:54:17.282Z</time></trkpt><trkpt lat="41.5418995" lon="12.8654828"><ele>33.0</ele><time>2026-04-07T09:54:19.282Z</time></trkpt><trkpt lat="41.5418125" lon="12.8654016"><ele>33.0</ele><time>2026-04-07T09:54:21.282Z</time></trkpt><trkpt lat="41.5416976" lon="12.8653358"><ele>33.0</ele><time>2026-04-07T09:54:23.282Z</time></trkpt><trkpt lat="41.5416238" lon="12.8652636"><ele>33.0</ele><time>2026-04-07T09:54:25.282Z</time></trkpt><trkpt lat="41.5415678" lon="12.8651648"><ele>33.0</ele><time>2026-04-07T09:54:27.282Z</time></trkpt><trkpt lat="41.5415012" lon="12.8650836"><ele>33.0</ele><time>2026-04-07T09:54:29.283Z</time></trkpt><trkpt lat="41.5414383" lon="12.865016"><ele>33.199999999999996</ele><time>2026-04-07T09:54:31.282Z</time></trkpt><trkpt lat="41.5413803" lon="12.8649572"><ele>33.4</ele><time>2026-04-07T09:54:33.282Z</time></trkpt><trkpt lat="41.5413091" lon="12.8648707"><ele>33.599999999999994</ele><time>2026-04-07T09:54:35.283Z</time></trkpt><trkpt lat="41.5412228" lon="12.8647804"><ele>33.8</ele><time>2026-04-07T09:54:37.282Z</time></trkpt><trkpt lat="41.5411432" lon="12.8647138"><ele>34.0</ele><time>2026-04-07T09:54:39.282Z</time></trkpt><trkpt lat="41.541048" lon="12.864646"><ele>34.0</ele><time>2026-04-07T09:54:41.283Z</time></trkpt><trkpt lat="41.5409498" lon="12.864581"><ele>34.0</ele><time>2026-04-07T09:54:43.282Z</time></trkpt><trkpt lat="41.5408664" lon="12.8645058"><ele>34.0</ele><time>2026-04-07T09:54:45.282Z</time></trkpt><trkpt lat="41.5406996" lon="12.8643833"><ele>34.0</ele><time>2026-04-07T09:54:48.282Z</time></trkpt><trkpt lat="41.5406381" lon="12.864328"><ele>34.0</ele><time>2026-04-07T09:54:49.282Z</time></trkpt><trkpt lat="41.5405722" lon="12.8642813"><ele>34.0</ele><time>2026-04-07T09:54:50.282Z</time></trkpt><trkpt lat="41.5404487" lon="12.8641875"><ele>34.0</ele><time>2026-04-07T09:54:52.282Z</time></trkpt><trkpt lat="41.5403384" lon="12.8641105"><ele>34.0</ele><time>2026-04-07T09:54:54.282Z</time></trkpt><trkpt lat="41.5400948" lon="12.8639542"><ele>33.25</ele><time>2026-04-07T09:54:58.282Z</time></trkpt><trkpt lat="41.5399609" lon="12.8638785"><ele>32.5</ele><time>2026-04-07T09:55:00.282Z</time></trkpt><trkpt lat="41.5398552" lon="12.8638176"><ele>31.75</ele><time>2026-04-07T09:55:02.282Z</time></trkpt><trkpt lat="41.5397631" lon="12.8637656"><ele>31.0</ele><time>2026-04-07T09:55:04.282Z</time></trkpt><trkpt lat="41.5396617" lon="12.863715"><ele>31.0</ele><time>2026-04-07T09:55:06.283Z</time></trkpt><trkpt lat="41.5395704" lon="12.863666"><ele>31.0</ele><time>2026-04-07T09:55:08.283Z</time></trkpt><trkpt lat="41.5394463" lon="12.8636024"><ele>31.0</ele><time>2026-04-07T09:55:10.282Z</time></trkpt><trkpt lat="41.5393393" lon="12.8635355"><ele>31.0</ele><time>2026-04-07T09:55:12.283Z</time></trkpt><trkpt lat="41.5392812" lon="12.8635024"><ele>31.0</ele><time>2026-04-07T09:55:13.283Z</time></trkpt><trkpt lat="41.5391699" lon="12.8634501"><ele>31.0</ele><time>2026-04-07T09:55:15.282Z</time></trkpt><trkpt lat="41.5390497" lon="12.863381"><ele>31.0</ele><time>2026-04-07T09:55:17.282Z</time></trkpt><trkpt lat="41.5389904" lon="12.8633449"><ele>31.0</ele><time>2026-04-07T09:55:18.282Z</time></trkpt><trkpt lat="41.5388742" lon="12.8632735"><ele>31.0</ele><time>2026-04-07T09:55:20.283Z</time></trkpt><trkpt lat="41.5388109" lon="12.8632413"><ele>31.0</ele><time>2026-04-07T09:55:21.282Z</time></trkpt><trkpt lat="41.5387458" lon="12.8632105"><ele>31.6</ele><time>2026-04-07T09:55:22.282Z</time></trkpt><trkpt lat="41.5386306" lon="12.8631612"><ele>32.2</ele><time>2026-04-07T09:55:24.283Z</time></trkpt><trkpt lat="41.5385684" lon="12.863137"><ele>32.8</ele><time>2026-04-07T09:55:25.282Z</time></trkpt><trkpt lat="41.5385096" lon="12.8631034"><ele>33.4</ele><time>2026-04-07T09:55:26.282Z</time></trkpt><trkpt lat="41.5383756" lon="12.86305"><ele>34.0</ele><time>2026-04-07T09:55:28.283Z</time></trkpt><trkpt lat="41.5383128" lon="12.8630233"><ele>34.0</ele><time>2026-04-07T09:55:29.282Z</time></trkpt><trkpt lat="41.5382478" lon="12.8629921"><ele>34.0</ele><time>2026-04-07T09:55:30.282Z</time></trkpt><trkpt lat="41.5381834" lon="12.8629667"><ele>34.0</ele><time>2026-04-07T09:55:31.282Z</time></trkpt><trkpt lat="41.5381198" lon="12.8629362"><ele>34.0</ele><time>2026-04-07T09:55:32.282Z</time></trkpt><trkpt lat="41.5380608" lon="12.862902"><ele>34.0</ele><time>2026-04-07T09:55:33.282Z</time></trkpt><trkpt lat="41.5379999" lon="12.8628652"><ele>34.0</ele><time>2026-04-07T09:55:34.283Z</time></trkpt><trkpt lat="41.5378889" lon="12.8628085"><ele>34.16666666666667</ele><time>2026-04-07T09:55:36.282Z</time></trkpt><trkpt lat="41.5378272" lon="12.8627841"><ele>34.333333333333336</ele><time>2026-04-07T09:55:37.283Z</time></trkpt><trkpt lat="41.5377235" lon="12.862719"><ele>34.5</ele><time>2026-04-07T09:55:39.282Z</time></trkpt><trkpt lat="41.5376299" lon="12.8626703"><ele>34.666666666666664</ele><time>2026-04-07T09:55:41.282Z</time></trkpt><trkpt lat="41.5375669" lon="12.8626379"><ele>34.83333333333333</ele><time>2026-04-07T09:55:43.282Z</time></trkpt><trkpt lat="41.5374861" lon="12.8625895"><ele>35.0</ele><time>2026-04-07T09:55:46.282Z</time></trkpt><trkpt lat="41.5374134" lon="12.8625488"><ele>34.4</ele><time>2026-04-07T09:55:48.282Z</time></trkpt><trkpt lat="41.5373065" lon="12.8624974"><ele>33.8</ele><time>2026-04-07T09:55:50.283Z</time></trkpt><trkpt lat="41.5372037" lon="12.8624469"><ele>33.2</ele><time>2026-04-07T09:55:52.283Z</time></trkpt><trkpt lat="41.5370893" lon="12.8623868"><ele>32.6</ele><time>2026-04-07T09:55:54.282Z</time></trkpt><trkpt lat="41.5370219" lon="12.8623542"><ele>32.0</ele><time>2026-04-07T09:55:55.282Z</time></trkpt><trkpt lat="41.5368913" lon="12.8623067"><ele>31.833333333333332</ele><time>2026-04-07T09:55:57.282Z</time></trkpt><trkpt lat="41.5368323" lon="12.8622762"><ele>31.666666666666664</ele><time>2026-04-07T09:55:58.282Z</time></trkpt><trkpt lat="41.5367676" lon="12.8622432"><ele>31.5</ele><time>2026-04-07T09:55:59.283Z</time></trkpt><trkpt lat="41.5366601" lon="12.8621966"><ele>31.333333333333336</ele><time>2026-04-07T09:56:01.282Z</time></trkpt><trkpt lat="41.5365472" lon="12.862142"><ele>31.166666666666668</ele><time>2026-04-07T09:56:03.283Z</time></trkpt><trkpt lat="41.5364829" lon="12.8621111"><ele>31.0</ele><time>2026-04-07T09:56:04.282Z</time></trkpt><trkpt lat="41.5363744" lon="12.8620423"><ele>31.0</ele><time>2026-04-07T09:56:06.282Z</time></trkpt><trkpt lat="41.536309" lon="12.8620063"><ele>31.0</ele><time>2026-04-07T09:56:07.282Z</time></trkpt><trkpt lat="41.5362061" lon="12.8619491"><ele>31.0</ele><time>2026-04-07T09:56:09.282Z</time></trkpt><trkpt lat="41.5361128" lon="12.8619011"><ele>31.0</ele><time>2026-04-07T09:56:11.282Z</time></trkpt><trkpt lat="41.5360428" lon="12.8618567"><ele>31.0</ele><time>2026-04-07T09:56:13.282Z</time></trkpt><trkpt lat="41.5359301" lon="12.861806"><ele>30.857142857142858</ele><time>2026-04-07T09:56:15.282Z</time></trkpt><trkpt lat="41.5358635" lon="12.8617667"><ele>30.714285714285715</ele><time>2026-04-07T09:56:16.282Z</time></trkpt><trkpt lat="41.5357992" lon="12.8617337"><ele>30.571428571428573</ele><time>2026-04-07T09:56:17.282Z</time></trkpt><trkpt lat="41.5357335" lon="12.8616991"><ele>30.42857142857143</ele><time>2026-04-07T09:56:18.282Z</time></trkpt><trkpt lat="41.5356674" lon="12.8616669"><ele>30.285714285714285</ele><time>2026-04-07T09:56:19.283Z</time></trkpt><trkpt lat="41.535603" lon="12.8616336"><ele>30.142857142857146</ele><time>2026-04-07T09:56:20.282Z</time></trkpt><trkpt lat="41.5355345" lon="12.8616043"><ele>30.0</ele><time>2026-04-07T09:56:21.283Z</time></trkpt><trkpt lat="41.5354704" lon="12.8615821"><ele>30.666666666666668</ele><time>2026-04-07T09:56:22.282Z</time></trkpt><trkpt lat="41.5353518" lon="12.8615131"><ele>31.333333333333336</ele><time>2026-04-07T09:56:24.282Z</time></trkpt><trkpt lat="41.5352905" lon="12.861484"><ele>32.0</ele><time>2026-04-07T09:56:25.283Z</time></trkpt><trkpt lat="41.5352293" lon="12.8614488"><ele>32.66666666666667</ele><time>2026-04-07T09:56:26.282Z</time></trkpt><trkpt lat="41.5351654" lon="12.861425"><ele>33.333333333333336</ele><time>2026-04-07T09:56:27.282Z</time></trkpt><trkpt lat="41.5351027" lon="12.8614036"><ele>34.0</ele><time>2026-04-07T09:56:28.283Z</time></trkpt><trkpt lat="41.5349863" lon="12.8613547"><ele>34.0</ele><time>2026-04-07T09:56:30.282Z</time></trkpt><trkpt lat="41.5348599" lon="12.8612866"><ele>34.0</ele><time>2026-04-07T09:56:32.283Z</time></trkpt><trkpt lat="41.5347472" lon="12.8612339"><ele>34.0</ele><time>2026-04-07T09:56:34.283Z</time></trkpt><trkpt lat="41.5346512" lon="12.8611718"><ele>34.0</ele><time>2026-04-07T09:56:36.282Z</time></trkpt><trkpt lat="41.5345437" lon="12.861119"><ele>33.66666666666667</ele><time>2026-04-07T09:56:38.283Z</time></trkpt><trkpt lat="41.5344606" lon="12.861066"><ele>33.333333333333336</ele><time>2026-04-07T09:56:40.282Z</time></trkpt><trkpt lat="41.5343977" lon="12.8610281"><ele>33.0</ele><time>2026-04-07T09:56:42.282Z</time></trkpt><trkpt lat="41.5343254" lon="12.861039"><ele>32.666666666666664</ele><time>2026-04-07T09:56:47.282Z</time></trkpt><trkpt lat="41.5342097" lon="12.8610379"><ele>32.33333333333333</ele><time>2026-04-07T09:56:50.282Z</time></trkpt><trkpt lat="41.5341131" lon="12.8610126"><ele>32.0</ele><time>2026-04-07T09:56:52.282Z</time></trkpt><trkpt lat="41.5339727" lon="12.8609498"><ele>31.999999999999996</ele><time>2026-04-07T09:56:54.282Z</time></trkpt><trkpt lat="41.5338972" lon="12.8609189"><ele>32.0</ele><time>2026-04-07T09:56:55.282Z</time></trkpt><trkpt lat="41.5338245" lon="12.860878"><ele>32.0</ele><time>2026-04-07T09:56:56.282Z</time></trkpt><trkpt lat="41.5337498" lon="12.8608491"><ele>32.0</ele><time>2026-04-07T09:56:57.282Z</time></trkpt><trkpt lat="41.5336843" lon="12.8608186"><ele>31.999999999999996</ele><time>2026-04-07T09:56:58.283Z</time></trkpt><trkpt lat="41.5335731" lon="12.8607626"><ele>32.0</ele><time>2026-04-07T09:57:00.282Z</time></trkpt><trkpt lat="41.5334772" lon="12.860729"><ele>31.8</ele><time>2026-04-07T09:57:02.282Z</time></trkpt><trkpt lat="41.5333747" lon="12.8606915"><ele>31.6</ele><time>2026-04-07T09:57:04.282Z</time></trkpt><trkpt lat="41.533265" lon="12.8606254"><ele>31.400000000000002</ele><time>2026-04-07T09:57:06.282Z</time></trkpt><trkpt lat="41.5331937" lon="12.8605946"><ele>31.200000000000003</ele><time>2026-04-07T09:57:07.282Z</time></trkpt><trkpt lat="41.5330651" lon="12.8605389"><ele>31.0</ele><time>2026-04-07T09:57:09.282Z</time></trkpt><trkpt lat="41.5330023" lon="12.860506"><ele>31.0</ele><time>2026-04-07T09:57:10.282Z</time></trkpt><trkpt lat="41.5329371" lon="12.8604667"><ele>31.0</ele><time>2026-04-07T09:57:11.282Z</time></trkpt><trkpt lat="41.5328187" lon="12.8604093"><ele>31.0</ele><time>2026-04-07T09:57:13.282Z</time></trkpt><trkpt lat="41.5327211" lon="12.860357"><ele>31.0</ele><time>2026-04-07T09:57:15.282Z</time></trkpt><trkpt lat="41.5326318" lon="12.8603066"><ele>31.0</ele><time>2026-04-07T09:57:17.282Z</time></trkpt><trkpt lat="41.5325479" lon="12.8602575"><ele>31.166666666666668</ele><time>2026-04-07T09:57:19.282Z</time></trkpt><trkpt lat="41.5324613" lon="12.8602066"><ele>31.333333333333336</ele><time>2026-04-07T09:57:21.282Z</time></trkpt><trkpt lat="41.5323945" lon="12.8601806"><ele>31.5</ele><time>2026-04-07T09:57:23.283Z</time></trkpt><trkpt lat="41.5323122" lon="12.860173"><ele>31.666666666666664</ele><time>2026-04-07T09:57:29.282Z</time></trkpt><trkpt lat="41.5322492" lon="12.8602095"><ele>31.833333333333332</ele><time>2026-04-07T09:57:33.282Z</time></trkpt><trkpt lat="41.5321708" lon="12.860194"><ele>32.0</ele><time>2026-04-07T09:57:38.282Z</time></trkpt><trkpt lat="41.5320905" lon="12.8601513"><ele>31.999999999999996</ele><time>2026-04-07T09:58:05.283Z</time></trkpt><trkpt lat="41.5320283" lon="12.8601148"><ele>32.0</ele><time>2026-04-07T09:58:06.283Z</time></trkpt><trkpt lat="41.531965" lon="12.8600732"><ele>32.0</ele><time>2026-04-07T09:58:07.283Z</time></trkpt><trkpt lat="41.531905" lon="12.8600434"><ele>32.0</ele><time>2026-04-07T09:58:08.282Z</time></trkpt><trkpt lat="41.5318" lon="12.8599803"><ele>31.999999999999996</ele><time>2026-04-07T09:58:10.282Z</time></trkpt><trkpt lat="41.5317026" lon="12.8599094"><ele>32.0</ele><time>2026-04-07T09:58:12.282Z</time></trkpt><trkpt lat="41.531598" lon="12.8598514"><ele>32.0</ele><time>2026-04-07T09:58:14.282Z</time></trkpt><trkpt lat="41.5314989" lon="12.8597912"><ele>32.0</ele><time>2026-04-07T09:58:16.282Z</time></trkpt><trkpt lat="41.5313836" lon="12.8597381"><ele>32.0</ele><time>2026-04-07T09:58:18.282Z</time></trkpt><trkpt lat="41.5312825" lon="12.8596703"><ele>32.0</ele><time>2026-04-07T09:58:20.282Z</time></trkpt><trkpt lat="41.5311848" lon="12.8595957"><ele>32.2</ele><time>2026-04-07T09:58:22.282Z</time></trkpt><trkpt lat="41.5311012" lon="12.85955"><ele>32.400000000000006</ele><time>2026-04-07T09:58:24.282Z</time></trkpt><trkpt lat="41.5310141" lon="12.8595036"><ele>32.599999999999994</ele><time>2026-04-07T09:58:26.282Z</time></trkpt><trkpt lat="41.5308973" lon="12.8594551"><ele>32.8</ele><time>2026-04-07T09:58:28.282Z</time></trkpt><trkpt lat="41.530768" lon="12.8593854"><ele>33.0</ele><time>2026-04-07T09:58:30.282Z</time></trkpt><trkpt lat="41.530671" lon="12.8593392"><ele>33.0</ele><time>2026-04-07T09:58:31.282Z</time></trkpt><trkpt lat="41.5305769" lon="12.8592857"><ele>33.0</ele><time>2026-04-07T09:58:32.282Z</time></trkpt><trkpt lat="41.530484" lon="12.8592455"><ele>33.0</ele><time>2026-04-07T09:58:33.282Z</time></trkpt><trkpt lat="41.5304049" lon="12.8592099"><ele>33.0</ele><time>2026-04-07T09:58:34.282Z</time></trkpt><trkpt lat="41.5303317" lon="12.8591725"><ele>33.0</ele><time>2026-04-07T09:58:35.282Z</time></trkpt><trkpt lat="41.5302498" lon="12.8591326"><ele>33.0</ele><time>2026-04-07T09:58:36.282Z</time></trkpt><trkpt lat="41.5301812" lon="12.8590942"><ele>33.0</ele><time>2026-04-07T09:58:37.282Z</time></trkpt><trkpt lat="41.5301102" lon="12.8590615"><ele>33.0</ele><time>2026-04-07T09:58:38.282Z</time></trkpt><trkpt lat="41.5300375" lon="12.8590333"><ele>33.0</ele><time>2026-04-07T09:58:39.283Z</time></trkpt><trkpt lat="41.5299657" lon="12.8589967"><ele>33.0</ele><time>2026-04-07T09:58:40.283Z</time></trkpt><trkpt lat="41.5298979" lon="12.8589556"><ele>33.0</ele><time>2026-04-07T09:58:41.283Z</time></trkpt><trkpt lat="41.5298233" lon="12.8589239"><ele>33.0</ele><time>2026-04-07T09:58:42.282Z</time></trkpt><trkpt lat="41.5297448" lon="12.8588851"><ele>33.0</ele><time>2026-04-07T09:58:43.282Z</time></trkpt><trkpt lat="41.5296746" lon="12.8588524"><ele>33.0</ele><time>2026-04-07T09:58:44.282Z</time></trkpt><trkpt lat="41.5296043" lon="12.8588055"><ele>33.0</ele><time>2026-04-07T09:58:45.282Z</time></trkpt><trkpt lat="41.5295318" lon="12.8587713"><ele>33.0</ele><time>2026-04-07T09:58:46.283Z</time></trkpt><trkpt lat="41.5294576" lon="12.8587322"><ele>33.0</ele><time>2026-04-07T09:58:47.282Z</time></trkpt><trkpt lat="41.5293854" lon="12.8586974"><ele>33.0</ele><time>2026-04-07T09:58:48.283Z</time></trkpt><trkpt lat="41.5293079" lon="12.8586658"><ele>32.833333333333336</ele><time>2026-04-07T09:58:49.282Z</time></trkpt><trkpt lat="41.5292299" lon="12.8586264"><ele>32.666666666666664</ele><time>2026-04-07T09:58:50.282Z</time></trkpt><trkpt lat="41.5291522" lon="12.8585841"><ele>32.5</ele><time>2026-04-07T09:58:51.282Z</time></trkpt><trkpt lat="41.5290748" lon="12.8585463"><ele>32.33333333333333</ele><time>2026-04-07T09:58:52.282Z</time></trkpt><trkpt lat="41.5290007" lon="12.8585098"><ele>32.166666666666664</ele><time>2026-04-07T09:58:53.283Z</time></trkpt><trkpt lat="41.5289193" lon="12.8584712"><ele>32.0</ele><time>2026-04-07T09:58:54.282Z</time></trkpt><trkpt lat="41.5287606" lon="12.8583926"><ele>32.4</ele><time>2026-04-07T09:58:56.282Z</time></trkpt><trkpt lat="41.528683" lon="12.8583492"><ele>32.800000000000004</ele><time>2026-04-07T09:58:57.283Z</time></trkpt><trkpt lat="41.5286077" lon="12.8583116"><ele>33.2</ele><time>2026-04-07T09:58:58.282Z</time></trkpt><trkpt lat="41.5285307" lon="12.8582775"><ele>33.6</ele><time>2026-04-07T09:58:59.282Z</time></trkpt><trkpt lat="41.5284374" lon="12.858234"><ele>34.0</ele><time>2026-04-07T09:59:00.282Z</time></trkpt><trkpt lat="41.5282741" lon="12.8581536"><ele>34.0</ele><time>2026-04-07T09:59:02.282Z</time></trkpt><trkpt lat="41.5281895" lon="12.8580979"><ele>34.0</ele><time>2026-04-07T09:59:03.283Z</time></trkpt><trkpt lat="41.5280838" lon="12.8580491"><ele>34.0</ele><time>2026-04-07T09:59:04.282Z</time></trkpt><trkpt lat="41.5279871" lon="12.858002"><ele>34.0</ele><time>2026-04-07T09:59:05.282Z</time></trkpt><trkpt lat="41.5278979" lon="12.8579508"><ele>34.0</ele><time>2026-04-07T09:59:06.283Z</time></trkpt><trkpt lat="41.527814" lon="12.8579015"><ele>34.16666666666667</ele><time>2026-04-07T09:59:07.282Z</time></trkpt><trkpt lat="41.527724" lon="12.8578597"><ele>34.333333333333336</ele><time>2026-04-07T09:59:08.282Z</time></trkpt><trkpt lat="41.5276453" lon="12.8578103"><ele>34.5</ele><time>2026-04-07T09:59:09.283Z</time></trkpt><trkpt lat="41.5275784" lon="12.8577716"><ele>34.666666666666664</ele><time>2026-04-07T09:59:10.283Z</time></trkpt><trkpt lat="41.5275043" lon="12.857739"><ele>34.83333333333333</ele><time>2026-04-07T09:59:11.282Z</time></trkpt><trkpt lat="41.5274331" lon="12.8577073"><ele>35.0</ele><time>2026-04-07T09:59:12.282Z</time></trkpt><trkpt lat="41.5273367" lon="12.8576633"><ele>35.0</ele><time>2026-04-07T09:59:13.283Z</time></trkpt><trkpt lat="41.5272343" lon="12.8576038"><ele>35.0</ele><time>2026-04-07T09:59:14.282Z</time></trkpt><trkpt lat="41.5271265" lon="12.8575432"><ele>35.0</ele><time>2026-04-07T09:59:15.282Z</time></trkpt><trkpt lat="41.5270363" lon="12.8574898"><ele>35.0</ele><time>2026-04-07T09:59:16.282Z</time></trkpt><trkpt lat="41.5269454" lon="12.8574326"><ele>35.0</ele><time>2026-04-07T09:59:17.282Z</time></trkpt><trkpt lat="41.5268642" lon="12.8573657"><ele>35.0</ele><time>2026-04-07T09:59:18.282Z</time></trkpt><trkpt lat="41.5267882" lon="12.8572968"><ele>35.0</ele><time>2026-04-07T09:59:19.282Z</time></trkpt><trkpt lat="41.5267111" lon="12.8572306"><ele>35.0</ele><time>2026-04-07T09:59:20.282Z</time></trkpt><trkpt lat="41.5266392" lon="12.8571639"><ele>35.0</ele><time>2026-04-07T09:59:21.282Z</time></trkpt><trkpt lat="41.5265638" lon="12.8570906"><ele>35.0</ele><time>2026-04-07T09:59:22.283Z</time></trkpt><trkpt lat="41.5264876" lon="12.8570154"><ele>35.0</ele><time>2026-04-07T09:59:23.282Z</time></trkpt><trkpt lat="41.5264123" lon="12.856941"><ele>35.0</ele><time>2026-04-07T09:59:24.282Z</time></trkpt><trkpt lat="41.5263419" lon="12.856867"><ele>35.0</ele><time>2026-04-07T09:59:25.282Z</time></trkpt><trkpt lat="41.5262826" lon="12.8567819"><ele>35.0</ele><time>2026-04-07T09:59:26.282Z</time></trkpt><trkpt lat="41.5262156" lon="12.8567017"><ele>35.0</ele><time>2026-04-07T09:59:27.283Z</time></trkpt><trkpt lat="41.5261515" lon="12.8566156"><ele>34.4</ele><time>2026-04-07T09:59:28.282Z</time></trkpt><trkpt lat="41.5260782" lon="12.8565362"><ele>33.8</ele><time>2026-04-07T09:59:29.283Z</time></trkpt><trkpt lat="41.5260126" lon="12.8564462"><ele>33.2</ele><time>2026-04-07T09:59:30.283Z</time></trkpt><trkpt lat="41.5259453" lon="12.8563542"><ele>32.6</ele><time>2026-04-07T09:59:31.282Z</time></trkpt><trkpt lat="41.5258741" lon="12.856261"><ele>32.0</ele><time>2026-04-07T09:59:32.283Z</time></trkpt><trkpt lat="41.5257999" lon="12.8561609"><ele>32.0</ele><time>2026-04-07T09:59:33.282Z</time></trkpt><trkpt lat="41.5257407" lon="12.8560689"><ele>32.0</ele><time>2026-04-07T09:59:34.282Z</time></trkpt><trkpt lat="41.5256716" lon="12.8559841"><ele>32.0</ele><time>2026-04-07T09:59:35.282Z</time></trkpt><trkpt lat="41.5256046" lon="12.8558959"><ele>32.0</ele><time>2026-04-07T09:59:36.282Z</time></trkpt><trkpt lat="41.5255347" lon="12.8558049"><ele>32.0</ele><time>2026-04-07T09:59:37.282Z</time></trkpt><trkpt lat="41.5254704" lon="12.8557093"><ele>31.8</ele><time>2026-04-07T09:59:38.282Z</time></trkpt><trkpt lat="41.5254076" lon="12.8556184"><ele>31.6</ele><time>2026-04-07T09:59:39.283Z</time></trkpt><trkpt lat="41.5253461" lon="12.855526"><ele>31.400000000000002</ele><time>2026-04-07T09:59:40.283Z</time></trkpt><trkpt lat="41.5252847" lon="12.8554353"><ele>31.200000000000003</ele><time>2026-04-07T09:59:41.283Z</time></trkpt><trkpt lat="41.5252229" lon="12.8553478"><ele>31.0</ele><time>2026-04-07T09:59:42.282Z</time></trkpt><trkpt lat="41.525162" lon="12.8552555"><ele>31.0</ele><time>2026-04-07T09:59:43.282Z</time></trkpt><trkpt lat="41.5250967" lon="12.8551649"><ele>31.0</ele><time>2026-04-07T09:59:44.282Z</time></trkpt><trkpt lat="41.5250321" lon="12.8550823"><ele>31.0</ele><time>2026-04-07T09:59:45.283Z</time></trkpt><trkpt lat="41.5249669" lon="12.8549961"><ele>31.0</ele><time>2026-04-07T09:59:46.282Z</time></trkpt><trkpt lat="41.5249058" lon="12.8549067"><ele>31.0</ele><time>2026-04-07T09:59:47.282Z</time></trkpt><trkpt lat="41.5248434" lon="12.8548072"><ele>30.8</ele><time>2026-04-07T09:59:48.282Z</time></trkpt><trkpt lat="41.5247783" lon="12.8547233"><ele>30.6</ele><time>2026-04-07T09:59:49.282Z</time></trkpt><trkpt lat="41.5247113" lon="12.8546303"><ele>30.4</ele><time>2026-04-07T09:59:50.282Z</time></trkpt><trkpt lat="41.5246482" lon="12.8545505"><ele>30.2</ele><time>2026-04-07T09:59:51.282Z</time></trkpt><trkpt lat="41.5245851" lon="12.8544655"><ele>30.0</ele><time>2026-04-07T09:59:52.282Z</time></trkpt><trkpt lat="41.5245179" lon="12.8543733"><ele>29.833333333333332</ele><time>2026-04-07T09:59:53.283Z</time></trkpt><trkpt lat="41.5244516" lon="12.8542891"><ele>29.666666666666664</ele><time>2026-04-07T09:59:54.283Z</time></trkpt><trkpt lat="41.5243882" lon="12.8542051"><ele>29.5</ele><time>2026-04-07T09:59:55.282Z</time></trkpt><trkpt lat="41.5243175" lon="12.8541216"><ele>29.333333333333332</ele><time>2026-04-07T09:59:56.282Z</time></trkpt><trkpt lat="41.5242601" lon="12.8540568"><ele>29.166666666666664</ele><time>2026-04-07T09:59:57.282Z</time></trkpt><trkpt lat="41.5242027" lon="12.8539751"><ele>29.0</ele><time>2026-04-07T09:59:58.282Z</time></trkpt><trkpt lat="41.5241075" lon="12.8538219"><ele>28.999999999999996</ele><time>2026-04-07T10:00:01.282Z</time></trkpt><trkpt lat="41.524119" lon="12.8537132"><ele>29.0</ele><time>2026-04-07T10:00:03.283Z</time></trkpt><trkpt lat="41.524126" lon="12.8536224"><ele>29.0</ele><time>2026-04-07T10:00:05.282Z</time></trkpt><trkpt lat="41.5241254" lon="12.853516"><ele>29.0</ele><time>2026-04-07T10:00:07.282Z</time></trkpt><trkpt lat="41.5240887" lon="12.8534228"><ele>28.999999999999996</ele><time>2026-04-07T10:00:09.282Z</time></trkpt><trkpt lat="41.5240017" lon="12.8533293"><ele>29.0</ele><time>2026-04-07T10:00:11.282Z</time></trkpt><trkpt lat="41.523919" lon="12.8532278"><ele>29.0</ele><time>2026-04-07T10:00:13.282Z</time></trkpt><trkpt lat="41.5238545" lon="12.8531222"><ele>29.0</ele><time>2026-04-07T10:00:15.282Z</time></trkpt><trkpt lat="41.5238016" lon="12.853022"><ele>29.0</ele><time>2026-04-07T10:00:17.282Z</time></trkpt><trkpt lat="41.5237688" lon="12.8528882"><ele>29.0</ele><time>2026-04-07T10:00:19.282Z</time></trkpt><trkpt lat="41.5237467" lon="12.8527739"><ele>29.0</ele><time>2026-04-07T10:00:21.282Z</time></trkpt><trkpt lat="41.5236975" lon="12.8527115"><ele>28.799999999999997</ele><time>2026-04-07T10:00:24.282Z</time></trkpt><trkpt lat="41.5236354" lon="12.8526182"><ele>28.599999999999998</ele><time>2026-04-07T10:00:27.283Z</time></trkpt><trkpt lat="41.5235686" lon="12.8525507"><ele>28.4</ele><time>2026-04-07T10:00:29.282Z</time></trkpt><trkpt lat="41.5235132" lon="12.8524656"><ele>28.2</ele><time>2026-04-07T10:00:31.282Z</time></trkpt><trkpt lat="41.5234323" lon="12.8523502"><ele>28.0</ele><time>2026-04-07T10:00:34.282Z</time></trkpt><trkpt lat="41.5233602" lon="12.852264"><ele>28.0</ele><time>2026-04-07T10:00:36.282Z</time></trkpt><trkpt lat="41.5232861" lon="12.8521688"><ele>27.999999999999996</ele><time>2026-04-07T10:00:38.282Z</time></trkpt><trkpt lat="41.5232077" lon="12.8520789"><ele>27.999999999999996</ele><time>2026-04-07T10:00:40.282Z</time></trkpt><trkpt lat="41.5231338" lon="12.851989"><ele>28.0</ele><time>2026-04-07T10:00:42.283Z</time></trkpt><trkpt lat="41.5230806" lon="12.8518723"><ele>28.0</ele><time>2026-04-07T10:00:44.282Z</time></trkpt><trkpt lat="41.5230435" lon="12.8517943"><ele>28.500000000000004</ele><time>2026-04-07T10:00:45.282Z</time></trkpt><trkpt lat="41.5229061" lon="12.8516953"><ele>29.0</ele><time>2026-04-07T10:00:47.282Z</time></trkpt><trkpt lat="41.5228564" lon="12.8516335"><ele>29.5</ele><time>2026-04-07T10:00:48.282Z</time></trkpt><trkpt lat="41.5227998" lon="12.851561"><ele>30.0</ele><time>2026-04-07T10:00:49.283Z</time></trkpt><trkpt lat="41.52275" lon="12.8514983"><ele>30.500000000000004</ele><time>2026-04-07T10:00:50.283Z</time></trkpt><trkpt lat="41.5227017" lon="12.8514309"><ele>31.0</ele><time>2026-04-07T10:00:51.282Z</time></trkpt><trkpt lat="41.5226553" lon="12.8513716"><ele>31.000000000000004</ele><time>2026-04-07T10:00:52.282Z</time></trkpt><trkpt lat="41.5226069" lon="12.8513144"><ele>31.0</ele><time>2026-04-07T10:00:53.283Z</time></trkpt><trkpt lat="41.5225544" lon="12.8512629"><ele>31.0</ele><time>2026-04-07T10:00:54.282Z</time></trkpt><trkpt lat="41.5225042" lon="12.851206"><ele>31.0</ele><time>2026-04-07T10:00:55.282Z</time></trkpt><trkpt lat="41.5224199" lon="12.8511147"><ele>31.000000000000004</ele><time>2026-04-07T10:00:57.282Z</time></trkpt><trkpt lat="41.5223345" lon="12.8510342"><ele>31.0</ele><time>2026-04-07T10:00:59.282Z</time></trkpt><trkpt lat="41.5222923" lon="12.8509639"><ele>30.4</ele><time>2026-04-07T10:01:00.282Z</time></trkpt><trkpt lat="41.5221918" lon="12.8509138"><ele>29.8</ele><time>2026-04-07T10:01:02.282Z</time></trkpt><trkpt lat="41.5221131" lon="12.8508893"><ele>29.199999999999996</ele><time>2026-04-07T10:01:03.282Z</time></trkpt><trkpt lat="41.5220149" lon="12.8508018"><ele>28.599999999999998</ele><time>2026-04-07T10:01:06.282Z</time></trkpt><trkpt lat="41.5219411" lon="12.8507278"><ele>28.0</ele><time>2026-04-07T10:01:08.283Z</time></trkpt><trkpt lat="41.5218616" lon="12.8506214"><ele>27.833333333333336</ele><time>2026-04-07T10:01:10.283Z</time></trkpt><trkpt lat="41.5218146" lon="12.8505322"><ele>27.666666666666668</ele><time>2026-04-07T10:01:12.282Z</time></trkpt><trkpt lat="41.5217668" lon="12.8504599"><ele>27.5</ele><time>2026-04-07T10:01:14.283Z</time></trkpt><trkpt lat="41.5217092" lon="12.8503728"><ele>27.333333333333336</ele><time>2026-04-07T10:01:16.282Z</time></trkpt><trkpt lat="41.5216522" lon="12.850304"><ele>27.166666666666668</ele><time>2026-04-07T10:01:18.282Z</time></trkpt><trkpt lat="41.5215398" lon="12.8502492"><ele>27.0</ele><time>2026-04-07T10:01:21.282Z</time></trkpt><trkpt lat="41.5214285" lon="12.8502513"><ele>27.0</ele><time>2026-04-07T10:01:24.283Z</time></trkpt><trkpt lat="41.5213445" lon="12.8502412"><ele>27.000000000000004</ele><time>2026-04-07T10:01:26.282Z</time></trkpt><trkpt lat="41.5212724" lon="12.8501564"><ele>27.000000000000004</ele><time>2026-04-07T10:01:28.282Z</time></trkpt><trkpt lat="41.5211896" lon="12.8500256"><ele>27.0</ele><time>2026-04-07T10:01:30.282Z</time></trkpt><trkpt lat="41.5211459" lon="12.8499638"><ele>27.0</ele><time>2026-04-07T10:01:31.282Z</time></trkpt><trkpt lat="41.5210542" lon="12.8498405"><ele>27.400000000000002</ele><time>2026-04-07T10:01:33.282Z</time></trkpt><trkpt lat="41.5210106" lon="12.8497734"><ele>27.800000000000004</ele><time>2026-04-07T10:01:34.282Z</time></trkpt><trkpt lat="41.5209188" lon="12.8496645"><ele>28.2</ele><time>2026-04-07T10:01:36.282Z</time></trkpt><trkpt lat="41.5208335" lon="12.8495501"><ele>28.6</ele><time>2026-04-07T10:01:38.282Z</time></trkpt><trkpt lat="41.5207557" lon="12.8494319"><ele>29.0</ele><time>2026-04-07T10:01:40.282Z</time></trkpt><trkpt lat="41.5206981" lon="12.8493568"><ele>29.0</ele><time>2026-04-07T10:01:42.283Z</time></trkpt><trkpt lat="41.5206362" lon="12.8492924"><ele>29.0</ele><time>2026-04-07T10:01:44.283Z</time></trkpt><trkpt lat="41.520567" lon="12.8491994"><ele>29.0</ele><time>2026-04-07T10:01:46.282Z</time></trkpt><trkpt lat="41.5204795" lon="12.8490989"><ele>29.0</ele><time>2026-04-07T10:01:48.282Z</time></trkpt><trkpt lat="41.5203963" lon="12.8489938"><ele>29.0</ele><time>2026-04-07T10:01:50.282Z</time></trkpt><trkpt lat="41.520313" lon="12.8488804"><ele>29.0</ele><time>2026-04-07T10:01:52.282Z</time></trkpt><trkpt lat="41.5202274" lon="12.8487576"><ele>29.0</ele><time>2026-04-07T10:01:54.282Z</time></trkpt><trkpt lat="41.5201399" lon="12.8486612"><ele>29.0</ele><time>2026-04-07T10:01:56.282Z</time></trkpt><trkpt lat="41.520059" lon="12.8485536"><ele>29.0</ele><time>2026-04-07T10:01:58.282Z</time></trkpt><trkpt lat="41.5199831" lon="12.84846"><ele>28.666666666666664</ele><time>2026-04-07T10:02:00.282Z</time></trkpt><trkpt lat="41.5199013" lon="12.8483844"><ele>28.333333333333332</ele><time>2026-04-07T10:02:02.282Z</time></trkpt><trkpt lat="41.5198443" lon="12.8483428"><ele>28.0</ele><time>2026-04-07T10:02:03.282Z</time></trkpt><trkpt lat="41.5197836" lon="12.8483142"><ele>27.666666666666664</ele><time>2026-04-07T10:02:04.282Z</time></trkpt><trkpt lat="41.5197392" lon="12.848254"><ele>27.333333333333332</ele><time>2026-04-07T10:02:05.282Z</time></trkpt><trkpt lat="41.5196544" lon="12.8481424"><ele>27.0</ele><time>2026-04-07T10:02:07.282Z</time></trkpt><trkpt lat="41.5196069" lon="12.8480208"><ele>27.400000000000002</ele><time>2026-04-07T10:02:09.282Z</time></trkpt><trkpt lat="41.5195643" lon="12.8478974"><ele>27.800000000000004</ele><time>2026-04-07T10:02:11.283Z</time></trkpt><trkpt lat="41.5195285" lon="12.8478096"><ele>28.2</ele><time>2026-04-07T10:02:13.282Z</time></trkpt><trkpt lat="41.5194482" lon="12.8477079"><ele>28.6</ele><time>2026-04-07T10:02:16.283Z</time></trkpt><trkpt lat="41.5193963" lon="12.8476213"><ele>29.0</ele><time>2026-04-07T10:02:18.282Z</time></trkpt><trkpt lat="41.5193022" lon="12.8474782"><ele>29.0</ele><time>2026-04-07T10:02:21.283Z</time></trkpt><trkpt lat="41.5192341" lon="12.8473845"><ele>29.0</ele><time>2026-04-07T10:02:23.282Z</time></trkpt><trkpt lat="41.5191538" lon="12.84731"><ele>29.0</ele><time>2026-04-07T10:02:25.282Z</time></trkpt><trkpt lat="41.5190646" lon="12.8472242"><ele>29.0</ele><time>2026-04-07T10:02:27.282Z</time></trkpt><trkpt lat="41.5189752" lon="12.8471648"><ele>29.0</ele><time>2026-04-07T10:02:29.282Z</time></trkpt><trkpt lat="41.5188892" lon="12.847073"><ele>29.0</ele><time>2026-04-07T10:02:31.283Z</time></trkpt><trkpt lat="41.5188013" lon="12.8469752"><ele>29.0</ele><time>2026-04-07T10:02:33.283Z</time></trkpt><trkpt lat="41.5187305" lon="12.8468934"><ele>29.0</ele><time>2026-04-07T10:02:35.282Z</time></trkpt><trkpt lat="41.5186612" lon="12.8468057"><ele>29.0</ele><time>2026-04-07T10:02:37.282Z</time></trkpt><trkpt lat="41.5185663" lon="12.8467176"><ele>29.0</ele><time>2026-04-07T10:02:39.282Z</time></trkpt><trkpt lat="41.5184921" lon="12.8466069"><ele>29.5</ele><time>2026-04-07T10:02:41.282Z</time></trkpt><trkpt lat="41.5184271" lon="12.8464861"><ele>30.0</ele><time>2026-04-07T10:02:43.282Z</time></trkpt><trkpt lat="41.5183746" lon="12.8463555"><ele>30.5</ele><time>2026-04-07T10:02:45.283Z</time></trkpt><trkpt lat="41.518312" lon="12.8462204"><ele>31.0</ele><time>2026-04-07T10:02:47.282Z</time></trkpt><trkpt lat="41.5182184" lon="12.8460995"><ele>31.0</ele><time>2026-04-07T10:02:49.282Z</time></trkpt><trkpt lat="41.518125" lon="12.8459987"><ele>31.0</ele><time>2026-04-07T10:02:51.283Z</time></trkpt><trkpt lat="41.5180476" lon="12.8458688"><ele>31.0</ele><time>2026-04-07T10:02:53.282Z</time></trkpt><trkpt lat="41.5179658" lon="12.8457546"><ele>31.0</ele><time>2026-04-07T10:02:55.282Z</time></trkpt><trkpt lat="41.5178783" lon="12.8456456"><ele>31.0</ele><time>2026-04-07T10:02:57.283Z</time></trkpt><trkpt lat="41.5177935" lon="12.8455571"><ele>31.0</ele><time>2026-04-07T10:02:59.282Z</time></trkpt><trkpt lat="41.5176995" lon="12.8454673"><ele>31.0</ele><time>2026-04-07T10:03:01.282Z</time></trkpt><trkpt lat="41.517606" lon="12.8453625"><ele>31.0</ele><time>2026-04-07T10:03:03.283Z</time></trkpt><trkpt lat="41.5175176" lon="12.8452584"><ele>31.0</ele><time>2026-04-07T10:03:05.282Z</time></trkpt><trkpt lat="41.5174335" lon="12.8451572"><ele>31.0</ele><time>2026-04-07T10:03:07.282Z</time></trkpt><trkpt lat="41.5173439" lon="12.8450498"><ele>31.0</ele><time>2026-04-07T10:03:09.282Z</time></trkpt><trkpt lat="41.5172233" lon="12.8448748"><ele>31.0</ele><time>2026-04-07T10:03:11.282Z</time></trkpt><trkpt lat="41.5170921" lon="12.8447075"><ele>30.666666666666668</ele><time>2026-04-07T10:03:13.282Z</time></trkpt><trkpt lat="41.5169355" lon="12.8444999"><ele>30.333333333333336</ele><time>2026-04-07T10:03:15.283Z</time></trkpt><trkpt lat="41.5167967" lon="12.8443077"><ele>30.0</ele><time>2026-04-07T10:03:17.283Z</time></trkpt><trkpt lat="41.5167323" lon="12.8442234"><ele>29.8</ele><time>2026-04-07T10:03:18.282Z</time></trkpt><trkpt lat="41.5166715" lon="12.8441488"><ele>29.6</ele><time>2026-04-07T10:03:19.282Z</time></trkpt><trkpt lat="41.5165687" lon="12.8440058"><ele>29.4</ele><time>2026-04-07T10:03:21.282Z</time></trkpt><trkpt lat="41.5165238" lon="12.8439396"><ele>29.2</ele><time>2026-04-07T10:03:22.282Z</time></trkpt><trkpt lat="41.5164232" lon="12.8437967"><ele>29.0</ele><time>2026-04-07T10:03:24.282Z</time></trkpt><trkpt lat="41.5163523" lon="12.8437113"><ele>29.0</ele><time>2026-04-07T10:03:25.282Z</time></trkpt><trkpt lat="41.5162912" lon="12.8436341"><ele>29.0</ele><time>2026-04-07T10:03:26.282Z</time></trkpt><trkpt lat="41.5161741" lon="12.8434784"><ele>29.0</ele><time>2026-04-07T10:03:28.282Z</time></trkpt><trkpt lat="41.5160708" lon="12.8433141"><ele>29.0</ele><time>2026-04-07T10:03:30.282Z</time></trkpt><trkpt lat="41.5159569" lon="12.8431742"><ele>29.0</ele><time>2026-04-07T10:03:32.282Z</time></trkpt><trkpt lat="41.5158432" lon="12.8430334"><ele>29.0</ele><time>2026-04-07T10:03:34.282Z</time></trkpt><trkpt lat="41.515789" lon="12.8429558"><ele>29.0</ele><time>2026-04-07T10:03:35.282Z</time></trkpt><trkpt lat="41.5156057" lon="12.8427466"><ele>28.999999999999996</ele><time>2026-04-07T10:03:38.282Z</time></trkpt><trkpt lat="41.5155435" lon="12.8426753"><ele>29.0</ele><time>2026-04-07T10:03:39.283Z</time></trkpt><trkpt lat="41.5154838" lon="12.8426035"><ele>29.0</ele><time>2026-04-07T10:03:40.282Z</time></trkpt><trkpt lat="41.5154166" lon="12.8425358"><ele>29.0</ele><time>2026-04-07T10:03:41.283Z</time></trkpt><trkpt lat="41.5153514" lon="12.8424668"><ele>28.999999999999996</ele><time>2026-04-07T10:03:42.282Z</time></trkpt><trkpt lat="41.5152844" lon="12.8423966"><ele>29.0</ele><time>2026-04-07T10:03:43.282Z</time></trkpt><trkpt lat="41.5152177" lon="12.8423304"><ele>29.333333333333332</ele><time>2026-04-07T10:03:44.282Z</time></trkpt><trkpt lat="41.5151601" lon="12.8422602"><ele>29.666666666666664</ele><time>2026-04-07T10:03:45.282Z</time></trkpt><trkpt lat="41.5151123" lon="12.8421979"><ele>30.0</ele><time>2026-04-07T10:03:46.282Z</time></trkpt><trkpt lat="41.5150446" lon="12.8420777"><ele>30.333333333333336</ele><time>2026-04-07T10:03:48.283Z</time></trkpt><trkpt lat="41.5150081" lon="12.8419792"><ele>30.666666666666668</ele><time>2026-04-07T10:03:50.283Z</time></trkpt><trkpt lat="41.5150132" lon="12.8418954"><ele>31.0</ele><time>2026-04-07T10:03:52.282Z</time></trkpt><trkpt lat="41.5150547" lon="12.8418308"><ele>30.0</ele><time>2026-04-07T10:03:54.282Z</time></trkpt><trkpt lat="41.5150677" lon="12.8417236"><ele>29.0</ele><time>2026-04-07T10:03:57.283Z</time></trkpt><trkpt lat="41.5149895" lon="12.8416351"><ele>28.0</ele><time>2026-04-07T10:03:59.282Z</time></trkpt><trkpt lat="41.5149019" lon="12.8415285"><ele>27.0</ele><time>2026-04-07T10:04:01.272Z</time></trkpt><trkpt lat="41.5148131" lon="12.8414347"><ele>26.0</ele><time>2026-04-07T10:04:03.264Z</time></trkpt><trkpt lat="41.5147593" lon="12.8413714"><ele>26.0</ele><time>2026-04-07T10:04:04.279Z</time></trkpt><trkpt lat="41.5146535" lon="12.8412173"><ele>26.0</ele><time>2026-04-07T10:04:06.305Z</time></trkpt><trkpt lat="41.5145938" lon="12.8411494"><ele>26.0</ele><time>2026-04-07T10:04:07.305Z</time></trkpt><trkpt lat="41.5145346" lon="12.8410742"><ele>26.0</ele><time>2026-04-07T10:04:08.305Z</time></trkpt><trkpt lat="41.5144433" lon="12.8409392"><ele>26.4</ele><time>2026-04-07T10:04:10.306Z</time></trkpt><trkpt lat="41.5143505" lon="12.8408255"><ele>26.8</ele><time>2026-04-07T10:04:12.305Z</time></trkpt><trkpt lat="41.5142499" lon="12.8406839"><ele>27.199999999999996</ele><time>2026-04-07T10:04:14.305Z</time></trkpt><trkpt lat="41.514198" lon="12.8406153"><ele>27.599999999999998</ele><time>2026-04-07T10:04:15.305Z</time></trkpt><trkpt lat="41.5141497" lon="12.8405478"><ele>28.0</ele><time>2026-04-07T10:04:16.305Z</time></trkpt><trkpt lat="41.5140416" lon="12.8404166"><ele>28.0</ele><time>2026-04-07T10:04:18.305Z</time></trkpt><trkpt lat="41.5139432" lon="12.8402822"><ele>28.0</ele><time>2026-04-07T10:04:20.305Z</time></trkpt><trkpt lat="41.5138563" lon="12.8401567"><ele>28.0</ele><time>2026-04-07T10:04:22.306Z</time></trkpt><trkpt lat="41.5137353" lon="12.8400154"><ele>28.0</ele><time>2026-04-07T10:04:25.305Z</time></trkpt><trkpt lat="41.5136442" lon="12.8398996"><ele>28.0</ele><time>2026-04-07T10:04:27.305Z</time></trkpt><trkpt lat="41.5135944" lon="12.8398295"><ele>28.0</ele><time>2026-04-07T10:04:28.305Z</time></trkpt><trkpt lat="41.5135361" lon="12.8397727"><ele>28.0</ele><time>2026-04-07T10:04:29.305Z</time></trkpt><trkpt lat="41.5134899" lon="12.8397047"><ele>28.0</ele><time>2026-04-07T10:04:30.306Z</time></trkpt><trkpt lat="41.5134382" lon="12.8396401"><ele>28.0</ele><time>2026-04-07T10:04:31.306Z</time></trkpt><trkpt lat="41.5133855" lon="12.8395746"><ele>28.0</ele><time>2026-04-07T10:04:32.305Z</time></trkpt><trkpt lat="41.5133384" lon="12.8395067"><ele>28.0</ele><time>2026-04-07T10:04:33.305Z</time></trkpt><trkpt lat="41.5132914" lon="12.8394413"><ele>28.0</ele><time>2026-04-07T10:04:34.306Z</time></trkpt><trkpt lat="41.5132415" lon="12.8393786"><ele>27.999999999999996</ele><time>2026-04-07T10:04:35.305Z</time></trkpt><trkpt lat="41.5131813" lon="12.8393092"><ele>27.999999999999996</ele><time>2026-04-07T10:04:36.305Z</time></trkpt><trkpt lat="41.5131332" lon="12.8392505"><ele>28.0</ele><time>2026-04-07T10:04:37.305Z</time></trkpt><trkpt lat="41.5130776" lon="12.8391909"><ele>28.0</ele><time>2026-04-07T10:04:38.306Z</time></trkpt><trkpt lat="41.5129036" lon="12.8390134"><ele>28.000000000000004</ele><time>2026-04-07T10:04:41.305Z</time></trkpt><trkpt lat="41.5127838" lon="12.8388967"><ele>28.0</ele><time>2026-04-07T10:04:43.306Z</time></trkpt><trkpt lat="41.5127253" lon="12.8388453"><ele>28.0</ele><time>2026-04-07T10:04:44.306Z</time></trkpt><trkpt lat="41.5126548" lon="12.8388155"><ele>28.0</ele><time>2026-04-07T10:04:45.305Z</time></trkpt><trkpt lat="41.5125916" lon="12.8387648"><ele>28.000000000000004</ele><time>2026-04-07T10:04:46.305Z</time></trkpt><trkpt lat="41.5125397" lon="12.838684"><ele>28.0</ele><time>2026-04-07T10:04:47.305Z</time></trkpt><trkpt lat="41.5124815" lon="12.8386335"><ele>28.0</ele><time>2026-04-07T10:04:48.305Z</time></trkpt><trkpt lat="41.5124216" lon="12.8385749"><ele>28.0</ele><time>2026-04-07T10:04:49.306Z</time></trkpt><trkpt lat="41.5123575" lon="12.8385119"><ele>28.0</ele><time>2026-04-07T10:04:50.305Z</time></trkpt><trkpt lat="41.5122223" lon="12.8383879"><ele>28.0</ele><time>2026-04-07T10:04:52.306Z</time></trkpt><trkpt lat="41.5120806" lon="12.8382707"><ele>28.25</ele><time>2026-04-07T10:04:54.305Z</time></trkpt><trkpt lat="41.5119628" lon="12.8381611"><ele>28.5</ele><time>2026-04-07T10:04:56.306Z</time></trkpt><trkpt lat="41.511855" lon="12.8380793"><ele>28.75</ele><time>2026-04-07T10:04:58.306Z</time></trkpt><trkpt lat="41.5117585" lon="12.8379994"><ele>29.0</ele><time>2026-04-07T10:05:00.305Z</time></trkpt><trkpt lat="41.5116893" lon="12.837965"><ele>29.0</ele><time>2026-04-07T10:05:01.305Z</time></trkpt><trkpt lat="41.5115135" lon="12.8378865"><ele>29.0</ele><time>2026-04-07T10:05:04.306Z</time></trkpt><trkpt lat="41.5114202" lon="12.8378407"><ele>29.0</ele><time>2026-04-07T10:05:06.305Z</time></trkpt><trkpt lat="41.5113377" lon="12.8378013"><ele>29.0</ele><time>2026-04-07T10:05:08.306Z</time></trkpt><trkpt lat="41.5112665" lon="12.8377613"><ele>28.999999999999996</ele><time>2026-04-07T10:05:10.305Z</time></trkpt><trkpt lat="41.5112141" lon="12.8377092"><ele>29.0</ele><time>2026-04-07T10:05:12.305Z</time></trkpt><trkpt lat="41.5111383" lon="12.83768"><ele>29.0</ele><time>2026-04-07T10:05:14.306Z</time></trkpt><trkpt lat="41.5110723" lon="12.8376824"><ele>29.0</ele><time>2026-04-07T10:05:17.305Z</time></trkpt><trkpt lat="41.511119" lon="12.837788"><ele>28.999999999999996</ele><time>2026-04-07T10:05:20.305Z</time></trkpt><trkpt lat="41.5110712" lon="12.8378576"><ele>29.0</ele><time>2026-04-07T10:05:23.306Z</time></trkpt><trkpt lat="41.5109678" lon="12.8378433"><ele>29.0</ele><time>2026-04-07T10:05:25.305Z</time></trkpt><trkpt lat="41.5108655" lon="12.8377811"><ele>29.0</ele><time>2026-04-07T10:05:27.306Z</time></trkpt><trkpt lat="41.5107515" lon="12.8377086"><ele>29.0</ele><time>2026-04-07T10:05:29.305Z</time></trkpt><trkpt lat="41.5105943" lon="12.8376305"><ele>29.0</ele><time>2026-04-07T10:05:31.305Z</time></trkpt><trkpt lat="41.5104274" lon="12.8375614"><ele>28.75</ele><time>2026-04-07T10:05:33.305Z</time></trkpt><trkpt lat="41.5102541" lon="12.8375114"><ele>28.5</ele><time>2026-04-07T10:05:35.305Z</time></trkpt><trkpt lat="41.5101857" lon="12.8374963"><ele>28.25</ele><time>2026-04-07T10:05:36.305Z</time></trkpt><trkpt lat="41.5101026" lon="12.8374923"><ele>28.0</ele><time>2026-04-07T10:05:37.305Z</time></trkpt><trkpt lat="41.509907" lon="12.8374453"><ele>28.0</ele><time>2026-04-07T10:05:39.305Z</time></trkpt><trkpt lat="41.5097391" lon="12.8373854"><ele>28.0</ele><time>2026-04-07T10:05:41.305Z</time></trkpt><trkpt lat="41.5095832" lon="12.837334"><ele>28.0</ele><time>2026-04-07T10:05:43.305Z</time></trkpt><trkpt lat="41.5094282" lon="12.837292"><ele>29.0</ele><time>2026-04-07T10:05:45.306Z</time></trkpt><trkpt lat="41.5092846" lon="12.8372414"><ele>30.0</ele><time>2026-04-07T10:05:47.306Z</time></trkpt><trkpt lat="41.5091315" lon="12.8371875"><ele>31.0</ele><time>2026-04-07T10:05:49.306Z</time></trkpt><trkpt lat="41.5089694" lon="12.8371202"><ele>31.0</ele><time>2026-04-07T10:05:51.305Z</time></trkpt><trkpt lat="41.5088919" lon="12.837081"><ele>31.0</ele><time>2026-04-07T10:05:52.306Z</time></trkpt><trkpt lat="41.5087538" lon="12.8370094"><ele>31.0</ele><time>2026-04-07T10:05:54.305Z</time></trkpt><trkpt lat="41.5086386" lon="12.8369742"><ele>31.0</ele><time>2026-04-07T10:05:56.305Z</time></trkpt><trkpt lat="41.508518" lon="12.8369586"><ele>30.5</ele><time>2026-04-07T10:05:58.305Z</time></trkpt><trkpt lat="41.5083632" lon="12.8369113"><ele>30.0</ele><time>2026-04-07T10:06:00.306Z</time></trkpt><trkpt lat="41.5082585" lon="12.8368733"><ele>29.5</ele><time>2026-04-07T10:06:01.305Z</time></trkpt><trkpt lat="41.5081472" lon="12.8368396"><ele>29.0</ele><time>2026-04-07T10:06:02.305Z</time></trkpt><trkpt lat="41.5078535" lon="12.8367512"><ele>27.0</ele><time>2026-04-07T10:06:04.305Z</time></trkpt><trkpt lat="41.5074785" lon="12.836654"><ele>25.0</ele><time>2026-04-07T10:06:06.305Z</time></trkpt><trkpt lat="41.5070841" lon="12.8365602"><ele>25.5</ele><time>2026-04-07T10:06:08.306Z</time></trkpt><trkpt lat="41.5067334" lon="12.8364612"><ele>26.0</ele><time>2026-04-07T10:06:10.305Z</time></trkpt><trkpt lat="41.5065246" lon="12.8364029"><ele>26.0</ele><time>2026-04-07T10:06:11.305Z</time></trkpt><trkpt lat="41.5063512" lon="12.8363498"><ele>26.0</ele><time>2026-04-07T10:06:12.305Z</time></trkpt><trkpt lat="41.505992" lon="12.8362569"><ele>26.5</ele><time>2026-04-07T10:06:14.305Z</time></trkpt><trkpt lat="41.5055986" lon="12.8361497"><ele>27.0</ele><time>2026-04-07T10:06:16.305Z</time></trkpt><trkpt lat="41.5054114" lon="12.8360971"><ele>27.333333333333336</ele><time>2026-04-07T10:06:17.306Z</time></trkpt><trkpt lat="41.5052295" lon="12.8360371"><ele>27.666666666666668</ele><time>2026-04-07T10:06:18.305Z</time></trkpt><trkpt lat="41.5050552" lon="12.8360027"><ele>28.0</ele><time>2026-04-07T10:06:19.305Z</time></trkpt><trkpt lat="41.5047124" lon="12.8359159"><ele>27.333333333333336</ele><time>2026-04-07T10:06:21.305Z</time></trkpt><trkpt lat="41.5045234" lon="12.8358627"><ele>26.666666666666664</ele><time>2026-04-07T10:06:22.305Z</time></trkpt><trkpt lat="41.5043494" lon="12.8358161"><ele>26.0</ele><time>2026-04-07T10:06:23.305Z</time></trkpt><trkpt lat="41.5041752" lon="12.8357655"><ele>26.0</ele><time>2026-04-07T10:06:24.305Z</time></trkpt><trkpt lat="41.5040187" lon="12.8357223"><ele>26.0</ele><time>2026-04-07T10:06:25.306Z</time></trkpt><trkpt lat="41.5038621" lon="12.8356782"><ele>26.0</ele><time>2026-04-07T10:06:26.305Z</time></trkpt><trkpt lat="41.5037135" lon="12.835634"><ele>26.0</ele><time>2026-04-07T10:06:27.306Z</time></trkpt><trkpt lat="41.5035636" lon="12.835596"><ele>26.0</ele><time>2026-04-07T10:06:28.305Z</time></trkpt><trkpt lat="41.5034278" lon="12.8355576"><ele>26.0</ele><time>2026-04-07T10:06:29.305Z</time></trkpt><trkpt lat="41.5032876" lon="12.8355166"><ele>26.0</ele><time>2026-04-07T10:06:30.305Z</time></trkpt><trkpt lat="41.5029896" lon="12.8354442"><ele>26.0</ele><time>2026-04-07T10:06:32.305Z</time></trkpt><trkpt lat="41.5027045" lon="12.8353761"><ele>26.0</ele><time>2026-04-07T10:06:34.305Z</time></trkpt><trkpt lat="41.5025654" lon="12.835341"><ele>26.0</ele><time>2026-04-07T10:06:35.306Z</time></trkpt><trkpt lat="41.5024274" lon="12.8353035"><ele>26.0</ele><time>2026-04-07T10:06:36.305Z</time></trkpt><trkpt lat="41.5021506" lon="12.8352243"><ele>26.0</ele><time>2026-04-07T10:06:38.305Z</time></trkpt><trkpt lat="41.5020183" lon="12.835191"><ele>26.0</ele><time>2026-04-07T10:06:39.305Z</time></trkpt><trkpt lat="41.5017394" lon="12.8351119"><ele>26.0</ele><time>2026-04-07T10:06:41.305Z</time></trkpt><trkpt lat="41.5014414" lon="12.8350252"><ele>26.0</ele><time>2026-04-07T10:06:43.305Z</time></trkpt><trkpt lat="41.501298" lon="12.8349872"><ele>26.0</ele><time>2026-04-07T10:06:44.305Z</time></trkpt><trkpt lat="41.5011578" lon="12.8349469"><ele>26.0</ele><time>2026-04-07T10:06:45.305Z</time></trkpt><trkpt lat="41.5010141" lon="12.83491"><ele>26.0</ele><time>2026-04-07T10:06:46.305Z</time></trkpt><trkpt lat="41.5006033" lon="12.8348075"><ele>25.5</ele><time>2026-04-07T10:06:49.305Z</time></trkpt><trkpt lat="41.5003313" lon="12.8347314"><ele>25.0</ele><time>2026-04-07T10:06:51.305Z</time></trkpt><trkpt lat="41.5000672" lon="12.8346639"><ele>25.0</ele><time>2026-04-07T10:06:53.306Z</time></trkpt><trkpt lat="41.4998223" lon="12.8345868"><ele>25.0</ele><time>2026-04-07T10:06:55.305Z</time></trkpt><trkpt lat="41.4996011" lon="12.834537"><ele>25.333333333333336</ele><time>2026-04-07T10:06:57.305Z</time></trkpt><trkpt lat="41.4993988" lon="12.8344974"><ele>25.666666666666664</ele><time>2026-04-07T10:06:59.305Z</time></trkpt><trkpt lat="41.4992037" lon="12.8344064"><ele>26.0</ele><time>2026-04-07T10:07:01.305Z</time></trkpt><trkpt lat="41.4991055" lon="12.834386"><ele>26.0</ele><time>2026-04-07T10:07:02.305Z</time></trkpt><trkpt lat="41.4990082" lon="12.8343564"><ele>26.0</ele><time>2026-04-07T10:07:03.305Z</time></trkpt><trkpt lat="41.4987966" lon="12.8343064"><ele>26.0</ele><time>2026-04-07T10:07:05.305Z</time></trkpt><trkpt lat="41.4986888" lon="12.8342809"><ele>26.0</ele><time>2026-04-07T10:07:06.305Z</time></trkpt><trkpt lat="41.4985895" lon="12.8342599"><ele>25.5</ele><time>2026-04-07T10:07:07.306Z</time></trkpt><trkpt lat="41.4984943" lon="12.8342395"><ele>25.0</ele><time>2026-04-07T10:07:08.305Z</time></trkpt><trkpt lat="41.4984009" lon="12.8342218"><ele>24.5</ele><time>2026-04-07T10:07:09.305Z</time></trkpt><trkpt lat="41.4983135" lon="12.834209"><ele>24.0</ele><time>2026-04-07T10:07:10.305Z</time></trkpt><trkpt lat="41.4981429" lon="12.8341652"><ele>24.0</ele><time>2026-04-07T10:07:12.305Z</time></trkpt><trkpt lat="41.4980623" lon="12.8341227"><ele>24.0</ele><time>2026-04-07T10:07:13.305Z</time></trkpt><trkpt lat="41.4979079" lon="12.8340257"><ele>24.0</ele><time>2026-04-07T10:07:15.305Z</time></trkpt><trkpt lat="41.497747" lon="12.8339979"><ele>24.0</ele><time>2026-04-07T10:07:17.305Z</time></trkpt><trkpt lat="41.4976623" lon="12.8339724"><ele>25.0</ele><time>2026-04-07T10:07:18.306Z</time></trkpt><trkpt lat="41.4975755" lon="12.8339356"><ele>26.0</ele><time>2026-04-07T10:07:19.305Z</time></trkpt><trkpt lat="41.49741" lon="12.8338956"><ele>27.0</ele><time>2026-04-07T10:07:21.305Z</time></trkpt><trkpt lat="41.4972164" lon="12.8338584"><ele>27.0</ele><time>2026-04-07T10:07:23.305Z</time></trkpt><trkpt lat="41.49701" lon="12.8338144"><ele>27.0</ele><time>2026-04-07T10:07:25.305Z</time></trkpt><trkpt lat="41.4969132" lon="12.8337889"><ele>27.0</ele><time>2026-04-07T10:07:26.305Z</time></trkpt><trkpt lat="41.4968194" lon="12.8337686"><ele>27.0</ele><time>2026-04-07T10:07:27.306Z</time></trkpt><trkpt lat="41.4967192" lon="12.8337519"><ele>27.0</ele><time>2026-04-07T10:07:28.305Z</time></trkpt><trkpt lat="41.4966227" lon="12.8337445"><ele>27.0</ele><time>2026-04-07T10:07:29.305Z</time></trkpt><trkpt lat="41.4964244" lon="12.8337022"><ele>27.0</ele><time>2026-04-07T10:07:31.305Z</time></trkpt><trkpt lat="41.4962375" lon="12.833658"><ele>27.0</ele><time>2026-04-07T10:07:33.306Z</time></trkpt><trkpt lat="41.496009" lon="12.8336118"><ele>27.0</ele><time>2026-04-07T10:07:35.306Z</time></trkpt><trkpt lat="41.4957788" lon="12.8335553"><ele>27.0</ele><time>2026-04-07T10:07:37.305Z</time></trkpt><trkpt lat="41.4956698" lon="12.8335262"><ele>27.0</ele><time>2026-04-07T10:07:38.305Z</time></trkpt><trkpt lat="41.4955614" lon="12.8334998"><ele>27.0</ele><time>2026-04-07T10:07:39.305Z</time></trkpt><trkpt lat="41.495357" lon="12.8334455"><ele>27.0</ele><time>2026-04-07T10:07:41.306Z</time></trkpt><trkpt lat="41.4952623" lon="12.8334167"><ele>26.400000000000002</ele><time>2026-04-07T10:07:42.305Z</time></trkpt><trkpt lat="41.4951602" lon="12.8333974"><ele>25.800000000000004</ele><time>2026-04-07T10:07:43.305Z</time></trkpt><trkpt lat="41.4950695" lon="12.8333752"><ele>25.2</ele><time>2026-04-07T10:07:44.305Z</time></trkpt><trkpt lat="41.4949786" lon="12.8333432"><ele>24.6</ele><time>2026-04-07T10:07:45.305Z</time></trkpt><trkpt lat="41.4948773" lon="12.83331"><ele>24.0</ele><time>2026-04-07T10:07:46.305Z</time></trkpt><trkpt lat="41.4947865" lon="12.8332783"><ele>24.0</ele><time>2026-04-07T10:07:47.305Z</time></trkpt><trkpt lat="41.4946949" lon="12.8332605"><ele>24.0</ele><time>2026-04-07T10:07:48.305Z</time></trkpt><trkpt lat="41.4946037" lon="12.8332547"><ele>24.0</ele><time>2026-04-07T10:07:49.306Z</time></trkpt><trkpt lat="41.4944677" lon="12.8332863"><ele>24.0</ele><time>2026-04-07T10:07:51.305Z</time></trkpt><trkpt lat="41.4943678" lon="12.8332265"><ele>24.0</ele><time>2026-04-07T10:07:53.305Z</time></trkpt><trkpt lat="41.4942605" lon="12.8331404"><ele>24.75</ele><time>2026-04-07T10:07:55.305Z</time></trkpt><trkpt lat="41.4940903" lon="12.8330803"><ele>25.5</ele><time>2026-04-07T10:07:57.305Z</time></trkpt><trkpt lat="41.4939885" lon="12.83305"><ele>26.25</ele><time>2026-04-07T10:07:58.305Z</time></trkpt><trkpt lat="41.4939051" lon="12.8330291"><ele>27.0</ele><time>2026-04-07T10:07:59.305Z</time></trkpt><trkpt lat="41.4937343" lon="12.8329892"><ele>27.25</ele><time>2026-04-07T10:08:01.305Z</time></trkpt><trkpt lat="41.4936126" lon="12.8329727"><ele>27.5</ele><time>2026-04-07T10:08:03.305Z</time></trkpt><trkpt lat="41.4934929" lon="12.8329329"><ele>27.75</ele><time>2026-04-07T10:08:05.305Z</time></trkpt><trkpt lat="41.4933767" lon="12.8328884"><ele>28.0</ele><time>2026-04-07T10:08:07.305Z</time></trkpt><trkpt lat="41.4932701" lon="12.832849"><ele>28.0</ele><time>2026-04-07T10:08:09.305Z</time></trkpt><trkpt lat="41.4929329" lon="12.8328186"><ele>28.0</ele><time>2026-04-07T10:08:14.305Z</time></trkpt><trkpt lat="41.4927899" lon="12.8328229"><ele>28.166666666666668</ele><time>2026-04-07T10:08:16.305Z</time></trkpt><trkpt lat="41.4927047" lon="12.8328865"><ele>28.333333333333336</ele><time>2026-04-07T10:08:18.305Z</time></trkpt><trkpt lat="41.4926446" lon="12.8329221"><ele>28.5</ele><time>2026-04-07T10:08:19.306Z</time></trkpt><trkpt lat="41.4925842" lon="12.8329562"><ele>28.666666666666664</ele><time>2026-04-07T10:08:20.305Z</time></trkpt><trkpt lat="41.4925094" lon="12.8329622"><ele>28.833333333333332</ele><time>2026-04-07T10:08:21.305Z</time></trkpt><trkpt lat="41.492429" lon="12.8329747"><ele>29.0</ele><time>2026-04-07T10:08:22.305Z</time></trkpt><trkpt lat="41.4923594" lon="12.8329845"><ele>29.0</ele><time>2026-04-07T10:08:23.305Z</time></trkpt><trkpt lat="41.4922783" lon="12.8329789"><ele>29.0</ele><time>2026-04-07T10:08:24.305Z</time></trkpt><trkpt lat="41.4921552" lon="12.8329636"><ele>29.0</ele><time>2026-04-07T10:08:26.306Z</time></trkpt><trkpt lat="41.4919163" lon="12.8329197"><ele>29.0</ele><time>2026-04-07T10:08:29.305Z</time></trkpt><trkpt lat="41.4918331" lon="12.8328963"><ele>28.833333333333332</ele><time>2026-04-07T10:08:30.305Z</time></trkpt><trkpt lat="41.4917555" lon="12.8328794"><ele>28.666666666666664</ele><time>2026-04-07T10:08:31.305Z</time></trkpt><trkpt lat="41.4916801" lon="12.8328712"><ele>28.5</ele><time>2026-04-07T10:08:32.305Z</time></trkpt><trkpt lat="41.4916028" lon="12.8328636"><ele>28.333333333333336</ele><time>2026-04-07T10:08:33.305Z</time></trkpt><trkpt lat="41.4915334" lon="12.8328549"><ele>28.166666666666668</ele><time>2026-04-07T10:08:34.305Z</time></trkpt><trkpt lat="41.4914057" lon="12.8328417"><ele>28.0</ele><time>2026-04-07T10:08:36.305Z</time></trkpt><trkpt lat="41.4913408" lon="12.8328346"><ele>28.0</ele><time>2026-04-07T10:08:37.305Z</time></trkpt><trkpt lat="41.4912267" lon="12.832826"><ele>28.0</ele><time>2026-04-07T10:08:39.306Z</time></trkpt><trkpt lat="41.4911073" lon="12.8328146"><ele>28.0</ele><time>2026-04-07T10:08:41.305Z</time></trkpt><trkpt lat="41.4909985" lon="12.8328069"><ele>28.0</ele><time>2026-04-07T10:08:43.305Z</time></trkpt><trkpt lat="41.4908761" lon="12.8328052"><ele>28.0</ele><time>2026-04-07T10:08:45.305Z</time></trkpt><trkpt lat="41.490758" lon="12.8328028"><ele>28.0</ele><time>2026-04-07T10:08:47.305Z</time></trkpt><trkpt lat="41.4906934" lon="12.8328061"><ele>28.0</ele><time>2026-04-07T10:08:48.305Z</time></trkpt><trkpt lat="41.4905507" lon="12.8327952"><ele>28.0</ele><time>2026-04-07T10:08:50.306Z</time></trkpt><trkpt lat="41.4904128" lon="12.8327915"><ele>27.25</ele><time>2026-04-07T10:08:52.305Z</time></trkpt><trkpt lat="41.4903442" lon="12.8327828"><ele>26.5</ele><time>2026-04-07T10:08:53.305Z</time></trkpt><trkpt lat="41.4902281" lon="12.8327703"><ele>25.75</ele><time>2026-04-07T10:08:55.305Z</time></trkpt><trkpt lat="41.4900863" lon="12.8327533"><ele>25.0</ele><time>2026-04-07T10:08:57.306Z</time></trkpt><trkpt lat="41.4899602" lon="12.832747"><ele>25.0</ele><time>2026-04-07T10:08:59.306Z</time></trkpt><trkpt lat="41.4898377" lon="12.8327325"><ele>25.0</ele><time>2026-04-07T10:09:01.305Z</time></trkpt><trkpt lat="41.4896958" lon="12.8327138"><ele>25.0</ele><time>2026-04-07T10:09:03.305Z</time></trkpt><trkpt lat="41.4895484" lon="12.8326924"><ele>25.0</ele><time>2026-04-07T10:09:05.306Z</time></trkpt><trkpt lat="41.4893828" lon="12.8326818"><ele>24.75</ele><time>2026-04-07T10:09:07.306Z</time></trkpt><trkpt lat="41.4892977" lon="12.8326734"><ele>24.5</ele><time>2026-04-07T10:09:08.306Z</time></trkpt><trkpt lat="41.4891222" lon="12.8326656"><ele>24.25</ele><time>2026-04-07T10:09:10.305Z</time></trkpt><trkpt lat="41.488967" lon="12.8326518"><ele>24.0</ele><time>2026-04-07T10:09:12.305Z</time></trkpt><trkpt lat="41.4888925" lon="12.8326542"><ele>24.0</ele><time>2026-04-07T10:09:13.306Z</time></trkpt><trkpt lat="41.4888122" lon="12.832654"><ele>24.0</ele><time>2026-04-07T10:09:14.305Z</time></trkpt><trkpt lat="41.4887454" lon="12.8326559"><ele>24.0</ele><time>2026-04-07T10:09:15.305Z</time></trkpt><trkpt lat="41.4886119" lon="12.8326628"><ele>24.0</ele><time>2026-04-07T10:09:17.305Z</time></trkpt><trkpt lat="41.4885489" lon="12.8326536"><ele>24.0</ele><time>2026-04-07T10:09:18.305Z</time></trkpt><trkpt lat="41.4884832" lon="12.8326479"><ele>24.0</ele><time>2026-04-07T10:09:19.305Z</time></trkpt><trkpt lat="41.4883583" lon="12.8326564"><ele>24.0</ele><time>2026-04-07T10:09:21.305Z</time></trkpt><trkpt lat="41.4882844" lon="12.8326631"><ele>24.0</ele><time>2026-04-07T10:09:22.305Z</time></trkpt><trkpt lat="41.48821" lon="12.8326793"><ele>24.0</ele><time>2026-04-07T10:09:23.305Z</time></trkpt><trkpt lat="41.4880587" lon="12.8327107"><ele>24.0</ele><time>2026-04-07T10:09:25.305Z</time></trkpt><trkpt lat="41.4879816" lon="12.8327183"><ele>24.0</ele><time>2026-04-07T10:09:26.306Z</time></trkpt><trkpt lat="41.4879104" lon="12.8327287"><ele>24.2</ele><time>2026-04-07T10:09:27.305Z</time></trkpt><trkpt lat="41.4878452" lon="12.8327423"><ele>24.4</ele><time>2026-04-07T10:09:28.305Z</time></trkpt><trkpt lat="41.4877255" lon="12.8327663"><ele>24.6</ele><time>2026-04-07T10:09:30.305Z</time></trkpt><trkpt lat="41.4875957" lon="12.8327917"><ele>24.8</ele><time>2026-04-07T10:09:32.305Z</time></trkpt><trkpt lat="41.4875255" lon="12.8328056"><ele>25.0</ele><time>2026-04-07T10:09:33.305Z</time></trkpt><trkpt lat="41.4873586" lon="12.8328829"><ele>25.0</ele><time>2026-04-07T10:09:36.305Z</time></trkpt><trkpt lat="41.4872302" lon="12.832939"><ele>25.0</ele><time>2026-04-07T10:09:38.305Z</time></trkpt><trkpt lat="41.4871049" lon="12.8329881"><ele>25.0</ele><time>2026-04-07T10:09:40.305Z</time></trkpt><trkpt lat="41.4869766" lon="12.8330257"><ele>25.0</ele><time>2026-04-07T10:09:42.306Z</time></trkpt><trkpt lat="41.4868454" lon="12.8330731"><ele>25.5</ele><time>2026-04-07T10:09:44.305Z</time></trkpt><trkpt lat="41.4867812" lon="12.8331065"><ele>26.0</ele><time>2026-04-07T10:09:45.305Z</time></trkpt><trkpt lat="41.4866204" lon="12.8331891"><ele>26.5</ele><time>2026-04-07T10:09:48.306Z</time></trkpt><trkpt lat="41.4865013" lon="12.8332504"><ele>27.0</ele><time>2026-04-07T10:09:50.305Z</time></trkpt><trkpt lat="41.4863662" lon="12.8333113"><ele>26.8</ele><time>2026-04-07T10:09:52.305Z</time></trkpt><trkpt lat="41.4862397" lon="12.8333729"><ele>26.6</ele><time>2026-04-07T10:09:54.305Z</time></trkpt><trkpt lat="41.4861687" lon="12.8333986"><ele>26.400000000000002</ele><time>2026-04-07T10:09:55.305Z</time></trkpt><trkpt lat="41.4860444" lon="12.8334581"><ele>26.200000000000003</ele><time>2026-04-07T10:09:57.305Z</time></trkpt><trkpt lat="41.4859721" lon="12.8334845"><ele>26.0</ele><time>2026-04-07T10:09:58.305Z</time></trkpt><trkpt lat="41.4859039" lon="12.8335152"><ele>25.999999999999996</ele><time>2026-04-07T10:09:59.305Z</time></trkpt><trkpt lat="41.485845" lon="12.833554"><ele>26.0</ele><time>2026-04-07T10:10:00.305Z</time></trkpt><trkpt lat="41.4857782" lon="12.8335939"><ele>26.0</ele><time>2026-04-07T10:10:01.306Z</time></trkpt><trkpt lat="41.4857169" lon="12.8336396"><ele>26.0</ele><time>2026-04-07T10:10:02.305Z</time></trkpt><trkpt lat="41.4856428" lon="12.8336751"><ele>25.999999999999996</ele><time>2026-04-07T10:10:03.306Z</time></trkpt><trkpt lat="41.4855239" lon="12.8337554"><ele>26.0</ele><time>2026-04-07T10:10:05.305Z</time></trkpt><trkpt lat="41.4854585" lon="12.8337966"><ele>25.6</ele><time>2026-04-07T10:10:06.305Z</time></trkpt><trkpt lat="41.4853382" lon="12.8338899"><ele>25.200000000000003</ele><time>2026-04-07T10:10:08.306Z</time></trkpt><trkpt lat="41.4852719" lon="12.8339407"><ele>24.799999999999997</ele><time>2026-04-07T10:10:09.305Z</time></trkpt><trkpt lat="41.4852101" lon="12.8339803"><ele>24.4</ele><time>2026-04-07T10:10:10.305Z</time></trkpt><trkpt lat="41.4850935" lon="12.8340414"><ele>24.0</ele><time>2026-04-07T10:10:12.306Z</time></trkpt><trkpt lat="41.484937" lon="12.8340905"><ele>24.0</ele><time>2026-04-07T10:10:14.305Z</time></trkpt><trkpt lat="41.4848591" lon="12.8341176"><ele>24.0</ele><time>2026-04-07T10:10:15.305Z</time></trkpt><trkpt lat="41.4847231" lon="12.8341752"><ele>24.0</ele><time>2026-04-07T10:10:17.305Z</time></trkpt><trkpt lat="41.4845943" lon="12.83424"><ele>24.0</ele><time>2026-04-07T10:10:19.305Z</time></trkpt><trkpt lat="41.4844673" lon="12.8343094"><ele>24.333333333333332</ele><time>2026-04-07T10:10:21.305Z</time></trkpt><trkpt lat="41.4843994" lon="12.8343427"><ele>24.666666666666664</ele><time>2026-04-07T10:10:22.305Z</time></trkpt><trkpt lat="41.4842826" lon="12.8344075"><ele>25.0</ele><time>2026-04-07T10:10:24.306Z</time></trkpt><trkpt lat="41.4842234" lon="12.8344379"><ele>25.333333333333332</ele><time>2026-04-07T10:10:25.306Z</time></trkpt><trkpt lat="41.4841533" lon="12.8344714"><ele>25.666666666666664</ele><time>2026-04-07T10:10:26.305Z</time></trkpt><trkpt lat="41.4840926" lon="12.8345054"><ele>26.0</ele><time>2026-04-07T10:10:27.305Z</time></trkpt><trkpt lat="41.4839735" lon="12.8345773"><ele>26.0</ele><time>2026-04-07T10:10:29.305Z</time></trkpt><trkpt lat="41.4838654" lon="12.8346306"><ele>26.0</ele><time>2026-04-07T10:10:31.305Z</time></trkpt><trkpt lat="41.4837613" lon="12.8347079"><ele>26.0</ele><time>2026-04-07T10:10:33.305Z</time></trkpt><trkpt lat="41.4836554" lon="12.8347774"><ele>26.0</ele><time>2026-04-07T10:10:35.305Z</time></trkpt><trkpt lat="41.4835453" lon="12.8348359"><ele>25.0</ele><time>2026-04-07T10:10:37.305Z</time></trkpt><trkpt lat="41.483445" lon="12.8348836"><ele>24.0</ele><time>2026-04-07T10:10:39.305Z</time></trkpt><trkpt lat="41.4833325" lon="12.8349527"><ele>23.0</ele><time>2026-04-07T10:10:41.305Z</time></trkpt><trkpt lat="41.4832278" lon="12.8350092"><ele>22.0</ele><time>2026-04-07T10:10:43.305Z</time></trkpt><trkpt lat="41.4831167" lon="12.8350806"><ele>22.25</ele><time>2026-04-07T10:10:45.305Z</time></trkpt><trkpt lat="41.4830131" lon="12.8351438"><ele>22.5</ele><time>2026-04-07T10:10:47.305Z</time></trkpt><trkpt lat="41.4829009" lon="12.8352041"><ele>22.75</ele><time>2026-04-07T10:10:49.305Z</time></trkpt><trkpt lat="41.4827795" lon="12.8352738"><ele>23.0</ele><time>2026-04-07T10:10:51.305Z</time></trkpt><trkpt lat="41.4826511" lon="12.8353569"><ele>23.2</ele><time>2026-04-07T10:10:53.305Z</time></trkpt><trkpt lat="41.4825841" lon="12.8354034"><ele>23.4</ele><time>2026-04-07T10:10:54.305Z</time></trkpt><trkpt lat="41.4824114" lon="12.8355187"><ele>23.599999999999998</ele><time>2026-04-07T10:10:57.305Z</time></trkpt><trkpt lat="41.4823451" lon="12.8355558"><ele>23.799999999999997</ele><time>2026-04-07T10:10:58.305Z</time></trkpt><trkpt lat="41.4822773" lon="12.8355979"><ele>24.0</ele><time>2026-04-07T10:10:59.305Z</time></trkpt><trkpt lat="41.4821375" lon="12.8356714"><ele>23.25</ele><time>2026-04-07T10:11:01.305Z</time></trkpt><trkpt lat="41.4820576" lon="12.8357107"><ele>22.5</ele><time>2026-04-07T10:11:02.305Z</time></trkpt><trkpt lat="41.4819924" lon="12.8357488"><ele>21.75</ele><time>2026-04-07T10:11:03.306Z</time></trkpt><trkpt lat="41.4818427" lon="12.8358285"><ele>21.0</ele><time>2026-04-07T10:11:05.305Z</time></trkpt><trkpt lat="41.4817128" lon="12.8359153"><ele>21.0</ele><time>2026-04-07T10:11:07.306Z</time></trkpt><trkpt lat="41.481651" lon="12.8359587"><ele>21.0</ele><time>2026-04-07T10:11:08.305Z</time></trkpt><trkpt lat="41.4815521" lon="12.8360263"><ele>21.0</ele><time>2026-04-07T10:11:10.304Z</time></trkpt><trkpt lat="41.4814346" lon="12.8360693"><ele>21.0</ele><time>2026-04-07T10:11:12.305Z</time></trkpt><trkpt lat="41.4813739" lon="12.836092"><ele>21.0</ele><time>2026-04-07T10:11:13.305Z</time></trkpt><trkpt lat="41.4813018" lon="12.8361128"><ele>21.0</ele><time>2026-04-07T10:11:14.305Z</time></trkpt><trkpt lat="41.4811836" lon="12.8361517"><ele>20.8</ele><time>2026-04-07T10:11:16.304Z</time></trkpt><trkpt lat="41.4810704" lon="12.836199"><ele>20.6</ele><time>2026-04-07T10:11:18.306Z</time></trkpt><trkpt lat="41.4810078" lon="12.8362189"><ele>20.4</ele><time>2026-04-07T10:11:19.305Z</time></trkpt><trkpt lat="41.4809446" lon="12.8362345"><ele>20.2</ele><time>2026-04-07T10:11:20.305Z</time></trkpt><trkpt lat="41.4808165" lon="12.8362632"><ele>20.0</ele><time>2026-04-07T10:11:22.304Z</time></trkpt><trkpt lat="41.4806966" lon="12.836302"><ele>20.0</ele><time>2026-04-07T10:11:24.302Z</time></trkpt><trkpt lat="41.4806325" lon="12.836321"><ele>20.0</ele><time>2026-04-07T10:11:25.305Z</time></trkpt><trkpt lat="41.4805677" lon="12.8363361"><ele>20.0</ele><time>2026-04-07T10:11:26.305Z</time></trkpt><trkpt lat="41.4805048" lon="12.8363598"><ele>20.0</ele><time>2026-04-07T10:11:27.305Z</time></trkpt><trkpt lat="41.4803888" lon="12.8363829"><ele>20.0</ele><time>2026-04-07T10:11:29.306Z</time></trkpt><trkpt lat="41.4803179" lon="12.8364009"><ele>20.0</ele><time>2026-04-07T10:11:30.306Z</time></trkpt><trkpt lat="41.4801854" lon="12.8364349"><ele>20.4</ele><time>2026-04-07T10:11:32.305Z</time></trkpt><trkpt lat="41.480062" lon="12.8364558"><ele>20.8</ele><time>2026-04-07T10:11:34.305Z</time></trkpt><trkpt lat="41.4799451" lon="12.8364785"><ele>21.200000000000003</ele><time>2026-04-07T10:11:36.306Z</time></trkpt><trkpt lat="41.4798304" lon="12.8365012"><ele>21.6</ele><time>2026-04-07T10:11:38.305Z</time></trkpt><trkpt lat="41.4797595" lon="12.8365222"><ele>22.0</ele><time>2026-04-07T10:11:39.305Z</time></trkpt><trkpt lat="41.4796969" lon="12.8365373"><ele>22.0</ele><time>2026-04-07T10:11:40.305Z</time></trkpt><trkpt lat="41.4795917" lon="12.8365226"><ele>22.0</ele><time>2026-04-07T10:11:42.305Z</time></trkpt><trkpt lat="41.4794747" lon="12.8364807"><ele>22.0</ele><time>2026-04-07T10:11:44.305Z</time></trkpt><trkpt lat="41.4793646" lon="12.8364425"><ele>22.0</ele><time>2026-04-07T10:11:46.305Z</time></trkpt><trkpt lat="41.4792402" lon="12.8364085"><ele>22.0</ele><time>2026-04-07T10:11:48.305Z</time></trkpt><trkpt lat="41.4791315" lon="12.8363826"><ele>22.0</ele><time>2026-04-07T10:11:50.305Z</time></trkpt><trkpt lat="41.4790148" lon="12.8363699"><ele>22.0</ele><time>2026-04-07T10:11:52.305Z</time></trkpt><trkpt lat="41.4789092" lon="12.8363545"><ele>22.0</ele><time>2026-04-07T10:11:54.305Z</time></trkpt><trkpt lat="41.4788058" lon="12.8363054"><ele>22.0</ele><time>2026-04-07T10:11:56.305Z</time></trkpt><trkpt lat="41.4786924" lon="12.8362753"><ele>21.75</ele><time>2026-04-07T10:11:58.305Z</time></trkpt><trkpt lat="41.4786264" lon="12.8362598"><ele>21.5</ele><time>2026-04-07T10:11:59.305Z</time></trkpt><trkpt lat="41.4784649" lon="12.8362167"><ele>21.25</ele><time>2026-04-07T10:12:02.306Z</time></trkpt><trkpt lat="41.478344" lon="12.8361757"><ele>21.0</ele><time>2026-04-07T10:12:04.305Z</time></trkpt><trkpt lat="41.478224" lon="12.8361379"><ele>21.0</ele><time>2026-04-07T10:12:06.306Z</time></trkpt><trkpt lat="41.4781115" lon="12.836103"><ele>21.0</ele><time>2026-04-07T10:12:08.305Z</time></trkpt><trkpt lat="41.4780039" lon="12.8360642"><ele>21.0</ele><time>2026-04-07T10:12:10.305Z</time></trkpt><trkpt lat="41.4779371" lon="12.8360415"><ele>21.0</ele><time>2026-04-07T10:12:11.305Z</time></trkpt><trkpt lat="41.4778727" lon="12.8360206"><ele>21.0</ele><time>2026-04-07T10:12:12.305Z</time></trkpt><trkpt lat="41.4778128" lon="12.8359945"><ele>21.0</ele><time>2026-04-07T10:12:13.305Z</time></trkpt><trkpt lat="41.4777493" lon="12.8359672"><ele>21.4</ele><time>2026-04-07T10:12:14.306Z</time></trkpt><trkpt lat="41.4776378" lon="12.8359261"><ele>21.8</ele><time>2026-04-07T10:12:16.305Z</time></trkpt><trkpt lat="41.477518" lon="12.8358812"><ele>22.2</ele><time>2026-04-07T10:12:18.305Z</time></trkpt><trkpt lat="41.4774559" lon="12.8358629"><ele>22.599999999999998</ele><time>2026-04-07T10:12:19.305Z</time></trkpt><trkpt lat="41.4773407" lon="12.8358244"><ele>23.0</ele><time>2026-04-07T10:12:21.305Z</time></trkpt><trkpt lat="41.4772781" lon="12.8358008"><ele>23.0</ele><time>2026-04-07T10:12:22.305Z</time></trkpt><trkpt lat="41.4771072" lon="12.8357336"><ele>23.0</ele><time>2026-04-07T10:12:25.306Z</time></trkpt><trkpt lat="41.4769941" lon="12.8356891"><ele>23.0</ele><time>2026-04-07T10:12:27.305Z</time></trkpt><trkpt lat="41.4769304" lon="12.8356748"><ele>23.0</ele><time>2026-04-07T10:12:28.305Z</time></trkpt><trkpt lat="41.4768203" lon="12.8356686"><ele>23.0</ele><time>2026-04-07T10:12:30.305Z</time></trkpt><trkpt lat="41.4767122" lon="12.8356354"><ele>23.0</ele><time>2026-04-07T10:12:32.305Z</time></trkpt><trkpt lat="41.4765979" lon="12.8355759"><ele>23.0</ele><time>2026-04-07T10:12:34.305Z</time></trkpt><trkpt lat="41.4765275" lon="12.8355395"><ele>23.0</ele><time>2026-04-07T10:12:35.305Z</time></trkpt><trkpt lat="41.4764508" lon="12.835518"><ele>23.0</ele><time>2026-04-07T10:12:36.305Z</time></trkpt><trkpt lat="41.476368" lon="12.8354903"><ele>23.0</ele><time>2026-04-07T10:12:37.305Z</time></trkpt><trkpt lat="41.4762757" lon="12.8354565"><ele>23.0</ele><time>2026-04-07T10:12:38.305Z</time></trkpt><trkpt lat="41.4760808" lon="12.8353818"><ele>23.0</ele><time>2026-04-07T10:12:40.305Z</time></trkpt><trkpt lat="41.4759789" lon="12.8353523"><ele>23.0</ele><time>2026-04-07T10:12:41.305Z</time></trkpt><trkpt lat="41.4758762" lon="12.8353144"><ele>22.75</ele><time>2026-04-07T10:12:42.305Z</time></trkpt><trkpt lat="41.4757725" lon="12.8352746"><ele>22.5</ele><time>2026-04-07T10:12:43.305Z</time></trkpt><trkpt lat="41.4756614" lon="12.835235"><ele>22.25</ele><time>2026-04-07T10:12:44.305Z</time></trkpt><trkpt lat="41.4755454" lon="12.8351774"><ele>22.0</ele><time>2026-04-07T10:12:45.305Z</time></trkpt><trkpt lat="41.4754129" lon="12.8351221"><ele>21.75</ele><time>2026-04-07T10:12:46.305Z</time></trkpt><trkpt lat="41.4752904" lon="12.8350672"><ele>21.5</ele><time>2026-04-07T10:12:47.305Z</time></trkpt><trkpt lat="41.4751783" lon="12.8350142"><ele>21.25</ele><time>2026-04-07T10:12:48.306Z</time></trkpt><trkpt lat="41.4750717" lon="12.834953"><ele>21.0</ele><time>2026-04-07T10:12:49.305Z</time></trkpt><trkpt lat="41.4749735" lon="12.8348889"><ele>21.0</ele><time>2026-04-07T10:12:50.305Z</time></trkpt><trkpt lat="41.4748804" lon="12.8348128"><ele>21.0</ele><time>2026-04-07T10:12:51.305Z</time></trkpt><trkpt lat="41.4747986" lon="12.8347394"><ele>21.0</ele><time>2026-04-07T10:12:52.305Z</time></trkpt><trkpt lat="41.47472" lon="12.8346556"><ele>21.0</ele><time>2026-04-07T10:12:53.305Z</time></trkpt><trkpt lat="41.4746488" lon="12.8345664"><ele>21.0</ele><time>2026-04-07T10:12:54.305Z</time></trkpt><trkpt lat="41.4745773" lon="12.8344629"><ele>21.0</ele><time>2026-04-07T10:12:55.305Z</time></trkpt><trkpt lat="41.4745146" lon="12.8343521"><ele>21.0</ele><time>2026-04-07T10:12:56.305Z</time></trkpt><trkpt lat="41.4744589" lon="12.8342404"><ele>21.0</ele><time>2026-04-07T10:12:57.305Z</time></trkpt><trkpt lat="41.4744076" lon="12.8341392"><ele>21.0</ele><time>2026-04-07T10:12:58.305Z</time></trkpt><trkpt lat="41.474372" lon="12.8340159"><ele>21.0</ele><time>2026-04-07T10:12:59.305Z</time></trkpt><trkpt lat="41.4743349" lon="12.8339139"><ele>21.0</ele><time>2026-04-07T10:13:00.306Z</time></trkpt><trkpt lat="41.4743058" lon="12.8338101"><ele>21.0</ele><time>2026-04-07T10:13:01.305Z</time></trkpt><trkpt lat="41.4742727" lon="12.8336956"><ele>21.0</ele><time>2026-04-07T10:13:02.305Z</time></trkpt><trkpt lat="41.4742529" lon="12.8335822"><ele>21.0</ele><time>2026-04-07T10:13:03.306Z</time></trkpt><trkpt lat="41.4742388" lon="12.833466"><ele>21.0</ele><time>2026-04-07T10:13:04.305Z</time></trkpt><trkpt lat="41.4742266" lon="12.8333482"><ele>21.0</ele><time>2026-04-07T10:13:05.305Z</time></trkpt><trkpt lat="41.4742228" lon="12.8332272"><ele>20.571428571428573</ele><time>2026-04-07T10:13:06.306Z</time></trkpt><trkpt lat="41.4742168" lon="12.8331111"><ele>20.142857142857142</ele><time>2026-04-07T10:13:07.305Z</time></trkpt><trkpt lat="41.4742181" lon="12.8330016"><ele>19.714285714285715</ele><time>2026-04-07T10:13:08.305Z</time></trkpt><trkpt lat="41.4742288" lon="12.8329078"><ele>19.285714285714285</ele><time>2026-04-07T10:13:09.305Z</time></trkpt><trkpt lat="41.4742391" lon="12.8328088"><ele>18.857142857142858</ele><time>2026-04-07T10:13:10.305Z</time></trkpt><trkpt lat="41.4742495" lon="12.8327217"><ele>18.42857142857143</ele><time>2026-04-07T10:13:11.305Z</time></trkpt><trkpt lat="41.4742627" lon="12.8326328"><ele>18.0</ele><time>2026-04-07T10:13:12.305Z</time></trkpt><trkpt lat="41.4743249" lon="12.8323919"><ele>18.0</ele><time>2026-04-07T10:13:15.305Z</time></trkpt><trkpt lat="41.4743861" lon="12.8322315"><ele>18.0</ele><time>2026-04-07T10:13:17.305Z</time></trkpt><trkpt lat="41.4744316" lon="12.8320643"><ele>18.0</ele><time>2026-04-07T10:13:19.305Z</time></trkpt><trkpt lat="41.4744617" lon="12.8319829"><ele>18.0</ele><time>2026-04-07T10:13:20.306Z</time></trkpt><trkpt lat="41.4744836" lon="12.831899"><ele>18.0</ele><time>2026-04-07T10:13:21.305Z</time></trkpt><trkpt lat="41.4745161" lon="12.8318083"><ele>18.2</ele><time>2026-04-07T10:13:22.305Z</time></trkpt><trkpt lat="41.4745428" lon="12.8317261"><ele>18.4</ele><time>2026-04-07T10:13:23.305Z</time></trkpt><trkpt lat="41.4745872" lon="12.8315836"><ele>18.599999999999998</ele><time>2026-04-07T10:13:25.305Z</time></trkpt><trkpt lat="41.4746116" lon="12.8315005"><ele>18.8</ele><time>2026-04-07T10:13:26.305Z</time></trkpt><trkpt lat="41.4746568" lon="12.8313493"><ele>19.0</ele><time>2026-04-07T10:13:28.305Z</time></trkpt><trkpt lat="41.4747047" lon="12.8312136"><ele>19.0</ele><time>2026-04-07T10:13:30.306Z</time></trkpt><trkpt lat="41.4747582" lon="12.8310732"><ele>19.0</ele><time>2026-04-07T10:13:32.305Z</time></trkpt><trkpt lat="41.4748027" lon="12.8309321"><ele>19.0</ele><time>2026-04-07T10:13:34.305Z</time></trkpt><trkpt lat="41.474853" lon="12.8308095"><ele>19.0</ele><time>2026-04-07T10:13:36.305Z</time></trkpt><trkpt lat="41.4748884" lon="12.830693"><ele>19.0</ele><time>2026-04-07T10:13:38.305Z</time></trkpt><trkpt lat="41.4749235" lon="12.8305804"><ele>18.857142857142858</ele><time>2026-04-07T10:13:40.305Z</time></trkpt><trkpt lat="41.4749537" lon="12.8304866"><ele>18.714285714285715</ele><time>2026-04-07T10:13:42.305Z</time></trkpt><trkpt lat="41.4749568" lon="12.8303934"><ele>18.571428571428573</ele><time>2026-04-07T10:13:45.305Z</time></trkpt><trkpt lat="41.4749407" lon="12.8303027"><ele>18.42857142857143</ele><time>2026-04-07T10:13:48.305Z</time></trkpt><trkpt lat="41.474937" lon="12.8302128"><ele>18.285714285714285</ele><time>2026-04-07T10:13:50.306Z</time></trkpt><trkpt lat="41.4749502" lon="12.8301264"><ele>18.142857142857146</ele><time>2026-04-07T10:13:51.305Z</time></trkpt><trkpt lat="41.474982" lon="12.8300461"><ele>18.0</ele><time>2026-04-07T10:13:52.306Z</time></trkpt><trkpt lat="41.4750147" lon="12.8299662"><ele>17.833333333333332</ele><time>2026-04-07T10:13:53.305Z</time></trkpt><trkpt lat="41.4750507" lon="12.8298761"><ele>17.666666666666668</ele><time>2026-04-07T10:13:54.305Z</time></trkpt><trkpt lat="41.4750895" lon="12.8297725"><ele>17.5</ele><time>2026-04-07T10:13:55.305Z</time></trkpt><trkpt lat="41.4751301" lon="12.8296701"><ele>17.333333333333336</ele><time>2026-04-07T10:13:56.305Z</time></trkpt><trkpt lat="41.475158" lon="12.8295786"><ele>17.166666666666668</ele><time>2026-04-07T10:13:57.305Z</time></trkpt><trkpt lat="41.4752046" lon="12.8294653"><ele>17.0</ele><time>2026-04-07T10:13:58.305Z</time></trkpt><trkpt lat="41.4752447" lon="12.8293488"><ele>17.2</ele><time>2026-04-07T10:13:59.305Z</time></trkpt><trkpt lat="41.4752947" lon="12.8292159"><ele>17.4</ele><time>2026-04-07T10:14:00.305Z</time></trkpt><trkpt lat="41.4753426" lon="12.8290882"><ele>17.6</ele><time>2026-04-07T10:14:01.305Z</time></trkpt><trkpt lat="41.4753846" lon="12.8289629"><ele>17.8</ele><time>2026-04-07T10:14:02.305Z</time></trkpt><trkpt lat="41.4754306" lon="12.8288369"><ele>18.0</ele><time>2026-04-07T10:14:03.305Z</time></trkpt><trkpt lat="41.4754738" lon="12.8287069"><ele>18.0</ele><time>2026-04-07T10:14:04.305Z</time></trkpt><trkpt lat="41.4755185" lon="12.8285758"><ele>18.0</ele><time>2026-04-07T10:14:05.305Z</time></trkpt><trkpt lat="41.4755653" lon="12.8284444"><ele>18.0</ele><time>2026-04-07T10:14:06.305Z</time></trkpt><trkpt lat="41.4756066" lon="12.8283117"><ele>18.0</ele><time>2026-04-07T10:14:07.305Z</time></trkpt><trkpt lat="41.475647" lon="12.8281772"><ele>18.0</ele><time>2026-04-07T10:14:08.305Z</time></trkpt><trkpt lat="41.4756876" lon="12.8280562"><ele>18.2</ele><time>2026-04-07T10:14:09.305Z</time></trkpt><trkpt lat="41.4757291" lon="12.8279295"><ele>18.4</ele><time>2026-04-07T10:14:10.305Z</time></trkpt><trkpt lat="41.4757689" lon="12.8278013"><ele>18.599999999999998</ele><time>2026-04-07T10:14:11.305Z</time></trkpt><trkpt lat="41.4758104" lon="12.8276721"><ele>18.8</ele><time>2026-04-07T10:14:12.305Z</time></trkpt><trkpt lat="41.4758446" lon="12.8275392"><ele>19.0</ele><time>2026-04-07T10:14:13.306Z</time></trkpt><trkpt lat="41.4758725" lon="12.8274137"><ele>19.0</ele><time>2026-04-07T10:14:14.305Z</time></trkpt><trkpt lat="41.4759052" lon="12.8272854"><ele>19.0</ele><time>2026-04-07T10:14:15.305Z</time></trkpt><trkpt lat="41.475946" lon="12.827164"><ele>19.0</ele><time>2026-04-07T10:14:16.305Z</time></trkpt><trkpt lat="41.4759864" lon="12.8270398"><ele>19.0</ele><time>2026-04-07T10:14:17.305Z</time></trkpt><trkpt lat="41.4760274" lon="12.8269156"><ele>19.0</ele><time>2026-04-07T10:14:18.306Z</time></trkpt><trkpt lat="41.4760686" lon="12.8267836"><ele>19.0</ele><time>2026-04-07T10:14:19.305Z</time></trkpt><trkpt lat="41.4761073" lon="12.8266596"><ele>19.0</ele><time>2026-04-07T10:14:20.305Z</time></trkpt><trkpt lat="41.4761296" lon="12.8265397"><ele>19.0</ele><time>2026-04-07T10:14:21.305Z</time></trkpt><trkpt lat="41.4761506" lon="12.82642"><ele>19.0</ele><time>2026-04-07T10:14:22.306Z</time></trkpt><trkpt lat="41.4761606" lon="12.8262973"><ele>19.0</ele><time>2026-04-07T10:14:23.305Z</time></trkpt><trkpt lat="41.476178" lon="12.8261647"><ele>19.0</ele><time>2026-04-07T10:14:24.305Z</time></trkpt><trkpt lat="41.4761991" lon="12.8260271"><ele>19.0</ele><time>2026-04-07T10:14:25.305Z</time></trkpt><trkpt lat="41.4762096" lon="12.8258973"><ele>19.0</ele><time>2026-04-07T10:14:26.305Z</time></trkpt><trkpt lat="41.4762237" lon="12.8257704"><ele>19.0</ele><time>2026-04-07T10:14:27.305Z</time></trkpt><trkpt lat="41.4762335" lon="12.825641"><ele>19.0</ele><time>2026-04-07T10:14:28.305Z</time></trkpt><trkpt lat="41.4762391" lon="12.8255214"><ele>19.0</ele><time>2026-04-07T10:14:29.305Z</time></trkpt><trkpt lat="41.4762613" lon="12.8253877"><ele>19.0</ele><time>2026-04-07T10:14:30.305Z</time></trkpt><trkpt lat="41.476262" lon="12.825258"><ele>19.0</ele><time>2026-04-07T10:14:31.306Z</time></trkpt><trkpt lat="41.476276" lon="12.8251176"><ele>19.0</ele><time>2026-04-07T10:14:32.305Z</time></trkpt><trkpt lat="41.4762757" lon="12.824993"><ele>19.0</ele><time>2026-04-07T10:14:33.305Z</time></trkpt><trkpt lat="41.4762823" lon="12.8248658"><ele>19.0</ele><time>2026-04-07T10:14:34.304Z</time></trkpt><trkpt lat="41.4762736" lon="12.8247381"><ele>19.0</ele><time>2026-04-07T10:14:35.305Z</time></trkpt><trkpt lat="41.4762635" lon="12.8246033"><ele>19.0</ele><time>2026-04-07T10:14:36.305Z</time></trkpt><trkpt lat="41.4762638" lon="12.8244756"><ele>19.0</ele><time>2026-04-07T10:14:37.305Z</time></trkpt><trkpt lat="41.4762704" lon="12.8243301"><ele>19.0</ele><time>2026-04-07T10:14:38.305Z</time></trkpt><trkpt lat="41.4762761" lon="12.8241896"><ele>18.75</ele><time>2026-04-07T10:14:39.306Z</time></trkpt><trkpt lat="41.4762863" lon="12.8240499"><ele>18.5</ele><time>2026-04-07T10:14:40.305Z</time></trkpt><trkpt lat="41.4762882" lon="12.8239037"><ele>18.25</ele><time>2026-04-07T10:14:41.305Z</time></trkpt><trkpt lat="41.4762933" lon="12.8237505"><ele>18.0</ele><time>2026-04-07T10:14:42.306Z</time></trkpt><trkpt lat="41.4762976" lon="12.8235893"><ele>18.0</ele><time>2026-04-07T10:14:43.305Z</time></trkpt><trkpt lat="41.4763" lon="12.823423"><ele>18.0</ele><time>2026-04-07T10:14:44.306Z</time></trkpt><trkpt lat="41.4762997" lon="12.8232623"><ele>18.0</ele><time>2026-04-07T10:14:45.305Z</time></trkpt><trkpt lat="41.4762874" lon="12.8231065"><ele>18.0</ele><time>2026-04-07T10:14:46.305Z</time></trkpt><trkpt lat="41.4762661" lon="12.8229466"><ele>18.0</ele><time>2026-04-07T10:14:47.305Z</time></trkpt><trkpt lat="41.4762014" lon="12.8226454"><ele>18.0</ele><time>2026-04-07T10:14:49.305Z</time></trkpt><trkpt lat="41.4761576" lon="12.8225028"><ele>18.0</ele><time>2026-04-07T10:14:50.305Z</time></trkpt><trkpt lat="41.4761012" lon="12.8223657"><ele>18.0</ele><time>2026-04-07T10:14:51.305Z</time></trkpt><trkpt lat="41.4760351" lon="12.8222446"><ele>18.0</ele><time>2026-04-07T10:14:52.306Z</time></trkpt><trkpt lat="41.4759665" lon="12.8221285"><ele>18.0</ele><time>2026-04-07T10:14:53.305Z</time></trkpt><trkpt lat="41.4758092" lon="12.8219265"><ele>18.0</ele><time>2026-04-07T10:14:55.305Z</time></trkpt><trkpt lat="41.475722" lon="12.8218427"><ele>18.0</ele><time>2026-04-07T10:14:56.305Z</time></trkpt><trkpt lat="41.4756234" lon="12.8217766"><ele>18.0</ele><time>2026-04-07T10:14:57.305Z</time></trkpt><trkpt lat="41.4755173" lon="12.821716"><ele>18.0</ele><time>2026-04-07T10:14:58.305Z</time></trkpt><trkpt lat="41.4754167" lon="12.8216416"><ele>18.0</ele><time>2026-04-07T10:14:59.305Z</time></trkpt><trkpt lat="41.4753086" lon="12.8215835"><ele>18.0</ele><time>2026-04-07T10:15:00.305Z</time></trkpt><trkpt lat="41.475194" lon="12.8215449"><ele>18.0</ele><time>2026-04-07T10:15:01.305Z</time></trkpt><trkpt lat="41.4750602" lon="12.8215278"><ele>18.0</ele><time>2026-04-07T10:15:02.306Z</time></trkpt><trkpt lat="41.4749331" lon="12.8215143"><ele>18.0</ele><time>2026-04-07T10:15:03.305Z</time></trkpt><trkpt lat="41.4747999" lon="12.8215157"><ele>18.0</ele><time>2026-04-07T10:15:04.305Z</time></trkpt><trkpt lat="41.4746637" lon="12.8215246"><ele>18.0</ele><time>2026-04-07T10:15:05.305Z</time></trkpt><trkpt lat="41.4745204" lon="12.8215427"><ele>18.0</ele><time>2026-04-07T10:15:06.305Z</time></trkpt><trkpt lat="41.474369" lon="12.8215559"><ele>18.0</ele><time>2026-04-07T10:15:07.305Z</time></trkpt><trkpt lat="41.4742259" lon="12.8215688"><ele>17.666666666666668</ele><time>2026-04-07T10:15:08.305Z</time></trkpt><trkpt lat="41.4740763" lon="12.8215823"><ele>17.333333333333336</ele><time>2026-04-07T10:15:09.306Z</time></trkpt><trkpt lat="41.4739266" lon="12.8215929"><ele>17.0</ele><time>2026-04-07T10:15:10.305Z</time></trkpt><trkpt lat="41.4737665" lon="12.8216038"><ele>17.0</ele><time>2026-04-07T10:15:11.305Z</time></trkpt><trkpt lat="41.4735911" lon="12.8216252"><ele>17.0</ele><time>2026-04-07T10:15:12.305Z</time></trkpt><trkpt lat="41.4734331" lon="12.821642"><ele>17.0</ele><time>2026-04-07T10:15:13.305Z</time></trkpt><trkpt lat="41.4732821" lon="12.8216579"><ele>17.0</ele><time>2026-04-07T10:15:14.305Z</time></trkpt><trkpt lat="41.4731393" lon="12.8216675"><ele>17.0</ele><time>2026-04-07T10:15:15.305Z</time></trkpt><trkpt lat="41.4730049" lon="12.8216721"><ele>17.0</ele><time>2026-04-07T10:15:16.305Z</time></trkpt><trkpt lat="41.4728774" lon="12.8216826"><ele>17.0</ele><time>2026-04-07T10:15:17.305Z</time></trkpt><trkpt lat="41.4727479" lon="12.8216872"><ele>16.75</ele><time>2026-04-07T10:15:18.305Z</time></trkpt><trkpt lat="41.4726286" lon="12.8216983"><ele>16.5</ele><time>2026-04-07T10:15:19.305Z</time></trkpt><trkpt lat="41.4725125" lon="12.8217097"><ele>16.25</ele><time>2026-04-07T10:15:20.305Z</time></trkpt><trkpt lat="41.4723892" lon="12.8217213"><ele>16.0</ele><time>2026-04-07T10:15:21.306Z</time></trkpt><trkpt lat="41.472283" lon="12.8217169"><ele>16.0</ele><time>2026-04-07T10:15:22.306Z</time></trkpt><trkpt lat="41.472182" lon="12.8216997"><ele>16.0</ele><time>2026-04-07T10:15:23.305Z</time></trkpt><trkpt lat="41.4720831" lon="12.8216697"><ele>16.0</ele><time>2026-04-07T10:15:24.306Z</time></trkpt><trkpt lat="41.471898" lon="12.8215929"><ele>16.0</ele><time>2026-04-07T10:15:26.306Z</time></trkpt><trkpt lat="41.4718143" lon="12.8215398"><ele>16.2</ele><time>2026-04-07T10:15:27.305Z</time></trkpt><trkpt lat="41.4717283" lon="12.821466"><ele>16.400000000000002</ele><time>2026-04-07T10:15:28.305Z</time></trkpt><trkpt lat="41.4716479" lon="12.8213944"><ele>16.6</ele><time>2026-04-07T10:15:29.305Z</time></trkpt><trkpt lat="41.4715728" lon="12.8213161"><ele>16.8</ele><time>2026-04-07T10:15:30.305Z</time></trkpt><trkpt lat="41.471501" lon="12.8212356"><ele>17.0</ele><time>2026-04-07T10:15:31.305Z</time></trkpt><trkpt lat="41.4714325" lon="12.8211525"><ele>17.0</ele><time>2026-04-07T10:15:32.306Z</time></trkpt><trkpt lat="41.4713649" lon="12.8210695"><ele>17.0</ele><time>2026-04-07T10:15:33.306Z</time></trkpt><trkpt lat="41.4712963" lon="12.820992"><ele>17.0</ele><time>2026-04-07T10:15:34.305Z</time></trkpt><trkpt lat="41.4712328" lon="12.82092"><ele>17.0</ele><time>2026-04-07T10:15:35.305Z</time></trkpt><trkpt lat="41.4711836" lon="12.82084"><ele>17.0</ele><time>2026-04-07T10:15:36.306Z</time></trkpt><trkpt lat="41.4711508" lon="12.8207568"><ele>17.0</ele><time>2026-04-07T10:15:37.305Z</time></trkpt><trkpt lat="41.4711218" lon="12.8206578"><ele>17.0</ele><time>2026-04-07T10:15:38.306Z</time></trkpt><trkpt lat="41.4710938" lon="12.8205808"><ele>17.0</ele><time>2026-04-07T10:15:39.305Z</time></trkpt><trkpt lat="41.4710446" lon="12.8204154"><ele>17.0</ele><time>2026-04-07T10:15:41.305Z</time></trkpt><trkpt lat="41.4710201" lon="12.8203192"><ele>17.0</ele><time>2026-04-07T10:15:42.305Z</time></trkpt><trkpt lat="41.470988" lon="12.8202336"><ele>17.0</ele><time>2026-04-07T10:15:43.305Z</time></trkpt><trkpt lat="41.470961" lon="12.8201355"><ele>17.0</ele><time>2026-04-07T10:15:44.305Z</time></trkpt><trkpt lat="41.4709265" lon="12.8200267"><ele>17.0</ele><time>2026-04-07T10:15:45.305Z</time></trkpt><trkpt lat="41.4708668" lon="12.8198771"><ele>17.0</ele><time>2026-04-07T10:15:47.306Z</time></trkpt><trkpt lat="41.4708442" lon="12.8197688"><ele>17.0</ele><time>2026-04-07T10:15:48.305Z</time></trkpt><trkpt lat="41.4708046" lon="12.8196956"><ele>17.0</ele><time>2026-04-07T10:15:49.306Z</time></trkpt><trkpt lat="41.4707598" lon="12.8196124"><ele>17.0</ele><time>2026-04-07T10:15:50.305Z</time></trkpt><trkpt lat="41.470725" lon="12.8195202"><ele>17.0</ele><time>2026-04-07T10:15:51.305Z</time></trkpt><trkpt lat="41.4706839" lon="12.8194124"><ele>16.833333333333336</ele><time>2026-04-07T10:15:52.305Z</time></trkpt><trkpt lat="41.4706568" lon="12.8193118"><ele>16.666666666666668</ele><time>2026-04-07T10:15:53.306Z</time></trkpt><trkpt lat="41.470624" lon="12.8192056"><ele>16.5</ele><time>2026-04-07T10:15:54.306Z</time></trkpt><trkpt lat="41.4705873" lon="12.8190962"><ele>16.333333333333332</ele><time>2026-04-07T10:15:55.306Z</time></trkpt><trkpt lat="41.4705551" lon="12.8189983"><ele>16.166666666666664</ele><time>2026-04-07T10:15:56.305Z</time></trkpt><trkpt lat="41.4705257" lon="12.8189195"><ele>16.0</ele><time>2026-04-07T10:15:57.306Z</time></trkpt><trkpt lat="41.4704583" lon="12.8188336"><ele>16.8</ele><time>2026-04-07T10:15:59.305Z</time></trkpt><trkpt lat="41.4703546" lon="12.8188853"><ele>17.6</ele><time>2026-04-07T10:16:01.305Z</time></trkpt><trkpt lat="41.4702762" lon="12.8188974"><ele>18.4</ele><time>2026-04-07T10:16:03.306Z</time></trkpt><trkpt lat="41.4702618" lon="12.8188085"><ele>19.2</ele><time>2026-04-07T10:16:05.306Z</time></trkpt><trkpt lat="41.4703163" lon="12.8186596"><ele>20.0</ele><time>2026-04-07T10:16:07.305Z</time></trkpt><trkpt lat="41.4703698" lon="12.8185697"><ele>19.6</ele><time>2026-04-07T10:16:08.305Z</time></trkpt><trkpt lat="41.4704226" lon="12.8184513"><ele>19.2</ele><time>2026-04-07T10:16:10.305Z</time></trkpt><trkpt lat="41.4703864" lon="12.8183793"><ele>18.8</ele><time>2026-04-07T10:16:11.305Z</time></trkpt><trkpt lat="41.4703282" lon="12.8182175"><ele>18.4</ele><time>2026-04-07T10:16:13.306Z</time></trkpt><trkpt lat="41.4702874" lon="12.8181155"><ele>18.0</ele><time>2026-04-07T10:16:14.305Z</time></trkpt><trkpt lat="41.4702511" lon="12.8179917"><ele>18.0</ele><time>2026-04-07T10:16:15.306Z</time></trkpt><trkpt lat="41.4702132" lon="12.8178649"><ele>18.0</ele><time>2026-04-07T10:16:16.305Z</time></trkpt><trkpt lat="41.4701672" lon="12.8177381"><ele>18.0</ele><time>2026-04-07T10:16:17.306Z</time></trkpt><trkpt lat="41.4701126" lon="12.8176289"><ele>18.0</ele><time>2026-04-07T10:16:18.305Z</time></trkpt><trkpt lat="41.4700698" lon="12.817518"><ele>18.0</ele><time>2026-04-07T10:16:19.305Z</time></trkpt><trkpt lat="41.4700281" lon="12.817404"><ele>17.6</ele><time>2026-04-07T10:16:20.305Z</time></trkpt><trkpt lat="41.4699965" lon="12.817287"><ele>17.200000000000003</ele><time>2026-04-07T10:16:21.305Z</time></trkpt><trkpt lat="41.4699632" lon="12.8171705"><ele>16.8</ele><time>2026-04-07T10:16:22.305Z</time></trkpt><trkpt lat="41.4699267" lon="12.8170578"><ele>16.400000000000002</ele><time>2026-04-07T10:16:23.305Z</time></trkpt><trkpt lat="41.4698881" lon="12.8169357"><ele>16.0</ele><time>2026-04-07T10:16:24.305Z</time></trkpt><trkpt lat="41.4698503" lon="12.8168153"><ele>15.600000000000001</ele><time>2026-04-07T10:16:25.305Z</time></trkpt><trkpt lat="41.4698113" lon="12.8166988"><ele>15.200000000000001</ele><time>2026-04-07T10:16:26.306Z</time></trkpt><trkpt lat="41.469768" lon="12.8165799"><ele>14.799999999999999</ele><time>2026-04-07T10:16:27.306Z</time></trkpt><trkpt lat="41.4697264" lon="12.8164704"><ele>14.399999999999999</ele><time>2026-04-07T10:16:28.305Z</time></trkpt><trkpt lat="41.4696771" lon="12.8163696"><ele>14.0</ele><time>2026-04-07T10:16:29.305Z</time></trkpt><trkpt lat="41.4696427" lon="12.8162713"><ele>14.500000000000002</ele><time>2026-04-07T10:16:30.305Z</time></trkpt><trkpt lat="41.4696029" lon="12.816156"><ele>15.0</ele><time>2026-04-07T10:16:31.305Z</time></trkpt><trkpt lat="41.4695707" lon="12.8160524"><ele>15.5</ele><time>2026-04-07T10:16:32.305Z</time></trkpt><trkpt lat="41.469539" lon="12.815947"><ele>16.0</ele><time>2026-04-07T10:16:33.306Z</time></trkpt><trkpt lat="41.469511" lon="12.8158493"><ele>16.5</ele><time>2026-04-07T10:16:34.305Z</time></trkpt><trkpt lat="41.4694812" lon="12.8157397"><ele>17.0</ele><time>2026-04-07T10:16:35.306Z</time></trkpt><trkpt lat="41.4694425" lon="12.8156457"><ele>17.0</ele><time>2026-04-07T10:16:36.305Z</time></trkpt><trkpt lat="41.4694136" lon="12.8155559"><ele>17.0</ele><time>2026-04-07T10:16:37.305Z</time></trkpt><trkpt lat="41.4693653" lon="12.815463"><ele>17.0</ele><time>2026-04-07T10:16:38.305Z</time></trkpt><trkpt lat="41.4693225" lon="12.8153585"><ele>17.0</ele><time>2026-04-07T10:16:39.306Z</time></trkpt><trkpt lat="41.4692888" lon="12.8152315"><ele>17.0</ele><time>2026-04-07T10:16:40.305Z</time></trkpt><trkpt lat="41.4692477" lon="12.8151265"><ele>17.0</ele><time>2026-04-07T10:16:41.305Z</time></trkpt><trkpt lat="41.4692093" lon="12.8150212"><ele>16.6</ele><time>2026-04-07T10:16:42.305Z</time></trkpt><trkpt lat="41.4691755" lon="12.8149028"><ele>16.2</ele><time>2026-04-07T10:16:43.305Z</time></trkpt><trkpt lat="41.4691326" lon="12.8147881"><ele>15.8</ele><time>2026-04-07T10:16:44.305Z</time></trkpt><trkpt lat="41.4690943" lon="12.8146739"><ele>15.4</ele><time>2026-04-07T10:16:45.305Z</time></trkpt><trkpt lat="41.4690471" lon="12.8145722"><ele>15.0</ele><time>2026-04-07T10:16:46.305Z</time></trkpt><trkpt lat="41.4690122" lon="12.8144819"><ele>15.0</ele><time>2026-04-07T10:16:47.305Z</time></trkpt><trkpt lat="41.4689781" lon="12.8143622"><ele>15.0</ele><time>2026-04-07T10:16:48.305Z</time></trkpt><trkpt lat="41.468946" lon="12.8142567"><ele>15.0</ele><time>2026-04-07T10:16:49.305Z</time></trkpt><trkpt lat="41.4689127" lon="12.8141315"><ele>15.0</ele><time>2026-04-07T10:16:50.305Z</time></trkpt><trkpt lat="41.4688867" lon="12.8140177"><ele>15.0</ele><time>2026-04-07T10:16:51.305Z</time></trkpt><trkpt lat="41.4688562" lon="12.813916"><ele>15.0</ele><time>2026-04-07T10:16:52.305Z</time></trkpt><trkpt lat="41.4688186" lon="12.8138157"><ele>15.0</ele><time>2026-04-07T10:16:53.306Z</time></trkpt><trkpt lat="41.4687845" lon="12.8137161"><ele>15.0</ele><time>2026-04-07T10:16:54.306Z</time></trkpt><trkpt lat="41.4687395" lon="12.8136038"><ele>15.0</ele><time>2026-04-07T10:16:55.306Z</time></trkpt><trkpt lat="41.4686924" lon="12.8135074"><ele>15.0</ele><time>2026-04-07T10:16:56.305Z</time></trkpt><trkpt lat="41.4686468" lon="12.8134207"><ele>15.0</ele><time>2026-04-07T10:16:57.305Z</time></trkpt><trkpt lat="41.4685964" lon="12.8133336"><ele>15.0</ele><time>2026-04-07T10:16:58.305Z</time></trkpt><trkpt lat="41.46854" lon="12.8132576"><ele>15.0</ele><time>2026-04-07T10:16:59.305Z</time></trkpt><trkpt lat="41.468486" lon="12.813181"><ele>15.0</ele><time>2026-04-07T10:17:00.305Z</time></trkpt><trkpt lat="41.4684182" lon="12.8131217"><ele>15.0</ele><time>2026-04-07T10:17:01.305Z</time></trkpt><trkpt lat="41.4683601" lon="12.8130713"><ele>15.0</ele><time>2026-04-07T10:17:02.305Z</time></trkpt><trkpt lat="41.4682583" lon="12.8130349"><ele>15.0</ele><time>2026-04-07T10:17:04.305Z</time></trkpt><trkpt lat="41.4681917" lon="12.8130748"><ele>15.0</ele><time>2026-04-07T10:17:06.305Z</time></trkpt><trkpt lat="41.4681533" lon="12.8132053"><ele>15.0</ele><time>2026-04-07T10:17:08.305Z</time></trkpt><trkpt lat="41.468095" lon="12.8132924"><ele>15.0</ele><time>2026-04-07T10:17:10.305Z</time></trkpt><trkpt lat="41.4680345" lon="12.8133291"><ele>15.0</ele><time>2026-04-07T10:17:11.305Z</time></trkpt><trkpt lat="41.4679599" lon="12.8133292"><ele>15.0</ele><time>2026-04-07T10:17:12.305Z</time></trkpt><trkpt lat="41.4678853" lon="12.8133455"><ele>15.0</ele><time>2026-04-07T10:17:13.306Z</time></trkpt><trkpt lat="41.4678028" lon="12.8133527"><ele>15.2</ele><time>2026-04-07T10:17:14.306Z</time></trkpt><trkpt lat="41.4677205" lon="12.8133619"><ele>15.4</ele><time>2026-04-07T10:17:15.305Z</time></trkpt><trkpt lat="41.4676282" lon="12.813374"><ele>15.600000000000001</ele><time>2026-04-07T10:17:16.305Z</time></trkpt><trkpt lat="41.4675188" lon="12.8133791"><ele>15.8</ele><time>2026-04-07T10:17:17.305Z</time></trkpt><trkpt lat="41.4674342" lon="12.8133871"><ele>16.0</ele><time>2026-04-07T10:17:18.305Z</time></trkpt><trkpt lat="41.4673405" lon="12.8133934"><ele>15.999999999999998</ele><time>2026-04-07T10:17:19.305Z</time></trkpt><trkpt lat="41.4672766" lon="12.813399"><ele>16.0</ele><time>2026-04-07T10:17:20.305Z</time></trkpt><trkpt lat="41.4671968" lon="12.8134074"><ele>16.0</ele><time>2026-04-07T10:17:21.305Z</time></trkpt><trkpt lat="41.4671336" lon="12.8134122"><ele>16.0</ele><time>2026-04-07T10:17:22.306Z</time></trkpt><trkpt lat="41.4670254" lon="12.8134038"><ele>15.999999999999998</ele><time>2026-04-07T10:17:24.305Z</time></trkpt><trkpt lat="41.4669172" lon="12.813325"><ele>16.0</ele><time>2026-04-07T10:17:26.305Z</time></trkpt><trkpt lat="41.4668454" lon="12.8132952"><ele>16.0</ele><time>2026-04-07T10:17:27.305Z</time></trkpt><trkpt lat="41.4667477" lon="12.8133149"><ele>16.0</ele><time>2026-04-07T10:17:28.305Z</time></trkpt><trkpt lat="41.4666276" lon="12.8133198"><ele>16.0</ele><time>2026-04-07T10:17:29.305Z</time></trkpt><trkpt lat="41.4664363" lon="12.8132999"><ele>16.0</ele><time>2026-04-07T10:17:30.305Z</time></trkpt><trkpt lat="41.4662661" lon="12.8132744"><ele>15.5</ele><time>2026-04-07T10:17:31.305Z</time></trkpt><trkpt lat="41.4661189" lon="12.8132272"><ele>15.0</ele><time>2026-04-07T10:17:32.305Z</time></trkpt><trkpt lat="41.4658096" lon="12.8130776"><ele>15.0</ele><time>2026-04-07T10:17:34.305Z</time></trkpt><trkpt lat="41.4656736" lon="12.8129812"><ele>15.0</ele><time>2026-04-07T10:17:35.305Z</time></trkpt><trkpt lat="41.4655241" lon="12.8128907"><ele>15.0</ele><time>2026-04-07T10:17:36.305Z</time></trkpt><trkpt lat="41.4653996" lon="12.8127807"><ele>15.0</ele><time>2026-04-07T10:17:37.306Z</time></trkpt><trkpt lat="41.465279" lon="12.812664"><ele>15.0</ele><time>2026-04-07T10:17:38.305Z</time></trkpt><trkpt lat="41.4651689" lon="12.8125431"><ele>15.0</ele><time>2026-04-07T10:17:39.305Z</time></trkpt><trkpt lat="41.4650463" lon="12.8123811"><ele>14.666666666666668</ele><time>2026-04-07T10:17:40.306Z</time></trkpt><trkpt lat="41.4649381" lon="12.8122352"><ele>14.333333333333334</ele><time>2026-04-07T10:17:41.305Z</time></trkpt><trkpt lat="41.4647948" lon="12.8121277"><ele>14.0</ele><time>2026-04-07T10:17:42.305Z</time></trkpt><trkpt lat="41.4646833" lon="12.8120143"><ele>14.0</ele><time>2026-04-07T10:17:43.305Z</time></trkpt><trkpt lat="41.4645945" lon="12.8119208"><ele>13.999999999999998</ele><time>2026-04-07T10:17:44.305Z</time></trkpt><trkpt lat="41.4645215" lon="12.8118267"><ele>13.999999999999998</ele><time>2026-04-07T10:17:45.305Z</time></trkpt><trkpt lat="41.4644665" lon="12.8117417"><ele>14.0</ele><time>2026-04-07T10:17:46.305Z</time></trkpt><trkpt lat="41.4644197" lon="12.8116539"><ele>14.0</ele><time>2026-04-07T10:17:47.305Z</time></trkpt><trkpt lat="41.464376" lon="12.8115565"><ele>14.0</ele><time>2026-04-07T10:17:48.306Z</time></trkpt><trkpt lat="41.4642413" lon="12.8115215"><ele>13.999999999999998</ele><time>2026-04-07T10:17:50.305Z</time></trkpt><trkpt lat="41.4641543" lon="12.8115025"><ele>13.999999999999998</ele><time>2026-04-07T10:17:51.305Z</time></trkpt><trkpt lat="41.4640694" lon="12.8114717"><ele>14.0</ele><time>2026-04-07T10:17:52.305Z</time></trkpt><trkpt lat="41.4639856" lon="12.8114615"><ele>14.0</ele><time>2026-04-07T10:17:53.305Z</time></trkpt><trkpt lat="41.4639128" lon="12.8114618"><ele>14.0</ele><time>2026-04-07T10:17:54.305Z</time></trkpt><trkpt lat="41.4637818" lon="12.8114606"><ele>13.999999999999998</ele><time>2026-04-07T10:17:56.306Z</time></trkpt><trkpt lat="41.4636987" lon="12.8114614"><ele>13.999999999999998</ele><time>2026-04-07T10:17:57.306Z</time></trkpt><trkpt lat="41.4636222" lon="12.8114662"><ele>14.0</ele><time>2026-04-07T10:17:58.305Z</time></trkpt><trkpt lat="41.4635543" lon="12.8114794"><ele>14.0</ele><time>2026-04-07T10:17:59.305Z</time></trkpt><trkpt lat="41.4634298" lon="12.8114951"><ele>14.2</ele><time>2026-04-07T10:18:01.306Z</time></trkpt><trkpt lat="41.4633145" lon="12.8115187"><ele>14.399999999999999</ele><time>2026-04-07T10:18:03.305Z</time></trkpt><trkpt lat="41.4632373" lon="12.8115577"><ele>14.6</ele><time>2026-04-07T10:18:05.305Z</time></trkpt><trkpt lat="41.4631291" lon="12.8115433"><ele>14.8</ele><time>2026-04-07T10:18:17.305Z</time></trkpt><trkpt lat="41.4631074" lon="12.8113883"><ele>15.0</ele><time>2026-04-07T10:18:19.305Z</time></trkpt><trkpt lat="41.4631054" lon="12.8112138"><ele>15.0</ele><time>2026-04-07T10:18:21.305Z</time></trkpt><trkpt lat="41.4631043" lon="12.8111001"><ele>15.0</ele><time>2026-04-07T10:18:22.305Z</time></trkpt><trkpt lat="41.4631033" lon="12.8109938"><ele>15.0</ele><time>2026-04-07T10:18:23.305Z</time></trkpt><trkpt lat="41.4630968" lon="12.810895"><ele>15.0</ele><time>2026-04-07T10:18:24.305Z</time></trkpt><trkpt lat="41.4630904" lon="12.8107243"><ele>15.0</ele><time>2026-04-07T10:18:26.306Z</time></trkpt><trkpt lat="41.4630819" lon="12.8105923"><ele>14.75</ele><time>2026-04-07T10:18:28.306Z</time></trkpt><trkpt lat="41.4629673" lon="12.8105914"><ele>14.5</ele><time>2026-04-07T10:18:32.305Z</time></trkpt><trkpt lat="41.4628452" lon="12.8106458"><ele>14.25</ele><time>2026-04-07T10:18:34.305Z</time></trkpt><trkpt lat="41.4627663" lon="12.8106584"><ele>14.0</ele><time>2026-04-07T10:18:35.306Z</time></trkpt><trkpt lat="41.4626268" lon="12.8107039"><ele>14.333333333333334</ele><time>2026-04-07T10:18:37.305Z</time></trkpt><trkpt lat="41.4625469" lon="12.8107112"><ele>14.666666666666668</ele><time>2026-04-07T10:18:38.306Z</time></trkpt><trkpt lat="41.4624823" lon="12.8107237"><ele>15.0</ele><time>2026-04-07T10:18:39.305Z</time></trkpt><trkpt lat="41.4624143" lon="12.8107408"><ele>15.333333333333332</ele><time>2026-04-07T10:18:40.305Z</time></trkpt><trkpt lat="41.4623483" lon="12.8107511"><ele>15.666666666666666</ele><time>2026-04-07T10:18:41.305Z</time></trkpt><trkpt lat="41.4622225" lon="12.8107673"><ele>16.0</ele><time>2026-04-07T10:18:43.305Z</time></trkpt><trkpt lat="41.4621573" lon="12.8107849"><ele>16.2</ele><time>2026-04-07T10:18:44.305Z</time></trkpt><trkpt lat="41.4620889" lon="12.8108212"><ele>16.400000000000002</ele><time>2026-04-07T10:18:45.305Z</time></trkpt><trkpt lat="41.4619931" lon="12.8108625"><ele>16.6</ele><time>2026-04-07T10:18:46.305Z</time></trkpt><trkpt lat="41.4618992" lon="12.8109072"><ele>16.8</ele><time>2026-04-07T10:18:47.305Z</time></trkpt><trkpt lat="41.4617844" lon="12.8109504"><ele>17.0</ele><time>2026-04-07T10:18:48.305Z</time></trkpt><trkpt lat="41.4616757" lon="12.8109871"><ele>16.2</ele><time>2026-04-07T10:18:49.306Z</time></trkpt><trkpt lat="41.4615698" lon="12.81103"><ele>15.399999999999999</ele><time>2026-04-07T10:18:50.306Z</time></trkpt><trkpt lat="41.4614667" lon="12.8110615"><ele>14.600000000000001</ele><time>2026-04-07T10:18:51.305Z</time></trkpt><trkpt lat="41.4613755" lon="12.811105"><ele>13.8</ele><time>2026-04-07T10:18:52.305Z</time></trkpt><trkpt lat="41.4612912" lon="12.8111539"><ele>13.0</ele><time>2026-04-07T10:18:53.305Z</time></trkpt><trkpt lat="41.4612283" lon="12.8111956"><ele>12.999999999999998</ele><time>2026-04-07T10:18:54.305Z</time></trkpt><trkpt lat="41.4611561" lon="12.8112433"><ele>13.0</ele><time>2026-04-07T10:18:55.305Z</time></trkpt><trkpt lat="41.4610787" lon="12.8112915"><ele>13.0</ele><time>2026-04-07T10:18:56.305Z</time></trkpt><trkpt lat="41.4610094" lon="12.8113348"><ele>13.0</ele><time>2026-04-07T10:18:57.305Z</time></trkpt><trkpt lat="41.4609503" lon="12.8113783"><ele>12.999999999999998</ele><time>2026-04-07T10:18:58.305Z</time></trkpt><trkpt lat="41.4608928" lon="12.8114274"><ele>13.0</ele><time>2026-04-07T10:18:59.305Z</time></trkpt><trkpt lat="41.4607785" lon="12.8114782"><ele>13.0</ele><time>2026-04-07T10:19:01.305Z</time></trkpt><trkpt lat="41.4606855" lon="12.8114526"><ele>13.0</ele><time>2026-04-07T10:19:03.305Z</time></trkpt><trkpt lat="41.4605305" lon="12.8115168"><ele>13.0</ele><time>2026-04-07T10:19:06.305Z</time></trkpt><trkpt lat="41.4604734" lon="12.8115692"><ele>13.0</ele><time>2026-04-07T10:19:07.305Z</time></trkpt><trkpt lat="41.4604042" lon="12.811627"><ele>13.0</ele><time>2026-04-07T10:19:08.305Z</time></trkpt><trkpt lat="41.4603324" lon="12.8116883"><ele>12.8</ele><time>2026-04-07T10:19:09.305Z</time></trkpt><trkpt lat="41.4602462" lon="12.8117406"><ele>12.600000000000001</ele><time>2026-04-07T10:19:10.305Z</time></trkpt><trkpt lat="41.460104" lon="12.8118597"><ele>12.399999999999999</ele><time>2026-04-07T10:19:12.306Z</time></trkpt><trkpt lat="41.4600457" lon="12.8119264"><ele>12.2</ele><time>2026-04-07T10:19:13.306Z</time></trkpt><trkpt lat="41.4599789" lon="12.8120018"><ele>12.0</ele><time>2026-04-07T10:19:14.305Z</time></trkpt><trkpt lat="41.4599118" lon="12.8120749"><ele>12.0</ele><time>2026-04-07T10:19:15.305Z</time></trkpt><trkpt lat="41.4597488" lon="12.8122037"><ele>12.0</ele><time>2026-04-07T10:19:17.305Z</time></trkpt><trkpt lat="41.4596654" lon="12.8122735"><ele>12.0</ele><time>2026-04-07T10:19:18.305Z</time></trkpt><trkpt lat="41.4595783" lon="12.8123419"><ele>12.0</ele><time>2026-04-07T10:19:19.305Z</time></trkpt><trkpt lat="41.4594863" lon="12.8124121"><ele>11.8</ele><time>2026-04-07T10:19:20.306Z</time></trkpt><trkpt lat="41.4594008" lon="12.8124926"><ele>11.6</ele><time>2026-04-07T10:19:21.305Z</time></trkpt><trkpt lat="41.4592968" lon="12.8125687"><ele>11.4</ele><time>2026-04-07T10:19:22.305Z</time></trkpt><trkpt lat="41.4592045" lon="12.8126433"><ele>11.200000000000001</ele><time>2026-04-07T10:19:23.306Z</time></trkpt><trkpt lat="41.4591043" lon="12.8127219"><ele>11.0</ele><time>2026-04-07T10:19:24.305Z</time></trkpt><trkpt lat="41.4590078" lon="12.8128058"><ele>11.0</ele><time>2026-04-07T10:19:25.305Z</time></trkpt><trkpt lat="41.4589202" lon="12.8128826"><ele>11.0</ele><time>2026-04-07T10:19:26.305Z</time></trkpt><trkpt lat="41.4588209" lon="12.8129492"><ele>11.0</ele><time>2026-04-07T10:19:27.305Z</time></trkpt><trkpt lat="41.4587232" lon="12.8130274"><ele>11.0</ele><time>2026-04-07T10:19:28.305Z</time></trkpt><trkpt lat="41.458627" lon="12.8131035"><ele>11.0</ele><time>2026-04-07T10:19:29.305Z</time></trkpt><trkpt lat="41.4585322" lon="12.8131789"><ele>11.0</ele><time>2026-04-07T10:19:30.305Z</time></trkpt><trkpt lat="41.4584533" lon="12.8132559"><ele>11.0</ele><time>2026-04-07T10:19:31.305Z</time></trkpt><trkpt lat="41.4583589" lon="12.8133296"><ele>11.0</ele><time>2026-04-07T10:19:32.306Z</time></trkpt><trkpt lat="41.4582708" lon="12.8133961"><ele>11.0</ele><time>2026-04-07T10:19:33.305Z</time></trkpt><trkpt lat="41.4580671" lon="12.8135483"><ele>11.0</ele><time>2026-04-07T10:19:35.305Z</time></trkpt><trkpt lat="41.4579931" lon="12.8136196"><ele>11.0</ele><time>2026-04-07T10:19:36.306Z</time></trkpt><trkpt lat="41.457908" lon="12.8136856"><ele>11.0</ele><time>2026-04-07T10:19:37.305Z</time></trkpt><trkpt lat="41.4578192" lon="12.813757"><ele>11.0</ele><time>2026-04-07T10:19:38.305Z</time></trkpt><trkpt lat="41.4577394" lon="12.8138222"><ele>11.0</ele><time>2026-04-07T10:19:39.305Z</time></trkpt><trkpt lat="41.4576412" lon="12.8139035"><ele>11.600000000000001</ele><time>2026-04-07T10:19:40.306Z</time></trkpt><trkpt lat="41.4575507" lon="12.8139842"><ele>12.2</ele><time>2026-04-07T10:19:41.306Z</time></trkpt><trkpt lat="41.4574622" lon="12.8140491"><ele>12.799999999999999</ele><time>2026-04-07T10:19:42.305Z</time></trkpt><trkpt lat="41.4573684" lon="12.8141207"><ele>13.399999999999999</ele><time>2026-04-07T10:19:43.305Z</time></trkpt><trkpt lat="41.457282" lon="12.8141832"><ele>14.0</ele><time>2026-04-07T10:19:44.305Z</time></trkpt><trkpt lat="41.4572122" lon="12.8142311"><ele>13.25</ele><time>2026-04-07T10:19:45.305Z</time></trkpt><trkpt lat="41.4570461" lon="12.8143495"><ele>12.5</ele><time>2026-04-07T10:19:47.305Z</time></trkpt><trkpt lat="41.4569474" lon="12.8144226"><ele>11.75</ele><time>2026-04-07T10:19:49.305Z</time></trkpt><trkpt lat="41.4568775" lon="12.8144826"><ele>11.0</ele><time>2026-04-07T10:19:51.305Z</time></trkpt><trkpt lat="41.456817" lon="12.8145385"><ele>11.0</ele><time>2026-04-07T10:19:53.305Z</time></trkpt><trkpt lat="41.4567756" lon="12.8146516"><ele>11.0</ele><time>2026-04-07T10:19:55.305Z</time></trkpt><trkpt lat="41.4567542" lon="12.814735"><ele>11.0</ele><time>2026-04-07T10:19:56.305Z</time></trkpt><trkpt lat="41.4566889" lon="12.8148323"><ele>11.0</ele><time>2026-04-07T10:19:58.305Z</time></trkpt><trkpt lat="41.456629" lon="12.8148817"><ele>11.0</ele><time>2026-04-07T10:19:59.305Z</time></trkpt><trkpt lat="41.4565694" lon="12.8149163"><ele>11.0</ele><time>2026-04-07T10:20:00.305Z</time></trkpt><trkpt lat="41.4564992" lon="12.8149687"><ele>11.0</ele><time>2026-04-07T10:20:01.305Z</time></trkpt><trkpt lat="41.4564321" lon="12.8150095"><ele>11.0</ele><time>2026-04-07T10:20:02.305Z</time></trkpt><trkpt lat="41.4563639" lon="12.8150559"><ele>11.0</ele><time>2026-04-07T10:20:03.305Z</time></trkpt><trkpt lat="41.4563071" lon="12.8151143"><ele>11.0</ele><time>2026-04-07T10:20:04.305Z</time></trkpt><trkpt lat="41.4562441" lon="12.8151611"><ele>11.0</ele><time>2026-04-07T10:20:05.305Z</time></trkpt><trkpt lat="41.4561769" lon="12.8151935"><ele>11.0</ele><time>2026-04-07T10:20:06.305Z</time></trkpt><trkpt lat="41.4561107" lon="12.8152189"><ele>11.0</ele><time>2026-04-07T10:20:07.305Z</time></trkpt><trkpt lat="41.4560428" lon="12.8152524"><ele>10.666666666666666</ele><time>2026-04-07T10:20:08.305Z</time></trkpt><trkpt lat="41.4559785" lon="12.8152562"><ele>10.333333333333332</ele><time>2026-04-07T10:20:09.305Z</time></trkpt><trkpt lat="41.4559029" lon="12.8152626"><ele>10.0</ele><time>2026-04-07T10:20:10.306Z</time></trkpt><trkpt lat="41.4557661" lon="12.8152713"><ele>9.666666666666666</ele><time>2026-04-07T10:20:12.305Z</time></trkpt><trkpt lat="41.4556942" lon="12.815266"><ele>9.333333333333334</ele><time>2026-04-07T10:20:13.305Z</time></trkpt><trkpt lat="41.4556239" lon="12.8152822"><ele>9.0</ele><time>2026-04-07T10:20:14.305Z</time></trkpt><trkpt lat="41.4555476" lon="12.8152983"><ele>9.0</ele><time>2026-04-07T10:20:15.305Z</time></trkpt><trkpt lat="41.4554709" lon="12.8153014"><ele>9.0</ele><time>2026-04-07T10:20:16.305Z</time></trkpt><trkpt lat="41.4554075" lon="12.8153016"><ele>9.0</ele><time>2026-04-07T10:20:17.305Z</time></trkpt><trkpt lat="41.4552801" lon="12.8152742"><ele>9.0</ele><time>2026-04-07T10:20:19.305Z</time></trkpt><trkpt lat="41.455207" lon="12.8152803"><ele>9.0</ele><time>2026-04-07T10:20:20.305Z</time></trkpt><trkpt lat="41.4551342" lon="12.8152738"><ele>9.0</ele><time>2026-04-07T10:20:21.305Z</time></trkpt><trkpt lat="41.4550643" lon="12.8152788"><ele>8.833333333333334</ele><time>2026-04-07T10:20:22.305Z</time></trkpt><trkpt lat="41.4549423" lon="12.8152442"><ele>8.666666666666666</ele><time>2026-04-07T10:20:24.305Z</time></trkpt><trkpt lat="41.4548756" lon="12.8152108"><ele>8.5</ele><time>2026-04-07T10:20:25.306Z</time></trkpt><trkpt lat="41.4548006" lon="12.8151838"><ele>8.333333333333332</ele><time>2026-04-07T10:20:26.305Z</time></trkpt><trkpt lat="41.4547363" lon="12.8151628"><ele>8.166666666666666</ele><time>2026-04-07T10:20:27.305Z</time></trkpt><trkpt lat="41.4546716" lon="12.8151363"><ele>8.0</ele><time>2026-04-07T10:20:28.305Z</time></trkpt><trkpt lat="41.4546024" lon="12.8150887"><ele>8.5</ele><time>2026-04-07T10:20:29.305Z</time></trkpt><trkpt lat="41.4545177" lon="12.8150432"><ele>9.0</ele><time>2026-04-07T10:20:30.305Z</time></trkpt><trkpt lat="41.4544468" lon="12.8149932"><ele>9.5</ele><time>2026-04-07T10:20:31.305Z</time></trkpt><trkpt lat="41.4543681" lon="12.8149475"><ele>10.0</ele><time>2026-04-07T10:20:32.305Z</time></trkpt><trkpt lat="41.4543017" lon="12.8149013"><ele>10.5</ele><time>2026-04-07T10:20:33.305Z</time></trkpt><trkpt lat="41.4542394" lon="12.8148618"><ele>11.0</ele><time>2026-04-07T10:20:34.305Z</time></trkpt><trkpt lat="41.4541556" lon="12.8147645"><ele>11.0</ele><time>2026-04-07T10:20:36.306Z</time></trkpt><trkpt lat="41.4541173" lon="12.8146955"><ele>11.0</ele><time>2026-04-07T10:20:38.305Z</time></trkpt><trkpt lat="41.4541549" lon="12.814591"><ele>11.0</ele><time>2026-04-07T10:20:40.305Z</time></trkpt><trkpt lat="41.4540719" lon="12.81449"><ele>11.0</ele><time>2026-04-07T10:20:42.305Z</time></trkpt><trkpt lat="41.4540139" lon="12.8144306"><ele>11.0</ele><time>2026-04-07T10:20:43.306Z</time></trkpt><trkpt lat="41.4539414" lon="12.8143929"><ele>11.0</ele><time>2026-04-07T10:20:44.306Z</time></trkpt><trkpt lat="41.4538679" lon="12.8143676"><ele>10.600000000000001</ele><time>2026-04-07T10:20:45.305Z</time></trkpt><trkpt lat="41.4537334" lon="12.8142756"><ele>10.200000000000001</ele><time>2026-04-07T10:20:47.305Z</time></trkpt><trkpt lat="41.4536762" lon="12.8142117"><ele>9.8</ele><time>2026-04-07T10:20:48.305Z</time></trkpt><trkpt lat="41.4536202" lon="12.8141603"><ele>9.4</ele><time>2026-04-07T10:20:49.305Z</time></trkpt><trkpt lat="41.4535498" lon="12.8141173"><ele>9.0</ele><time>2026-04-07T10:20:50.305Z</time></trkpt><trkpt lat="41.4534604" lon="12.8140545"><ele>9.0</ele><time>2026-04-07T10:20:51.306Z</time></trkpt><trkpt lat="41.4533898" lon="12.8139951"><ele>9.0</ele><time>2026-04-07T10:20:52.305Z</time></trkpt><trkpt lat="41.4533279" lon="12.8139148"><ele>9.0</ele><time>2026-04-07T10:20:53.305Z</time></trkpt><trkpt lat="41.4532534" lon="12.8138312"><ele>9.0</ele><time>2026-04-07T10:20:54.305Z</time></trkpt><trkpt lat="41.4531781" lon="12.8137525"><ele>9.0</ele><time>2026-04-07T10:20:55.305Z</time></trkpt><trkpt lat="41.4531093" lon="12.8136721"><ele>9.0</ele><time>2026-04-07T10:20:56.306Z</time></trkpt><trkpt lat="41.453045" lon="12.8135767"><ele>9.0</ele><time>2026-04-07T10:20:57.305Z</time></trkpt><trkpt lat="41.4529659" lon="12.8134946"><ele>9.0</ele><time>2026-04-07T10:20:58.305Z</time></trkpt><trkpt lat="41.452894" lon="12.8134218"><ele>9.0</ele><time>2026-04-07T10:20:59.306Z</time></trkpt><trkpt lat="41.4528244" lon="12.8133418"><ele>9.0</ele><time>2026-04-07T10:21:00.306Z</time></trkpt><trkpt lat="41.4527562" lon="12.8132517"><ele>8.833333333333334</ele><time>2026-04-07T10:21:01.305Z</time></trkpt><trkpt lat="41.4526949" lon="12.813198"><ele>8.666666666666666</ele><time>2026-04-07T10:21:02.306Z</time></trkpt><trkpt lat="41.4526469" lon="12.8131189"><ele>8.5</ele><time>2026-04-07T10:21:03.305Z</time></trkpt><trkpt lat="41.4526226" lon="12.8130394"><ele>8.333333333333332</ele><time>2026-04-07T10:21:04.305Z</time></trkpt><trkpt lat="41.4526277" lon="12.8128713"><ele>8.166666666666666</ele><time>2026-04-07T10:21:06.306Z</time></trkpt><trkpt lat="41.4526298" lon="12.8127801"><ele>8.0</ele><time>2026-04-07T10:21:07.305Z</time></trkpt><trkpt lat="41.4526446" lon="12.8126773"><ele>7.999999999999999</ele><time>2026-04-07T10:21:08.306Z</time></trkpt><trkpt lat="41.4526568" lon="12.8125625"><ele>8.0</ele><time>2026-04-07T10:21:09.305Z</time></trkpt><trkpt lat="41.4526692" lon="12.8124604"><ele>8.0</ele><time>2026-04-07T10:21:10.305Z</time></trkpt><trkpt lat="41.4526852" lon="12.8123539"><ele>8.0</ele><time>2026-04-07T10:21:11.305Z</time></trkpt><trkpt lat="41.4526953" lon="12.8122333"><ele>7.999999999999999</ele><time>2026-04-07T10:21:12.305Z</time></trkpt><trkpt lat="41.452709" lon="12.8121096"><ele>8.0</ele><time>2026-04-07T10:21:13.305Z</time></trkpt><trkpt lat="41.452725" lon="12.8119864"><ele>7.999999999999999</ele><time>2026-04-07T10:21:14.305Z</time></trkpt><trkpt lat="41.4527375" lon="12.8118735"><ele>8.0</ele><time>2026-04-07T10:21:15.305Z</time></trkpt><trkpt lat="41.4527479" lon="12.8117659"><ele>8.0</ele><time>2026-04-07T10:21:16.306Z</time></trkpt><trkpt lat="41.4527631" lon="12.8116629"><ele>8.0</ele><time>2026-04-07T10:21:17.305Z</time></trkpt><trkpt lat="41.4527772" lon="12.811553"><ele>7.999999999999999</ele><time>2026-04-07T10:21:18.306Z</time></trkpt><trkpt lat="41.4527856" lon="12.8114523"><ele>8.0</ele><time>2026-04-07T10:21:19.306Z</time></trkpt><trkpt lat="41.4528007" lon="12.8113031"><ele>8.4</ele><time>2026-04-07T10:21:21.306Z</time></trkpt><trkpt lat="41.4527959" lon="12.8111984"><ele>8.8</ele><time>2026-04-07T10:21:23.306Z</time></trkpt><trkpt lat="41.4527314" lon="12.8111391"><ele>9.2</ele><time>2026-04-07T10:21:25.305Z</time></trkpt><trkpt lat="41.452556" lon="12.8110936"><ele>9.6</ele><time>2026-04-07T10:21:27.305Z</time></trkpt><trkpt lat="41.4524704" lon="12.8110672"><ele>10.0</ele><time>2026-04-07T10:21:28.305Z</time></trkpt><trkpt lat="41.4523813" lon="12.8110344"><ele>10.0</ele><time>2026-04-07T10:21:29.305Z</time></trkpt><trkpt lat="41.4522968" lon="12.8110128"><ele>10.0</ele><time>2026-04-07T10:21:30.305Z</time></trkpt><trkpt lat="41.4521132" lon="12.8109655"><ele>10.0</ele><time>2026-04-07T10:21:32.305Z</time></trkpt><trkpt lat="41.4520186" lon="12.8109514"><ele>10.0</ele><time>2026-04-07T10:21:33.306Z</time></trkpt><trkpt lat="41.4519258" lon="12.8109319"><ele>10.25</ele><time>2026-04-07T10:21:34.305Z</time></trkpt><trkpt lat="41.4517307" lon="12.8108951"><ele>10.5</ele><time>2026-04-07T10:21:36.306Z</time></trkpt><trkpt lat="41.4516366" lon="12.8108832"><ele>10.75</ele><time>2026-04-07T10:21:37.305Z</time></trkpt><trkpt lat="41.4515521" lon="12.8108759"><ele>11.0</ele><time>2026-04-07T10:21:38.305Z</time></trkpt><trkpt lat="41.4514641" lon="12.8108585"><ele>11.0</ele><time>2026-04-07T10:21:39.305Z</time></trkpt><trkpt lat="41.4513764" lon="12.8108403"><ele>11.0</ele><time>2026-04-07T10:21:40.305Z</time></trkpt><trkpt lat="41.4512895" lon="12.8108184"><ele>11.0</ele><time>2026-04-07T10:21:41.305Z</time></trkpt><trkpt lat="41.4512006" lon="12.8107934"><ele>11.0</ele><time>2026-04-07T10:21:42.305Z</time></trkpt><trkpt lat="41.4511189" lon="12.810781"><ele>11.0</ele><time>2026-04-07T10:21:43.306Z</time></trkpt><trkpt lat="41.4510374" lon="12.8107654"><ele>11.0</ele><time>2026-04-07T10:21:44.305Z</time></trkpt><trkpt lat="41.4509614" lon="12.81075"><ele>10.5</ele><time>2026-04-07T10:21:45.306Z</time></trkpt><trkpt lat="41.4507983" lon="12.8106962"><ele>10.0</ele><time>2026-04-07T10:21:48.306Z</time></trkpt><trkpt lat="41.4507259" lon="12.8106332"><ele>9.5</ele><time>2026-04-07T10:21:50.305Z</time></trkpt><trkpt lat="41.4506683" lon="12.8105095"><ele>9.0</ele><time>2026-04-07T10:21:52.305Z</time></trkpt><trkpt lat="41.4505721" lon="12.8104922"><ele>9.0</ele><time>2026-04-07T10:21:54.306Z</time></trkpt><trkpt lat="41.4504976" lon="12.8104961"><ele>9.0</ele><time>2026-04-07T10:21:55.305Z</time></trkpt><trkpt lat="41.4504088" lon="12.810477"><ele>9.0</ele><time>2026-04-07T10:21:56.305Z</time></trkpt><trkpt lat="41.4503045" lon="12.810431"><ele>9.0</ele><time>2026-04-07T10:21:57.306Z</time></trkpt><trkpt lat="41.4501931" lon="12.8103552"><ele>9.0</ele><time>2026-04-07T10:21:58.305Z</time></trkpt><trkpt lat="41.4500627" lon="12.810235"><ele>9.25</ele><time>2026-04-07T10:21:59.305Z</time></trkpt><trkpt lat="41.4499547" lon="12.810125"><ele>9.5</ele><time>2026-04-07T10:22:00.306Z</time></trkpt><trkpt lat="41.4498352" lon="12.8100106"><ele>9.75</ele><time>2026-04-07T10:22:01.306Z</time></trkpt><trkpt lat="41.4497214" lon="12.8099141"><ele>10.0</ele><time>2026-04-07T10:22:02.305Z</time></trkpt><trkpt lat="41.449601" lon="12.8098251"><ele>9.0</ele><time>2026-04-07T10:22:03.305Z</time></trkpt><trkpt lat="41.4493694" lon="12.8096511"><ele>8.0</ele><time>2026-04-07T10:22:05.305Z</time></trkpt><trkpt lat="41.4492553" lon="12.8095747"><ele>7.0</ele><time>2026-04-07T10:22:06.305Z</time></trkpt><trkpt lat="41.4491372" lon="12.8094838"><ele>7.0</ele><time>2026-04-07T10:22:07.305Z</time></trkpt><trkpt lat="41.4490174" lon="12.809401"><ele>7.0</ele><time>2026-04-07T10:22:08.305Z</time></trkpt><trkpt lat="41.4489015" lon="12.8093172"><ele>7.0</ele><time>2026-04-07T10:22:09.305Z</time></trkpt><trkpt lat="41.4487985" lon="12.8092252"><ele>7.0</ele><time>2026-04-07T10:22:10.305Z</time></trkpt><trkpt lat="41.4486982" lon="12.8091442"><ele>7.0</ele><time>2026-04-07T10:22:11.305Z</time></trkpt><trkpt lat="41.4485863" lon="12.8090553"><ele>7.0</ele><time>2026-04-07T10:22:12.305Z</time></trkpt><trkpt lat="41.448472" lon="12.8089731"><ele>7.0</ele><time>2026-04-07T10:22:13.305Z</time></trkpt><trkpt lat="41.4483558" lon="12.8088963"><ele>7.0</ele><time>2026-04-07T10:22:14.305Z</time></trkpt><trkpt lat="41.4482432" lon="12.8088282"><ele>7.000000000000001</ele><time>2026-04-07T10:22:15.305Z</time></trkpt><trkpt lat="41.4481635" lon="12.8087754"><ele>7.0</ele><time>2026-04-07T10:22:16.306Z</time></trkpt><trkpt lat="41.4480935" lon="12.8087315"><ele>7.0</ele><time>2026-04-07T10:22:17.305Z</time></trkpt><trkpt lat="41.4480426" lon="12.8086759"><ele>7.0</ele><time>2026-04-07T10:22:18.305Z</time></trkpt><trkpt lat="41.4479991" lon="12.8085931"><ele>7.000000000000001</ele><time>2026-04-07T10:22:20.306Z</time></trkpt><trkpt lat="41.4479388" lon="12.8085224"><ele>7.0</ele><time>2026-04-07T10:22:24.305Z</time></trkpt><trkpt lat="41.4478595" lon="12.8084971"><ele>7.25</ele><time>2026-04-07T10:22:25.305Z</time></trkpt><trkpt lat="41.4477558" lon="12.8084445"><ele>7.5</ele><time>2026-04-07T10:22:27.305Z</time></trkpt><trkpt lat="41.4476232" lon="12.8083758"><ele>7.75</ele><time>2026-04-07T10:22:29.305Z</time></trkpt><trkpt lat="41.4475168" lon="12.8083522"><ele>8.0</ele><time>2026-04-07T10:22:30.305Z</time></trkpt><trkpt lat="41.4474295" lon="12.8082927"><ele>7.999999999999999</ele><time>2026-04-07T10:22:31.305Z</time></trkpt><trkpt lat="41.4473669" lon="12.8082652"><ele>8.0</ele><time>2026-04-07T10:22:32.305Z</time></trkpt><trkpt lat="41.4472932" lon="12.8082187"><ele>8.0</ele><time>2026-04-07T10:22:33.305Z</time></trkpt><trkpt lat="41.4472291" lon="12.8081657"><ele>8.0</ele><time>2026-04-07T10:22:34.306Z</time></trkpt><trkpt lat="41.4471475" lon="12.8081222"><ele>7.999999999999999</ele><time>2026-04-07T10:22:35.305Z</time></trkpt><trkpt lat="41.4470838" lon="12.8080784"><ele>8.0</ele><time>2026-04-07T10:22:36.305Z</time></trkpt><trkpt lat="41.4469631" lon="12.8080106"><ele>7.833333333333333</ele><time>2026-04-07T10:22:38.305Z</time></trkpt><trkpt lat="41.4468852" lon="12.8079792"><ele>7.666666666666666</ele><time>2026-04-07T10:22:40.305Z</time></trkpt><trkpt lat="41.4468144" lon="12.8079688"><ele>7.5</ele><time>2026-04-07T10:22:41.305Z</time></trkpt><trkpt lat="41.446749" lon="12.8079438"><ele>7.333333333333334</ele><time>2026-04-07T10:22:42.305Z</time></trkpt><trkpt lat="41.4466648" lon="12.8079253"><ele>7.166666666666667</ele><time>2026-04-07T10:22:43.305Z</time></trkpt><trkpt lat="41.4465798" lon="12.8078871"><ele>7.0</ele><time>2026-04-07T10:22:44.305Z</time></trkpt><trkpt lat="41.4465013" lon="12.8078207"><ele>7.000000000000001</ele><time>2026-04-07T10:22:45.305Z</time></trkpt><trkpt lat="41.446427" lon="12.8077712"><ele>7.0</ele><time>2026-04-07T10:22:46.305Z</time></trkpt><trkpt lat="41.4463466" lon="12.8077096"><ele>7.0</ele><time>2026-04-07T10:22:47.305Z</time></trkpt><trkpt lat="41.4462724" lon="12.8076631"><ele>7.0</ele><time>2026-04-07T10:22:48.305Z</time></trkpt><trkpt lat="41.4461928" lon="12.8076205"><ele>7.000000000000001</ele><time>2026-04-07T10:22:49.305Z</time></trkpt><trkpt lat="41.4461148" lon="12.8075766"><ele>7.0</ele><time>2026-04-07T10:22:50.305Z</time></trkpt><trkpt lat="41.4460338" lon="12.8075334"><ele>6.833333333333334</ele><time>2026-04-07T10:22:51.305Z</time></trkpt><trkpt lat="41.4459549" lon="12.8074937"><ele>6.666666666666667</ele><time>2026-04-07T10:22:52.305Z</time></trkpt><trkpt lat="41.4458837" lon="12.8074481"><ele>6.5</ele><time>2026-04-07T10:22:53.305Z</time></trkpt><trkpt lat="41.4458083" lon="12.807397"><ele>6.333333333333334</ele><time>2026-04-07T10:22:54.305Z</time></trkpt><trkpt lat="41.4457388" lon="12.8073482"><ele>6.166666666666667</ele><time>2026-04-07T10:22:55.305Z</time></trkpt><trkpt lat="41.4456698" lon="12.8073079"><ele>6.0</ele><time>2026-04-07T10:22:56.305Z</time></trkpt><trkpt lat="41.4455979" lon="12.8072618"><ele>6.0</ele><time>2026-04-07T10:22:57.305Z</time></trkpt><trkpt lat="41.4455197" lon="12.8072195"><ele>6.0</ele><time>2026-04-07T10:22:58.306Z</time></trkpt><trkpt lat="41.4454439" lon="12.8071684"><ele>6.0</ele><time>2026-04-07T10:22:59.305Z</time></trkpt><trkpt lat="41.4453756" lon="12.807119"><ele>6.0</ele><time>2026-04-07T10:23:00.305Z</time></trkpt><trkpt lat="41.4453071" lon="12.8070731"><ele>6.0</ele><time>2026-04-07T10:23:01.306Z</time></trkpt><trkpt lat="41.4452346" lon="12.8070228"><ele>6.0</ele><time>2026-04-07T10:23:02.305Z</time></trkpt><trkpt lat="41.4451635" lon="12.8069799"><ele>5.999999999999999</ele><time>2026-04-07T10:23:03.305Z</time></trkpt><trkpt lat="41.4450912" lon="12.8069291"><ele>6.0</ele><time>2026-04-07T10:23:04.306Z</time></trkpt><trkpt lat="41.4450253" lon="12.8068796"><ele>6.0</ele><time>2026-04-07T10:23:05.305Z</time></trkpt><trkpt lat="41.4449588" lon="12.8068446"><ele>6.0</ele><time>2026-04-07T10:23:06.306Z</time></trkpt><trkpt lat="41.4448864" lon="12.8067979"><ele>6.0</ele><time>2026-04-07T10:23:07.305Z</time></trkpt><trkpt lat="41.444826" lon="12.8067595"><ele>5.999999999999999</ele><time>2026-04-07T10:23:08.306Z</time></trkpt><trkpt lat="41.4447666" lon="12.8067123"><ele>6.0</ele><time>2026-04-07T10:23:09.305Z</time></trkpt><trkpt lat="41.4446592" lon="12.8066338"><ele>5.666666666666667</ele><time>2026-04-07T10:23:11.305Z</time></trkpt><trkpt lat="41.4445946" lon="12.8066076"><ele>5.333333333333333</ele><time>2026-04-07T10:23:12.305Z</time></trkpt><trkpt lat="41.4445179" lon="12.8065678"><ele>5.0</ele><time>2026-04-07T10:23:13.305Z</time></trkpt><trkpt lat="41.4444376" lon="12.8065297"><ele>4.666666666666666</ele><time>2026-04-07T10:23:14.305Z</time></trkpt><trkpt lat="41.4443552" lon="12.8064776"><ele>4.333333333333333</ele><time>2026-04-07T10:23:15.305Z</time></trkpt><trkpt lat="41.4442786" lon="12.8064362"><ele>4.0</ele><time>2026-04-07T10:23:16.305Z</time></trkpt><trkpt lat="41.4442012" lon="12.8063912"><ele>4.0</ele><time>2026-04-07T10:23:17.305Z</time></trkpt><trkpt lat="41.44413" lon="12.8063402"><ele>4.0</ele><time>2026-04-07T10:23:18.305Z</time></trkpt><trkpt lat="41.4440704" lon="12.8062996"><ele>4.0</ele><time>2026-04-07T10:23:19.305Z</time></trkpt><trkpt lat="41.4440146" lon="12.8062552"><ele>4.0</ele><time>2026-04-07T10:23:20.305Z</time></trkpt><trkpt lat="41.4439505" lon="12.8061283"><ele>4.0</ele><time>2026-04-07T10:23:22.305Z</time></trkpt><trkpt lat="41.4438237" lon="12.8060543"><ele>4.0</ele><time>2026-04-07T10:23:25.306Z</time></trkpt><trkpt lat="41.4437435" lon="12.8060499"><ele>4.0</ele><time>2026-04-07T10:23:26.305Z</time></trkpt><trkpt lat="41.4436725" lon="12.8060119"><ele>4.0</ele><time>2026-04-07T10:23:27.305Z</time></trkpt><trkpt lat="41.4435829" lon="12.8059757"><ele>4.0</ele><time>2026-04-07T10:23:28.305Z</time></trkpt><trkpt lat="41.4434946" lon="12.8059221"><ele>4.0</ele><time>2026-04-07T10:23:29.306Z</time></trkpt><trkpt lat="41.4433991" lon="12.8058635"><ele>4.0</ele><time>2026-04-07T10:23:30.305Z</time></trkpt><trkpt lat="41.4433038" lon="12.8058073"><ele>4.0</ele><time>2026-04-07T10:23:31.305Z</time></trkpt><trkpt lat="41.4432197" lon="12.8057505"><ele>4.0</ele><time>2026-04-07T10:23:32.306Z</time></trkpt><trkpt lat="41.443056" lon="12.8056436"><ele>4.0</ele><time>2026-04-07T10:23:34.305Z</time></trkpt><trkpt lat="41.4429237" lon="12.8055544"><ele>4.0</ele><time>2026-04-07T10:23:36.277Z</time></trkpt><trkpt lat="41.4428134" lon="12.8055429"><ele>4.0</ele><time>2026-04-07T10:23:38.288Z</time></trkpt><trkpt lat="41.4427045" lon="12.805594"><ele>4.0</ele><time>2026-04-07T10:23:40.281Z</time></trkpt><trkpt lat="41.4426037" lon="12.8055917"><ele>4.0</ele><time>2026-04-07T10:23:42.281Z</time></trkpt><trkpt lat="41.4425148" lon="12.8055374"><ele>4.0</ele><time>2026-04-07T10:23:44.28Z</time></trkpt><trkpt lat="41.4424551" lon="12.8055059"><ele>3.9999999999999996</ele><time>2026-04-07T10:23:45.281Z</time></trkpt><trkpt lat="41.4423937" lon="12.8054556"><ele>4.0</ele><time>2026-04-07T10:23:46.28Z</time></trkpt><trkpt lat="41.4423434" lon="12.805384"><ele>4.0</ele><time>2026-04-07T10:23:47.281Z</time></trkpt><trkpt lat="41.442249" lon="12.8052614"><ele>4.0</ele><time>2026-04-07T10:23:49.28Z</time></trkpt><trkpt lat="41.4421865" lon="12.8052351"><ele>3.9999999999999996</ele><time>2026-04-07T10:23:50.281Z</time></trkpt><trkpt lat="41.4421149" lon="12.8052163"><ele>4.0</ele><time>2026-04-07T10:23:51.28Z</time></trkpt><trkpt lat="41.442027" lon="12.8051932"><ele>4.0</ele><time>2026-04-07T10:23:52.28Z</time></trkpt><trkpt lat="41.4419295" lon="12.8051701"><ele>4.0</ele><time>2026-04-07T10:23:53.28Z</time></trkpt><trkpt lat="41.4418405" lon="12.805162"><ele>4.0</ele><time>2026-04-07T10:23:54.28Z</time></trkpt><trkpt lat="41.4416575" lon="12.80514"><ele>4.0</ele><time>2026-04-07T10:23:56.28Z</time></trkpt><trkpt lat="41.4415705" lon="12.8051324"><ele>4.0</ele><time>2026-04-07T10:23:57.281Z</time></trkpt><trkpt lat="41.4414825" lon="12.8051298"><ele>4.0</ele><time>2026-04-07T10:23:58.281Z</time></trkpt><trkpt lat="41.4413196" lon="12.8051348"><ele>4.0</ele><time>2026-04-07T10:24:00.281Z</time></trkpt><trkpt lat="41.4412397" lon="12.8051374"><ele>4.0</ele><time>2026-04-07T10:24:01.28Z</time></trkpt><trkpt lat="41.4411627" lon="12.8051459"><ele>4.0</ele><time>2026-04-07T10:24:02.28Z</time></trkpt><trkpt lat="41.4410942" lon="12.8051552"><ele>4.2</ele><time>2026-04-07T10:24:03.28Z</time></trkpt><trkpt lat="41.44102" lon="12.8051593"><ele>4.4</ele><time>2026-04-07T10:24:04.281Z</time></trkpt><trkpt lat="41.4408896" lon="12.8051808"><ele>4.6</ele><time>2026-04-07T10:24:06.28Z</time></trkpt><trkpt lat="41.4407864" lon="12.805152"><ele>4.8</ele><time>2026-04-07T10:24:08.28Z</time></trkpt><trkpt lat="41.4407264" lon="12.8050369"><ele>5.0</ele><time>2026-04-07T10:24:10.28Z</time></trkpt><trkpt lat="41.440689" lon="12.8048704"><ele>5.25</ele><time>2026-04-07T10:24:12.28Z</time></trkpt><trkpt lat="41.4406429" lon="12.8046775"><ele>5.5</ele><time>2026-04-07T10:24:14.28Z</time></trkpt><trkpt lat="41.4406023" lon="12.8044711"><ele>5.75</ele><time>2026-04-07T10:24:16.28Z</time></trkpt><trkpt lat="41.4405771" lon="12.8043714"><ele>6.0</ele><time>2026-04-07T10:24:17.281Z</time></trkpt><trkpt lat="41.4405571" lon="12.8042689"><ele>6.0</ele><time>2026-04-07T10:24:18.28Z</time></trkpt><trkpt lat="41.4405301" lon="12.8041657"><ele>6.0</ele><time>2026-04-07T10:24:19.28Z</time></trkpt><trkpt lat="41.4404887" lon="12.804013"><ele>6.0</ele><time>2026-04-07T10:24:21.281Z</time></trkpt><trkpt lat="41.4404414" lon="12.8039378"><ele>6.0</ele><time>2026-04-07T10:24:23.28Z</time></trkpt><trkpt lat="41.4403037" lon="12.8039909"><ele>6.0</ele><time>2026-04-07T10:24:27.28Z</time></trkpt><trkpt lat="41.4402257" lon="12.8040115"><ele>6.0</ele><time>2026-04-07T10:24:28.28Z</time></trkpt><trkpt lat="41.4401522" lon="12.8040314"><ele>6.0</ele><time>2026-04-07T10:24:29.28Z</time></trkpt><trkpt lat="41.4400723" lon="12.8040187"><ele>6.0</ele><time>2026-04-07T10:24:30.28Z</time></trkpt><trkpt lat="41.4399996" lon="12.8039977"><ele>6.0</ele><time>2026-04-07T10:24:31.281Z</time></trkpt><trkpt lat="41.4398467" lon="12.8039744"><ele>6.0</ele><time>2026-04-07T10:24:33.281Z</time></trkpt><trkpt lat="41.4396784" lon="12.804015"><ele>6.333333333333334</ele><time>2026-04-07T10:24:35.281Z</time></trkpt><trkpt lat="41.4395087" lon="12.8041428"><ele>6.666666666666667</ele><time>2026-04-07T10:24:37.281Z</time></trkpt><trkpt lat="41.4393318" lon="12.8043049"><ele>7.0</ele><time>2026-04-07T10:24:39.28Z</time></trkpt><trkpt lat="41.4392485" lon="12.8043758"><ele>7.0</ele><time>2026-04-07T10:24:40.28Z</time></trkpt><trkpt lat="41.439174" lon="12.8044541"><ele>6.999999999999999</ele><time>2026-04-07T10:24:41.28Z</time></trkpt><trkpt lat="41.4391086" lon="12.8045152"><ele>6.999999999999999</ele><time>2026-04-07T10:24:42.28Z</time></trkpt><trkpt lat="41.4390297" lon="12.8045626"><ele>7.0</ele><time>2026-04-07T10:24:43.281Z</time></trkpt><trkpt lat="41.4389494" lon="12.8046049"><ele>7.0</ele><time>2026-04-07T10:24:44.28Z</time></trkpt><trkpt lat="41.4387872" lon="12.8046656"><ele>6.8</ele><time>2026-04-07T10:24:46.281Z</time></trkpt><trkpt lat="41.4386477" lon="12.8047045"><ele>6.6</ele><time>2026-04-07T10:24:48.28Z</time></trkpt><trkpt lat="41.4385703" lon="12.8046736"><ele>6.3999999999999995</ele><time>2026-04-07T10:24:50.28Z</time></trkpt><trkpt lat="41.4385383" lon="12.8045953"><ele>6.199999999999999</ele><time>2026-04-07T10:24:52.281Z</time></trkpt><trkpt lat="41.4384253" lon="12.8045907"><ele>6.0</ele><time>2026-04-07T10:24:54.281Z</time></trkpt><trkpt lat="41.4383606" lon="12.8045866"><ele>6.0</ele><time>2026-04-07T10:24:55.28Z</time></trkpt><trkpt lat="41.4382848" lon="12.80459"><ele>6.0</ele><time>2026-04-07T10:24:56.28Z</time></trkpt><trkpt lat="41.4382141" lon="12.8045888"><ele>6.0</ele><time>2026-04-07T10:24:57.28Z</time></trkpt><trkpt lat="41.4380705" lon="12.8045736"><ele>6.0</ele><time>2026-04-07T10:24:59.28Z</time></trkpt><trkpt lat="41.4379467" lon="12.8045419"><ele>6.0</ele><time>2026-04-07T10:25:01.281Z</time></trkpt><trkpt lat="41.4377863" lon="12.8045347"><ele>5.857142857142857</ele><time>2026-04-07T10:25:04.28Z</time></trkpt><trkpt lat="41.4377222" lon="12.8045367"><ele>5.714285714285714</ele><time>2026-04-07T10:25:05.281Z</time></trkpt><trkpt lat="41.4376554" lon="12.8045375"><ele>5.571428571428571</ele><time>2026-04-07T10:25:06.28Z</time></trkpt><trkpt lat="41.4375838" lon="12.8045386"><ele>5.428571428571429</ele><time>2026-04-07T10:25:07.28Z</time></trkpt><trkpt lat="41.4375017" lon="12.8045452"><ele>5.285714285714286</ele><time>2026-04-07T10:25:08.28Z</time></trkpt><trkpt lat="41.4374309" lon="12.8045439"><ele>5.142857142857142</ele><time>2026-04-07T10:25:09.281Z</time></trkpt><trkpt lat="41.437365" lon="12.8045397"><ele>5.0</ele><time>2026-04-07T10:25:10.28Z</time></trkpt><trkpt lat="41.4372319" lon="12.8045228"><ele>5.0</ele><time>2026-04-07T10:25:12.281Z</time></trkpt><trkpt lat="41.4371659" lon="12.8045229"><ele>5.0</ele><time>2026-04-07T10:25:13.28Z</time></trkpt><trkpt lat="41.4370872" lon="12.8045582"><ele>5.0</ele><time>2026-04-07T10:25:15.28Z</time></trkpt><trkpt lat="41.4370602" lon="12.8046541"><ele>5.0</ele><time>2026-04-07T10:25:17.28Z</time></trkpt><trkpt lat="41.4369903" lon="12.8046929"><ele>5.0</ele><time>2026-04-07T10:25:19.28Z</time></trkpt><trkpt lat="41.4369624" lon="12.8048132"><ele>5.0</ele><time>2026-04-07T10:25:21.28Z</time></trkpt><trkpt lat="41.4369673" lon="12.80493"><ele>5.0</ele><time>2026-04-07T10:25:22.28Z</time></trkpt><trkpt lat="41.4369666" lon="12.8051961"><ele>5.0</ele><time>2026-04-07T10:25:24.28Z</time></trkpt><trkpt lat="41.4369659" lon="12.805344"><ele>5.0</ele><time>2026-04-07T10:25:25.28Z</time></trkpt><trkpt lat="41.4369714" lon="12.8054823"><ele>5.0</ele><time>2026-04-07T10:25:26.28Z</time></trkpt><trkpt lat="41.4369789" lon="12.8056376"><ele>5.0</ele><time>2026-04-07T10:25:27.28Z</time></trkpt><trkpt lat="41.4369757" lon="12.8059092"><ele>5.0</ele><time>2026-04-07T10:25:29.28Z</time></trkpt><trkpt lat="41.4369859" lon="12.8060551"><ele>5.0</ele><time>2026-04-07T10:25:30.28Z</time></trkpt><trkpt lat="41.436999" lon="12.8062047"><ele>5.0</ele><time>2026-04-07T10:25:31.28Z</time></trkpt><trkpt lat="41.4369756" lon="12.806491"><ele>5.333333333333334</ele><time>2026-04-07T10:25:33.28Z</time></trkpt><trkpt lat="41.4369647" lon="12.8067735"><ele>5.666666666666667</ele><time>2026-04-07T10:25:35.28Z</time></trkpt><trkpt lat="41.4369569" lon="12.8070199"><ele>6.0</ele><time>2026-04-07T10:25:37.28Z</time></trkpt><trkpt lat="41.4369669" lon="12.807142"><ele>6.0</ele><time>2026-04-07T10:25:38.28Z</time></trkpt><trkpt lat="41.4369721" lon="12.8072397"><ele>6.0</ele><time>2026-04-07T10:25:39.281Z</time></trkpt><trkpt lat="41.4369797" lon="12.8074126"><ele>6.0</ele><time>2026-04-07T10:25:41.28Z</time></trkpt><trkpt lat="41.4369118" lon="12.8075587"><ele>6.0</ele><time>2026-04-07T10:25:43.28Z</time></trkpt><trkpt lat="41.436766" lon="12.8077475"><ele>5.75</ele><time>2026-04-07T10:25:45.28Z</time></trkpt><trkpt lat="41.4366977" lon="12.8078613"><ele>5.5</ele><time>2026-04-07T10:25:46.28Z</time></trkpt><trkpt lat="41.4366241" lon="12.8079819"><ele>5.25</ele><time>2026-04-07T10:25:47.28Z</time></trkpt><trkpt lat="41.436491" lon="12.8082194"><ele>5.0</ele><time>2026-04-07T10:25:49.28Z</time></trkpt><trkpt lat="41.4363702" lon="12.8084484"><ele>5.0</ele><time>2026-04-07T10:25:51.28Z</time></trkpt><trkpt lat="41.4362678" lon="12.8086973"><ele>5.0</ele><time>2026-04-07T10:25:53.28Z</time></trkpt><trkpt lat="41.4362192" lon="12.8088259"><ele>5.0</ele><time>2026-04-07T10:25:54.28Z</time></trkpt><trkpt lat="41.4361722" lon="12.8089393"><ele>5.0</ele><time>2026-04-07T10:25:55.28Z</time></trkpt><trkpt lat="41.436138" lon="12.8090681"><ele>5.0</ele><time>2026-04-07T10:25:56.28Z</time></trkpt><trkpt lat="41.4360966" lon="12.8091971"><ele>5.0</ele><time>2026-04-07T10:25:57.28Z</time></trkpt><trkpt lat="41.4360594" lon="12.8093171"><ele>5.0</ele><time>2026-04-07T10:25:58.28Z</time></trkpt><trkpt lat="41.4360235" lon="12.8094285"><ele>5.0</ele><time>2026-04-07T10:25:59.28Z</time></trkpt><trkpt lat="41.4359812" lon="12.8095457"><ele>5.0</ele><time>2026-04-07T10:26:00.28Z</time></trkpt><trkpt lat="41.4359063" lon="12.8097557"><ele>4.5</ele><time>2026-04-07T10:26:02.28Z</time></trkpt><trkpt lat="41.4358659" lon="12.809851"><ele>4.0</ele><time>2026-04-07T10:26:03.28Z</time></trkpt><trkpt lat="41.4358178" lon="12.8100647"><ele>3.5</ele><time>2026-04-07T10:26:05.28Z</time></trkpt><trkpt lat="41.4357696" lon="12.8102829"><ele>3.0</ele><time>2026-04-07T10:26:07.28Z</time></trkpt><trkpt lat="41.4357349" lon="12.8103901"><ele>3.0</ele><time>2026-04-07T10:26:08.28Z</time></trkpt><trkpt lat="41.4357008" lon="12.8105183"><ele>3.0</ele><time>2026-04-07T10:26:09.281Z</time></trkpt><trkpt lat="41.4356486" lon="12.8107287"><ele>3.0</ele><time>2026-04-07T10:26:11.28Z</time></trkpt><trkpt lat="41.4355679" lon="12.8109269"><ele>3.0</ele><time>2026-04-07T10:26:13.28Z</time></trkpt><trkpt lat="41.435493" lon="12.8111248"><ele>3.5</ele><time>2026-04-07T10:26:15.28Z</time></trkpt><trkpt lat="41.4354478" lon="12.8112151"><ele>4.0</ele><time>2026-04-07T10:26:16.281Z</time></trkpt><trkpt lat="41.4353673" lon="12.8114024"><ele>4.5</ele><time>2026-04-07T10:26:18.28Z</time></trkpt><trkpt lat="41.4352852" lon="12.8116096"><ele>5.0</ele><time>2026-04-07T10:26:20.28Z</time></trkpt><trkpt lat="41.4352403" lon="12.8117157"><ele>5.0</ele><time>2026-04-07T10:26:21.28Z</time></trkpt><trkpt lat="41.4351894" lon="12.8118235"><ele>5.0</ele><time>2026-04-07T10:26:22.28Z</time></trkpt><trkpt lat="41.4351473" lon="12.8119287"><ele>5.0</ele><time>2026-04-07T10:26:23.28Z</time></trkpt><trkpt lat="41.4351092" lon="12.8120384"><ele>5.0</ele><time>2026-04-07T10:26:24.28Z</time></trkpt><trkpt lat="41.4350735" lon="12.8121438"><ele>5.0</ele><time>2026-04-07T10:26:25.28Z</time></trkpt><trkpt lat="41.4350334" lon="12.8122462"><ele>5.0</ele><time>2026-04-07T10:26:26.28Z</time></trkpt><trkpt lat="41.4350053" lon="12.8123565"><ele>4.25</ele><time>2026-04-07T10:26:27.28Z</time></trkpt><trkpt lat="41.4349756" lon="12.8124742"><ele>3.5</ele><time>2026-04-07T10:26:28.28Z</time></trkpt><trkpt lat="41.4349413" lon="12.8125827"><ele>2.75</ele><time>2026-04-07T10:26:29.28Z</time></trkpt><trkpt lat="41.4349038" lon="12.812699"><ele>2.0</ele><time>2026-04-07T10:26:30.28Z</time></trkpt><trkpt lat="41.4348255" lon="12.8129479"><ele>2.0</ele><time>2026-04-07T10:26:32.28Z</time></trkpt><trkpt lat="41.4347957" lon="12.8130707"><ele>2.0</ele><time>2026-04-07T10:26:33.281Z</time></trkpt><trkpt lat="41.4347668" lon="12.8131856"><ele>2.0</ele><time>2026-04-07T10:26:34.28Z</time></trkpt><trkpt lat="41.4347416" lon="12.813301"><ele>2.0</ele><time>2026-04-07T10:26:35.28Z</time></trkpt><trkpt lat="41.4347144" lon="12.8134131"><ele>2.0</ele><time>2026-04-07T10:26:36.281Z</time></trkpt><trkpt lat="41.4346796" lon="12.8135312"><ele>2.333333333333333</ele><time>2026-04-07T10:26:37.28Z</time></trkpt><trkpt lat="41.4345934" lon="12.8137887"><ele>2.6666666666666665</ele><time>2026-04-07T10:26:39.281Z</time></trkpt><trkpt lat="41.4345095" lon="12.8140295"><ele>3.0</ele><time>2026-04-07T10:26:41.281Z</time></trkpt><trkpt lat="41.4343786" lon="12.8142448"><ele>2.6666666666666665</ele><time>2026-04-07T10:26:43.28Z</time></trkpt><trkpt lat="41.4342487" lon="12.8144474"><ele>2.333333333333333</ele><time>2026-04-07T10:26:45.28Z</time></trkpt><trkpt lat="41.4341122" lon="12.814634"><ele>2.0</ele><time>2026-04-07T10:26:47.28Z</time></trkpt><trkpt lat="41.4339669" lon="12.8147966"><ele>2.0</ele><time>2026-04-07T10:26:49.28Z</time></trkpt><trkpt lat="41.4338166" lon="12.8149495"><ele>2.0</ele><time>2026-04-07T10:26:51.28Z</time></trkpt><trkpt lat="41.4336546" lon="12.8150705"><ele>2.0</ele><time>2026-04-07T10:26:53.28Z</time></trkpt><trkpt lat="41.4334845" lon="12.8151844"><ele>2.25</ele><time>2026-04-07T10:26:55.28Z</time></trkpt><trkpt lat="41.4332971" lon="12.8153155"><ele>2.5</ele><time>2026-04-07T10:26:57.28Z</time></trkpt><trkpt lat="41.4331966" lon="12.8153729"><ele>2.75</ele><time>2026-04-07T10:26:58.281Z</time></trkpt><trkpt lat="41.4331006" lon="12.8154325"><ele>3.0</ele><time>2026-04-07T10:26:59.28Z</time></trkpt><trkpt lat="41.4329956" lon="12.8154845"><ele>2.5</ele><time>2026-04-07T10:27:00.28Z</time></trkpt><trkpt lat="41.4328912" lon="12.8155216"><ele>2.0</ele><time>2026-04-07T10:27:01.28Z</time></trkpt><trkpt lat="41.4327891" lon="12.8155559"><ele>1.5</ele><time>2026-04-07T10:27:02.281Z</time></trkpt><trkpt lat="41.4326668" lon="12.8155855"><ele>1.0</ele><time>2026-04-07T10:27:03.28Z</time></trkpt><trkpt lat="41.4325537" lon="12.8156157"><ele>1.0</ele><time>2026-04-07T10:27:04.28Z</time></trkpt><trkpt lat="41.4324508" lon="12.8156311"><ele>1.0</ele><time>2026-04-07T10:27:05.28Z</time></trkpt><trkpt lat="41.4323396" lon="12.8156192"><ele>1.0</ele><time>2026-04-07T10:27:06.28Z</time></trkpt><trkpt lat="41.4322232" lon="12.8155963"><ele>1.0</ele><time>2026-04-07T10:27:07.28Z</time></trkpt><trkpt lat="41.4321111" lon="12.8155756"><ele>1.0</ele><time>2026-04-07T10:27:08.28Z</time></trkpt><trkpt lat="41.4319888" lon="12.8155563"><ele>1.0</ele><time>2026-04-07T10:27:09.281Z</time></trkpt><trkpt lat="41.4318813" lon="12.8155389"><ele>1.0</ele><time>2026-04-07T10:27:10.281Z</time></trkpt><trkpt lat="41.4317832" lon="12.8155232"><ele>1.0</ele><time>2026-04-07T10:27:11.28Z</time></trkpt><trkpt lat="41.4316943" lon="12.8154994"><ele>1.0</ele><time>2026-04-07T10:27:12.28Z</time></trkpt><trkpt lat="41.4316146" lon="12.815467"><ele>1.0</ele><time>2026-04-07T10:27:13.281Z</time></trkpt><trkpt lat="41.4315236" lon="12.815436"><ele>0.9999999999999999</ele><time>2026-04-07T10:27:14.281Z</time></trkpt><trkpt lat="41.431441" lon="12.8154046"><ele>1.0</ele><time>2026-04-07T10:27:15.28Z</time></trkpt><trkpt lat="41.4313636" lon="12.8153744"><ele>1.0</ele><time>2026-04-07T10:27:16.28Z</time></trkpt><trkpt lat="41.4312823" lon="12.815361"><ele>1.0</ele><time>2026-04-07T10:27:17.28Z</time></trkpt><trkpt lat="41.4312012" lon="12.8153721"><ele>0.9999999999999999</ele><time>2026-04-07T10:27:18.281Z</time></trkpt><trkpt lat="41.4311366" lon="12.8153866"><ele>1.0</ele><time>2026-04-07T10:27:19.28Z</time></trkpt><trkpt lat="41.4310571" lon="12.8153996"><ele>1.3333333333333333</ele><time>2026-04-07T10:27:20.281Z</time></trkpt><trkpt lat="41.4309925" lon="12.8153998"><ele>1.6666666666666665</ele><time>2026-04-07T10:27:21.28Z</time></trkpt><trkpt lat="41.4309187" lon="12.8153931"><ele>2.0</ele><time>2026-04-07T10:27:22.28Z</time></trkpt><trkpt lat="41.430855" lon="12.8153857"><ele>2.3333333333333335</ele><time>2026-04-07T10:27:23.281Z</time></trkpt><trkpt lat="41.4307887" lon="12.8153906"><ele>2.6666666666666665</ele><time>2026-04-07T10:27:24.28Z</time></trkpt><trkpt lat="41.4306736" lon="12.8153927"><ele>3.0</ele><time>2026-04-07T10:27:26.28Z</time></trkpt><trkpt lat="41.4305557" lon="12.8153758"><ele>3.0</ele><time>2026-04-07T10:27:28.28Z</time></trkpt><trkpt lat="41.4304332" lon="12.8153453"><ele>3.0</ele><time>2026-04-07T10:27:30.28Z</time></trkpt><trkpt lat="41.4303319" lon="12.8153403"><ele>3.0</ele><time>2026-04-07T10:27:32.28Z</time></trkpt><trkpt lat="41.4302507" lon="12.815314"><ele>3.0</ele><time>2026-04-07T10:27:33.28Z</time></trkpt><trkpt lat="41.4301843" lon="12.8152888"><ele>3.0</ele><time>2026-04-07T10:27:34.28Z</time></trkpt><trkpt lat="41.4301111" lon="12.8152608"><ele>3.0</ele><time>2026-04-07T10:27:35.28Z</time></trkpt><trkpt lat="41.4300189" lon="12.815157"><ele>3.0</ele><time>2026-04-07T10:27:37.28Z</time></trkpt><trkpt lat="41.4298889" lon="12.8150962"><ele>3.0</ele><time>2026-04-07T10:27:39.28Z</time></trkpt><trkpt lat="41.4298273" lon="12.8150519"><ele>3.0</ele><time>2026-04-07T10:27:40.28Z</time></trkpt><trkpt lat="41.4296883" lon="12.8149482"><ele>3.0</ele><time>2026-04-07T10:27:42.28Z</time></trkpt><trkpt lat="41.429613" lon="12.8149008"><ele>3.0</ele><time>2026-04-07T10:27:43.28Z</time></trkpt><trkpt lat="41.4295363" lon="12.8148526"><ele>3.0</ele><time>2026-04-07T10:27:44.28Z</time></trkpt><trkpt lat="41.4294644" lon="12.8148118"><ele>3.0</ele><time>2026-04-07T10:27:45.28Z</time></trkpt><trkpt lat="41.4293816" lon="12.8147596"><ele>3.0</ele><time>2026-04-07T10:27:46.28Z</time></trkpt><trkpt lat="41.4292993" lon="12.8147059"><ele>3.0</ele><time>2026-04-07T10:27:47.28Z</time></trkpt><trkpt lat="41.4292286" lon="12.8146564"><ele>3.0</ele><time>2026-04-07T10:27:48.281Z</time></trkpt><trkpt lat="41.4291494" lon="12.8146111"><ele>3.0</ele><time>2026-04-07T10:27:49.28Z</time></trkpt><trkpt lat="41.42907" lon="12.814571"><ele>3.0</ele><time>2026-04-07T10:27:50.281Z</time></trkpt><trkpt lat="41.4289897" lon="12.8145218"><ele>3.0</ele><time>2026-04-07T10:27:51.28Z</time></trkpt><trkpt lat="41.428908" lon="12.8144716"><ele>3.0</ele><time>2026-04-07T10:27:52.28Z</time></trkpt><trkpt lat="41.42882" lon="12.8144207"><ele>3.0</ele><time>2026-04-07T10:27:53.28Z</time></trkpt><trkpt lat="41.4287461" lon="12.8143735"><ele>3.0</ele><time>2026-04-07T10:27:54.28Z</time></trkpt><trkpt lat="41.4286684" lon="12.8143258"><ele>3.0</ele><time>2026-04-07T10:27:55.28Z</time></trkpt><trkpt lat="41.4285923" lon="12.8142753"><ele>3.0</ele><time>2026-04-07T10:27:56.281Z</time></trkpt><trkpt lat="41.4285137" lon="12.8142193"><ele>3.0</ele><time>2026-04-07T10:27:57.28Z</time></trkpt><trkpt lat="41.4284377" lon="12.8141495"><ele>3.0</ele><time>2026-04-07T10:27:58.281Z</time></trkpt><trkpt lat="41.4283685" lon="12.8141033"><ele>3.0</ele><time>2026-04-07T10:27:59.28Z</time></trkpt><trkpt lat="41.4283011" lon="12.8140545"><ele>3.0</ele><time>2026-04-07T10:28:00.28Z</time></trkpt><trkpt lat="41.4282345" lon="12.814012"><ele>3.0</ele><time>2026-04-07T10:28:01.28Z</time></trkpt><trkpt lat="41.4281813" lon="12.8139611"><ele>3.0</ele><time>2026-04-07T10:28:02.28Z</time></trkpt><trkpt lat="41.4281177" lon="12.813945"><ele>3.0</ele><time>2026-04-07T10:28:03.28Z</time></trkpt><trkpt lat="41.4280525" lon="12.8139183"><ele>3.0</ele><time>2026-04-07T10:28:04.28Z</time></trkpt><trkpt lat="41.4279821" lon="12.8138773"><ele>3.0</ele><time>2026-04-07T10:28:05.28Z</time></trkpt><trkpt lat="41.4278282" lon="12.8137734"><ele>3.1666666666666665</ele><time>2026-04-07T10:28:07.28Z</time></trkpt><trkpt lat="41.4277591" lon="12.8137151"><ele>3.333333333333333</ele><time>2026-04-07T10:28:08.28Z</time></trkpt><trkpt lat="41.4276877" lon="12.8136371"><ele>3.5</ele><time>2026-04-07T10:28:09.28Z</time></trkpt><trkpt lat="41.427614" lon="12.8135761"><ele>3.6666666666666665</ele><time>2026-04-07T10:28:10.281Z</time></trkpt><trkpt lat="41.4275395" lon="12.8135222"><ele>3.833333333333333</ele><time>2026-04-07T10:28:11.281Z</time></trkpt><trkpt lat="41.4274634" lon="12.8134562"><ele>4.0</ele><time>2026-04-07T10:28:12.28Z</time></trkpt><trkpt lat="41.4273872" lon="12.813397"><ele>4.0</ele><time>2026-04-07T10:28:13.281Z</time></trkpt><trkpt lat="41.4273088" lon="12.8133464"><ele>4.0</ele><time>2026-04-07T10:28:14.28Z</time></trkpt><trkpt lat="41.4271507" lon="12.8132372"><ele>4.0</ele><time>2026-04-07T10:28:16.28Z</time></trkpt><trkpt lat="41.4270776" lon="12.8131864"><ele>4.0</ele><time>2026-04-07T10:28:17.28Z</time></trkpt><trkpt lat="41.4270067" lon="12.813146"><ele>4.0</ele><time>2026-04-07T10:28:18.281Z</time></trkpt><trkpt lat="41.42693" lon="12.8131064"><ele>3.8000000000000003</ele><time>2026-04-07T10:28:19.28Z</time></trkpt><trkpt lat="41.4268482" lon="12.813059"><ele>3.6000000000000005</ele><time>2026-04-07T10:28:20.28Z</time></trkpt><trkpt lat="41.4267559" lon="12.8130193"><ele>3.4</ele><time>2026-04-07T10:28:21.28Z</time></trkpt><trkpt lat="41.4266612" lon="12.8129771"><ele>3.2</ele><time>2026-04-07T10:28:22.28Z</time></trkpt><trkpt lat="41.426562" lon="12.8129494"><ele>3.0</ele><time>2026-04-07T10:28:23.28Z</time></trkpt><trkpt lat="41.4264645" lon="12.8129216"><ele>3.0</ele><time>2026-04-07T10:28:24.28Z</time></trkpt><trkpt lat="41.4263618" lon="12.8129094"><ele>3.0</ele><time>2026-04-07T10:28:25.28Z</time></trkpt><trkpt lat="41.4262731" lon="12.8128911"><ele>3.0</ele><time>2026-04-07T10:28:26.28Z</time></trkpt><trkpt lat="41.4261796" lon="12.8128675"><ele>3.0</ele><time>2026-04-07T10:28:27.28Z</time></trkpt><trkpt lat="41.4260909" lon="12.8128451"><ele>3.0</ele><time>2026-04-07T10:28:28.28Z</time></trkpt><trkpt lat="41.425976" lon="12.812816"><ele>2.8</ele><time>2026-04-07T10:28:29.28Z</time></trkpt><trkpt lat="41.4258726" lon="12.8127933"><ele>2.5999999999999996</ele><time>2026-04-07T10:28:30.28Z</time></trkpt><trkpt lat="41.4257723" lon="12.8127874"><ele>2.4000000000000004</ele><time>2026-04-07T10:28:31.28Z</time></trkpt><trkpt lat="41.4256694" lon="12.8127779"><ele>2.2</ele><time>2026-04-07T10:28:32.28Z</time></trkpt><trkpt lat="41.4255568" lon="12.8127599"><ele>2.0</ele><time>2026-04-07T10:28:33.281Z</time></trkpt><trkpt lat="41.425466" lon="12.8127438"><ele>2.0</ele><time>2026-04-07T10:28:34.28Z</time></trkpt><trkpt lat="41.425363" lon="12.8127397"><ele>2.0</ele><time>2026-04-07T10:28:35.28Z</time></trkpt><trkpt lat="41.4252524" lon="12.8127365"><ele>2.0</ele><time>2026-04-07T10:28:36.28Z</time></trkpt><trkpt lat="41.4251408" lon="12.8127277"><ele>2.0</ele><time>2026-04-07T10:28:37.28Z</time></trkpt><trkpt lat="41.4250218" lon="12.8127271"><ele>2.0</ele><time>2026-04-07T10:28:38.28Z</time></trkpt><trkpt lat="41.4249122" lon="12.8127171"><ele>2.0</ele><time>2026-04-07T10:28:39.28Z</time></trkpt><trkpt lat="41.4248058" lon="12.8127098"><ele>2.0</ele><time>2026-04-07T10:28:40.28Z</time></trkpt><trkpt lat="41.4247107" lon="12.8127106"><ele>2.0</ele><time>2026-04-07T10:28:41.28Z</time></trkpt><trkpt lat="41.4246214" lon="12.8127055"><ele>2.0</ele><time>2026-04-07T10:28:42.28Z</time></trkpt><trkpt lat="41.4245281" lon="12.81271"><ele>2.0</ele><time>2026-04-07T10:28:43.28Z</time></trkpt><trkpt lat="41.4244368" lon="12.8127025"><ele>1.8</ele><time>2026-04-07T10:28:44.281Z</time></trkpt><trkpt lat="41.4243556" lon="12.812709"><ele>1.6</ele><time>2026-04-07T10:28:45.281Z</time></trkpt><trkpt lat="41.424198" lon="12.8127201"><ele>1.4000000000000001</ele><time>2026-04-07T10:28:47.28Z</time></trkpt><trkpt lat="41.4241195" lon="12.8127187"><ele>1.2000000000000002</ele><time>2026-04-07T10:28:48.28Z</time></trkpt><trkpt lat="41.4240204" lon="12.8126909"><ele>1.0</ele><time>2026-04-07T10:28:50.28Z</time></trkpt><trkpt lat="41.4239085" lon="12.8126955"><ele>1.0</ele><time>2026-04-07T10:28:52.28Z</time></trkpt><trkpt lat="41.4238261" lon="12.8126973"><ele>1.0</ele><time>2026-04-07T10:28:55.28Z</time></trkpt><trkpt lat="41.4238945" lon="12.8126749"><ele>1.0</ele><time>2026-04-07T10:29:16.28Z</time></trkpt><trkpt lat="41.4237917" lon="12.8126751"><ele>1.0</ele><time>2026-04-07T10:30:14.281Z</time></trkpt><trkpt lat="41.4236615" lon="12.8126521"><ele>1.0</ele><time>2026-04-07T10:30:16.28Z</time></trkpt><trkpt lat="41.4235839" lon="12.8126325"><ele>1.5</ele><time>2026-04-07T10:30:17.281Z</time></trkpt><trkpt lat="41.4235124" lon="12.8126337"><ele>2.0</ele><time>2026-04-07T10:30:18.28Z</time></trkpt><trkpt lat="41.423431" lon="12.8126271"><ele>2.5</ele><time>2026-04-07T10:30:19.28Z</time></trkpt><trkpt lat="41.4233498" lon="12.812623"><ele>3.0</ele><time>2026-04-07T10:30:20.28Z</time></trkpt><trkpt lat="41.4232709" lon="12.8126149"><ele>3.4999999999999996</ele><time>2026-04-07T10:30:21.281Z</time></trkpt><trkpt lat="41.4231866" lon="12.8126035"><ele>4.0</ele><time>2026-04-07T10:30:22.281Z</time></trkpt><trkpt lat="41.4231" lon="12.8126067"><ele>3.9999999999999996</ele><time>2026-04-07T10:30:23.28Z</time></trkpt><trkpt lat="41.4230111" lon="12.8126083"><ele>4.0</ele><time>2026-04-07T10:30:24.28Z</time></trkpt><trkpt lat="41.4229161" lon="12.8126083"><ele>4.0</ele><time>2026-04-07T10:30:25.281Z</time></trkpt><trkpt lat="41.4228294" lon="12.8126013"><ele>4.0</ele><time>2026-04-07T10:30:26.28Z</time></trkpt><trkpt lat="41.4227461" lon="12.8125956"><ele>3.9999999999999996</ele><time>2026-04-07T10:30:27.28Z</time></trkpt><trkpt lat="41.4226572" lon="12.8125863"><ele>4.0</ele><time>2026-04-07T10:30:28.28Z</time></trkpt><trkpt lat="41.4225703" lon="12.812583"><ele>4.0</ele><time>2026-04-07T10:30:29.28Z</time></trkpt><trkpt lat="41.4224829" lon="12.8125723"><ele>4.0</ele><time>2026-04-07T10:30:30.28Z</time></trkpt><trkpt lat="41.4223942" lon="12.8125716"><ele>4.0</ele><time>2026-04-07T10:30:31.28Z</time></trkpt><trkpt lat="41.4223034" lon="12.8125793"><ele>4.0</ele><time>2026-04-07T10:30:32.28Z</time></trkpt><trkpt lat="41.422212" lon="12.8125911"><ele>4.0</ele><time>2026-04-07T10:30:33.28Z</time></trkpt><trkpt lat="41.4220457" lon="12.8126174"><ele>4.0</ele><time>2026-04-07T10:30:35.28Z</time></trkpt><trkpt lat="41.4218726" lon="12.812586"><ele>4.0</ele><time>2026-04-07T10:30:37.28Z</time></trkpt><trkpt lat="41.4217954" lon="12.8125641"><ele>4.0</ele><time>2026-04-07T10:30:38.28Z</time></trkpt><trkpt lat="41.4217084" lon="12.8125537"><ele>4.0</ele><time>2026-04-07T10:30:39.28Z</time></trkpt><trkpt lat="41.4216208" lon="12.8125659"><ele>4.0</ele><time>2026-04-07T10:30:40.28Z</time></trkpt><trkpt lat="41.421521" lon="12.8125953"><ele>4.0</ele><time>2026-04-07T10:30:41.28Z</time></trkpt><trkpt lat="41.421435" lon="12.8126218"><ele>4.0</ele><time>2026-04-07T10:30:42.28Z</time></trkpt><trkpt lat="41.4213299" lon="12.8126484"><ele>4.0</ele><time>2026-04-07T10:30:43.28Z</time></trkpt><trkpt lat="41.4212239" lon="12.8126611"><ele>4.0</ele><time>2026-04-07T10:30:44.281Z</time></trkpt><trkpt lat="41.4211121" lon="12.8126606"><ele>4.0</ele><time>2026-04-07T10:30:45.281Z</time></trkpt><trkpt lat="41.4209946" lon="12.812649"><ele>4.666666666666666</ele><time>2026-04-07T10:30:46.28Z</time></trkpt><trkpt lat="41.4207619" lon="12.8126307"><ele>5.333333333333333</ele><time>2026-04-07T10:30:48.28Z</time></trkpt><trkpt lat="41.4206387" lon="12.8126168"><ele>6.0</ele><time>2026-04-07T10:30:49.28Z</time></trkpt><trkpt lat="41.4205157" lon="12.8126088"><ele>5.75</ele><time>2026-04-07T10:30:50.28Z</time></trkpt><trkpt lat="41.4204075" lon="12.8126067"><ele>5.5</ele><time>2026-04-07T10:30:51.28Z</time></trkpt><trkpt lat="41.4202914" lon="12.8126061"><ele>5.25</ele><time>2026-04-07T10:30:52.28Z</time></trkpt><trkpt lat="41.4201789" lon="12.8126082"><ele>5.0</ele><time>2026-04-07T10:30:53.28Z</time></trkpt><trkpt lat="41.4200618" lon="12.8126029"><ele>5.0</ele><time>2026-04-07T10:30:54.28Z</time></trkpt><trkpt lat="41.4199492" lon="12.8125967"><ele>5.0</ele><time>2026-04-07T10:30:55.28Z</time></trkpt><trkpt lat="41.4198395" lon="12.8125913"><ele>5.0</ele><time>2026-04-07T10:30:56.28Z</time></trkpt><trkpt lat="41.4197308" lon="12.8125835"><ele>5.0</ele><time>2026-04-07T10:30:57.281Z</time></trkpt><trkpt lat="41.4196321" lon="12.812582"><ele>5.0</ele><time>2026-04-07T10:30:58.28Z</time></trkpt><trkpt lat="41.4195347" lon="12.8125699"><ele>4.833333333333334</ele><time>2026-04-07T10:30:59.281Z</time></trkpt><trkpt lat="41.4194425" lon="12.8125671"><ele>4.666666666666667</ele><time>2026-04-07T10:31:00.28Z</time></trkpt><trkpt lat="41.41936" lon="12.8125652"><ele>4.5</ele><time>2026-04-07T10:31:01.28Z</time></trkpt><trkpt lat="41.4192859" lon="12.8125579"><ele>4.333333333333333</ele><time>2026-04-07T10:31:02.28Z</time></trkpt><trkpt lat="41.4192187" lon="12.8125455"><ele>4.166666666666666</ele><time>2026-04-07T10:31:03.28Z</time></trkpt><trkpt lat="41.419143" lon="12.8125312"><ele>4.0</ele><time>2026-04-07T10:31:04.28Z</time></trkpt><trkpt lat="41.4190709" lon="12.8125227"><ele>3.9999999999999996</ele><time>2026-04-07T10:31:05.28Z</time></trkpt><trkpt lat="41.4189995" lon="12.8125097"><ele>4.0</ele><time>2026-04-07T10:31:06.28Z</time></trkpt><trkpt lat="41.4189358" lon="12.8124963"><ele>4.0</ele><time>2026-04-07T10:31:07.28Z</time></trkpt><trkpt lat="41.4188736" lon="12.8124767"><ele>4.0</ele><time>2026-04-07T10:31:08.28Z</time></trkpt><trkpt lat="41.4187943" lon="12.8124595"><ele>3.9999999999999996</ele><time>2026-04-07T10:31:10.28Z</time></trkpt><trkpt lat="41.4187479" lon="12.8122976"><ele>4.0</ele><time>2026-04-07T10:31:13.28Z</time></trkpt><trkpt lat="41.4187067" lon="12.8121703"><ele>4.0</ele><time>2026-04-07T10:31:15.28Z</time></trkpt><trkpt lat="41.4186164" lon="12.8121466"><ele>4.0</ele><time>2026-04-07T10:31:17.28Z</time></trkpt><trkpt lat="41.4184704" lon="12.8121554"><ele>4.0</ele><time>2026-04-07T10:31:19.28Z</time></trkpt><trkpt lat="41.4184023" lon="12.8121595"><ele>4.0</ele><time>2026-04-07T10:31:20.281Z</time></trkpt><trkpt lat="41.4183224" lon="12.8121477"><ele>4.0</ele><time>2026-04-07T10:31:21.28Z</time></trkpt><trkpt lat="41.4182392" lon="12.81214"><ele>4.0</ele><time>2026-04-07T10:31:22.281Z</time></trkpt><trkpt lat="41.4181596" lon="12.8121408"><ele>4.0</ele><time>2026-04-07T10:31:23.281Z</time></trkpt><trkpt lat="41.418068" lon="12.8121346"><ele>4.0</ele><time>2026-04-07T10:31:24.28Z</time></trkpt><trkpt lat="41.4178796" lon="12.8121277"><ele>4.0</ele><time>2026-04-07T10:31:26.281Z</time></trkpt><trkpt lat="41.4177826" lon="12.8121206"><ele>4.0</ele><time>2026-04-07T10:31:27.28Z</time></trkpt><trkpt lat="41.4176876" lon="12.8121159"><ele>4.0</ele><time>2026-04-07T10:31:28.281Z</time></trkpt><trkpt lat="41.4175852" lon="12.812117"><ele>4.0</ele><time>2026-04-07T10:31:29.28Z</time></trkpt><trkpt lat="41.417488" lon="12.8121106"><ele>4.0</ele><time>2026-04-07T10:31:30.28Z</time></trkpt><trkpt lat="41.4173923" lon="12.8121078"><ele>4.0</ele><time>2026-04-07T10:31:31.28Z</time></trkpt><trkpt lat="41.4172996" lon="12.8121123"><ele>4.0</ele><time>2026-04-07T10:31:32.28Z</time></trkpt><trkpt lat="41.4172109" lon="12.8121056"><ele>4.0</ele><time>2026-04-07T10:31:33.28Z</time></trkpt><trkpt lat="41.4171242" lon="12.8121006"><ele>4.0</ele><time>2026-04-07T10:31:34.28Z</time></trkpt><trkpt lat="41.4170415" lon="12.8120946"><ele>4.0</ele><time>2026-04-07T10:31:35.28Z</time></trkpt><trkpt lat="41.4168598" lon="12.8120987"><ele>4.0</ele><time>2026-04-07T10:31:37.28Z</time></trkpt><trkpt lat="41.4167716" lon="12.8120982"><ele>3.6</ele><time>2026-04-07T10:31:38.28Z</time></trkpt><trkpt lat="41.4166968" lon="12.812086"><ele>3.2</ele><time>2026-04-07T10:31:39.281Z</time></trkpt><trkpt lat="41.4165988" lon="12.8120884"><ele>2.8000000000000003</ele><time>2026-04-07T10:31:40.281Z</time></trkpt><trkpt lat="41.4164439" lon="12.8120821"><ele>2.4000000000000004</ele><time>2026-04-07T10:31:42.28Z</time></trkpt><trkpt lat="41.4163603" lon="12.8120802"><ele>2.0</ele><time>2026-04-07T10:31:43.28Z</time></trkpt><trkpt lat="41.4162774" lon="12.8120851"><ele>1.9999999999999998</ele><time>2026-04-07T10:31:44.28Z</time></trkpt><trkpt lat="41.4162" lon="12.8120898"><ele>2.0</ele><time>2026-04-07T10:31:45.281Z</time></trkpt><trkpt lat="41.4161187" lon="12.8120802"><ele>2.0</ele><time>2026-04-07T10:31:46.28Z</time></trkpt><trkpt lat="41.4160353" lon="12.8120731"><ele>2.0</ele><time>2026-04-07T10:31:47.281Z</time></trkpt><trkpt lat="41.4159557" lon="12.8120671"><ele>1.9999999999999998</ele><time>2026-04-07T10:31:48.28Z</time></trkpt><trkpt lat="41.4158714" lon="12.8120552"><ele>2.0</ele><time>2026-04-07T10:31:49.28Z</time></trkpt><trkpt lat="41.4157992" lon="12.8120491"><ele>2.0</ele><time>2026-04-07T10:31:50.28Z</time></trkpt><trkpt lat="41.4157257" lon="12.81203"><ele>2.0</ele><time>2026-04-07T10:31:51.281Z</time></trkpt><trkpt lat="41.4156078" lon="12.8119897"><ele>2.0</ele><time>2026-04-07T10:31:53.28Z</time></trkpt><trkpt lat="41.4155408" lon="12.8118876"><ele>2.0</ele><time>2026-04-07T10:31:55.28Z</time></trkpt><trkpt lat="41.4155264" lon="12.8117038"><ele>2.0</ele><time>2026-04-07T10:31:57.28Z</time></trkpt><trkpt lat="41.4155345" lon="12.8115987"><ele>2.75</ele><time>2026-04-07T10:31:58.281Z</time></trkpt><trkpt lat="41.4155243" lon="12.81149"><ele>3.5</ele><time>2026-04-07T10:31:59.281Z</time></trkpt><trkpt lat="41.4155215" lon="12.8113652"><ele>4.25</ele><time>2026-04-07T10:32:00.28Z</time></trkpt><trkpt lat="41.4155351" lon="12.8112109"><ele>5.0</ele><time>2026-04-07T10:32:01.28Z</time></trkpt><trkpt lat="41.4155674" lon="12.8109868"><ele>5.0</ele><time>2026-04-07T10:32:02.28Z</time></trkpt><trkpt lat="41.415594" lon="12.8105369"><ele>5.0</ele><time>2026-04-07T10:32:04.28Z</time></trkpt><trkpt lat="41.4156279" lon="12.8099911"><ele>5.0</ele><time>2026-04-07T10:32:06.28Z</time></trkpt><trkpt lat="41.4156484" lon="12.8097406"><ele>5.0</ele><time>2026-04-07T10:32:07.28Z</time></trkpt><trkpt lat="41.4156565" lon="12.8094876"><ele>5.0</ele><time>2026-04-07T10:32:08.281Z</time></trkpt><trkpt lat="41.4156634" lon="12.8092386"><ele>4.5</ele><time>2026-04-07T10:32:09.281Z</time></trkpt><trkpt lat="41.4156716" lon="12.8090031"><ele>4.0</ele><time>2026-04-07T10:32:10.28Z</time></trkpt><trkpt lat="41.4156899" lon="12.8085292"><ele>4.0</ele><time>2026-04-07T10:32:12.28Z</time></trkpt><trkpt lat="41.4157017" lon="12.8082951"><ele>4.0</ele><time>2026-04-07T10:32:13.28Z</time></trkpt><trkpt lat="41.4157151" lon="12.8080557"><ele>4.0</ele><time>2026-04-07T10:32:14.281Z</time></trkpt><trkpt lat="41.4157268" lon="12.8078283"><ele>4.0</ele><time>2026-04-07T10:32:15.281Z</time></trkpt><trkpt lat="41.4157374" lon="12.8076114"><ele>4.0</ele><time>2026-04-07T10:32:16.28Z</time></trkpt><trkpt lat="41.4157513" lon="12.8073905"><ele>4.0</ele><time>2026-04-07T10:32:17.28Z</time></trkpt><trkpt lat="41.4157732" lon="12.8071752"><ele>4.0</ele><time>2026-04-07T10:32:18.281Z</time></trkpt><trkpt lat="41.4157949" lon="12.8069813"><ele>4.0</ele><time>2026-04-07T10:32:19.28Z</time></trkpt><trkpt lat="41.4158301" lon="12.8067913"><ele>4.0</ele><time>2026-04-07T10:32:20.28Z</time></trkpt><trkpt lat="41.4158639" lon="12.8065975"><ele>4.0</ele><time>2026-04-07T10:32:21.281Z</time></trkpt><trkpt lat="41.4158977" lon="12.8063987"><ele>3.333333333333333</ele><time>2026-04-07T10:32:22.28Z</time></trkpt><trkpt lat="41.4159525" lon="12.8061991"><ele>2.6666666666666665</ele><time>2026-04-07T10:32:23.28Z</time></trkpt><trkpt lat="41.4160068" lon="12.8059946"><ele>2.0</ele><time>2026-04-07T10:32:24.28Z</time></trkpt><trkpt lat="41.4160685" lon="12.8057915"><ele>1.6666666666666665</ele><time>2026-04-07T10:32:25.28Z</time></trkpt><trkpt lat="41.4161324" lon="12.8056013"><ele>1.3333333333333333</ele><time>2026-04-07T10:32:26.28Z</time></trkpt><trkpt lat="41.4161916" lon="12.8054102"><ele>1.0</ele><time>2026-04-07T10:32:27.28Z</time></trkpt><trkpt lat="41.4162506" lon="12.805215"><ele>1.3333333333333333</ele><time>2026-04-07T10:32:28.28Z</time></trkpt><trkpt lat="41.4163092" lon="12.8050148"><ele>1.6666666666666665</ele><time>2026-04-07T10:32:29.28Z</time></trkpt><trkpt lat="41.4163661" lon="12.8048202"><ele>2.0</ele><time>2026-04-07T10:32:30.28Z</time></trkpt><trkpt lat="41.4164189" lon="12.8046182"><ele>1.3333333333333333</ele><time>2026-04-07T10:32:31.28Z</time></trkpt><trkpt lat="41.4164794" lon="12.8044257"><ele>0.6666666666666666</ele><time>2026-04-07T10:32:32.281Z</time></trkpt><trkpt lat="41.416537" lon="12.8042338"><ele>0.0</ele><time>2026-04-07T10:32:33.28Z</time></trkpt><trkpt lat="41.4165798" lon="12.8040552"><ele>0.0</ele><time>2026-04-07T10:32:34.28Z</time></trkpt><trkpt lat="41.4166454" lon="12.8038478"><ele>0.0</ele><time>2026-04-07T10:32:35.28Z</time></trkpt><trkpt lat="41.4166984" lon="12.8036669"><ele>0.0</ele><time>2026-04-07T10:32:36.28Z</time></trkpt><trkpt lat="41.4167466" lon="12.8034789"><ele>0.3333333333333333</ele><time>2026-04-07T10:32:37.28Z</time></trkpt><trkpt lat="41.4167924" lon="12.8033196"><ele>0.6666666666666666</ele><time>2026-04-07T10:32:38.28Z</time></trkpt><trkpt lat="41.4168419" lon="12.8031423"><ele>1.0</ele><time>2026-04-07T10:32:39.28Z</time></trkpt><trkpt lat="41.4169414" lon="12.8028414"><ele>1.0</ele><time>2026-04-07T10:32:41.28Z</time></trkpt><trkpt lat="41.4169962" lon="12.8027076"><ele>1.0</ele><time>2026-04-07T10:32:42.28Z</time></trkpt><trkpt lat="41.4170556" lon="12.80259"><ele>1.0</ele><time>2026-04-07T10:32:43.281Z</time></trkpt><trkpt lat="41.4171233" lon="12.8024812"><ele>1.0</ele><time>2026-04-07T10:32:44.281Z</time></trkpt><trkpt lat="41.4171953" lon="12.8023927"><ele>1.0</ele><time>2026-04-07T10:32:45.28Z</time></trkpt><trkpt lat="41.4172676" lon="12.8023047"><ele>1.0</ele><time>2026-04-07T10:32:46.281Z</time></trkpt><trkpt lat="41.4173483" lon="12.8022227"><ele>1.0</ele><time>2026-04-07T10:32:47.281Z</time></trkpt><trkpt lat="41.4174247" lon="12.8021426"><ele>1.0</ele><time>2026-04-07T10:32:48.281Z</time></trkpt><trkpt lat="41.4175004" lon="12.8020688"><ele>1.0</ele><time>2026-04-07T10:32:49.28Z</time></trkpt><trkpt lat="41.4175594" lon="12.8019876"><ele>1.0</ele><time>2026-04-07T10:32:50.28Z</time></trkpt><trkpt lat="41.417615" lon="12.8018985"><ele>0.9999999999999999</ele><time>2026-04-07T10:32:51.28Z</time></trkpt><trkpt lat="41.4176549" lon="12.801808"><ele>1.0</ele><time>2026-04-07T10:32:52.28Z</time></trkpt><trkpt lat="41.4176935" lon="12.8017051"><ele>1.0</ele><time>2026-04-07T10:32:53.28Z</time></trkpt><trkpt lat="41.4177129" lon="12.8015922"><ele>1.0</ele><time>2026-04-07T10:32:54.28Z</time></trkpt><trkpt lat="41.41773" lon="12.8014795"><ele>0.9999999999999999</ele><time>2026-04-07T10:32:55.281Z</time></trkpt><trkpt lat="41.4177465" lon="12.8013704"><ele>1.0</ele><time>2026-04-07T10:32:56.28Z</time></trkpt><trkpt lat="41.417764" lon="12.8012463"><ele>1.0</ele><time>2026-04-07T10:32:57.28Z</time></trkpt><trkpt lat="41.4177749" lon="12.8011243"><ele>1.0</ele><time>2026-04-07T10:32:58.281Z</time></trkpt><trkpt lat="41.417801" lon="12.8008947"><ele>1.0</ele><time>2026-04-07T10:33:00.28Z</time></trkpt><trkpt lat="41.4178179" lon="12.8007727"><ele>1.0</ele><time>2026-04-07T10:33:01.28Z</time></trkpt><trkpt lat="41.417821" lon="12.80066"><ele>1.0</ele><time>2026-04-07T10:33:02.28Z</time></trkpt><trkpt lat="41.4178305" lon="12.800539"><ele>0.9999999999999999</ele><time>2026-04-07T10:33:03.281Z</time></trkpt><trkpt lat="41.4178349" lon="12.8004216"><ele>1.0</ele><time>2026-04-07T10:33:04.281Z</time></trkpt><trkpt lat="41.4178399" lon="12.8002993"><ele>1.0</ele><time>2026-04-07T10:33:05.281Z</time></trkpt><trkpt lat="41.4178485" lon="12.8001812"><ele>1.0</ele><time>2026-04-07T10:33:06.28Z</time></trkpt><trkpt lat="41.4178582" lon="12.800062"><ele>0.9999999999999999</ele><time>2026-04-07T10:33:07.28Z</time></trkpt><trkpt lat="41.4178681" lon="12.7999622"><ele>1.0</ele><time>2026-04-07T10:33:08.28Z</time></trkpt><trkpt lat="41.4178775" lon="12.7998316"><ele>1.0</ele><time>2026-04-07T10:33:09.28Z</time></trkpt><trkpt lat="41.4178841" lon="12.7997054"><ele>1.0</ele><time>2026-04-07T10:33:10.28Z</time></trkpt><trkpt lat="41.4178968" lon="12.7995576"><ele>1.0</ele><time>2026-04-07T10:33:11.28Z</time></trkpt><trkpt lat="41.4179188" lon="12.7994163"><ele>1.0</ele><time>2026-04-07T10:33:12.28Z</time></trkpt><trkpt lat="41.4179419" lon="12.7992705"><ele>1.0</ele><time>2026-04-07T10:33:13.28Z</time></trkpt><trkpt lat="41.4179765" lon="12.7991383"><ele>1.0</ele><time>2026-04-07T10:33:14.28Z</time></trkpt><trkpt lat="41.4180109" lon="12.7990025"><ele>1.0</ele><time>2026-04-07T10:33:15.28Z</time></trkpt><trkpt lat="41.4180371" lon="12.7988583"><ele>1.0</ele><time>2026-04-07T10:33:16.281Z</time></trkpt><trkpt lat="41.4180696" lon="12.7987124"><ele>1.0</ele><time>2026-04-07T10:33:17.28Z</time></trkpt><trkpt lat="41.4181032" lon="12.7985616"><ele>1.0</ele><time>2026-04-07T10:33:18.28Z</time></trkpt><trkpt lat="41.4181401" lon="12.7984186"><ele>1.0</ele><time>2026-04-07T10:33:19.28Z</time></trkpt><trkpt lat="41.4181725" lon="12.7982711"><ele>1.0</ele><time>2026-04-07T10:33:20.28Z</time></trkpt><trkpt lat="41.4182074" lon="12.7981289"><ele>1.0</ele><time>2026-04-07T10:33:21.281Z</time></trkpt><trkpt lat="41.4182359" lon="12.7979852"><ele>1.0</ele><time>2026-04-07T10:33:22.28Z</time></trkpt><trkpt lat="41.418267" lon="12.7978415"><ele>1.0</ele><time>2026-04-07T10:33:23.28Z</time></trkpt><trkpt lat="41.4183344" lon="12.7975481"><ele>1.0</ele><time>2026-04-07T10:33:25.28Z</time></trkpt><trkpt lat="41.4183654" lon="12.7974053"><ele>1.0</ele><time>2026-04-07T10:33:26.28Z</time></trkpt><trkpt lat="41.4184027" lon="12.7972558"><ele>1.0</ele><time>2026-04-07T10:33:27.28Z</time></trkpt><trkpt lat="41.4184354" lon="12.7971114"><ele>1.0</ele><time>2026-04-07T10:33:28.28Z</time></trkpt><trkpt lat="41.4184677" lon="12.7969687"><ele>1.0</ele><time>2026-04-07T10:33:29.28Z</time></trkpt><trkpt lat="41.4185006" lon="12.7968264"><ele>1.0</ele><time>2026-04-07T10:33:30.28Z</time></trkpt><trkpt lat="41.4185367" lon="12.7966882"><ele>1.0</ele><time>2026-04-07T10:33:31.28Z</time></trkpt><trkpt lat="41.4185681" lon="12.7965523"><ele>1.0</ele><time>2026-04-07T10:33:32.28Z</time></trkpt><trkpt lat="41.4186295" lon="12.7962619"><ele>1.0</ele><time>2026-04-07T10:33:34.28Z</time></trkpt><trkpt lat="41.4186628" lon="12.796118"><ele>1.25</ele><time>2026-04-07T10:33:35.281Z</time></trkpt><trkpt lat="41.4186931" lon="12.7959533"><ele>1.5</ele><time>2026-04-07T10:33:36.28Z</time></trkpt><trkpt lat="41.4187278" lon="12.7958099"><ele>1.75</ele><time>2026-04-07T10:33:37.28Z</time></trkpt><trkpt lat="41.4187638" lon="12.7956445"><ele>2.0</ele><time>2026-04-07T10:33:38.28Z</time></trkpt><trkpt lat="41.4188001" lon="12.7954827"><ele>1.75</ele><time>2026-04-07T10:33:39.28Z</time></trkpt><trkpt lat="41.4188404" lon="12.7953209"><ele>1.5</ele><time>2026-04-07T10:33:40.28Z</time></trkpt><trkpt lat="41.4188799" lon="12.7951536"><ele>1.25</ele><time>2026-04-07T10:33:41.28Z</time></trkpt><trkpt lat="41.418916" lon="12.7949819"><ele>1.0</ele><time>2026-04-07T10:33:42.281Z</time></trkpt><trkpt lat="41.4189575" lon="12.7948068"><ele>0.75</ele><time>2026-04-07T10:33:43.28Z</time></trkpt><trkpt lat="41.4189938" lon="12.794621"><ele>0.5</ele><time>2026-04-07T10:33:44.28Z</time></trkpt><trkpt lat="41.4190336" lon="12.7944395"><ele>0.25</ele><time>2026-04-07T10:33:45.28Z</time></trkpt><trkpt lat="41.4190748" lon="12.7942692"><ele>0.0</ele><time>2026-04-07T10:33:46.28Z</time></trkpt><trkpt lat="41.4191151" lon="12.7941073"><ele>0.25</ele><time>2026-04-07T10:33:47.28Z</time></trkpt><trkpt lat="41.4191525" lon="12.7939485"><ele>0.5</ele><time>2026-04-07T10:33:48.28Z</time></trkpt><trkpt lat="41.4191941" lon="12.7937562"><ele>0.75</ele><time>2026-04-07T10:33:49.28Z</time></trkpt><trkpt lat="41.4192221" lon="12.7935784"><ele>1.0</ele><time>2026-04-07T10:33:50.28Z</time></trkpt><trkpt lat="41.4192509" lon="12.7934046"><ele>1.0</ele><time>2026-04-07T10:33:51.28Z</time></trkpt><trkpt lat="41.4192829" lon="12.7932237"><ele>1.0</ele><time>2026-04-07T10:33:52.28Z</time></trkpt><trkpt lat="41.4192975" lon="12.7930418"><ele>1.0</ele><time>2026-04-07T10:33:53.281Z</time></trkpt><trkpt lat="41.4193281" lon="12.7928591"><ele>1.0</ele><time>2026-04-07T10:33:54.28Z</time></trkpt><trkpt lat="41.4193544" lon="12.7926795"><ele>1.0</ele><time>2026-04-07T10:33:55.28Z</time></trkpt><trkpt lat="41.4193795" lon="12.7925021"><ele>1.0</ele><time>2026-04-07T10:33:56.28Z</time></trkpt><trkpt lat="41.4194081" lon="12.7923271"><ele>1.0</ele><time>2026-04-07T10:33:57.28Z</time></trkpt><trkpt lat="41.419439" lon="12.7921442"><ele>1.0</ele><time>2026-04-07T10:33:58.28Z</time></trkpt><trkpt lat="41.4194659" lon="12.7919503"><ele>0.3333333333333333</ele><time>2026-04-07T10:33:59.281Z</time></trkpt><trkpt lat="41.4194938" lon="12.7917549"><ele>-0.3333333333333333</ele><time>2026-04-07T10:34:00.281Z</time></trkpt><trkpt lat="41.4195195" lon="12.7915569"><ele>-1.0</ele><time>2026-04-07T10:34:01.28Z</time></trkpt><trkpt lat="41.4195477" lon="12.7913472"><ele>-1.0</ele><time>2026-04-07T10:34:02.28Z</time></trkpt><trkpt lat="41.4195721" lon="12.7911419"><ele>-1.0</ele><time>2026-04-07T10:34:03.28Z</time></trkpt><trkpt lat="41.4195935" lon="12.790936"><ele>-1.0</ele><time>2026-04-07T10:34:04.281Z</time></trkpt><trkpt lat="41.4196194" lon="12.7907297"><ele>-0.3333333333333333</ele><time>2026-04-07T10:34:05.28Z</time></trkpt><trkpt lat="41.4196387" lon="12.7905257"><ele>0.3333333333333333</ele><time>2026-04-07T10:34:06.281Z</time></trkpt><trkpt lat="41.4196542" lon="12.790319"><ele>1.0</ele><time>2026-04-07T10:34:07.281Z</time></trkpt><trkpt lat="41.4196681" lon="12.7901179"><ele>1.0</ele><time>2026-04-07T10:34:08.28Z</time></trkpt><trkpt lat="41.4196824" lon="12.7899234"><ele>1.0</ele><time>2026-04-07T10:34:09.28Z</time></trkpt><trkpt lat="41.4196981" lon="12.7897196"><ele>1.0</ele><time>2026-04-07T10:34:10.281Z</time></trkpt><trkpt lat="41.4197163" lon="12.7895124"><ele>1.0</ele><time>2026-04-07T10:34:11.28Z</time></trkpt><trkpt lat="41.419729" lon="12.7893244"><ele>1.0</ele><time>2026-04-07T10:34:12.28Z</time></trkpt><trkpt lat="41.4197427" lon="12.7891317"><ele>1.0</ele><time>2026-04-07T10:34:13.28Z</time></trkpt><trkpt lat="41.4197576" lon="12.7889402"><ele>1.0</ele><time>2026-04-07T10:34:14.28Z</time></trkpt><trkpt lat="41.4197718" lon="12.7887426"><ele>1.0</ele><time>2026-04-07T10:34:15.281Z</time></trkpt><trkpt lat="41.4197827" lon="12.7885497"><ele>1.0</ele><time>2026-04-07T10:34:16.281Z</time></trkpt><trkpt lat="41.419798" lon="12.7883534"><ele>1.0</ele><time>2026-04-07T10:34:17.28Z</time></trkpt><trkpt lat="41.4198088" lon="12.7881665"><ele>1.0</ele><time>2026-04-07T10:34:18.28Z</time></trkpt><trkpt lat="41.4198215" lon="12.7879865"><ele>1.0</ele><time>2026-04-07T10:34:19.28Z</time></trkpt><trkpt lat="41.41984" lon="12.7877971"><ele>1.0</ele><time>2026-04-07T10:34:20.28Z</time></trkpt><trkpt lat="41.4198584" lon="12.7876215"><ele>1.0</ele><time>2026-04-07T10:34:21.28Z</time></trkpt><trkpt lat="41.4198763" lon="12.7874368"><ele>1.0</ele><time>2026-04-07T10:34:22.28Z</time></trkpt><trkpt lat="41.4198904" lon="12.7872707"><ele>0.75</ele><time>2026-04-07T10:34:23.28Z</time></trkpt><trkpt lat="41.4199091" lon="12.7871005"><ele>0.5</ele><time>2026-04-07T10:34:24.28Z</time></trkpt><trkpt lat="41.4199211" lon="12.7869446"><ele>0.25</ele><time>2026-04-07T10:34:25.281Z</time></trkpt><trkpt lat="41.4199352" lon="12.7867895"><ele>0.0</ele><time>2026-04-07T10:34:26.281Z</time></trkpt><trkpt lat="41.4199525" lon="12.7866304"><ele>0.0</ele><time>2026-04-07T10:34:27.281Z</time></trkpt><trkpt lat="41.4199617" lon="12.7864837"><ele>0.0</ele><time>2026-04-07T10:34:28.28Z</time></trkpt><trkpt lat="41.4199728" lon="12.7863512"><ele>0.0</ele><time>2026-04-07T10:34:29.28Z</time></trkpt><trkpt lat="41.4199835" lon="12.7862341"><ele>0.0</ele><time>2026-04-07T10:34:30.28Z</time></trkpt><trkpt lat="41.4199924" lon="12.7861393"><ele>0.0</ele><time>2026-04-07T10:34:31.281Z</time></trkpt><trkpt lat="41.4200307" lon="12.7860144"><ele>0.0</ele><time>2026-04-07T10:34:33.28Z</time></trkpt><trkpt lat="41.4201006" lon="12.7859825"><ele>0.0</ele><time>2026-04-07T10:34:42.281Z</time></trkpt><trkpt lat="41.4201722" lon="12.7860161"><ele>0.0</ele><time>2026-04-07T10:34:45.28Z</time></trkpt><trkpt lat="41.4202538" lon="12.7860902"><ele>0.0</ele><time>2026-04-07T10:34:46.281Z</time></trkpt><trkpt lat="41.4203315" lon="12.7860947"><ele>0.0</ele><time>2026-04-07T10:34:47.28Z</time></trkpt><trkpt lat="41.4204493" lon="12.7861424"><ele>0.0</ele><time>2026-04-07T10:34:49.28Z</time></trkpt><trkpt lat="41.4205111" lon="12.7861656"><ele>0.3333333333333333</ele><time>2026-04-07T10:34:50.281Z</time></trkpt><trkpt lat="41.4205713" lon="12.7861942"><ele>0.6666666666666666</ele><time>2026-04-07T10:34:51.28Z</time></trkpt><trkpt lat="41.4206817" lon="12.7862199"><ele>1.0</ele><time>2026-04-07T10:34:53.28Z</time></trkpt><trkpt lat="41.420752" lon="12.7862178"><ele>1.3333333333333333</ele><time>2026-04-07T10:34:54.28Z</time></trkpt><trkpt lat="41.4208211" lon="12.7862224"><ele>1.6666666666666665</ele><time>2026-04-07T10:34:55.28Z</time></trkpt><trkpt lat="41.4209001" lon="12.786284"><ele>2.0</ele><time>2026-04-07T10:34:56.281Z</time></trkpt><trkpt lat="41.4209762" lon="12.786321"><ele>1.9999999999999998</ele><time>2026-04-07T10:34:57.28Z</time></trkpt><trkpt lat="41.4210569" lon="12.7863489"><ele>2.0</ele><time>2026-04-07T10:34:58.28Z</time></trkpt><trkpt lat="41.4211288" lon="12.7863706"><ele>2.0</ele><time>2026-04-07T10:34:59.28Z</time></trkpt><trkpt lat="41.4212064" lon="12.7864069"><ele>2.0</ele><time>2026-04-07T10:35:00.28Z</time></trkpt><trkpt lat="41.4212735" lon="12.7864203"><ele>1.9999999999999998</ele><time>2026-04-07T10:35:01.28Z</time></trkpt><trkpt lat="41.4214094" lon="12.7864458"><ele>2.0</ele><time>2026-04-07T10:35:03.281Z</time></trkpt><trkpt lat="41.4214858" lon="12.7864668"><ele>1.8333333333333333</ele><time>2026-04-07T10:35:04.28Z</time></trkpt><trkpt lat="41.4215763" lon="12.7865202"><ele>1.6666666666666665</ele><time>2026-04-07T10:35:05.28Z</time></trkpt><trkpt lat="41.4216569" lon="12.7865569"><ele>1.5</ele><time>2026-04-07T10:35:06.28Z</time></trkpt><trkpt lat="41.4217389" lon="12.786589"><ele>1.3333333333333333</ele><time>2026-04-07T10:35:07.28Z</time></trkpt><trkpt lat="41.421817" lon="12.7866191"><ele>1.1666666666666665</ele><time>2026-04-07T10:35:08.28Z</time></trkpt><trkpt lat="41.4218988" lon="12.78664"><ele>1.0</ele><time>2026-04-07T10:35:09.28Z</time></trkpt><trkpt lat="41.4219784" lon="12.7866625"><ele>0.9999999999999999</ele><time>2026-04-07T10:35:10.28Z</time></trkpt><trkpt lat="41.4220663" lon="12.7866965"><ele>1.0</ele><time>2026-04-07T10:35:11.28Z</time></trkpt><trkpt lat="41.4221502" lon="12.7867229"><ele>1.0</ele><time>2026-04-07T10:35:12.28Z</time></trkpt><trkpt lat="41.4222305" lon="12.7867447"><ele>1.0</ele><time>2026-04-07T10:35:13.28Z</time></trkpt><trkpt lat="41.4223117" lon="12.7867675"><ele>0.9999999999999999</ele><time>2026-04-07T10:35:14.28Z</time></trkpt><trkpt lat="41.422393" lon="12.7868048"><ele>1.0</ele><time>2026-04-07T10:35:15.28Z</time></trkpt><trkpt lat="41.4224792" lon="12.7868418"><ele>0.8</ele><time>2026-04-07T10:35:16.28Z</time></trkpt><trkpt lat="41.4225626" lon="12.7868741"><ele>0.6000000000000001</ele><time>2026-04-07T10:35:17.28Z</time></trkpt><trkpt lat="41.4226522" lon="12.7868961"><ele>0.4</ele><time>2026-04-07T10:35:18.281Z</time></trkpt><trkpt lat="41.4227424" lon="12.786934"><ele>0.2</ele><time>2026-04-07T10:35:19.28Z</time></trkpt><trkpt lat="41.4228361" lon="12.7869604"><ele>0.0</ele><time>2026-04-07T10:35:20.28Z</time></trkpt><trkpt lat="41.4229242" lon="12.7869874"><ele>0.16666666666666666</ele><time>2026-04-07T10:35:21.28Z</time></trkpt><trkpt lat="41.4230225" lon="12.7870143"><ele>0.3333333333333333</ele><time>2026-04-07T10:35:22.28Z</time></trkpt><trkpt lat="41.4231109" lon="12.7870412"><ele>0.5</ele><time>2026-04-07T10:35:23.28Z</time></trkpt><trkpt lat="41.4231977" lon="12.7870723"><ele>0.6666666666666666</ele><time>2026-04-07T10:35:24.281Z</time></trkpt><trkpt lat="41.4232794" lon="12.7870993"><ele>0.8333333333333333</ele><time>2026-04-07T10:35:25.281Z</time></trkpt><trkpt lat="41.4233489" lon="12.78713"><ele>1.0</ele><time>2026-04-07T10:35:26.281Z</time></trkpt><trkpt lat="41.4234153" lon="12.7871536"><ele>0.9999999999999999</ele><time>2026-04-07T10:35:27.28Z</time></trkpt><trkpt lat="41.4235286" lon="12.7871868"><ele>1.0</ele><time>2026-04-07T10:35:29.28Z</time></trkpt><trkpt lat="41.4236089" lon="12.7872056"><ele>1.0</ele><time>2026-04-07T10:35:31.28Z</time></trkpt><trkpt lat="41.4236672" lon="12.7872385"><ele>1.0</ele><time>2026-04-07T10:35:34.28Z</time></trkpt><trkpt lat="41.4237214" lon="12.7872913"><ele>0.9999999999999999</ele><time>2026-04-07T10:35:57.28Z</time></trkpt><trkpt lat="41.4237752" lon="12.7873542"><ele>1.0</ele><time>2026-04-07T10:36:00.28Z</time></trkpt><trkpt lat="41.4237757" lon="12.7874635"><ele>1.0</ele><time>2026-04-07T10:36:03.28Z</time></trkpt><trkpt lat="41.4237122" lon="12.7875057"><ele>1.0</ele><time>2026-04-07T10:36:06.28Z</time></trkpt><trkpt lat="41.4237084" lon="12.7874201"><ele>1.0</ele><time>2026-04-07T10:36:32.281Z</time></trkpt><trkpt lat="41.423776" lon="12.7873908"><ele>1.0</ele><time>2026-04-07T10:36:40.281Z</time></trkpt></trkseg></trk></gpx>